<?xml version="1.0" encoding="UTF-8" standalone="no"?>
<gpx xmlns="http://www.topografix.com/GPX/1/1" creator="GaiaGPS" version="1.1" xmlns:xsi="http://www.w3.org/2001/XMLSchema-instance" xsi:schemaLocation="http://www.topografix.com/GPX/1/1 http://www.topografix.com/GPX/1/1/gpx.xsd">
  <metadata>
    <time>2023-11-04T02:54:40Z</time>
  </metadata>
  <trk>
    <name> Sat full ride sawang 23</name>
    <trkseg>
      <trkpt lat="13.256866" lon="99.787892">
        <ele>51.6</ele>
        <time>2023-11-04T02:54:41Z</time>
      </trkpt>
      <trkpt lat="13.256867" lon="99.787920">
        <ele>48.0</ele>
        <time>2023-11-04T02:54:51Z</time>
      </trkpt>
      <trkpt lat="13.256902" lon="99.787907">
        <ele>51.0</ele>
        <time>2023-11-04T02:55:01Z</time>
      </trkpt>
      <trkpt lat="13.256919" lon="99.787876">
        <ele>48.0</ele>
        <time>2023-11-04T02:55:04Z</time>
      </trkpt>
      <trkpt lat="13.256902" lon="99.787840">
        <ele>50.0</ele>
        <time>2023-11-04T02:55:06Z</time>
      </trkpt>
      <trkpt lat="13.256766" lon="99.787694">
        <ele>51.0</ele>
        <time>2023-11-04T02:55:13Z</time>
      </trkpt>
      <trkpt lat="13.256649" lon="99.787637">
        <ele>52.1</ele>
        <time>2023-11-04T02:55:18Z</time>
      </trkpt>
      <trkpt lat="13.256620" lon="99.787613">
        <ele>52.0</ele>
        <time>2023-11-04T02:55:19Z</time>
      </trkpt>
      <trkpt lat="13.256554" lon="99.787521">
        <ele>50.0</ele>
        <time>2023-11-04T02:55:23Z</time>
      </trkpt>
      <trkpt lat="13.256542" lon="99.787468">
        <ele>50.0</ele>
        <time>2023-11-04T02:55:25Z</time>
      </trkpt>
      <trkpt lat="13.256558" lon="99.787419">
        <ele>51.4</ele>
        <time>2023-11-04T02:55:27Z</time>
      </trkpt>
      <trkpt lat="13.256635" lon="99.787324">
        <ele>52.3</ele>
        <time>2023-11-04T02:55:31Z</time>
      </trkpt>
      <trkpt lat="13.256686" lon="99.787235">
        <ele>51.5</ele>
        <time>2023-11-04T02:55:34Z</time>
      </trkpt>
      <trkpt lat="13.256760" lon="99.787151">
        <ele>50.7</ele>
        <time>2023-11-04T02:55:37Z</time>
      </trkpt>
      <trkpt lat="13.256961" lon="99.786973">
        <ele>50.2</ele>
        <time>2023-11-04T02:55:45Z</time>
      </trkpt>
      <trkpt lat="13.257078" lon="99.786892">
        <ele>49.7</ele>
        <time>2023-11-04T02:55:49Z</time>
      </trkpt>
      <trkpt lat="13.257357" lon="99.786750">
        <ele>48.2</ele>
        <time>2023-11-04T02:55:58Z</time>
      </trkpt>
      <trkpt lat="13.257511" lon="99.786644">
        <ele>47.8</ele>
        <time>2023-11-04T02:56:02Z</time>
      </trkpt>
      <trkpt lat="13.257623" lon="99.786541">
        <ele>47.8</ele>
        <time>2023-11-04T02:56:06Z</time>
      </trkpt>
      <trkpt lat="13.257664" lon="99.786485">
        <ele>47.9</ele>
        <time>2023-11-04T02:56:08Z</time>
      </trkpt>
      <trkpt lat="13.257695" lon="99.786417">
        <ele>48.3</ele>
        <time>2023-11-04T02:56:10Z</time>
      </trkpt>
      <trkpt lat="13.257707" lon="99.786184">
        <ele>48.9</ele>
        <time>2023-11-04T02:56:16Z</time>
      </trkpt>
      <trkpt lat="13.257755" lon="99.786066">
        <ele>50.1</ele>
        <time>2023-11-04T02:56:19Z</time>
      </trkpt>
      <trkpt lat="13.257831" lon="99.785921">
        <ele>49.8</ele>
        <time>2023-11-04T02:56:23Z</time>
      </trkpt>
      <trkpt lat="13.257957" lon="99.785722">
        <ele>48.5</ele>
        <time>2023-11-04T02:56:30Z</time>
      </trkpt>
      <trkpt lat="13.257988" lon="99.785647">
        <ele>49.1</ele>
        <time>2023-11-04T02:56:32Z</time>
      </trkpt>
      <trkpt lat="13.257986" lon="99.785612">
        <ele>50.1</ele>
        <time>2023-11-04T02:56:33Z</time>
      </trkpt>
      <trkpt lat="13.258106" lon="99.785396">
        <ele>48.4</ele>
        <time>2023-11-04T02:56:38Z</time>
      </trkpt>
      <trkpt lat="13.258185" lon="99.785274">
        <ele>47.6</ele>
        <time>2023-11-04T02:56:41Z</time>
      </trkpt>
      <trkpt lat="13.258261" lon="99.785087">
        <ele>49.5</ele>
        <time>2023-11-04T02:56:45Z</time>
      </trkpt>
      <trkpt lat="13.258304" lon="99.784949">
        <ele>50.2</ele>
        <time>2023-11-04T02:56:48Z</time>
      </trkpt>
      <trkpt lat="13.258518" lon="99.784683">
        <ele>51.3</ele>
        <time>2023-11-04T02:56:55Z</time>
      </trkpt>
      <trkpt lat="13.258556" lon="99.784600">
        <ele>51.1</ele>
        <time>2023-11-04T02:56:57Z</time>
      </trkpt>
      <trkpt lat="13.258583" lon="99.784457">
        <ele>50.6</ele>
        <time>2023-11-04T02:57:00Z</time>
      </trkpt>
      <trkpt lat="13.258597" lon="99.784316">
        <ele>52.1</ele>
        <time>2023-11-04T02:57:03Z</time>
      </trkpt>
      <trkpt lat="13.258677" lon="99.784139">
        <ele>53.7</ele>
        <time>2023-11-04T02:57:07Z</time>
      </trkpt>
      <trkpt lat="13.258792" lon="99.783968">
        <ele>52.1</ele>
        <time>2023-11-04T02:57:11Z</time>
      </trkpt>
      <trkpt lat="13.258899" lon="99.783857">
        <ele>50.8</ele>
        <time>2023-11-04T02:57:14Z</time>
      </trkpt>
      <trkpt lat="13.258965" lon="99.783773">
        <ele>50.0</ele>
        <time>2023-11-04T02:57:16Z</time>
      </trkpt>
      <trkpt lat="13.259063" lon="99.783697">
        <ele>47.7</ele>
        <time>2023-11-04T02:57:18Z</time>
      </trkpt>
      <trkpt lat="13.259099" lon="99.783658">
        <ele>48.2</ele>
        <time>2023-11-04T02:57:19Z</time>
      </trkpt>
      <trkpt lat="13.259114" lon="99.783622">
        <ele>49.2</ele>
        <time>2023-11-04T02:57:20Z</time>
      </trkpt>
      <trkpt lat="13.259323" lon="99.783376">
        <ele>53.5</ele>
        <time>2023-11-04T02:57:26Z</time>
      </trkpt>
      <trkpt lat="13.259546" lon="99.783069">
        <ele>52.3</ele>
        <time>2023-11-04T02:57:33Z</time>
      </trkpt>
      <trkpt lat="13.259612" lon="99.782994">
        <ele>52.0</ele>
        <time>2023-11-04T02:57:35Z</time>
      </trkpt>
      <trkpt lat="13.259692" lon="99.782928">
        <ele>52.2</ele>
        <time>2023-11-04T02:57:37Z</time>
      </trkpt>
      <trkpt lat="13.259982" lon="99.782798">
        <ele>52.4</ele>
        <time>2023-11-04T02:57:43Z</time>
      </trkpt>
      <trkpt lat="13.260399" lon="99.782677">
        <ele>53.6</ele>
        <time>2023-11-04T02:57:52Z</time>
      </trkpt>
      <trkpt lat="13.260518" lon="99.782597">
        <ele>53.6</ele>
        <time>2023-11-04T02:57:55Z</time>
      </trkpt>
      <trkpt lat="13.260854" lon="99.782253">
        <ele>55.2</ele>
        <time>2023-11-04T02:58:05Z</time>
      </trkpt>
      <trkpt lat="13.261041" lon="99.782047">
        <ele>56.7</ele>
        <time>2023-11-04T02:58:10Z</time>
      </trkpt>
      <trkpt lat="13.261237" lon="99.781920">
        <ele>55.4</ele>
        <time>2023-11-04T02:58:15Z</time>
      </trkpt>
      <trkpt lat="13.261384" lon="99.781861">
        <ele>57.0</ele>
        <time>2023-11-04T02:58:19Z</time>
      </trkpt>
      <trkpt lat="13.261470" lon="99.781804">
        <ele>58.9</ele>
        <time>2023-11-04T02:58:22Z</time>
      </trkpt>
      <trkpt lat="13.261523" lon="99.781751">
        <ele>59.6</ele>
        <time>2023-11-04T02:58:24Z</time>
      </trkpt>
      <trkpt lat="13.261539" lon="99.781715">
        <ele>59.8</ele>
        <time>2023-11-04T02:58:26Z</time>
      </trkpt>
      <trkpt lat="13.261576" lon="99.781682">
        <ele>57.6</ele>
        <time>2023-11-04T02:58:27Z</time>
      </trkpt>
      <trkpt lat="13.261658" lon="99.781567">
        <ele>57.5</ele>
        <time>2023-11-04T02:58:31Z</time>
      </trkpt>
      <trkpt lat="13.261713" lon="99.781518">
        <ele>58.5</ele>
        <time>2023-11-04T02:58:33Z</time>
      </trkpt>
      <trkpt lat="13.261817" lon="99.781460">
        <ele>58.1</ele>
        <time>2023-11-04T02:58:36Z</time>
      </trkpt>
      <trkpt lat="13.261938" lon="99.781330">
        <ele>57.8</ele>
        <time>2023-11-04T02:58:40Z</time>
      </trkpt>
      <trkpt lat="13.262007" lon="99.781272">
        <ele>58.3</ele>
        <time>2023-11-04T02:58:42Z</time>
      </trkpt>
      <trkpt lat="13.262220" lon="99.781154">
        <ele>58.0</ele>
        <time>2023-11-04T02:58:47Z</time>
      </trkpt>
      <trkpt lat="13.262397" lon="99.781003">
        <ele>60.0</ele>
        <time>2023-11-04T02:58:52Z</time>
      </trkpt>
      <trkpt lat="13.262443" lon="99.780984">
        <ele>59.8</ele>
        <time>2023-11-04T02:58:53Z</time>
      </trkpt>
      <trkpt lat="13.262509" lon="99.780784">
        <ele>58.9</ele>
        <time>2023-11-04T02:58:57Z</time>
      </trkpt>
      <trkpt lat="13.262561" lon="99.780694">
        <ele>58.9</ele>
        <time>2023-11-04T02:58:59Z</time>
      </trkpt>
      <trkpt lat="13.262602" lon="99.780597">
        <ele>59.8</ele>
        <time>2023-11-04T02:59:01Z</time>
      </trkpt>
      <trkpt lat="13.262832" lon="99.780223">
        <ele>58.7</ele>
        <time>2023-11-04T02:59:10Z</time>
      </trkpt>
      <trkpt lat="13.262864" lon="99.780191">
        <ele>58.5</ele>
        <time>2023-11-04T02:59:11Z</time>
      </trkpt>
      <trkpt lat="13.262870" lon="99.780049">
        <ele>58.4</ele>
        <time>2023-11-04T02:59:14Z</time>
      </trkpt>
      <trkpt lat="13.262855" lon="99.779947">
        <ele>58.5</ele>
        <time>2023-11-04T02:59:16Z</time>
      </trkpt>
      <trkpt lat="13.262848" lon="99.779479">
        <ele>58.0</ele>
        <time>2023-11-04T02:59:25Z</time>
      </trkpt>
      <trkpt lat="13.262855" lon="99.779433">
        <ele>56.0</ele>
        <time>2023-11-04T02:59:26Z</time>
      </trkpt>
      <trkpt lat="13.262957" lon="99.779405">
        <ele>57.6</ele>
        <time>2023-11-04T02:59:28Z</time>
      </trkpt>
      <trkpt lat="13.262981" lon="99.779371">
        <ele>57.4</ele>
        <time>2023-11-04T02:59:29Z</time>
      </trkpt>
      <trkpt lat="13.262989" lon="99.779329">
        <ele>57.2</ele>
        <time>2023-11-04T02:59:30Z</time>
      </trkpt>
      <trkpt lat="13.262947" lon="99.779186">
        <ele>58.3</ele>
        <time>2023-11-04T02:59:34Z</time>
      </trkpt>
      <trkpt lat="13.262948" lon="99.779151">
        <ele>58.2</ele>
        <time>2023-11-04T02:59:35Z</time>
      </trkpt>
      <trkpt lat="13.262907" lon="99.778944">
        <ele>58.7</ele>
        <time>2023-11-04T02:59:41Z</time>
      </trkpt>
      <trkpt lat="13.262915" lon="99.778767">
        <ele>59.0</ele>
        <time>2023-11-04T02:59:46Z</time>
      </trkpt>
      <trkpt lat="13.262876" lon="99.778415">
        <ele>60.3</ele>
        <time>2023-11-04T02:59:56Z</time>
      </trkpt>
      <trkpt lat="13.262898" lon="99.778138">
        <ele>60.2</ele>
        <time>2023-11-04T03:00:03Z</time>
      </trkpt>
      <trkpt lat="13.262911" lon="99.778102">
        <ele>60.8</ele>
        <time>2023-11-04T03:00:04Z</time>
      </trkpt>
      <trkpt lat="13.262937" lon="99.778071">
        <ele>60.8</ele>
        <time>2023-11-04T03:00:05Z</time>
      </trkpt>
      <trkpt lat="13.262994" lon="99.778037">
        <ele>61.3</ele>
        <time>2023-11-04T03:00:07Z</time>
      </trkpt>
      <trkpt lat="13.263023" lon="99.778008">
        <ele>60.0</ele>
        <time>2023-11-04T03:00:08Z</time>
      </trkpt>
      <trkpt lat="13.263038" lon="99.777966">
        <ele>61.0</ele>
        <time>2023-11-04T03:00:10Z</time>
      </trkpt>
      <trkpt lat="13.263048" lon="99.777856">
        <ele>60.0</ele>
        <time>2023-11-04T03:00:13Z</time>
      </trkpt>
      <trkpt lat="13.263098" lon="99.777679">
        <ele>61.8</ele>
        <time>2023-11-04T03:00:19Z</time>
      </trkpt>
      <trkpt lat="13.263126" lon="99.777613">
        <ele>61.7</ele>
        <time>2023-11-04T03:00:21Z</time>
      </trkpt>
      <trkpt lat="13.263200" lon="99.777191">
        <ele>63.4</ele>
        <time>2023-11-04T03:00:34Z</time>
      </trkpt>
      <trkpt lat="13.263179" lon="99.777130">
        <ele>63.2</ele>
        <time>2023-11-04T03:00:36Z</time>
      </trkpt>
      <trkpt lat="13.263144" lon="99.777109">
        <ele>62.6</ele>
        <time>2023-11-04T03:00:37Z</time>
      </trkpt>
      <trkpt lat="13.263121" lon="99.777075">
        <ele>62.2</ele>
        <time>2023-11-04T03:00:38Z</time>
      </trkpt>
      <trkpt lat="13.263095" lon="99.776988">
        <ele>62.0</ele>
        <time>2023-11-04T03:00:40Z</time>
      </trkpt>
      <trkpt lat="13.263091" lon="99.776936">
        <ele>61.9</ele>
        <time>2023-11-04T03:00:41Z</time>
      </trkpt>
      <trkpt lat="13.263125" lon="99.776798">
        <ele>62.2</ele>
        <time>2023-11-04T03:00:44Z</time>
      </trkpt>
      <trkpt lat="13.263122" lon="99.776752">
        <ele>62.6</ele>
        <time>2023-11-04T03:00:45Z</time>
      </trkpt>
      <trkpt lat="13.263094" lon="99.776661">
        <ele>63.3</ele>
        <time>2023-11-04T03:00:47Z</time>
      </trkpt>
      <trkpt lat="13.263096" lon="99.776617">
        <ele>63.1</ele>
        <time>2023-11-04T03:00:48Z</time>
      </trkpt>
      <trkpt lat="13.263148" lon="99.776535">
        <ele>65.0</ele>
        <time>2023-11-04T03:00:50Z</time>
      </trkpt>
      <trkpt lat="13.263145" lon="99.776494">
        <ele>64.6</ele>
        <time>2023-11-04T03:00:51Z</time>
      </trkpt>
      <trkpt lat="13.263127" lon="99.776450">
        <ele>65.6</ele>
        <time>2023-11-04T03:00:52Z</time>
      </trkpt>
      <trkpt lat="13.263132" lon="99.776359">
        <ele>65.4</ele>
        <time>2023-11-04T03:00:54Z</time>
      </trkpt>
      <trkpt lat="13.263192" lon="99.776181">
        <ele>64.6</ele>
        <time>2023-11-04T03:00:58Z</time>
      </trkpt>
      <trkpt lat="13.263365" lon="99.775907">
        <ele>64.2</ele>
        <time>2023-11-04T03:01:05Z</time>
      </trkpt>
      <trkpt lat="13.263385" lon="99.775809">
        <ele>63.9</ele>
        <time>2023-11-04T03:01:07Z</time>
      </trkpt>
      <trkpt lat="13.263469" lon="99.775687">
        <ele>62.8</ele>
        <time>2023-11-04T03:01:10Z</time>
      </trkpt>
      <trkpt lat="13.263531" lon="99.775626">
        <ele>62.9</ele>
        <time>2023-11-04T03:01:12Z</time>
      </trkpt>
      <trkpt lat="13.263515" lon="99.775528">
        <ele>62.7</ele>
        <time>2023-11-04T03:01:14Z</time>
      </trkpt>
      <trkpt lat="13.263536" lon="99.775431">
        <ele>62.4</ele>
        <time>2023-11-04T03:01:16Z</time>
      </trkpt>
      <trkpt lat="13.263629" lon="99.775259">
        <ele>62.4</ele>
        <time>2023-11-04T03:01:20Z</time>
      </trkpt>
      <trkpt lat="13.263625" lon="99.775211">
        <ele>62.6</ele>
        <time>2023-11-04T03:01:21Z</time>
      </trkpt>
      <trkpt lat="13.263599" lon="99.775171">
        <ele>63.1</ele>
        <time>2023-11-04T03:01:22Z</time>
      </trkpt>
      <trkpt lat="13.263564" lon="99.775147">
        <ele>63.5</ele>
        <time>2023-11-04T03:01:23Z</time>
      </trkpt>
      <trkpt lat="13.263505" lon="99.775078">
        <ele>64.0</ele>
        <time>2023-11-04T03:01:25Z</time>
      </trkpt>
      <trkpt lat="13.263471" lon="99.775057">
        <ele>64.4</ele>
        <time>2023-11-04T03:01:26Z</time>
      </trkpt>
      <trkpt lat="13.263302" lon="99.775010">
        <ele>64.1</ele>
        <time>2023-11-04T03:01:30Z</time>
      </trkpt>
      <trkpt lat="13.263223" lon="99.774971">
        <ele>64.1</ele>
        <time>2023-11-04T03:01:32Z</time>
      </trkpt>
      <trkpt lat="13.263091" lon="99.774962">
        <ele>63.9</ele>
        <time>2023-11-04T03:01:35Z</time>
      </trkpt>
      <trkpt lat="13.263047" lon="99.774971">
        <ele>63.8</ele>
        <time>2023-11-04T03:01:36Z</time>
      </trkpt>
      <trkpt lat="13.262970" lon="99.775016">
        <ele>64.3</ele>
        <time>2023-11-04T03:01:38Z</time>
      </trkpt>
      <trkpt lat="13.262866" lon="99.775092">
        <ele>63.3</ele>
        <time>2023-11-04T03:01:41Z</time>
      </trkpt>
      <trkpt lat="13.262817" lon="99.775116">
        <ele>63.2</ele>
        <time>2023-11-04T03:01:42Z</time>
      </trkpt>
      <trkpt lat="13.262733" lon="99.775192">
        <ele>63.0</ele>
        <time>2023-11-04T03:01:44Z</time>
      </trkpt>
      <trkpt lat="13.262678" lon="99.775215">
        <ele>62.9</ele>
        <time>2023-11-04T03:01:45Z</time>
      </trkpt>
      <trkpt lat="13.262615" lon="99.775222">
        <ele>62.2</ele>
        <time>2023-11-04T03:01:46Z</time>
      </trkpt>
      <trkpt lat="13.262548" lon="99.775213">
        <ele>61.5</ele>
        <time>2023-11-04T03:01:47Z</time>
      </trkpt>
      <trkpt lat="13.262490" lon="99.775190">
        <ele>59.6</ele>
        <time>2023-11-04T03:01:48Z</time>
      </trkpt>
      <trkpt lat="13.262325" lon="99.775209">
        <ele>59.1</ele>
        <time>2023-11-04T03:01:50Z</time>
      </trkpt>
      <trkpt lat="13.262198" lon="99.775205">
        <ele>61.1</ele>
        <time>2023-11-04T03:01:53Z</time>
      </trkpt>
      <trkpt lat="13.262063" lon="99.775232">
        <ele>60.9</ele>
        <time>2023-11-04T03:01:56Z</time>
      </trkpt>
      <trkpt lat="13.261891" lon="99.775242">
        <ele>61.1</ele>
        <time>2023-11-04T03:01:59Z</time>
      </trkpt>
      <trkpt lat="13.261839" lon="99.775259">
        <ele>61.1</ele>
        <time>2023-11-04T03:02:00Z</time>
      </trkpt>
      <trkpt lat="13.261750" lon="99.775314">
        <ele>60.8</ele>
        <time>2023-11-04T03:02:02Z</time>
      </trkpt>
      <trkpt lat="13.261654" lon="99.775334">
        <ele>60.7</ele>
        <time>2023-11-04T03:02:04Z</time>
      </trkpt>
      <trkpt lat="13.261595" lon="99.775321">
        <ele>61.1</ele>
        <time>2023-11-04T03:02:05Z</time>
      </trkpt>
      <trkpt lat="13.261287" lon="99.775148">
        <ele>62.9</ele>
        <time>2023-11-04T03:02:13Z</time>
      </trkpt>
      <trkpt lat="13.261206" lon="99.775132">
        <ele>63.0</ele>
        <time>2023-11-04T03:02:15Z</time>
      </trkpt>
      <trkpt lat="13.261121" lon="99.775086">
        <ele>62.9</ele>
        <time>2023-11-04T03:02:17Z</time>
      </trkpt>
      <trkpt lat="13.260946" lon="99.775047">
        <ele>63.7</ele>
        <time>2023-11-04T03:02:21Z</time>
      </trkpt>
      <trkpt lat="13.260775" lon="99.774990">
        <ele>64.6</ele>
        <time>2023-11-04T03:02:25Z</time>
      </trkpt>
      <trkpt lat="13.260670" lon="99.774911">
        <ele>64.8</ele>
        <time>2023-11-04T03:02:28Z</time>
      </trkpt>
      <trkpt lat="13.260585" lon="99.774877">
        <ele>66.6</ele>
        <time>2023-11-04T03:02:31Z</time>
      </trkpt>
      <trkpt lat="13.260542" lon="99.774872">
        <ele>66.0</ele>
        <time>2023-11-04T03:02:33Z</time>
      </trkpt>
      <trkpt lat="13.260458" lon="99.774878">
        <ele>64.0</ele>
        <time>2023-11-04T03:02:37Z</time>
      </trkpt>
      <trkpt lat="13.260285" lon="99.774914">
        <ele>64.0</ele>
        <time>2023-11-04T03:02:47Z</time>
      </trkpt>
      <trkpt lat="13.260250" lon="99.774911">
        <ele>63.0</ele>
        <time>2023-11-04T03:02:51Z</time>
      </trkpt>
      <trkpt lat="13.260073" lon="99.775000">
        <ele>64.7</ele>
        <time>2023-11-04T03:02:59Z</time>
      </trkpt>
      <trkpt lat="13.260042" lon="99.775029">
        <ele>64.4</ele>
        <time>2023-11-04T03:03:00Z</time>
      </trkpt>
      <trkpt lat="13.260029" lon="99.775083">
        <ele>64.5</ele>
        <time>2023-11-04T03:03:01Z</time>
      </trkpt>
      <trkpt lat="13.259918" lon="99.775207">
        <ele>63.1</ele>
        <time>2023-11-04T03:03:04Z</time>
      </trkpt>
      <trkpt lat="13.259822" lon="99.775278">
        <ele>61.7</ele>
        <time>2023-11-04T03:03:06Z</time>
      </trkpt>
      <trkpt lat="13.259723" lon="99.775327">
        <ele>60.5</ele>
        <time>2023-11-04T03:03:08Z</time>
      </trkpt>
      <trkpt lat="13.259662" lon="99.775329">
        <ele>60.2</ele>
        <time>2023-11-04T03:03:09Z</time>
      </trkpt>
      <trkpt lat="13.259548" lon="99.775300">
        <ele>60.3</ele>
        <time>2023-11-04T03:03:11Z</time>
      </trkpt>
      <trkpt lat="13.259496" lon="99.775298">
        <ele>60.4</ele>
        <time>2023-11-04T03:03:12Z</time>
      </trkpt>
      <trkpt lat="13.259448" lon="99.775281">
        <ele>60.4</ele>
        <time>2023-11-04T03:03:13Z</time>
      </trkpt>
      <trkpt lat="13.259359" lon="99.775202">
        <ele>61.0</ele>
        <time>2023-11-04T03:03:15Z</time>
      </trkpt>
      <trkpt lat="13.259332" lon="99.775151">
        <ele>61.3</ele>
        <time>2023-11-04T03:03:16Z</time>
      </trkpt>
      <trkpt lat="13.259197" lon="99.775061">
        <ele>61.4</ele>
        <time>2023-11-04T03:03:19Z</time>
      </trkpt>
      <trkpt lat="13.259159" lon="99.775020">
        <ele>61.9</ele>
        <time>2023-11-04T03:03:20Z</time>
      </trkpt>
      <trkpt lat="13.259096" lon="99.774821">
        <ele>61.9</ele>
        <time>2023-11-04T03:03:24Z</time>
      </trkpt>
      <trkpt lat="13.259000" lon="99.774625">
        <ele>62.1</ele>
        <time>2023-11-04T03:03:29Z</time>
      </trkpt>
      <trkpt lat="13.258998" lon="99.774582">
        <ele>62.0</ele>
        <time>2023-11-04T03:03:30Z</time>
      </trkpt>
      <trkpt lat="13.259039" lon="99.774462">
        <ele>62.0</ele>
        <time>2023-11-04T03:03:33Z</time>
      </trkpt>
      <trkpt lat="13.259027" lon="99.774426">
        <ele>61.9</ele>
        <time>2023-11-04T03:03:34Z</time>
      </trkpt>
      <trkpt lat="13.258837" lon="99.774231">
        <ele>62.6</ele>
        <time>2023-11-04T03:03:41Z</time>
      </trkpt>
      <trkpt lat="13.258741" lon="99.774069">
        <ele>63.2</ele>
        <time>2023-11-04T03:03:46Z</time>
      </trkpt>
      <trkpt lat="13.258668" lon="99.773854">
        <ele>64.0</ele>
        <time>2023-11-04T03:03:52Z</time>
      </trkpt>
      <trkpt lat="13.258622" lon="99.773808">
        <ele>63.4</ele>
        <time>2023-11-04T03:03:54Z</time>
      </trkpt>
      <trkpt lat="13.258543" lon="99.773791">
        <ele>63.9</ele>
        <time>2023-11-04T03:03:56Z</time>
      </trkpt>
      <trkpt lat="13.258473" lon="99.773732">
        <ele>63.9</ele>
        <time>2023-11-04T03:03:58Z</time>
      </trkpt>
      <trkpt lat="13.258447" lon="99.773690">
        <ele>63.9</ele>
        <time>2023-11-04T03:03:59Z</time>
      </trkpt>
      <trkpt lat="13.258420" lon="99.773589">
        <ele>63.1</ele>
        <time>2023-11-04T03:04:01Z</time>
      </trkpt>
      <trkpt lat="13.258379" lon="99.773560">
        <ele>63.6</ele>
        <time>2023-11-04T03:04:02Z</time>
      </trkpt>
      <trkpt lat="13.258312" lon="99.773489">
        <ele>63.0</ele>
        <time>2023-11-04T03:04:04Z</time>
      </trkpt>
      <trkpt lat="13.258264" lon="99.773462">
        <ele>63.5</ele>
        <time>2023-11-04T03:04:05Z</time>
      </trkpt>
      <trkpt lat="13.258215" lon="99.773363">
        <ele>62.4</ele>
        <time>2023-11-04T03:04:07Z</time>
      </trkpt>
      <trkpt lat="13.258061" lon="99.773175">
        <ele>65.4</ele>
        <time>2023-11-04T03:04:12Z</time>
      </trkpt>
      <trkpt lat="13.257988" lon="99.773106">
        <ele>65.6</ele>
        <time>2023-11-04T03:04:14Z</time>
      </trkpt>
      <trkpt lat="13.257946" lon="99.773088">
        <ele>67.5</ele>
        <time>2023-11-04T03:04:15Z</time>
      </trkpt>
      <trkpt lat="13.257848" lon="99.773018">
        <ele>68.0</ele>
        <time>2023-11-04T03:04:18Z</time>
      </trkpt>
      <trkpt lat="13.257824" lon="99.772982">
        <ele>68.1</ele>
        <time>2023-11-04T03:04:20Z</time>
      </trkpt>
      <trkpt lat="13.257792" lon="99.772959">
        <ele>67.8</ele>
        <time>2023-11-04T03:04:21Z</time>
      </trkpt>
      <trkpt lat="13.257768" lon="99.772891">
        <ele>67.7</ele>
        <time>2023-11-04T03:04:23Z</time>
      </trkpt>
      <trkpt lat="13.257731" lon="99.772833">
        <ele>67.9</ele>
        <time>2023-11-04T03:04:25Z</time>
      </trkpt>
      <trkpt lat="13.257572" lon="99.772721">
        <ele>66.9</ele>
        <time>2023-11-04T03:04:31Z</time>
      </trkpt>
      <trkpt lat="13.257511" lon="99.772648">
        <ele>66.6</ele>
        <time>2023-11-04T03:04:33Z</time>
      </trkpt>
      <trkpt lat="13.257471" lon="99.772581">
        <ele>66.0</ele>
        <time>2023-11-04T03:04:38Z</time>
      </trkpt>
      <trkpt lat="13.257436" lon="99.772434">
        <ele>68.0</ele>
        <time>2023-11-04T03:04:46Z</time>
      </trkpt>
      <trkpt lat="13.257435" lon="99.772302">
        <ele>68.0</ele>
        <time>2023-11-04T03:04:51Z</time>
      </trkpt>
      <trkpt lat="13.257469" lon="99.772254">
        <ele>68.0</ele>
        <time>2023-11-04T03:04:53Z</time>
      </trkpt>
      <trkpt lat="13.257563" lon="99.772184">
        <ele>69.0</ele>
        <time>2023-11-04T03:04:57Z</time>
      </trkpt>
      <trkpt lat="13.257597" lon="99.772144">
        <ele>70.0</ele>
        <time>2023-11-04T03:04:59Z</time>
      </trkpt>
      <trkpt lat="13.257688" lon="99.772006">
        <ele>70.0</ele>
        <time>2023-11-04T03:05:05Z</time>
      </trkpt>
      <trkpt lat="13.257781" lon="99.771900">
        <ele>70.0</ele>
        <time>2023-11-04T03:05:10Z</time>
      </trkpt>
      <trkpt lat="13.257823" lon="99.771830">
        <ele>71.0</ele>
        <time>2023-11-04T03:05:13Z</time>
      </trkpt>
      <trkpt lat="13.257912" lon="99.771800">
        <ele>72.0</ele>
        <time>2023-11-04T03:05:16Z</time>
      </trkpt>
      <trkpt lat="13.257951" lon="99.771770">
        <ele>72.0</ele>
        <time>2023-11-04T03:05:18Z</time>
      </trkpt>
      <trkpt lat="13.257969" lon="99.771714">
        <ele>73.0</ele>
        <time>2023-11-04T03:05:20Z</time>
      </trkpt>
      <trkpt lat="13.258105" lon="99.771519">
        <ele>74.0</ele>
        <time>2023-11-04T03:05:30Z</time>
      </trkpt>
      <trkpt lat="13.258159" lon="99.771411">
        <ele>76.0</ele>
        <time>2023-11-04T03:05:35Z</time>
      </trkpt>
      <trkpt lat="13.258180" lon="99.771317">
        <ele>76.0</ele>
        <time>2023-11-04T03:05:39Z</time>
      </trkpt>
      <trkpt lat="13.258178" lon="99.771164">
        <ele>76.0</ele>
        <time>2023-11-04T03:05:45Z</time>
      </trkpt>
      <trkpt lat="13.258142" lon="99.771077">
        <ele>77.3</ele>
        <time>2023-11-04T03:05:48Z</time>
      </trkpt>
      <trkpt lat="13.258082" lon="99.771000">
        <ele>75.5</ele>
        <time>2023-11-04T03:05:50Z</time>
      </trkpt>
      <trkpt lat="13.258006" lon="99.770846">
        <ele>73.8</ele>
        <time>2023-11-04T03:05:53Z</time>
      </trkpt>
      <trkpt lat="13.258002" lon="99.770714">
        <ele>73.0</ele>
        <time>2023-11-04T03:05:55Z</time>
      </trkpt>
      <trkpt lat="13.258095" lon="99.770543">
        <ele>73.2</ele>
        <time>2023-11-04T03:05:58Z</time>
      </trkpt>
      <trkpt lat="13.258120" lon="99.770417">
        <ele>72.5</ele>
        <time>2023-11-04T03:06:00Z</time>
      </trkpt>
      <trkpt lat="13.258105" lon="99.770258">
        <ele>75.5</ele>
        <time>2023-11-04T03:06:04Z</time>
      </trkpt>
      <trkpt lat="13.258078" lon="99.770230">
        <ele>76.6</ele>
        <time>2023-11-04T03:06:05Z</time>
      </trkpt>
      <trkpt lat="13.258085" lon="99.770192">
        <ele>76.9</ele>
        <time>2023-11-04T03:06:06Z</time>
      </trkpt>
      <trkpt lat="13.258080" lon="99.770070">
        <ele>76.0</ele>
        <time>2023-11-04T03:06:10Z</time>
      </trkpt>
      <trkpt lat="13.258104" lon="99.770004">
        <ele>76.2</ele>
        <time>2023-11-04T03:06:13Z</time>
      </trkpt>
      <trkpt lat="13.258065" lon="99.769927">
        <ele>77.0</ele>
        <time>2023-11-04T03:06:16Z</time>
      </trkpt>
      <trkpt lat="13.258062" lon="99.769880">
        <ele>77.0</ele>
        <time>2023-11-04T03:06:18Z</time>
      </trkpt>
      <trkpt lat="13.258076" lon="99.769828">
        <ele>76.0</ele>
        <time>2023-11-04T03:06:20Z</time>
      </trkpt>
      <trkpt lat="13.258038" lon="99.769669">
        <ele>76.0</ele>
        <time>2023-11-04T03:06:27Z</time>
      </trkpt>
      <trkpt lat="13.257994" lon="99.769599">
        <ele>77.2</ele>
        <time>2023-11-04T03:06:31Z</time>
      </trkpt>
      <trkpt lat="13.257862" lon="99.769574">
        <ele>76.0</ele>
        <time>2023-11-04T03:06:36Z</time>
      </trkpt>
      <trkpt lat="13.257771" lon="99.769531">
        <ele>78.0</ele>
        <time>2023-11-04T03:06:40Z</time>
      </trkpt>
      <trkpt lat="13.257617" lon="99.769495">
        <ele>78.0</ele>
        <time>2023-11-04T03:06:48Z</time>
      </trkpt>
      <trkpt lat="13.257393" lon="99.769514">
        <ele>80.7</ele>
        <time>2023-11-04T03:06:57Z</time>
      </trkpt>
      <trkpt lat="13.257269" lon="99.769535">
        <ele>80.3</ele>
        <time>2023-11-04T03:07:00Z</time>
      </trkpt>
      <trkpt lat="13.257176" lon="99.769514">
        <ele>80.3</ele>
        <time>2023-11-04T03:07:02Z</time>
      </trkpt>
      <trkpt lat="13.256945" lon="99.769562">
        <ele>80.1</ele>
        <time>2023-11-04T03:07:06Z</time>
      </trkpt>
      <trkpt lat="13.256790" lon="99.769579">
        <ele>82.0</ele>
        <time>2023-11-04T03:07:16Z</time>
      </trkpt>
      <trkpt lat="13.256687" lon="99.769633">
        <ele>81.0</ele>
        <time>2023-11-04T03:07:24Z</time>
      </trkpt>
      <trkpt lat="13.256584" lon="99.769704">
        <ele>72.0</ele>
        <time>2023-11-04T03:08:02Z</time>
      </trkpt>
      <trkpt lat="13.256550" lon="99.769845">
        <ele>84.7</ele>
        <time>2023-11-04T03:08:43Z</time>
      </trkpt>
      <trkpt lat="13.256561" lon="99.769924">
        <ele>83.0</ele>
        <time>2023-11-04T03:08:46Z</time>
      </trkpt>
      <trkpt lat="13.256539" lon="99.770010">
        <ele>84.7</ele>
        <time>2023-11-04T03:08:50Z</time>
      </trkpt>
      <trkpt lat="13.256538" lon="99.770082">
        <ele>84.1</ele>
        <time>2023-11-04T03:08:52Z</time>
      </trkpt>
      <trkpt lat="13.256486" lon="99.770301">
        <ele>82.1</ele>
        <time>2023-11-04T03:08:58Z</time>
      </trkpt>
      <trkpt lat="13.256449" lon="99.770371">
        <ele>80.0</ele>
        <time>2023-11-04T03:09:00Z</time>
      </trkpt>
      <trkpt lat="13.256447" lon="99.770417">
        <ele>80.0</ele>
        <time>2023-11-04T03:09:02Z</time>
      </trkpt>
      <trkpt lat="13.256428" lon="99.770467">
        <ele>78.0</ele>
        <time>2023-11-04T03:09:04Z</time>
      </trkpt>
      <trkpt lat="13.256318" lon="99.770646">
        <ele>78.0</ele>
        <time>2023-11-04T03:09:10Z</time>
      </trkpt>
      <trkpt lat="13.256296" lon="99.770696">
        <ele>78.9</ele>
        <time>2023-11-04T03:09:12Z</time>
      </trkpt>
      <trkpt lat="13.256279" lon="99.770781">
        <ele>78.0</ele>
        <time>2023-11-04T03:09:14Z</time>
      </trkpt>
      <trkpt lat="13.256246" lon="99.770814">
        <ele>77.9</ele>
        <time>2023-11-04T03:09:15Z</time>
      </trkpt>
      <trkpt lat="13.256189" lon="99.770941">
        <ele>75.0</ele>
        <time>2023-11-04T03:09:25Z</time>
      </trkpt>
      <trkpt lat="13.256249" lon="99.771014">
        <ele>75.1</ele>
        <time>2023-11-04T03:09:35Z</time>
      </trkpt>
      <trkpt lat="13.256284" lon="99.771095">
        <ele>74.8</ele>
        <time>2023-11-04T03:09:37Z</time>
      </trkpt>
      <trkpt lat="13.256292" lon="99.771137">
        <ele>74.8</ele>
        <time>2023-11-04T03:09:38Z</time>
      </trkpt>
      <trkpt lat="13.256262" lon="99.771223">
        <ele>74.9</ele>
        <time>2023-11-04T03:09:40Z</time>
      </trkpt>
      <trkpt lat="13.256178" lon="99.771280">
        <ele>74.0</ele>
        <time>2023-11-04T03:09:42Z</time>
      </trkpt>
      <trkpt lat="13.256190" lon="99.771342">
        <ele>74.4</ele>
        <time>2023-11-04T03:09:44Z</time>
      </trkpt>
      <trkpt lat="13.256228" lon="99.771426">
        <ele>72.8</ele>
        <time>2023-11-04T03:09:46Z</time>
      </trkpt>
      <trkpt lat="13.256195" lon="99.771514">
        <ele>71.9</ele>
        <time>2023-11-04T03:09:48Z</time>
      </trkpt>
      <trkpt lat="13.256205" lon="99.771548">
        <ele>71.5</ele>
        <time>2023-11-04T03:09:49Z</time>
      </trkpt>
      <trkpt lat="13.256275" lon="99.771621">
        <ele>71.0</ele>
        <time>2023-11-04T03:09:51Z</time>
      </trkpt>
      <trkpt lat="13.256324" lon="99.771621">
        <ele>70.4</ele>
        <time>2023-11-04T03:09:52Z</time>
      </trkpt>
      <trkpt lat="13.256351" lon="99.771651">
        <ele>69.6</ele>
        <time>2023-11-04T03:09:53Z</time>
      </trkpt>
      <trkpt lat="13.256380" lon="99.771736">
        <ele>69.2</ele>
        <time>2023-11-04T03:09:55Z</time>
      </trkpt>
      <trkpt lat="13.256389" lon="99.771838">
        <ele>69.7</ele>
        <time>2023-11-04T03:09:57Z</time>
      </trkpt>
      <trkpt lat="13.256440" lon="99.771959">
        <ele>67.0</ele>
        <time>2023-11-04T03:10:00Z</time>
      </trkpt>
      <trkpt lat="13.256482" lon="99.771988">
        <ele>67.0</ele>
        <time>2023-11-04T03:10:02Z</time>
      </trkpt>
      <trkpt lat="13.256558" lon="99.772020">
        <ele>66.7</ele>
        <time>2023-11-04T03:10:04Z</time>
      </trkpt>
      <trkpt lat="13.256579" lon="99.772061">
        <ele>66.4</ele>
        <time>2023-11-04T03:10:05Z</time>
      </trkpt>
      <trkpt lat="13.256586" lon="99.772291">
        <ele>65.8</ele>
        <time>2023-11-04T03:10:09Z</time>
      </trkpt>
      <trkpt lat="13.256643" lon="99.772440">
        <ele>66.4</ele>
        <time>2023-11-04T03:10:12Z</time>
      </trkpt>
      <trkpt lat="13.256692" lon="99.772495">
        <ele>67.1</ele>
        <time>2023-11-04T03:10:14Z</time>
      </trkpt>
      <trkpt lat="13.256766" lon="99.772506">
        <ele>67.0</ele>
        <time>2023-11-04T03:10:16Z</time>
      </trkpt>
      <trkpt lat="13.256838" lon="99.772464">
        <ele>67.4</ele>
        <time>2023-11-04T03:10:18Z</time>
      </trkpt>
      <trkpt lat="13.256905" lon="99.772442">
        <ele>67.4</ele>
        <time>2023-11-04T03:10:20Z</time>
      </trkpt>
      <trkpt lat="13.256986" lon="99.772449">
        <ele>67.6</ele>
        <time>2023-11-04T03:10:22Z</time>
      </trkpt>
      <trkpt lat="13.257096" lon="99.772531">
        <ele>67.2</ele>
        <time>2023-11-04T03:10:25Z</time>
      </trkpt>
      <trkpt lat="13.257191" lon="99.772558">
        <ele>64.0</ele>
        <time>2023-11-04T03:10:35Z</time>
      </trkpt>
      <trkpt lat="13.257206" lon="99.772593">
        <ele>66.0</ele>
        <time>2023-11-04T03:10:47Z</time>
      </trkpt>
      <trkpt lat="13.257177" lon="99.772631">
        <ele>66.3</ele>
        <time>2023-11-04T03:10:49Z</time>
      </trkpt>
      <trkpt lat="13.257123" lon="99.772667">
        <ele>65.6</ele>
        <time>2023-11-04T03:10:51Z</time>
      </trkpt>
      <trkpt lat="13.257050" lon="99.772759">
        <ele>65.3</ele>
        <time>2023-11-04T03:10:54Z</time>
      </trkpt>
      <trkpt lat="13.257007" lon="99.772788">
        <ele>65.1</ele>
        <time>2023-11-04T03:10:55Z</time>
      </trkpt>
      <trkpt lat="13.256870" lon="99.772852">
        <ele>64.6</ele>
        <time>2023-11-04T03:10:58Z</time>
      </trkpt>
      <trkpt lat="13.256805" lon="99.772866">
        <ele>64.5</ele>
        <time>2023-11-04T03:10:59Z</time>
      </trkpt>
      <trkpt lat="13.256653" lon="99.772957">
        <ele>63.5</ele>
        <time>2023-11-04T03:11:02Z</time>
      </trkpt>
      <trkpt lat="13.256539" lon="99.773102">
        <ele>62.8</ele>
        <time>2023-11-04T03:11:05Z</time>
      </trkpt>
      <trkpt lat="13.256481" lon="99.773195">
        <ele>62.7</ele>
        <time>2023-11-04T03:11:07Z</time>
      </trkpt>
      <trkpt lat="13.256444" lon="99.773289">
        <ele>63.1</ele>
        <time>2023-11-04T03:11:09Z</time>
      </trkpt>
      <trkpt lat="13.256399" lon="99.773334">
        <ele>63.4</ele>
        <time>2023-11-04T03:11:10Z</time>
      </trkpt>
      <trkpt lat="13.256380" lon="99.773381">
        <ele>62.9</ele>
        <time>2023-11-04T03:11:11Z</time>
      </trkpt>
      <trkpt lat="13.256333" lon="99.773439">
        <ele>62.7</ele>
        <time>2023-11-04T03:11:12Z</time>
      </trkpt>
      <trkpt lat="13.256212" lon="99.773522">
        <ele>61.8</ele>
        <time>2023-11-04T03:11:14Z</time>
      </trkpt>
      <trkpt lat="13.256140" lon="99.773616">
        <ele>62.5</ele>
        <time>2023-11-04T03:11:16Z</time>
      </trkpt>
      <trkpt lat="13.256091" lon="99.773640">
        <ele>63.3</ele>
        <time>2023-11-04T03:11:17Z</time>
      </trkpt>
      <trkpt lat="13.255934" lon="99.773871">
        <ele>62.5</ele>
        <time>2023-11-04T03:11:21Z</time>
      </trkpt>
      <trkpt lat="13.255927" lon="99.773913">
        <ele>63.0</ele>
        <time>2023-11-04T03:11:22Z</time>
      </trkpt>
      <trkpt lat="13.255858" lon="99.773973">
        <ele>63.1</ele>
        <time>2023-11-04T03:11:24Z</time>
      </trkpt>
      <trkpt lat="13.255844" lon="99.774037">
        <ele>62.5</ele>
        <time>2023-11-04T03:11:25Z</time>
      </trkpt>
      <trkpt lat="13.255801" lon="99.774119">
        <ele>63.1</ele>
        <time>2023-11-04T03:11:27Z</time>
      </trkpt>
      <trkpt lat="13.255745" lon="99.774181">
        <ele>63.9</ele>
        <time>2023-11-04T03:11:29Z</time>
      </trkpt>
      <trkpt lat="13.255676" lon="99.774453">
        <ele>63.2</ele>
        <time>2023-11-04T03:11:34Z</time>
      </trkpt>
      <trkpt lat="13.255610" lon="99.774547">
        <ele>63.4</ele>
        <time>2023-11-04T03:11:36Z</time>
      </trkpt>
      <trkpt lat="13.255588" lon="99.774602">
        <ele>63.2</ele>
        <time>2023-11-04T03:11:37Z</time>
      </trkpt>
      <trkpt lat="13.255548" lon="99.774649">
        <ele>63.0</ele>
        <time>2023-11-04T03:11:38Z</time>
      </trkpt>
      <trkpt lat="13.255500" lon="99.774684">
        <ele>62.7</ele>
        <time>2023-11-04T03:11:39Z</time>
      </trkpt>
      <trkpt lat="13.255386" lon="99.774840">
        <ele>62.0</ele>
        <time>2023-11-04T03:11:43Z</time>
      </trkpt>
      <trkpt lat="13.255333" lon="99.774878">
        <ele>60.7</ele>
        <time>2023-11-04T03:11:45Z</time>
      </trkpt>
      <trkpt lat="13.255303" lon="99.774876">
        <ele>60.0</ele>
        <time>2023-11-04T03:11:46Z</time>
      </trkpt>
      <trkpt lat="13.255242" lon="99.774796">
        <ele>60.0</ele>
        <time>2023-11-04T03:11:50Z</time>
      </trkpt>
      <trkpt lat="13.255145" lon="99.774741">
        <ele>60.0</ele>
        <time>2023-11-04T03:11:56Z</time>
      </trkpt>
      <trkpt lat="13.255113" lon="99.774732">
        <ele>60.0</ele>
        <time>2023-11-04T03:11:59Z</time>
      </trkpt>
      <trkpt lat="13.255040" lon="99.774744">
        <ele>60.0</ele>
        <time>2023-11-04T03:12:06Z</time>
      </trkpt>
      <trkpt lat="13.254896" lon="99.774740">
        <ele>62.0</ele>
        <time>2023-11-04T03:12:12Z</time>
      </trkpt>
      <trkpt lat="13.254789" lon="99.774804">
        <ele>61.9</ele>
        <time>2023-11-04T03:12:16Z</time>
      </trkpt>
      <trkpt lat="13.254725" lon="99.774828">
        <ele>62.1</ele>
        <time>2023-11-04T03:12:18Z</time>
      </trkpt>
      <trkpt lat="13.254571" lon="99.774909">
        <ele>62.0</ele>
        <time>2023-11-04T03:12:23Z</time>
      </trkpt>
      <trkpt lat="13.254505" lon="99.774930">
        <ele>62.1</ele>
        <time>2023-11-04T03:12:25Z</time>
      </trkpt>
      <trkpt lat="13.254332" lon="99.775025">
        <ele>63.0</ele>
        <time>2023-11-04T03:12:31Z</time>
      </trkpt>
      <trkpt lat="13.253929" lon="99.775337">
        <ele>61.7</ele>
        <time>2023-11-04T03:12:42Z</time>
      </trkpt>
      <trkpt lat="13.253900" lon="99.775391">
        <ele>61.7</ele>
        <time>2023-11-04T03:12:43Z</time>
      </trkpt>
      <trkpt lat="13.253760" lon="99.775466">
        <ele>61.3</ele>
        <time>2023-11-04T03:12:46Z</time>
      </trkpt>
      <trkpt lat="13.253603" lon="99.775522">
        <ele>61.2</ele>
        <time>2023-11-04T03:12:49Z</time>
      </trkpt>
      <trkpt lat="13.253457" lon="99.775592">
        <ele>61.6</ele>
        <time>2023-11-04T03:12:52Z</time>
      </trkpt>
      <trkpt lat="13.253234" lon="99.775751">
        <ele>62.0</ele>
        <time>2023-11-04T03:12:58Z</time>
      </trkpt>
      <trkpt lat="13.253005" lon="99.775960">
        <ele>60.6</ele>
        <time>2023-11-04T03:13:04Z</time>
      </trkpt>
      <trkpt lat="13.252934" lon="99.775982">
        <ele>60.4</ele>
        <time>2023-11-04T03:13:05Z</time>
      </trkpt>
      <trkpt lat="13.252868" lon="99.775983">
        <ele>60.2</ele>
        <time>2023-11-04T03:13:06Z</time>
      </trkpt>
      <trkpt lat="13.252810" lon="99.776013">
        <ele>59.9</ele>
        <time>2023-11-04T03:13:07Z</time>
      </trkpt>
      <trkpt lat="13.252745" lon="99.776009">
        <ele>60.2</ele>
        <time>2023-11-04T03:13:08Z</time>
      </trkpt>
      <trkpt lat="13.252686" lon="99.776019">
        <ele>59.9</ele>
        <time>2023-11-04T03:13:09Z</time>
      </trkpt>
      <trkpt lat="13.252639" lon="99.776051">
        <ele>59.7</ele>
        <time>2023-11-04T03:13:10Z</time>
      </trkpt>
      <trkpt lat="13.252476" lon="99.776115">
        <ele>59.7</ele>
        <time>2023-11-04T03:13:13Z</time>
      </trkpt>
      <trkpt lat="13.252251" lon="99.776174">
        <ele>59.5</ele>
        <time>2023-11-04T03:13:17Z</time>
      </trkpt>
      <trkpt lat="13.251906" lon="99.776184">
        <ele>59.8</ele>
        <time>2023-11-04T03:13:23Z</time>
      </trkpt>
      <trkpt lat="13.251624" lon="99.776209">
        <ele>59.9</ele>
        <time>2023-11-04T03:13:28Z</time>
      </trkpt>
      <trkpt lat="13.251574" lon="99.776205">
        <ele>60.1</ele>
        <time>2023-11-04T03:13:29Z</time>
      </trkpt>
      <trkpt lat="13.251475" lon="99.776229">
        <ele>60.3</ele>
        <time>2023-11-04T03:13:31Z</time>
      </trkpt>
      <trkpt lat="13.251418" lon="99.776219">
        <ele>60.6</ele>
        <time>2023-11-04T03:13:32Z</time>
      </trkpt>
      <trkpt lat="13.251275" lon="99.776251">
        <ele>60.3</ele>
        <time>2023-11-04T03:13:35Z</time>
      </trkpt>
      <trkpt lat="13.251071" lon="99.776266">
        <ele>60.2</ele>
        <time>2023-11-04T03:13:39Z</time>
      </trkpt>
      <trkpt lat="13.250912" lon="99.776145">
        <ele>60.4</ele>
        <time>2023-11-04T03:13:43Z</time>
      </trkpt>
      <trkpt lat="13.250773" lon="99.776099">
        <ele>60.9</ele>
        <time>2023-11-04T03:13:46Z</time>
      </trkpt>
      <trkpt lat="13.250668" lon="99.776098">
        <ele>60.4</ele>
        <time>2023-11-04T03:13:48Z</time>
      </trkpt>
      <trkpt lat="13.250437" lon="99.776143">
        <ele>60.5</ele>
        <time>2023-11-04T03:13:52Z</time>
      </trkpt>
      <trkpt lat="13.250312" lon="99.776137">
        <ele>60.0</ele>
        <time>2023-11-04T03:13:54Z</time>
      </trkpt>
      <trkpt lat="13.250142" lon="99.776085">
        <ele>59.7</ele>
        <time>2023-11-04T03:13:57Z</time>
      </trkpt>
      <trkpt lat="13.249974" lon="99.776016">
        <ele>59.2</ele>
        <time>2023-11-04T03:14:00Z</time>
      </trkpt>
      <trkpt lat="13.249869" lon="99.775948">
        <ele>59.2</ele>
        <time>2023-11-04T03:14:02Z</time>
      </trkpt>
      <trkpt lat="13.249809" lon="99.775927">
        <ele>59.2</ele>
        <time>2023-11-04T03:14:03Z</time>
      </trkpt>
      <trkpt lat="13.249764" lon="99.775890">
        <ele>59.4</ele>
        <time>2023-11-04T03:14:04Z</time>
      </trkpt>
      <trkpt lat="13.249704" lon="99.775877">
        <ele>59.4</ele>
        <time>2023-11-04T03:14:05Z</time>
      </trkpt>
      <trkpt lat="13.249569" lon="99.775765">
        <ele>59.8</ele>
        <time>2023-11-04T03:14:08Z</time>
      </trkpt>
      <trkpt lat="13.249515" lon="99.775752">
        <ele>59.9</ele>
        <time>2023-11-04T03:14:09Z</time>
      </trkpt>
      <trkpt lat="13.249366" lon="99.775678">
        <ele>60.1</ele>
        <time>2023-11-04T03:14:12Z</time>
      </trkpt>
      <trkpt lat="13.249122" lon="99.775600">
        <ele>60.6</ele>
        <time>2023-11-04T03:14:17Z</time>
      </trkpt>
      <trkpt lat="13.248887" lon="99.775538">
        <ele>60.4</ele>
        <time>2023-11-04T03:14:22Z</time>
      </trkpt>
      <trkpt lat="13.248782" lon="99.775526">
        <ele>60.3</ele>
        <time>2023-11-04T03:14:24Z</time>
      </trkpt>
      <trkpt lat="13.248725" lon="99.775547">
        <ele>60.3</ele>
        <time>2023-11-04T03:14:25Z</time>
      </trkpt>
      <trkpt lat="13.248669" lon="99.775539">
        <ele>60.1</ele>
        <time>2023-11-04T03:14:26Z</time>
      </trkpt>
      <trkpt lat="13.248619" lon="99.775516">
        <ele>60.5</ele>
        <time>2023-11-04T03:14:27Z</time>
      </trkpt>
      <trkpt lat="13.248077" lon="99.775449">
        <ele>61.0</ele>
        <time>2023-11-04T03:14:38Z</time>
      </trkpt>
      <trkpt lat="13.248022" lon="99.775459">
        <ele>60.8</ele>
        <time>2023-11-04T03:14:39Z</time>
      </trkpt>
      <trkpt lat="13.247911" lon="99.775454">
        <ele>61.0</ele>
        <time>2023-11-04T03:14:41Z</time>
      </trkpt>
      <trkpt lat="13.247489" lon="99.775408">
        <ele>60.6</ele>
        <time>2023-11-04T03:14:48Z</time>
      </trkpt>
      <trkpt lat="13.247426" lon="99.775415">
        <ele>60.6</ele>
        <time>2023-11-04T03:14:49Z</time>
      </trkpt>
      <trkpt lat="13.247371" lon="99.775406">
        <ele>60.8</ele>
        <time>2023-11-04T03:14:50Z</time>
      </trkpt>
      <trkpt lat="13.247318" lon="99.775377">
        <ele>60.8</ele>
        <time>2023-11-04T03:14:51Z</time>
      </trkpt>
      <trkpt lat="13.247255" lon="99.775374">
        <ele>61.0</ele>
        <time>2023-11-04T03:14:52Z</time>
      </trkpt>
      <trkpt lat="13.247202" lon="99.775351">
        <ele>60.9</ele>
        <time>2023-11-04T03:14:53Z</time>
      </trkpt>
      <trkpt lat="13.247115" lon="99.775371">
        <ele>60.9</ele>
        <time>2023-11-04T03:14:55Z</time>
      </trkpt>
      <trkpt lat="13.247068" lon="99.775286">
        <ele>61.0</ele>
        <time>2023-11-04T03:14:56Z</time>
      </trkpt>
      <trkpt lat="13.246922" lon="99.775227">
        <ele>61.9</ele>
        <time>2023-11-04T03:15:00Z</time>
      </trkpt>
      <trkpt lat="13.246821" lon="99.775041">
        <ele>63.2</ele>
        <time>2023-11-04T03:15:04Z</time>
      </trkpt>
      <trkpt lat="13.246571" lon="99.774877">
        <ele>61.3</ele>
        <time>2023-11-04T03:15:11Z</time>
      </trkpt>
      <trkpt lat="13.246375" lon="99.774802">
        <ele>60.0</ele>
        <time>2023-11-04T03:15:16Z</time>
      </trkpt>
      <trkpt lat="13.246352" lon="99.774758">
        <ele>60.0</ele>
        <time>2023-11-04T03:15:18Z</time>
      </trkpt>
      <trkpt lat="13.246352" lon="99.774714">
        <ele>60.0</ele>
        <time>2023-11-04T03:15:20Z</time>
      </trkpt>
      <trkpt lat="13.246372" lon="99.774623">
        <ele>60.0</ele>
        <time>2023-11-04T03:15:24Z</time>
      </trkpt>
      <trkpt lat="13.246515" lon="99.774284">
        <ele>66.0</ele>
        <time>2023-11-04T03:15:42Z</time>
      </trkpt>
      <trkpt lat="13.246623" lon="99.774154">
        <ele>64.1</ele>
        <time>2023-11-04T03:15:49Z</time>
      </trkpt>
      <trkpt lat="13.246757" lon="99.774019">
        <ele>63.5</ele>
        <time>2023-11-04T03:15:53Z</time>
      </trkpt>
      <trkpt lat="13.246829" lon="99.773856">
        <ele>63.7</ele>
        <time>2023-11-04T03:15:57Z</time>
      </trkpt>
      <trkpt lat="13.246891" lon="99.773746">
        <ele>64.2</ele>
        <time>2023-11-04T03:16:00Z</time>
      </trkpt>
      <trkpt lat="13.246935" lon="99.773689">
        <ele>64.5</ele>
        <time>2023-11-04T03:16:02Z</time>
      </trkpt>
      <trkpt lat="13.247029" lon="99.773599">
        <ele>64.0</ele>
        <time>2023-11-04T03:16:06Z</time>
      </trkpt>
      <trkpt lat="13.247160" lon="99.773532">
        <ele>64.0</ele>
        <time>2023-11-04T03:16:12Z</time>
      </trkpt>
      <trkpt lat="13.247307" lon="99.773392">
        <ele>66.0</ele>
        <time>2023-11-04T03:16:20Z</time>
      </trkpt>
      <trkpt lat="13.247499" lon="99.773234">
        <ele>68.0</ele>
        <time>2023-11-04T03:16:30Z</time>
      </trkpt>
      <trkpt lat="13.247678" lon="99.773148">
        <ele>70.0</ele>
        <time>2023-11-04T03:16:38Z</time>
      </trkpt>
      <trkpt lat="13.247745" lon="99.773084">
        <ele>69.4</ele>
        <time>2023-11-04T03:16:42Z</time>
      </trkpt>
      <trkpt lat="13.247800" lon="99.772972">
        <ele>68.6</ele>
        <time>2023-11-04T03:16:45Z</time>
      </trkpt>
      <trkpt lat="13.247936" lon="99.772746">
        <ele>69.2</ele>
        <time>2023-11-04T03:16:50Z</time>
      </trkpt>
      <trkpt lat="13.247941" lon="99.772565">
        <ele>70.0</ele>
        <time>2023-11-04T03:16:57Z</time>
      </trkpt>
      <trkpt lat="13.247886" lon="99.772259">
        <ele>75.0</ele>
        <time>2023-11-04T03:17:18Z</time>
      </trkpt>
      <trkpt lat="13.247852" lon="99.772178">
        <ele>75.0</ele>
        <time>2023-11-04T03:17:24Z</time>
      </trkpt>
      <trkpt lat="13.247825" lon="99.772153">
        <ele>77.0</ele>
        <time>2023-11-04T03:17:26Z</time>
      </trkpt>
      <trkpt lat="13.247804" lon="99.772091">
        <ele>78.0</ele>
        <time>2023-11-04T03:17:30Z</time>
      </trkpt>
      <trkpt lat="13.247713" lon="99.771930">
        <ele>80.0</ele>
        <time>2023-11-04T03:17:43Z</time>
      </trkpt>
      <trkpt lat="13.247641" lon="99.771828">
        <ele>80.0</ele>
        <time>2023-11-04T03:17:51Z</time>
      </trkpt>
      <trkpt lat="13.247531" lon="99.771736">
        <ele>81.0</ele>
        <time>2023-11-04T03:18:00Z</time>
      </trkpt>
      <trkpt lat="13.247403" lon="99.771684">
        <ele>80.0</ele>
        <time>2023-11-04T03:18:07Z</time>
      </trkpt>
      <trkpt lat="13.247301" lon="99.771671">
        <ele>80.0</ele>
        <time>2023-11-04T03:18:11Z</time>
      </trkpt>
      <trkpt lat="13.247078" lon="99.771680">
        <ele>79.0</ele>
        <time>2023-11-04T03:18:19Z</time>
      </trkpt>
      <trkpt lat="13.247010" lon="99.771627">
        <ele>79.3</ele>
        <time>2023-11-04T03:18:22Z</time>
      </trkpt>
      <trkpt lat="13.246991" lon="99.771589">
        <ele>78.9</ele>
        <time>2023-11-04T03:18:23Z</time>
      </trkpt>
      <trkpt lat="13.246964" lon="99.771482">
        <ele>77.4</ele>
        <time>2023-11-04T03:18:25Z</time>
      </trkpt>
      <trkpt lat="13.246964" lon="99.771411">
        <ele>76.6</ele>
        <time>2023-11-04T03:18:26Z</time>
      </trkpt>
      <trkpt lat="13.247011" lon="99.771228">
        <ele>78.7</ele>
        <time>2023-11-04T03:18:29Z</time>
      </trkpt>
      <trkpt lat="13.247007" lon="99.771166">
        <ele>79.0</ele>
        <time>2023-11-04T03:18:31Z</time>
      </trkpt>
      <trkpt lat="13.247018" lon="99.771134">
        <ele>79.0</ele>
        <time>2023-11-04T03:18:33Z</time>
      </trkpt>
      <trkpt lat="13.247020" lon="99.771067">
        <ele>80.0</ele>
        <time>2023-11-04T03:18:37Z</time>
      </trkpt>
      <trkpt lat="13.247035" lon="99.771031">
        <ele>80.0</ele>
        <time>2023-11-04T03:18:39Z</time>
      </trkpt>
      <trkpt lat="13.247136" lon="99.770952">
        <ele>80.0</ele>
        <time>2023-11-04T03:18:45Z</time>
      </trkpt>
      <trkpt lat="13.247156" lon="99.770902">
        <ele>87.4</ele>
        <time>2023-11-04T03:18:50Z</time>
      </trkpt>
      <trkpt lat="13.247253" lon="99.770751">
        <ele>87.0</ele>
        <time>2023-11-04T03:19:03Z</time>
      </trkpt>
      <trkpt lat="13.247367" lon="99.770635">
        <ele>86.0</ele>
        <time>2023-11-04T03:19:14Z</time>
      </trkpt>
      <trkpt lat="13.247384" lon="99.770605">
        <ele>87.0</ele>
        <time>2023-11-04T03:19:17Z</time>
      </trkpt>
      <trkpt lat="13.247446" lon="99.770561">
        <ele>88.0</ele>
        <time>2023-11-04T03:19:22Z</time>
      </trkpt>
      <trkpt lat="13.247594" lon="99.770372">
        <ele>90.0</ele>
        <time>2023-11-04T03:19:40Z</time>
      </trkpt>
      <trkpt lat="13.247638" lon="99.770301">
        <ele>93.0</ele>
        <time>2023-11-04T03:19:47Z</time>
      </trkpt>
      <trkpt lat="13.247646" lon="99.770192">
        <ele>93.0</ele>
        <time>2023-11-04T03:19:56Z</time>
      </trkpt>
      <trkpt lat="13.247574" lon="99.770067">
        <ele>96.0</ele>
        <time>2023-11-04T03:20:06Z</time>
      </trkpt>
      <trkpt lat="13.247501" lon="99.770049">
        <ele>96.0</ele>
        <time>2023-11-04T03:20:10Z</time>
      </trkpt>
      <trkpt lat="13.247314" lon="99.770038">
        <ele>94.0</ele>
        <time>2023-11-04T03:20:18Z</time>
      </trkpt>
      <trkpt lat="13.246924" lon="99.770068">
        <ele>92.4</ele>
        <time>2023-11-04T03:20:28Z</time>
      </trkpt>
      <trkpt lat="13.246792" lon="99.770052">
        <ele>91.9</ele>
        <time>2023-11-04T03:20:30Z</time>
      </trkpt>
      <trkpt lat="13.246670" lon="99.770020">
        <ele>91.5</ele>
        <time>2023-11-04T03:20:32Z</time>
      </trkpt>
      <trkpt lat="13.246110" lon="99.769765">
        <ele>92.5</ele>
        <time>2023-11-04T03:20:43Z</time>
      </trkpt>
      <trkpt lat="13.245930" lon="99.769730">
        <ele>92.0</ele>
        <time>2023-11-04T03:20:47Z</time>
      </trkpt>
      <trkpt lat="13.245855" lon="99.769662">
        <ele>92.0</ele>
        <time>2023-11-04T03:20:51Z</time>
      </trkpt>
      <trkpt lat="13.245743" lon="99.769463">
        <ele>92.6</ele>
        <time>2023-11-04T03:21:01Z</time>
      </trkpt>
      <trkpt lat="13.245683" lon="99.769269">
        <ele>94.0</ele>
        <time>2023-11-04T03:21:06Z</time>
      </trkpt>
      <trkpt lat="13.245660" lon="99.769111">
        <ele>96.0</ele>
        <time>2023-11-04T03:21:14Z</time>
      </trkpt>
      <trkpt lat="13.245640" lon="99.769036">
        <ele>96.0</ele>
        <time>2023-11-04T03:21:18Z</time>
      </trkpt>
      <trkpt lat="13.245401" lon="99.768684">
        <ele>96.1</ele>
        <time>2023-11-04T03:21:43Z</time>
      </trkpt>
      <trkpt lat="13.245347" lon="99.768552">
        <ele>94.0</ele>
        <time>2023-11-04T03:21:45Z</time>
      </trkpt>
      <trkpt lat="13.245265" lon="99.768475">
        <ele>93.2</ele>
        <time>2023-11-04T03:21:47Z</time>
      </trkpt>
      <trkpt lat="13.245141" lon="99.768457">
        <ele>91.2</ele>
        <time>2023-11-04T03:21:49Z</time>
      </trkpt>
      <trkpt lat="13.245061" lon="99.768461">
        <ele>90.8</ele>
        <time>2023-11-04T03:21:50Z</time>
      </trkpt>
      <trkpt lat="13.244850" lon="99.768546">
        <ele>88.4</ele>
        <time>2023-11-04T03:21:53Z</time>
      </trkpt>
      <trkpt lat="13.244791" lon="99.768561">
        <ele>87.7</ele>
        <time>2023-11-04T03:21:54Z</time>
      </trkpt>
      <trkpt lat="13.244703" lon="99.768557">
        <ele>86.3</ele>
        <time>2023-11-04T03:21:56Z</time>
      </trkpt>
      <trkpt lat="13.244668" lon="99.768537">
        <ele>85.7</ele>
        <time>2023-11-04T03:21:57Z</time>
      </trkpt>
      <trkpt lat="13.244618" lon="99.768451">
        <ele>84.0</ele>
        <time>2023-11-04T03:21:59Z</time>
      </trkpt>
      <trkpt lat="13.244606" lon="99.768382">
        <ele>83.3</ele>
        <time>2023-11-04T03:22:00Z</time>
      </trkpt>
      <trkpt lat="13.244600" lon="99.768234">
        <ele>83.7</ele>
        <time>2023-11-04T03:22:02Z</time>
      </trkpt>
      <trkpt lat="13.244554" lon="99.768120">
        <ele>84.6</ele>
        <time>2023-11-04T03:22:04Z</time>
      </trkpt>
      <trkpt lat="13.244456" lon="99.768031">
        <ele>85.2</ele>
        <time>2023-11-04T03:22:07Z</time>
      </trkpt>
      <trkpt lat="13.244310" lon="99.767823">
        <ele>83.5</ele>
        <time>2023-11-04T03:22:11Z</time>
      </trkpt>
      <trkpt lat="13.244286" lon="99.767701">
        <ele>83.3</ele>
        <time>2023-11-04T03:22:13Z</time>
      </trkpt>
      <trkpt lat="13.244285" lon="99.767626">
        <ele>84.0</ele>
        <time>2023-11-04T03:22:18Z</time>
      </trkpt>
      <trkpt lat="13.244330" lon="99.767544">
        <ele>90.0</ele>
        <time>2023-11-04T03:23:11Z</time>
      </trkpt>
      <trkpt lat="13.244314" lon="99.767564">
        <ele>84.0</ele>
        <time>2023-11-04T03:24:05Z</time>
      </trkpt>
      <trkpt lat="13.244261" lon="99.767484">
        <ele>90.0</ele>
        <time>2023-11-04T03:24:28Z</time>
      </trkpt>
      <trkpt lat="13.244258" lon="99.767433">
        <ele>89.0</ele>
        <time>2023-11-04T03:24:41Z</time>
      </trkpt>
      <trkpt lat="13.244217" lon="99.767342">
        <ele>90.0</ele>
        <time>2023-11-04T03:25:23Z</time>
      </trkpt>
      <trkpt lat="13.244196" lon="99.767235">
        <ele>92.0</ele>
        <time>2023-11-04T03:25:30Z</time>
      </trkpt>
      <trkpt lat="13.244138" lon="99.767155">
        <ele>93.0</ele>
        <time>2023-11-04T03:25:37Z</time>
      </trkpt>
      <trkpt lat="13.244072" lon="99.767127">
        <ele>93.0</ele>
        <time>2023-11-04T03:25:43Z</time>
      </trkpt>
      <trkpt lat="13.244003" lon="99.767130">
        <ele>85.0</ele>
        <time>2023-11-04T03:26:16Z</time>
      </trkpt>
      <trkpt lat="13.243941" lon="99.767112">
        <ele>94.0</ele>
        <time>2023-11-04T03:26:52Z</time>
      </trkpt>
      <trkpt lat="13.243956" lon="99.767145">
        <ele>94.0</ele>
        <time>2023-11-04T03:27:03Z</time>
      </trkpt>
      <trkpt lat="13.243895" lon="99.767217">
        <ele>94.0</ele>
        <time>2023-11-04T03:27:06Z</time>
      </trkpt>
      <trkpt lat="13.243834" lon="99.767352">
        <ele>92.0</ele>
        <time>2023-11-04T03:27:10Z</time>
      </trkpt>
      <trkpt lat="13.243803" lon="99.767375">
        <ele>91.6</ele>
        <time>2023-11-04T03:27:11Z</time>
      </trkpt>
      <trkpt lat="13.243723" lon="99.767407">
        <ele>91.0</ele>
        <time>2023-11-04T03:27:13Z</time>
      </trkpt>
      <trkpt lat="13.243671" lon="99.767408">
        <ele>90.9</ele>
        <time>2023-11-04T03:27:14Z</time>
      </trkpt>
      <trkpt lat="13.243578" lon="99.767388">
        <ele>90.7</ele>
        <time>2023-11-04T03:27:16Z</time>
      </trkpt>
      <trkpt lat="13.243451" lon="99.767390">
        <ele>90.0</ele>
        <time>2023-11-04T03:27:19Z</time>
      </trkpt>
      <trkpt lat="13.243372" lon="99.767366">
        <ele>90.0</ele>
        <time>2023-11-04T03:27:23Z</time>
      </trkpt>
      <trkpt lat="13.243224" lon="99.767350">
        <ele>91.0</ele>
        <time>2023-11-04T03:27:29Z</time>
      </trkpt>
      <trkpt lat="13.243019" lon="99.767295">
        <ele>91.1</ele>
        <time>2023-11-04T03:27:34Z</time>
      </trkpt>
      <trkpt lat="13.242889" lon="99.767226">
        <ele>93.0</ele>
        <time>2023-11-04T03:27:42Z</time>
      </trkpt>
      <trkpt lat="13.242860" lon="99.767201">
        <ele>94.0</ele>
        <time>2023-11-04T03:27:44Z</time>
      </trkpt>
      <trkpt lat="13.242708" lon="99.767015">
        <ele>96.0</ele>
        <time>2023-11-04T03:28:00Z</time>
      </trkpt>
      <trkpt lat="13.242683" lon="99.766964">
        <ele>98.3</ele>
        <time>2023-11-04T03:28:04Z</time>
      </trkpt>
      <trkpt lat="13.242630" lon="99.766893">
        <ele>98.0</ele>
        <time>2023-11-04T03:28:10Z</time>
      </trkpt>
      <trkpt lat="13.242572" lon="99.766757">
        <ele>99.0</ele>
        <time>2023-11-04T03:28:21Z</time>
      </trkpt>
      <trkpt lat="13.242537" lon="99.766742">
        <ele>99.0</ele>
        <time>2023-11-04T03:28:24Z</time>
      </trkpt>
      <trkpt lat="13.242467" lon="99.766764">
        <ele>101.0</ele>
        <time>2023-11-04T03:28:29Z</time>
      </trkpt>
      <trkpt lat="13.242403" lon="99.766809">
        <ele>100.0</ele>
        <time>2023-11-04T03:28:33Z</time>
      </trkpt>
      <trkpt lat="13.242380" lon="99.766855">
        <ele>101.3</ele>
        <time>2023-11-04T03:28:35Z</time>
      </trkpt>
      <trkpt lat="13.242362" lon="99.766961">
        <ele>100.1</ele>
        <time>2023-11-04T03:28:37Z</time>
      </trkpt>
      <trkpt lat="13.242370" lon="99.767148">
        <ele>97.5</ele>
        <time>2023-11-04T03:28:40Z</time>
      </trkpt>
      <trkpt lat="13.242337" lon="99.767528">
        <ele>92.2</ele>
        <time>2023-11-04T03:28:46Z</time>
      </trkpt>
      <trkpt lat="13.242322" lon="99.767577">
        <ele>91.4</ele>
        <time>2023-11-04T03:28:47Z</time>
      </trkpt>
      <trkpt lat="13.242198" lon="99.767725">
        <ele>88.1</ele>
        <time>2023-11-04T03:28:50Z</time>
      </trkpt>
      <trkpt lat="13.242137" lon="99.767761">
        <ele>87.9</ele>
        <time>2023-11-04T03:28:51Z</time>
      </trkpt>
      <trkpt lat="13.241965" lon="99.767820">
        <ele>89.0</ele>
        <time>2023-11-04T03:28:54Z</time>
      </trkpt>
      <trkpt lat="13.241930" lon="99.767840">
        <ele>90.0</ele>
        <time>2023-11-04T03:28:56Z</time>
      </trkpt>
      <trkpt lat="13.241837" lon="99.767864">
        <ele>91.0</ele>
        <time>2023-11-04T03:29:02Z</time>
      </trkpt>
      <trkpt lat="13.241668" lon="99.768000">
        <ele>92.2</ele>
        <time>2023-11-04T03:29:10Z</time>
      </trkpt>
      <trkpt lat="13.241479" lon="99.768242">
        <ele>90.5</ele>
        <time>2023-11-04T03:29:19Z</time>
      </trkpt>
      <trkpt lat="13.241340" lon="99.768487">
        <ele>90.2</ele>
        <time>2023-11-04T03:29:24Z</time>
      </trkpt>
      <trkpt lat="13.241293" lon="99.768698">
        <ele>91.7</ele>
        <time>2023-11-04T03:29:28Z</time>
      </trkpt>
      <trkpt lat="13.241293" lon="99.768783">
        <ele>92.0</ele>
        <time>2023-11-04T03:29:30Z</time>
      </trkpt>
      <trkpt lat="13.241318" lon="99.768858">
        <ele>94.0</ele>
        <time>2023-11-04T03:29:34Z</time>
      </trkpt>
      <trkpt lat="13.241314" lon="99.768895">
        <ele>94.0</ele>
        <time>2023-11-04T03:29:36Z</time>
      </trkpt>
      <trkpt lat="13.241295" lon="99.768932">
        <ele>92.0</ele>
        <time>2023-11-04T03:29:38Z</time>
      </trkpt>
      <trkpt lat="13.241293" lon="99.769067">
        <ele>84.0</ele>
        <time>2023-11-04T03:29:51Z</time>
      </trkpt>
      <trkpt lat="13.241332" lon="99.769180">
        <ele>94.0</ele>
        <time>2023-11-04T03:30:30Z</time>
      </trkpt>
      <trkpt lat="13.241394" lon="99.769310">
        <ele>92.3</ele>
        <time>2023-11-04T03:30:36Z</time>
      </trkpt>
      <trkpt lat="13.241536" lon="99.769435">
        <ele>89.4</ele>
        <time>2023-11-04T03:30:39Z</time>
      </trkpt>
      <trkpt lat="13.241615" lon="99.769429">
        <ele>88.0</ele>
        <time>2023-11-04T03:30:41Z</time>
      </trkpt>
      <trkpt lat="13.241705" lon="99.769471">
        <ele>86.7</ele>
        <time>2023-11-04T03:30:43Z</time>
      </trkpt>
      <trkpt lat="13.241887" lon="99.769597">
        <ele>85.4</ele>
        <time>2023-11-04T03:30:47Z</time>
      </trkpt>
      <trkpt lat="13.242028" lon="99.769648">
        <ele>84.4</ele>
        <time>2023-11-04T03:30:50Z</time>
      </trkpt>
      <trkpt lat="13.242070" lon="99.769688">
        <ele>83.5</ele>
        <time>2023-11-04T03:30:51Z</time>
      </trkpt>
      <trkpt lat="13.242164" lon="99.769820">
        <ele>83.7</ele>
        <time>2023-11-04T03:30:54Z</time>
      </trkpt>
      <trkpt lat="13.242266" lon="99.769920">
        <ele>83.2</ele>
        <time>2023-11-04T03:30:57Z</time>
      </trkpt>
      <trkpt lat="13.242453" lon="99.769991">
        <ele>80.4</ele>
        <time>2023-11-04T03:31:01Z</time>
      </trkpt>
      <trkpt lat="13.242541" lon="99.770055">
        <ele>78.1</ele>
        <time>2023-11-04T03:31:03Z</time>
      </trkpt>
      <trkpt lat="13.242596" lon="99.770108">
        <ele>77.3</ele>
        <time>2023-11-04T03:31:04Z</time>
      </trkpt>
      <trkpt lat="13.242641" lon="99.770172">
        <ele>76.7</ele>
        <time>2023-11-04T03:31:05Z</time>
      </trkpt>
      <trkpt lat="13.242753" lon="99.770375">
        <ele>76.0</ele>
        <time>2023-11-04T03:31:08Z</time>
      </trkpt>
      <trkpt lat="13.242876" lon="99.770557">
        <ele>74.9</ele>
        <time>2023-11-04T03:31:11Z</time>
      </trkpt>
      <trkpt lat="13.242940" lon="99.770693">
        <ele>73.8</ele>
        <time>2023-11-04T03:31:13Z</time>
      </trkpt>
      <trkpt lat="13.243007" lon="99.770889">
        <ele>72.9</ele>
        <time>2023-11-04T03:31:16Z</time>
      </trkpt>
      <trkpt lat="13.243010" lon="99.771071">
        <ele>71.4</ele>
        <time>2023-11-04T03:31:19Z</time>
      </trkpt>
      <trkpt lat="13.243043" lon="99.771273">
        <ele>70.2</ele>
        <time>2023-11-04T03:31:22Z</time>
      </trkpt>
      <trkpt lat="13.243014" lon="99.771454">
        <ele>70.6</ele>
        <time>2023-11-04T03:31:25Z</time>
      </trkpt>
      <trkpt lat="13.242996" lon="99.771693">
        <ele>70.8</ele>
        <time>2023-11-04T03:31:30Z</time>
      </trkpt>
      <trkpt lat="13.243000" lon="99.771778">
        <ele>70.6</ele>
        <time>2023-11-04T03:31:32Z</time>
      </trkpt>
      <trkpt lat="13.242985" lon="99.771897">
        <ele>70.1</ele>
        <time>2023-11-04T03:31:35Z</time>
      </trkpt>
      <trkpt lat="13.242989" lon="99.771942">
        <ele>69.9</ele>
        <time>2023-11-04T03:31:36Z</time>
      </trkpt>
      <trkpt lat="13.243033" lon="99.772064">
        <ele>69.2</ele>
        <time>2023-11-04T03:31:39Z</time>
      </trkpt>
      <trkpt lat="13.243067" lon="99.772100">
        <ele>69.0</ele>
        <time>2023-11-04T03:31:40Z</time>
      </trkpt>
      <trkpt lat="13.243110" lon="99.772116">
        <ele>68.9</ele>
        <time>2023-11-04T03:31:41Z</time>
      </trkpt>
      <trkpt lat="13.243155" lon="99.772112">
        <ele>68.5</ele>
        <time>2023-11-04T03:31:42Z</time>
      </trkpt>
      <trkpt lat="13.243265" lon="99.772055">
        <ele>67.8</ele>
        <time>2023-11-04T03:31:44Z</time>
      </trkpt>
      <trkpt lat="13.243482" lon="99.772024">
        <ele>66.0</ele>
        <time>2023-11-04T03:31:53Z</time>
      </trkpt>
      <trkpt lat="13.243550" lon="99.772140">
        <ele>66.0</ele>
        <time>2023-11-04T03:32:00Z</time>
      </trkpt>
      <trkpt lat="13.243618" lon="99.772189">
        <ele>63.0</ele>
        <time>2023-11-04T03:32:11Z</time>
      </trkpt>
      <trkpt lat="13.243653" lon="99.772250">
        <ele>63.0</ele>
        <time>2023-11-04T03:32:17Z</time>
      </trkpt>
      <trkpt lat="13.243713" lon="99.772283">
        <ele>55.0</ele>
        <time>2023-11-04T03:32:53Z</time>
      </trkpt>
      <trkpt lat="13.243706" lon="99.772306">
        <ele>64.0</ele>
        <time>2023-11-04T03:33:18Z</time>
      </trkpt>
      <trkpt lat="13.243636" lon="99.772281">
        <ele>63.0</ele>
        <time>2023-11-04T03:33:39Z</time>
      </trkpt>
      <trkpt lat="13.243475" lon="99.772327">
        <ele>64.0</ele>
        <time>2023-11-04T03:33:49Z</time>
      </trkpt>
      <trkpt lat="13.243418" lon="99.772442">
        <ele>64.0</ele>
        <time>2023-11-04T03:33:55Z</time>
      </trkpt>
      <trkpt lat="13.243376" lon="99.772473">
        <ele>64.0</ele>
        <time>2023-11-04T03:33:57Z</time>
      </trkpt>
      <trkpt lat="13.243326" lon="99.772567">
        <ele>62.0</ele>
        <time>2023-11-04T03:34:01Z</time>
      </trkpt>
      <trkpt lat="13.243317" lon="99.772614">
        <ele>63.7</ele>
        <time>2023-11-04T03:34:03Z</time>
      </trkpt>
      <trkpt lat="13.243337" lon="99.772683">
        <ele>64.0</ele>
        <time>2023-11-04T03:34:05Z</time>
      </trkpt>
      <trkpt lat="13.243342" lon="99.772790">
        <ele>65.5</ele>
        <time>2023-11-04T03:34:09Z</time>
      </trkpt>
      <trkpt lat="13.243334" lon="99.772952">
        <ele>65.0</ele>
        <time>2023-11-04T03:34:13Z</time>
      </trkpt>
      <trkpt lat="13.243346" lon="99.772989">
        <ele>65.0</ele>
        <time>2023-11-04T03:34:14Z</time>
      </trkpt>
      <trkpt lat="13.243399" lon="99.773048">
        <ele>65.0</ele>
        <time>2023-11-04T03:34:16Z</time>
      </trkpt>
      <trkpt lat="13.243438" lon="99.773044">
        <ele>64.6</ele>
        <time>2023-11-04T03:34:17Z</time>
      </trkpt>
      <trkpt lat="13.243600" lon="99.773078">
        <ele>64.9</ele>
        <time>2023-11-04T03:34:22Z</time>
      </trkpt>
      <trkpt lat="13.243670" lon="99.773132">
        <ele>64.0</ele>
        <time>2023-11-04T03:34:25Z</time>
      </trkpt>
      <trkpt lat="13.243680" lon="99.773171">
        <ele>64.0</ele>
        <time>2023-11-04T03:34:27Z</time>
      </trkpt>
      <trkpt lat="13.243676" lon="99.773232">
        <ele>65.0</ele>
        <time>2023-11-04T03:34:29Z</time>
      </trkpt>
      <trkpt lat="13.243618" lon="99.773374">
        <ele>64.3</ele>
        <time>2023-11-04T03:34:34Z</time>
      </trkpt>
      <trkpt lat="13.243603" lon="99.773443">
        <ele>63.0</ele>
        <time>2023-11-04T03:34:36Z</time>
      </trkpt>
      <trkpt lat="13.243564" lon="99.773467">
        <ele>63.1</ele>
        <time>2023-11-04T03:34:37Z</time>
      </trkpt>
      <trkpt lat="13.243420" lon="99.773475">
        <ele>62.6</ele>
        <time>2023-11-04T03:34:41Z</time>
      </trkpt>
      <trkpt lat="13.243213" lon="99.773456">
        <ele>62.6</ele>
        <time>2023-11-04T03:34:46Z</time>
      </trkpt>
      <trkpt lat="13.243093" lon="99.773412">
        <ele>62.5</ele>
        <time>2023-11-04T03:34:49Z</time>
      </trkpt>
      <trkpt lat="13.242968" lon="99.773408">
        <ele>62.1</ele>
        <time>2023-11-04T03:34:52Z</time>
      </trkpt>
      <trkpt lat="13.242845" lon="99.773376">
        <ele>62.7</ele>
        <time>2023-11-04T03:34:55Z</time>
      </trkpt>
      <trkpt lat="13.242713" lon="99.773364">
        <ele>63.5</ele>
        <time>2023-11-04T03:34:59Z</time>
      </trkpt>
      <trkpt lat="13.242558" lon="99.773441">
        <ele>62.0</ele>
        <time>2023-11-04T03:35:04Z</time>
      </trkpt>
      <trkpt lat="13.242449" lon="99.773443">
        <ele>63.0</ele>
        <time>2023-11-04T03:35:08Z</time>
      </trkpt>
      <trkpt lat="13.242416" lon="99.773417">
        <ele>56.0</ele>
        <time>2023-11-04T03:35:15Z</time>
      </trkpt>
      <trkpt lat="13.242376" lon="99.773409">
        <ele>62.0</ele>
        <time>2023-11-04T03:35:23Z</time>
      </trkpt>
      <trkpt lat="13.242345" lon="99.773325">
        <ele>62.0</ele>
        <time>2023-11-04T03:35:27Z</time>
      </trkpt>
      <trkpt lat="13.242297" lon="99.773246">
        <ele>62.0</ele>
        <time>2023-11-04T03:35:30Z</time>
      </trkpt>
      <trkpt lat="13.242249" lon="99.773187">
        <ele>62.6</ele>
        <time>2023-11-04T03:35:33Z</time>
      </trkpt>
      <trkpt lat="13.242209" lon="99.773172">
        <ele>62.0</ele>
        <time>2023-11-04T03:35:34Z</time>
      </trkpt>
      <trkpt lat="13.241881" lon="99.773173">
        <ele>62.8</ele>
        <time>2023-11-04T03:35:44Z</time>
      </trkpt>
      <trkpt lat="13.241791" lon="99.773122">
        <ele>62.2</ele>
        <time>2023-11-04T03:35:47Z</time>
      </trkpt>
      <trkpt lat="13.241363" lon="99.773088">
        <ele>62.0</ele>
        <time>2023-11-04T03:36:00Z</time>
      </trkpt>
      <trkpt lat="13.241250" lon="99.773100">
        <ele>63.4</ele>
        <time>2023-11-04T03:36:04Z</time>
      </trkpt>
      <trkpt lat="13.240901" lon="99.773051">
        <ele>63.1</ele>
        <time>2023-11-04T03:36:14Z</time>
      </trkpt>
      <trkpt lat="13.240685" lon="99.773090">
        <ele>62.0</ele>
        <time>2023-11-04T03:36:20Z</time>
      </trkpt>
      <trkpt lat="13.240628" lon="99.773092">
        <ele>62.0</ele>
        <time>2023-11-04T03:36:22Z</time>
      </trkpt>
      <trkpt lat="13.240611" lon="99.773129">
        <ele>62.0</ele>
        <time>2023-11-04T03:36:23Z</time>
      </trkpt>
      <trkpt lat="13.240555" lon="99.773148">
        <ele>62.0</ele>
        <time>2023-11-04T03:36:25Z</time>
      </trkpt>
      <trkpt lat="13.240456" lon="99.773153">
        <ele>62.0</ele>
        <time>2023-11-04T03:36:29Z</time>
      </trkpt>
      <trkpt lat="13.240422" lon="99.773170">
        <ele>62.0</ele>
        <time>2023-11-04T03:36:31Z</time>
      </trkpt>
      <trkpt lat="13.240416" lon="99.773239">
        <ele>60.0</ele>
        <time>2023-11-04T03:36:37Z</time>
      </trkpt>
      <trkpt lat="13.240374" lon="99.773279">
        <ele>61.0</ele>
        <time>2023-11-04T03:36:39Z</time>
      </trkpt>
      <trkpt lat="13.240237" lon="99.773279">
        <ele>62.0</ele>
        <time>2023-11-04T03:36:44Z</time>
      </trkpt>
      <trkpt lat="13.240190" lon="99.773288">
        <ele>62.1</ele>
        <time>2023-11-04T03:36:46Z</time>
      </trkpt>
      <trkpt lat="13.240123" lon="99.773264">
        <ele>62.4</ele>
        <time>2023-11-04T03:36:48Z</time>
      </trkpt>
      <trkpt lat="13.240095" lon="99.773275">
        <ele>61.1</ele>
        <time>2023-11-04T03:36:49Z</time>
      </trkpt>
      <trkpt lat="13.239957" lon="99.773215">
        <ele>61.5</ele>
        <time>2023-11-04T03:36:53Z</time>
      </trkpt>
      <trkpt lat="13.239793" lon="99.773223">
        <ele>60.0</ele>
        <time>2023-11-04T03:37:00Z</time>
      </trkpt>
      <trkpt lat="13.239583" lon="99.773203">
        <ele>60.0</ele>
        <time>2023-11-04T03:37:10Z</time>
      </trkpt>
      <trkpt lat="13.239391" lon="99.773223">
        <ele>58.0</ele>
        <time>2023-11-04T03:37:20Z</time>
      </trkpt>
      <trkpt lat="13.239361" lon="99.773249">
        <ele>58.0</ele>
        <time>2023-11-04T03:37:22Z</time>
      </trkpt>
      <trkpt lat="13.239343" lon="99.773337">
        <ele>58.0</ele>
        <time>2023-11-04T03:37:25Z</time>
      </trkpt>
      <trkpt lat="13.239379" lon="99.773368">
        <ele>49.0</ele>
        <time>2023-11-04T03:37:54Z</time>
      </trkpt>
      <trkpt lat="13.239359" lon="99.773540">
        <ele>59.1</ele>
        <time>2023-11-04T03:38:09Z</time>
      </trkpt>
      <trkpt lat="13.239335" lon="99.773611">
        <ele>59.1</ele>
        <time>2023-11-04T03:38:11Z</time>
      </trkpt>
      <trkpt lat="13.239300" lon="99.773637">
        <ele>58.0</ele>
        <time>2023-11-04T03:38:12Z</time>
      </trkpt>
      <trkpt lat="13.239000" lon="99.773572">
        <ele>58.2</ele>
        <time>2023-11-04T03:38:20Z</time>
      </trkpt>
      <trkpt lat="13.238960" lon="99.773580">
        <ele>58.0</ele>
        <time>2023-11-04T03:38:21Z</time>
      </trkpt>
      <trkpt lat="13.238923" lon="99.773566">
        <ele>57.6</ele>
        <time>2023-11-04T03:38:22Z</time>
      </trkpt>
      <trkpt lat="13.238832" lon="99.773560">
        <ele>58.0</ele>
        <time>2023-11-04T03:38:24Z</time>
      </trkpt>
      <trkpt lat="13.238566" lon="99.773506">
        <ele>58.5</ele>
        <time>2023-11-04T03:38:30Z</time>
      </trkpt>
      <trkpt lat="13.238479" lon="99.773479">
        <ele>58.0</ele>
        <time>2023-11-04T03:38:32Z</time>
      </trkpt>
      <trkpt lat="13.238018" lon="99.773404">
        <ele>57.9</ele>
        <time>2023-11-04T03:38:42Z</time>
      </trkpt>
      <trkpt lat="13.237876" lon="99.773391">
        <ele>57.8</ele>
        <time>2023-11-04T03:38:45Z</time>
      </trkpt>
      <trkpt lat="13.237717" lon="99.773342">
        <ele>57.6</ele>
        <time>2023-11-04T03:38:49Z</time>
      </trkpt>
      <trkpt lat="13.237635" lon="99.773334">
        <ele>57.6</ele>
        <time>2023-11-04T03:38:51Z</time>
      </trkpt>
      <trkpt lat="13.237570" lon="99.773353">
        <ele>56.0</ele>
        <time>2023-11-04T03:38:56Z</time>
      </trkpt>
      <trkpt lat="13.237544" lon="99.773302">
        <ele>56.0</ele>
        <time>2023-11-04T03:38:59Z</time>
      </trkpt>
      <trkpt lat="13.237629" lon="99.773068">
        <ele>58.0</ele>
        <time>2023-11-04T03:39:09Z</time>
      </trkpt>
      <trkpt lat="13.237679" lon="99.772997">
        <ele>60.0</ele>
        <time>2023-11-04T03:39:13Z</time>
      </trkpt>
      <trkpt lat="13.237710" lon="99.772934">
        <ele>60.0</ele>
        <time>2023-11-04T03:39:17Z</time>
      </trkpt>
      <trkpt lat="13.237729" lon="99.772824">
        <ele>60.0</ele>
        <time>2023-11-04T03:39:24Z</time>
      </trkpt>
      <trkpt lat="13.237726" lon="99.772784">
        <ele>60.0</ele>
        <time>2023-11-04T03:39:27Z</time>
      </trkpt>
      <trkpt lat="13.237717" lon="99.772751">
        <ele>62.0</ele>
        <time>2023-11-04T03:39:29Z</time>
      </trkpt>
      <trkpt lat="13.237690" lon="99.772720">
        <ele>61.0</ele>
        <time>2023-11-04T03:39:31Z</time>
      </trkpt>
      <trkpt lat="13.237404" lon="99.772431">
        <ele>64.0</ele>
        <time>2023-11-04T03:39:44Z</time>
      </trkpt>
      <trkpt lat="13.237283" lon="99.772368">
        <ele>64.3</ele>
        <time>2023-11-04T03:39:49Z</time>
      </trkpt>
      <trkpt lat="13.236982" lon="99.772235">
        <ele>64.3</ele>
        <time>2023-11-04T03:39:58Z</time>
      </trkpt>
      <trkpt lat="13.236873" lon="99.772168">
        <ele>65.0</ele>
        <time>2023-11-04T03:40:02Z</time>
      </trkpt>
      <trkpt lat="13.236795" lon="99.772143">
        <ele>65.2</ele>
        <time>2023-11-04T03:40:04Z</time>
      </trkpt>
      <trkpt lat="13.236625" lon="99.772118">
        <ele>65.1</ele>
        <time>2023-11-04T03:40:07Z</time>
      </trkpt>
      <trkpt lat="13.236519" lon="99.772069">
        <ele>64.6</ele>
        <time>2023-11-04T03:40:10Z</time>
      </trkpt>
      <trkpt lat="13.236453" lon="99.772018">
        <ele>64.6</ele>
        <time>2023-11-04T03:40:12Z</time>
      </trkpt>
      <trkpt lat="13.236268" lon="99.771739">
        <ele>66.0</ele>
        <time>2023-11-04T03:40:23Z</time>
      </trkpt>
      <trkpt lat="13.236188" lon="99.771686">
        <ele>67.3</ele>
        <time>2023-11-04T03:40:27Z</time>
      </trkpt>
      <trkpt lat="13.235963" lon="99.771585">
        <ele>67.7</ele>
        <time>2023-11-04T03:40:35Z</time>
      </trkpt>
      <trkpt lat="13.235884" lon="99.771524">
        <ele>68.1</ele>
        <time>2023-11-04T03:40:38Z</time>
      </trkpt>
      <trkpt lat="13.235651" lon="99.771273">
        <ele>68.0</ele>
        <time>2023-11-04T03:40:49Z</time>
      </trkpt>
      <trkpt lat="13.235546" lon="99.771182">
        <ele>68.0</ele>
        <time>2023-11-04T03:40:54Z</time>
      </trkpt>
      <trkpt lat="13.235380" lon="99.771016">
        <ele>70.0</ele>
        <time>2023-11-04T03:41:02Z</time>
      </trkpt>
      <trkpt lat="13.235315" lon="99.770967">
        <ele>70.0</ele>
        <time>2023-11-04T03:41:06Z</time>
      </trkpt>
      <trkpt lat="13.235289" lon="99.770938">
        <ele>70.0</ele>
        <time>2023-11-04T03:41:08Z</time>
      </trkpt>
      <trkpt lat="13.235242" lon="99.770827">
        <ele>72.0</ele>
        <time>2023-11-04T03:41:14Z</time>
      </trkpt>
      <trkpt lat="13.235216" lon="99.770801">
        <ele>72.0</ele>
        <time>2023-11-04T03:41:16Z</time>
      </trkpt>
      <trkpt lat="13.235133" lon="99.770673">
        <ele>74.8</ele>
        <time>2023-11-04T03:41:23Z</time>
      </trkpt>
      <trkpt lat="13.235130" lon="99.770629">
        <ele>75.0</ele>
        <time>2023-11-04T03:41:25Z</time>
      </trkpt>
      <trkpt lat="13.235184" lon="99.770546">
        <ele>74.0</ele>
        <time>2023-11-04T03:41:29Z</time>
      </trkpt>
      <trkpt lat="13.235204" lon="99.770419">
        <ele>78.0</ele>
        <time>2023-11-04T03:41:35Z</time>
      </trkpt>
      <trkpt lat="13.235239" lon="99.770338">
        <ele>77.0</ele>
        <time>2023-11-04T03:41:39Z</time>
      </trkpt>
      <trkpt lat="13.235365" lon="99.770254">
        <ele>74.0</ele>
        <time>2023-11-04T03:41:45Z</time>
      </trkpt>
      <trkpt lat="13.235469" lon="99.770158">
        <ele>76.4</ele>
        <time>2023-11-04T03:41:49Z</time>
      </trkpt>
      <trkpt lat="13.235510" lon="99.770102">
        <ele>76.9</ele>
        <time>2023-11-04T03:41:51Z</time>
      </trkpt>
      <trkpt lat="13.235632" lon="99.770005">
        <ele>76.0</ele>
        <time>2023-11-04T03:41:58Z</time>
      </trkpt>
      <trkpt lat="13.235723" lon="99.769910">
        <ele>78.0</ele>
        <time>2023-11-04T03:42:06Z</time>
      </trkpt>
      <trkpt lat="13.235800" lon="99.769860">
        <ele>79.0</ele>
        <time>2023-11-04T03:42:12Z</time>
      </trkpt>
      <trkpt lat="13.235823" lon="99.769826">
        <ele>79.0</ele>
        <time>2023-11-04T03:42:21Z</time>
      </trkpt>
      <trkpt lat="13.235863" lon="99.769803">
        <ele>80.0</ele>
        <time>2023-11-04T03:42:25Z</time>
      </trkpt>
      <trkpt lat="13.235948" lon="99.769714">
        <ele>79.6</ele>
        <time>2023-11-04T03:42:30Z</time>
      </trkpt>
      <trkpt lat="13.235975" lon="99.769655">
        <ele>78.0</ele>
        <time>2023-11-04T03:42:32Z</time>
      </trkpt>
      <trkpt lat="13.235964" lon="99.769621">
        <ele>80.0</ele>
        <time>2023-11-04T03:42:34Z</time>
      </trkpt>
      <trkpt lat="13.235936" lon="99.769598">
        <ele>81.0</ele>
        <time>2023-11-04T03:42:37Z</time>
      </trkpt>
      <trkpt lat="13.235901" lon="99.769590">
        <ele>79.0</ele>
        <time>2023-11-04T03:42:39Z</time>
      </trkpt>
      <trkpt lat="13.235754" lon="99.769598">
        <ele>79.0</ele>
        <time>2023-11-04T03:42:45Z</time>
      </trkpt>
      <trkpt lat="13.235709" lon="99.769564">
        <ele>76.0</ele>
        <time>2023-11-04T03:43:02Z</time>
      </trkpt>
      <trkpt lat="13.235605" lon="99.769526">
        <ele>78.0</ele>
        <time>2023-11-04T03:43:18Z</time>
      </trkpt>
      <trkpt lat="13.235554" lon="99.769488">
        <ele>76.0</ele>
        <time>2023-11-04T03:43:23Z</time>
      </trkpt>
      <trkpt lat="13.235514" lon="99.769416">
        <ele>78.0</ele>
        <time>2023-11-04T03:43:29Z</time>
      </trkpt>
      <trkpt lat="13.235495" lon="99.769360">
        <ele>77.0</ele>
        <time>2023-11-04T03:43:38Z</time>
      </trkpt>
      <trkpt lat="13.235469" lon="99.769334">
        <ele>78.0</ele>
        <time>2023-11-04T03:43:43Z</time>
      </trkpt>
      <trkpt lat="13.235481" lon="99.769299">
        <ele>78.0</ele>
        <time>2023-11-04T03:43:46Z</time>
      </trkpt>
      <trkpt lat="13.235480" lon="99.769244">
        <ele>78.0</ele>
        <time>2023-11-04T03:43:50Z</time>
      </trkpt>
      <trkpt lat="13.235514" lon="99.769216">
        <ele>79.7</ele>
        <time>2023-11-04T03:43:53Z</time>
      </trkpt>
      <trkpt lat="13.235530" lon="99.769184">
        <ele>80.0</ele>
        <time>2023-11-04T03:43:55Z</time>
      </trkpt>
      <trkpt lat="13.235522" lon="99.769055">
        <ele>81.0</ele>
        <time>2023-11-04T03:44:04Z</time>
      </trkpt>
      <trkpt lat="13.235547" lon="99.769031">
        <ele>80.0</ele>
        <time>2023-11-04T03:44:06Z</time>
      </trkpt>
      <trkpt lat="13.235570" lon="99.768969">
        <ele>80.0</ele>
        <time>2023-11-04T03:44:14Z</time>
      </trkpt>
      <trkpt lat="13.235745" lon="99.768753">
        <ele>84.0</ele>
        <time>2023-11-04T03:44:33Z</time>
      </trkpt>
      <trkpt lat="13.235765" lon="99.768713">
        <ele>84.0</ele>
        <time>2023-11-04T03:44:36Z</time>
      </trkpt>
      <trkpt lat="13.235855" lon="99.768620">
        <ele>86.0</ele>
        <time>2023-11-04T03:44:52Z</time>
      </trkpt>
      <trkpt lat="13.235900" lon="99.768599">
        <ele>84.0</ele>
        <time>2023-11-04T03:44:59Z</time>
      </trkpt>
      <trkpt lat="13.235910" lon="99.768507">
        <ele>87.0</ele>
        <time>2023-11-04T03:45:17Z</time>
      </trkpt>
      <trkpt lat="13.235889" lon="99.768470">
        <ele>89.0</ele>
        <time>2023-11-04T03:45:29Z</time>
      </trkpt>
      <trkpt lat="13.235764" lon="99.768461">
        <ele>88.0</ele>
        <time>2023-11-04T03:45:40Z</time>
      </trkpt>
      <trkpt lat="13.235671" lon="99.768443">
        <ele>89.0</ele>
        <time>2023-11-04T03:45:46Z</time>
      </trkpt>
      <trkpt lat="13.235598" lon="99.768443">
        <ele>90.0</ele>
        <time>2023-11-04T03:45:51Z</time>
      </trkpt>
      <trkpt lat="13.235524" lon="99.768449">
        <ele>90.0</ele>
        <time>2023-11-04T03:45:56Z</time>
      </trkpt>
      <trkpt lat="13.235339" lon="99.768525">
        <ele>87.5</ele>
        <time>2023-11-04T03:46:03Z</time>
      </trkpt>
      <trkpt lat="13.235268" lon="99.768543">
        <ele>84.0</ele>
        <time>2023-11-04T03:46:05Z</time>
      </trkpt>
      <trkpt lat="13.235089" lon="99.768560">
        <ele>84.0</ele>
        <time>2023-11-04T03:46:12Z</time>
      </trkpt>
      <trkpt lat="13.234881" lon="99.768538">
        <ele>82.0</ele>
        <time>2023-11-04T03:46:18Z</time>
      </trkpt>
      <trkpt lat="13.234838" lon="99.768547">
        <ele>82.9</ele>
        <time>2023-11-04T03:46:20Z</time>
      </trkpt>
      <trkpt lat="13.234814" lon="99.768579">
        <ele>82.2</ele>
        <time>2023-11-04T03:46:21Z</time>
      </trkpt>
      <trkpt lat="13.234798" lon="99.768632">
        <ele>81.4</ele>
        <time>2023-11-04T03:46:22Z</time>
      </trkpt>
      <trkpt lat="13.234797" lon="99.768697">
        <ele>80.3</ele>
        <time>2023-11-04T03:46:23Z</time>
      </trkpt>
      <trkpt lat="13.234781" lon="99.768768">
        <ele>79.4</ele>
        <time>2023-11-04T03:46:24Z</time>
      </trkpt>
      <trkpt lat="13.234782" lon="99.768840">
        <ele>78.4</ele>
        <time>2023-11-04T03:46:25Z</time>
      </trkpt>
      <trkpt lat="13.234748" lon="99.768977">
        <ele>76.2</ele>
        <time>2023-11-04T03:46:27Z</time>
      </trkpt>
      <trkpt lat="13.234746" lon="99.769054">
        <ele>75.8</ele>
        <time>2023-11-04T03:46:28Z</time>
      </trkpt>
      <trkpt lat="13.234723" lon="99.769122">
        <ele>74.9</ele>
        <time>2023-11-04T03:46:29Z</time>
      </trkpt>
      <trkpt lat="13.234714" lon="99.769200">
        <ele>73.9</ele>
        <time>2023-11-04T03:46:30Z</time>
      </trkpt>
      <trkpt lat="13.234719" lon="99.769280">
        <ele>73.1</ele>
        <time>2023-11-04T03:46:31Z</time>
      </trkpt>
      <trkpt lat="13.234679" lon="99.769453">
        <ele>71.8</ele>
        <time>2023-11-04T03:46:34Z</time>
      </trkpt>
      <trkpt lat="13.234746" lon="99.769522">
        <ele>70.0</ele>
        <time>2023-11-04T03:46:35Z</time>
      </trkpt>
      <trkpt lat="13.234572" lon="99.769499">
        <ele>70.8</ele>
        <time>2023-11-04T03:46:38Z</time>
      </trkpt>
      <trkpt lat="13.234456" lon="99.769472">
        <ele>70.1</ele>
        <time>2023-11-04T03:46:41Z</time>
      </trkpt>
      <trkpt lat="13.234338" lon="99.769424">
        <ele>68.9</ele>
        <time>2023-11-04T03:46:44Z</time>
      </trkpt>
      <trkpt lat="13.234196" lon="99.769345">
        <ele>67.3</ele>
        <time>2023-11-04T03:46:47Z</time>
      </trkpt>
      <trkpt lat="13.233891" lon="99.769280">
        <ele>65.9</ele>
        <time>2023-11-04T03:46:51Z</time>
      </trkpt>
      <trkpt lat="13.233327" lon="99.769108">
        <ele>65.1</ele>
        <time>2023-11-04T03:46:58Z</time>
      </trkpt>
      <trkpt lat="13.233205" lon="99.769041">
        <ele>65.5</ele>
        <time>2023-11-04T03:47:00Z</time>
      </trkpt>
      <trkpt lat="13.233002" lon="99.768994">
        <ele>65.1</ele>
        <time>2023-11-04T03:47:03Z</time>
      </trkpt>
      <trkpt lat="13.232863" lon="99.768979">
        <ele>65.2</ele>
        <time>2023-11-04T03:47:05Z</time>
      </trkpt>
      <trkpt lat="13.232797" lon="99.768997">
        <ele>65.2</ele>
        <time>2023-11-04T03:47:06Z</time>
      </trkpt>
      <trkpt lat="13.232747" lon="99.769035">
        <ele>65.1</ele>
        <time>2023-11-04T03:47:07Z</time>
      </trkpt>
      <trkpt lat="13.232689" lon="99.769052">
        <ele>64.9</ele>
        <time>2023-11-04T03:47:08Z</time>
      </trkpt>
      <trkpt lat="13.232631" lon="99.769053">
        <ele>64.4</ele>
        <time>2023-11-04T03:47:09Z</time>
      </trkpt>
      <trkpt lat="13.232519" lon="99.769098">
        <ele>63.8</ele>
        <time>2023-11-04T03:47:11Z</time>
      </trkpt>
      <trkpt lat="13.232061" lon="99.769159">
        <ele>62.0</ele>
        <time>2023-11-04T03:47:18Z</time>
      </trkpt>
      <trkpt lat="13.231821" lon="99.769137">
        <ele>60.9</ele>
        <time>2023-11-04T03:47:21Z</time>
      </trkpt>
      <trkpt lat="13.231733" lon="99.769122">
        <ele>60.1</ele>
        <time>2023-11-04T03:47:22Z</time>
      </trkpt>
      <trkpt lat="13.231646" lon="99.769093">
        <ele>59.6</ele>
        <time>2023-11-04T03:47:23Z</time>
      </trkpt>
      <trkpt lat="13.231498" lon="99.769008">
        <ele>59.5</ele>
        <time>2023-11-04T03:47:25Z</time>
      </trkpt>
      <trkpt lat="13.231342" lon="99.768947">
        <ele>58.7</ele>
        <time>2023-11-04T03:47:27Z</time>
      </trkpt>
      <trkpt lat="13.231257" lon="99.768952">
        <ele>58.2</ele>
        <time>2023-11-04T03:47:28Z</time>
      </trkpt>
      <trkpt lat="13.231166" lon="99.768937">
        <ele>57.8</ele>
        <time>2023-11-04T03:47:29Z</time>
      </trkpt>
      <trkpt lat="13.230996" lon="99.768934">
        <ele>58.3</ele>
        <time>2023-11-04T03:47:31Z</time>
      </trkpt>
      <trkpt lat="13.230919" lon="99.768913">
        <ele>58.8</ele>
        <time>2023-11-04T03:47:32Z</time>
      </trkpt>
      <trkpt lat="13.230665" lon="99.768894">
        <ele>60.6</ele>
        <time>2023-11-04T03:47:36Z</time>
      </trkpt>
      <trkpt lat="13.230611" lon="99.768882">
        <ele>61.3</ele>
        <time>2023-11-04T03:47:37Z</time>
      </trkpt>
      <trkpt lat="13.230392" lon="99.768747">
        <ele>63.4</ele>
        <time>2023-11-04T03:47:44Z</time>
      </trkpt>
      <trkpt lat="13.230278" lon="99.768714">
        <ele>62.7</ele>
        <time>2023-11-04T03:47:47Z</time>
      </trkpt>
      <trkpt lat="13.230283" lon="99.768835">
        <ele>62.5</ele>
        <time>2023-11-04T03:47:48Z</time>
      </trkpt>
      <trkpt lat="13.230225" lon="99.768897">
        <ele>62.9</ele>
        <time>2023-11-04T03:47:50Z</time>
      </trkpt>
      <trkpt lat="13.230153" lon="99.769018">
        <ele>62.3</ele>
        <time>2023-11-04T03:47:54Z</time>
      </trkpt>
      <trkpt lat="13.230092" lon="99.769019">
        <ele>62.2</ele>
        <time>2023-11-04T03:47:55Z</time>
      </trkpt>
      <trkpt lat="13.230055" lon="99.769075">
        <ele>62.0</ele>
        <time>2023-11-04T03:47:57Z</time>
      </trkpt>
      <trkpt lat="13.229985" lon="99.769137">
        <ele>62.0</ele>
        <time>2023-11-04T03:48:00Z</time>
      </trkpt>
      <trkpt lat="13.229943" lon="99.769158">
        <ele>62.0</ele>
        <time>2023-11-04T03:48:02Z</time>
      </trkpt>
      <trkpt lat="13.229901" lon="99.769165">
        <ele>61.3</ele>
        <time>2023-11-04T03:48:03Z</time>
      </trkpt>
      <trkpt lat="13.229805" lon="99.769125">
        <ele>60.7</ele>
        <time>2023-11-04T03:48:05Z</time>
      </trkpt>
      <trkpt lat="13.229701" lon="99.769106">
        <ele>60.4</ele>
        <time>2023-11-04T03:48:07Z</time>
      </trkpt>
      <trkpt lat="13.229544" lon="99.769059">
        <ele>60.6</ele>
        <time>2023-11-04T03:48:10Z</time>
      </trkpt>
      <trkpt lat="13.229321" lon="99.769027">
        <ele>61.8</ele>
        <time>2023-11-04T03:48:16Z</time>
      </trkpt>
      <trkpt lat="13.229190" lon="99.769023">
        <ele>62.6</ele>
        <time>2023-11-04T03:48:20Z</time>
      </trkpt>
      <trkpt lat="13.229053" lon="99.768993">
        <ele>63.3</ele>
        <time>2023-11-04T03:48:25Z</time>
      </trkpt>
      <trkpt lat="13.228876" lon="99.768971">
        <ele>62.8</ele>
        <time>2023-11-04T03:48:30Z</time>
      </trkpt>
      <trkpt lat="13.228735" lon="99.768964">
        <ele>61.0</ele>
        <time>2023-11-04T03:48:34Z</time>
      </trkpt>
      <trkpt lat="13.228752" lon="99.768767">
        <ele>62.6</ele>
        <time>2023-11-04T03:48:38Z</time>
      </trkpt>
      <trkpt lat="13.228738" lon="99.768696">
        <ele>62.0</ele>
        <time>2023-11-04T03:48:40Z</time>
      </trkpt>
      <trkpt lat="13.228716" lon="99.768667">
        <ele>62.0</ele>
        <time>2023-11-04T03:48:42Z</time>
      </trkpt>
      <trkpt lat="13.228636" lon="99.768649">
        <ele>62.0</ele>
        <time>2023-11-04T03:48:46Z</time>
      </trkpt>
      <trkpt lat="13.228552" lon="99.768599">
        <ele>63.0</ele>
        <time>2023-11-04T03:48:50Z</time>
      </trkpt>
      <trkpt lat="13.228547" lon="99.768563">
        <ele>62.0</ele>
        <time>2023-11-04T03:48:51Z</time>
      </trkpt>
      <trkpt lat="13.228620" lon="99.768487">
        <ele>62.0</ele>
        <time>2023-11-04T03:48:56Z</time>
      </trkpt>
      <trkpt lat="13.228834" lon="99.768186">
        <ele>64.0</ele>
        <time>2023-11-04T03:49:14Z</time>
      </trkpt>
      <trkpt lat="13.228899" lon="99.767996">
        <ele>66.0</ele>
        <time>2023-11-04T03:49:22Z</time>
      </trkpt>
      <trkpt lat="13.228936" lon="99.767562">
        <ele>68.0</ele>
        <time>2023-11-04T03:49:40Z</time>
      </trkpt>
      <trkpt lat="13.228974" lon="99.767349">
        <ele>70.0</ele>
        <time>2023-11-04T03:49:49Z</time>
      </trkpt>
      <trkpt lat="13.228986" lon="99.766938">
        <ele>74.0</ele>
        <time>2023-11-04T03:50:09Z</time>
      </trkpt>
      <trkpt lat="13.229015" lon="99.766768">
        <ele>73.0</ele>
        <time>2023-11-04T03:50:27Z</time>
      </trkpt>
      <trkpt lat="13.228987" lon="99.766732">
        <ele>76.6</ele>
        <time>2023-11-04T03:50:35Z</time>
      </trkpt>
      <trkpt lat="13.228851" lon="99.766728">
        <ele>77.0</ele>
        <time>2023-11-04T03:50:45Z</time>
      </trkpt>
      <trkpt lat="13.228813" lon="99.766742">
        <ele>78.0</ele>
        <time>2023-11-04T03:50:47Z</time>
      </trkpt>
      <trkpt lat="13.228641" lon="99.766849">
        <ele>77.2</ele>
        <time>2023-11-04T03:50:54Z</time>
      </trkpt>
      <trkpt lat="13.228588" lon="99.766861">
        <ele>76.0</ele>
        <time>2023-11-04T03:50:55Z</time>
      </trkpt>
      <trkpt lat="13.228395" lon="99.766873">
        <ele>77.2</ele>
        <time>2023-11-04T03:51:02Z</time>
      </trkpt>
      <trkpt lat="13.228262" lon="99.766850">
        <ele>76.0</ele>
        <time>2023-11-04T03:51:07Z</time>
      </trkpt>
      <trkpt lat="13.228180" lon="99.766808">
        <ele>72.0</ele>
        <time>2023-11-04T03:51:15Z</time>
      </trkpt>
      <trkpt lat="13.228147" lon="99.766806">
        <ele>76.0</ele>
        <time>2023-11-04T03:51:20Z</time>
      </trkpt>
      <trkpt lat="13.228081" lon="99.766778">
        <ele>76.0</ele>
        <time>2023-11-04T03:51:24Z</time>
      </trkpt>
      <trkpt lat="13.227990" lon="99.766795">
        <ele>74.0</ele>
        <time>2023-11-04T03:51:27Z</time>
      </trkpt>
      <trkpt lat="13.227952" lon="99.766785">
        <ele>72.0</ele>
        <time>2023-11-04T03:51:30Z</time>
      </trkpt>
      <trkpt lat="13.227850" lon="99.766738">
        <ele>72.0</ele>
        <time>2023-11-04T03:51:37Z</time>
      </trkpt>
      <trkpt lat="13.227787" lon="99.766695">
        <ele>72.0</ele>
        <time>2023-11-04T03:51:41Z</time>
      </trkpt>
      <trkpt lat="13.227700" lon="99.766712">
        <ele>72.0</ele>
        <time>2023-11-04T03:51:45Z</time>
      </trkpt>
      <trkpt lat="13.227601" lon="99.766713">
        <ele>72.8</ele>
        <time>2023-11-04T03:51:49Z</time>
      </trkpt>
      <trkpt lat="13.227373" lon="99.766752">
        <ele>72.0</ele>
        <time>2023-11-04T03:51:56Z</time>
      </trkpt>
      <trkpt lat="13.227333" lon="99.766773">
        <ele>72.4</ele>
        <time>2023-11-04T03:51:58Z</time>
      </trkpt>
      <trkpt lat="13.227287" lon="99.766819">
        <ele>71.8</ele>
        <time>2023-11-04T03:52:00Z</time>
      </trkpt>
      <trkpt lat="13.227351" lon="99.767283">
        <ele>70.4</ele>
        <time>2023-11-04T03:52:10Z</time>
      </trkpt>
      <trkpt lat="13.227351" lon="99.767330">
        <ele>69.0</ele>
        <time>2023-11-04T03:52:11Z</time>
      </trkpt>
      <trkpt lat="13.227319" lon="99.767357">
        <ele>69.5</ele>
        <time>2023-11-04T03:52:13Z</time>
      </trkpt>
      <trkpt lat="13.227191" lon="99.767344">
        <ele>69.5</ele>
        <time>2023-11-04T03:52:17Z</time>
      </trkpt>
      <trkpt lat="13.227107" lon="99.767309">
        <ele>68.0</ele>
        <time>2023-11-04T03:52:20Z</time>
      </trkpt>
      <trkpt lat="13.227043" lon="99.767305">
        <ele>70.0</ele>
        <time>2023-11-04T03:52:28Z</time>
      </trkpt>
      <trkpt lat="13.226947" lon="99.767386">
        <ele>69.7</ele>
        <time>2023-11-04T03:52:37Z</time>
      </trkpt>
      <trkpt lat="13.226916" lon="99.767379">
        <ele>69.4</ele>
        <time>2023-11-04T03:52:38Z</time>
      </trkpt>
      <trkpt lat="13.226885" lon="99.767346">
        <ele>68.0</ele>
        <time>2023-11-04T03:52:39Z</time>
      </trkpt>
      <trkpt lat="13.226849" lon="99.767269">
        <ele>68.0</ele>
        <time>2023-11-04T03:52:42Z</time>
      </trkpt>
      <trkpt lat="13.226817" lon="99.767100">
        <ele>71.7</ele>
        <time>2023-11-04T03:53:16Z</time>
      </trkpt>
      <trkpt lat="13.226770" lon="99.767060">
        <ele>70.0</ele>
        <time>2023-11-04T03:53:20Z</time>
      </trkpt>
      <trkpt lat="13.226688" lon="99.767019">
        <ele>70.7</ele>
        <time>2023-11-04T03:53:24Z</time>
      </trkpt>
      <trkpt lat="13.226646" lon="99.767010">
        <ele>70.0</ele>
        <time>2023-11-04T03:53:25Z</time>
      </trkpt>
      <trkpt lat="13.226579" lon="99.766960">
        <ele>71.0</ele>
        <time>2023-11-04T03:53:29Z</time>
      </trkpt>
      <trkpt lat="13.226547" lon="99.766948">
        <ele>72.0</ele>
        <time>2023-11-04T03:53:31Z</time>
      </trkpt>
      <trkpt lat="13.226509" lon="99.766959">
        <ele>72.0</ele>
        <time>2023-11-04T03:53:33Z</time>
      </trkpt>
      <trkpt lat="13.226479" lon="99.766978">
        <ele>72.0</ele>
        <time>2023-11-04T03:53:35Z</time>
      </trkpt>
      <trkpt lat="13.226460" lon="99.767004">
        <ele>72.0</ele>
        <time>2023-11-04T03:53:37Z</time>
      </trkpt>
      <trkpt lat="13.226413" lon="99.767017">
        <ele>72.0</ele>
        <time>2023-11-04T03:54:00Z</time>
      </trkpt>
      <trkpt lat="13.226311" lon="99.767075">
        <ele>71.0</ele>
        <time>2023-11-04T03:54:41Z</time>
      </trkpt>
      <trkpt lat="13.226210" lon="99.767102">
        <ele>71.0</ele>
        <time>2023-11-04T03:54:47Z</time>
      </trkpt>
      <trkpt lat="13.226171" lon="99.767101">
        <ele>70.0</ele>
        <time>2023-11-04T03:54:49Z</time>
      </trkpt>
      <trkpt lat="13.226111" lon="99.767049">
        <ele>72.0</ele>
        <time>2023-11-04T03:54:53Z</time>
      </trkpt>
      <trkpt lat="13.225864" lon="99.766882">
        <ele>74.0</ele>
        <time>2023-11-04T03:55:09Z</time>
      </trkpt>
      <trkpt lat="13.225753" lon="99.766788">
        <ele>75.0</ele>
        <time>2023-11-04T03:55:19Z</time>
      </trkpt>
      <trkpt lat="13.225663" lon="99.766889">
        <ele>75.8</ele>
        <time>2023-11-04T03:55:27Z</time>
      </trkpt>
      <trkpt lat="13.225646" lon="99.766919">
        <ele>75.9</ele>
        <time>2023-11-04T03:55:28Z</time>
      </trkpt>
      <trkpt lat="13.225633" lon="99.766990">
        <ele>75.7</ele>
        <time>2023-11-04T03:55:30Z</time>
      </trkpt>
      <trkpt lat="13.225645" lon="99.767029">
        <ele>75.5</ele>
        <time>2023-11-04T03:55:31Z</time>
      </trkpt>
      <trkpt lat="13.225840" lon="99.767411">
        <ele>72.7</ele>
        <time>2023-11-04T03:55:40Z</time>
      </trkpt>
      <trkpt lat="13.225958" lon="99.767767">
        <ele>70.4</ele>
        <time>2023-11-04T03:55:46Z</time>
      </trkpt>
      <trkpt lat="13.226121" lon="99.768135">
        <ele>68.1</ele>
        <time>2023-11-04T03:55:52Z</time>
      </trkpt>
      <trkpt lat="13.226201" lon="99.768281">
        <ele>66.7</ele>
        <time>2023-11-04T03:55:55Z</time>
      </trkpt>
      <trkpt lat="13.226206" lon="99.768328">
        <ele>66.6</ele>
        <time>2023-11-04T03:55:56Z</time>
      </trkpt>
      <trkpt lat="13.226189" lon="99.768376">
        <ele>66.6</ele>
        <time>2023-11-04T03:55:57Z</time>
      </trkpt>
      <trkpt lat="13.226150" lon="99.768417">
        <ele>66.4</ele>
        <time>2023-11-04T03:55:58Z</time>
      </trkpt>
      <trkpt lat="13.226013" lon="99.768508">
        <ele>66.1</ele>
        <time>2023-11-04T03:56:01Z</time>
      </trkpt>
      <trkpt lat="13.225863" lon="99.768660">
        <ele>65.8</ele>
        <time>2023-11-04T03:56:05Z</time>
      </trkpt>
      <trkpt lat="13.225364" lon="99.769094">
        <ele>63.3</ele>
        <time>2023-11-04T03:56:18Z</time>
      </trkpt>
      <trkpt lat="13.225222" lon="99.769275">
        <ele>62.3</ele>
        <time>2023-11-04T03:56:22Z</time>
      </trkpt>
      <trkpt lat="13.225130" lon="99.769357">
        <ele>60.8</ele>
        <time>2023-11-04T03:56:24Z</time>
      </trkpt>
      <trkpt lat="13.225047" lon="99.769477">
        <ele>60.5</ele>
        <time>2023-11-04T03:56:26Z</time>
      </trkpt>
      <trkpt lat="13.224935" lon="99.769564">
        <ele>59.0</ele>
        <time>2023-11-04T03:56:29Z</time>
      </trkpt>
      <trkpt lat="13.224845" lon="99.769618">
        <ele>59.0</ele>
        <time>2023-11-04T03:56:31Z</time>
      </trkpt>
      <trkpt lat="13.224736" lon="99.769706">
        <ele>60.1</ele>
        <time>2023-11-04T03:56:34Z</time>
      </trkpt>
      <trkpt lat="13.224694" lon="99.769710">
        <ele>60.4</ele>
        <time>2023-11-04T03:56:35Z</time>
      </trkpt>
      <trkpt lat="13.224653" lon="99.769688">
        <ele>60.7</ele>
        <time>2023-11-04T03:56:36Z</time>
      </trkpt>
      <trkpt lat="13.224575" lon="99.769588">
        <ele>61.3</ele>
        <time>2023-11-04T03:56:39Z</time>
      </trkpt>
      <trkpt lat="13.224486" lon="99.769396">
        <ele>62.1</ele>
        <time>2023-11-04T03:56:45Z</time>
      </trkpt>
      <trkpt lat="13.224398" lon="99.769247">
        <ele>62.9</ele>
        <time>2023-11-04T03:56:51Z</time>
      </trkpt>
      <trkpt lat="13.224343" lon="99.769176">
        <ele>63.0</ele>
        <time>2023-11-04T03:56:54Z</time>
      </trkpt>
      <trkpt lat="13.224260" lon="99.769123">
        <ele>63.0</ele>
        <time>2023-11-04T03:56:58Z</time>
      </trkpt>
      <trkpt lat="13.224181" lon="99.769088">
        <ele>64.0</ele>
        <time>2023-11-04T03:57:02Z</time>
      </trkpt>
      <trkpt lat="13.224088" lon="99.769090">
        <ele>64.0</ele>
        <time>2023-11-04T03:57:06Z</time>
      </trkpt>
      <trkpt lat="13.223903" lon="99.769287">
        <ele>64.0</ele>
        <time>2023-11-04T03:57:16Z</time>
      </trkpt>
      <trkpt lat="13.223863" lon="99.769317">
        <ele>64.0</ele>
        <time>2023-11-04T03:57:18Z</time>
      </trkpt>
      <trkpt lat="13.223864" lon="99.769428">
        <ele>66.0</ele>
        <time>2023-11-04T03:57:24Z</time>
      </trkpt>
      <trkpt lat="13.223832" lon="99.769447">
        <ele>66.0</ele>
        <time>2023-11-04T03:57:26Z</time>
      </trkpt>
      <trkpt lat="13.223755" lon="99.769430">
        <ele>64.0</ele>
        <time>2023-11-04T03:57:31Z</time>
      </trkpt>
      <trkpt lat="13.223722" lon="99.769453">
        <ele>65.0</ele>
        <time>2023-11-04T03:57:33Z</time>
      </trkpt>
      <trkpt lat="13.223662" lon="99.769517">
        <ele>65.7</ele>
        <time>2023-11-04T03:57:37Z</time>
      </trkpt>
      <trkpt lat="13.223583" lon="99.769572">
        <ele>65.6</ele>
        <time>2023-11-04T03:57:40Z</time>
      </trkpt>
      <trkpt lat="13.223513" lon="99.769679">
        <ele>65.1</ele>
        <time>2023-11-04T03:57:44Z</time>
      </trkpt>
      <trkpt lat="13.223468" lon="99.769723">
        <ele>65.4</ele>
        <time>2023-11-04T03:57:46Z</time>
      </trkpt>
      <trkpt lat="13.223429" lon="99.769745">
        <ele>64.0</ele>
        <time>2023-11-04T03:57:47Z</time>
      </trkpt>
      <trkpt lat="13.223399" lon="99.769807">
        <ele>64.8</ele>
        <time>2023-11-04T03:57:50Z</time>
      </trkpt>
      <trkpt lat="13.223335" lon="99.769841">
        <ele>63.0</ele>
        <time>2023-11-04T03:57:53Z</time>
      </trkpt>
      <trkpt lat="13.223302" lon="99.769883">
        <ele>64.6</ele>
        <time>2023-11-04T03:57:55Z</time>
      </trkpt>
      <trkpt lat="13.223269" lon="99.769906">
        <ele>64.8</ele>
        <time>2023-11-04T03:57:56Z</time>
      </trkpt>
      <trkpt lat="13.223225" lon="99.769969">
        <ele>64.0</ele>
        <time>2023-11-04T03:57:58Z</time>
      </trkpt>
      <trkpt lat="13.222988" lon="99.770162">
        <ele>64.5</ele>
        <time>2023-11-04T03:58:05Z</time>
      </trkpt>
      <trkpt lat="13.222970" lon="99.770190">
        <ele>64.9</ele>
        <time>2023-11-04T03:58:06Z</time>
      </trkpt>
      <trkpt lat="13.222908" lon="99.770231">
        <ele>64.6</ele>
        <time>2023-11-04T03:58:08Z</time>
      </trkpt>
      <trkpt lat="13.222877" lon="99.770221">
        <ele>65.1</ele>
        <time>2023-11-04T03:58:09Z</time>
      </trkpt>
      <trkpt lat="13.222818" lon="99.770140">
        <ele>65.3</ele>
        <time>2023-11-04T03:58:12Z</time>
      </trkpt>
      <trkpt lat="13.222785" lon="99.770122">
        <ele>64.0</ele>
        <time>2023-11-04T03:58:13Z</time>
      </trkpt>
      <trkpt lat="13.222640" lon="99.770081">
        <ele>64.0</ele>
        <time>2023-11-04T03:58:19Z</time>
      </trkpt>
      <trkpt lat="13.222522" lon="99.769992">
        <ele>67.0</ele>
        <time>2023-11-04T03:58:27Z</time>
      </trkpt>
      <trkpt lat="13.222455" lon="99.770000">
        <ele>68.0</ele>
        <time>2023-11-04T03:58:31Z</time>
      </trkpt>
      <trkpt lat="13.222208" lon="99.770226">
        <ele>67.9</ele>
        <time>2023-11-04T03:58:41Z</time>
      </trkpt>
      <trkpt lat="13.222144" lon="99.770296">
        <ele>67.6</ele>
        <time>2023-11-04T03:58:43Z</time>
      </trkpt>
      <trkpt lat="13.222035" lon="99.770364">
        <ele>67.8</ele>
        <time>2023-11-04T03:58:46Z</time>
      </trkpt>
      <trkpt lat="13.221862" lon="99.770445">
        <ele>67.3</ele>
        <time>2023-11-04T03:58:50Z</time>
      </trkpt>
      <trkpt lat="13.221742" lon="99.770522">
        <ele>67.0</ele>
        <time>2023-11-04T03:58:53Z</time>
      </trkpt>
      <trkpt lat="13.221707" lon="99.770521">
        <ele>66.5</ele>
        <time>2023-11-04T03:58:54Z</time>
      </trkpt>
      <trkpt lat="13.221666" lon="99.770491">
        <ele>66.8</ele>
        <time>2023-11-04T03:58:55Z</time>
      </trkpt>
      <trkpt lat="13.221644" lon="99.770460">
        <ele>66.7</ele>
        <time>2023-11-04T03:58:56Z</time>
      </trkpt>
      <trkpt lat="13.221603" lon="99.770457">
        <ele>66.0</ele>
        <time>2023-11-04T03:58:57Z</time>
      </trkpt>
      <trkpt lat="13.221552" lon="99.770470">
        <ele>67.9</ele>
        <time>2023-11-04T03:58:59Z</time>
      </trkpt>
      <trkpt lat="13.221444" lon="99.770458">
        <ele>67.6</ele>
        <time>2023-11-04T03:59:02Z</time>
      </trkpt>
      <trkpt lat="13.221333" lon="99.770478">
        <ele>67.5</ele>
        <time>2023-11-04T03:59:05Z</time>
      </trkpt>
      <trkpt lat="13.221267" lon="99.770508">
        <ele>67.5</ele>
        <time>2023-11-04T03:59:07Z</time>
      </trkpt>
      <trkpt lat="13.221248" lon="99.770533">
        <ele>66.9</ele>
        <time>2023-11-04T03:59:08Z</time>
      </trkpt>
      <trkpt lat="13.221199" lon="99.770550">
        <ele>66.0</ele>
        <time>2023-11-04T03:59:09Z</time>
      </trkpt>
      <trkpt lat="13.221152" lon="99.770549">
        <ele>65.5</ele>
        <time>2023-11-04T03:59:11Z</time>
      </trkpt>
      <trkpt lat="13.221115" lon="99.770533">
        <ele>65.2</ele>
        <time>2023-11-04T03:59:12Z</time>
      </trkpt>
      <trkpt lat="13.221080" lon="99.770507">
        <ele>65.1</ele>
        <time>2023-11-04T03:59:13Z</time>
      </trkpt>
      <trkpt lat="13.220909" lon="99.770323">
        <ele>65.7</ele>
        <time>2023-11-04T03:59:20Z</time>
      </trkpt>
      <trkpt lat="13.220823" lon="99.770211">
        <ele>64.0</ele>
        <time>2023-11-04T03:59:25Z</time>
      </trkpt>
      <trkpt lat="13.220807" lon="99.770168">
        <ele>66.0</ele>
        <time>2023-11-04T03:59:27Z</time>
      </trkpt>
      <trkpt lat="13.220804" lon="99.770086">
        <ele>66.0</ele>
        <time>2023-11-04T03:59:31Z</time>
      </trkpt>
      <trkpt lat="13.220783" lon="99.770013">
        <ele>66.0</ele>
        <time>2023-11-04T03:59:35Z</time>
      </trkpt>
      <trkpt lat="13.220696" lon="99.769917">
        <ele>66.0</ele>
        <time>2023-11-04T03:59:40Z</time>
      </trkpt>
      <trkpt lat="13.220630" lon="99.769859">
        <ele>66.6</ele>
        <time>2023-11-04T03:59:43Z</time>
      </trkpt>
      <trkpt lat="13.220544" lon="99.769821">
        <ele>65.0</ele>
        <time>2023-11-04T03:59:46Z</time>
      </trkpt>
      <trkpt lat="13.220489" lon="99.769764">
        <ele>65.2</ele>
        <time>2023-11-04T03:59:49Z</time>
      </trkpt>
      <trkpt lat="13.220449" lon="99.769752">
        <ele>64.0</ele>
        <time>2023-11-04T03:59:50Z</time>
      </trkpt>
      <trkpt lat="13.220411" lon="99.769757">
        <ele>64.0</ele>
        <time>2023-11-04T03:59:52Z</time>
      </trkpt>
      <trkpt lat="13.220315" lon="99.769789">
        <ele>66.0</ele>
        <time>2023-11-04T04:00:01Z</time>
      </trkpt>
      <trkpt lat="13.220251" lon="99.769760">
        <ele>66.0</ele>
        <time>2023-11-04T04:00:06Z</time>
      </trkpt>
      <trkpt lat="13.220253" lon="99.769726">
        <ele>66.0</ele>
        <time>2023-11-04T04:00:08Z</time>
      </trkpt>
      <trkpt lat="13.220271" lon="99.769688">
        <ele>66.0</ele>
        <time>2023-11-04T04:00:10Z</time>
      </trkpt>
      <trkpt lat="13.220252" lon="99.769658">
        <ele>66.0</ele>
        <time>2023-11-04T04:00:12Z</time>
      </trkpt>
      <trkpt lat="13.220252" lon="99.769584">
        <ele>66.0</ele>
        <time>2023-11-04T04:00:15Z</time>
      </trkpt>
      <trkpt lat="13.220229" lon="99.769540">
        <ele>66.0</ele>
        <time>2023-11-04T04:00:17Z</time>
      </trkpt>
      <trkpt lat="13.220189" lon="99.769496">
        <ele>66.0</ele>
        <time>2023-11-04T04:00:19Z</time>
      </trkpt>
      <trkpt lat="13.220057" lon="99.769219">
        <ele>68.0</ele>
        <time>2023-11-04T04:00:30Z</time>
      </trkpt>
      <trkpt lat="13.220050" lon="99.769176">
        <ele>69.9</ele>
        <time>2023-11-04T04:00:32Z</time>
      </trkpt>
      <trkpt lat="13.220067" lon="99.769121">
        <ele>70.5</ele>
        <time>2023-11-04T04:00:34Z</time>
      </trkpt>
      <trkpt lat="13.220091" lon="99.768949">
        <ele>70.4</ele>
        <time>2023-11-04T04:00:40Z</time>
      </trkpt>
      <trkpt lat="13.220038" lon="99.768855">
        <ele>70.1</ele>
        <time>2023-11-04T04:00:43Z</time>
      </trkpt>
      <trkpt lat="13.219955" lon="99.768774">
        <ele>70.2</ele>
        <time>2023-11-04T04:00:46Z</time>
      </trkpt>
      <trkpt lat="13.219886" lon="99.768724">
        <ele>70.7</ele>
        <time>2023-11-04T04:00:48Z</time>
      </trkpt>
      <trkpt lat="13.219760" lon="99.768691">
        <ele>70.7</ele>
        <time>2023-11-04T04:00:51Z</time>
      </trkpt>
      <trkpt lat="13.219549" lon="99.768581">
        <ele>72.1</ele>
        <time>2023-11-04T04:00:57Z</time>
      </trkpt>
      <trkpt lat="13.219523" lon="99.768541">
        <ele>72.0</ele>
        <time>2023-11-04T04:00:58Z</time>
      </trkpt>
      <trkpt lat="13.219482" lon="99.768524">
        <ele>72.3</ele>
        <time>2023-11-04T04:01:00Z</time>
      </trkpt>
      <trkpt lat="13.219423" lon="99.768544">
        <ele>71.6</ele>
        <time>2023-11-04T04:01:02Z</time>
      </trkpt>
      <trkpt lat="13.219399" lon="99.768521">
        <ele>71.1</ele>
        <time>2023-11-04T04:01:03Z</time>
      </trkpt>
      <trkpt lat="13.219383" lon="99.768476">
        <ele>70.0</ele>
        <time>2023-11-04T04:01:04Z</time>
      </trkpt>
      <trkpt lat="13.219395" lon="99.768424">
        <ele>70.7</ele>
        <time>2023-11-04T04:01:06Z</time>
      </trkpt>
      <trkpt lat="13.219423" lon="99.768395">
        <ele>70.8</ele>
        <time>2023-11-04T04:01:07Z</time>
      </trkpt>
      <trkpt lat="13.219431" lon="99.768352">
        <ele>70.0</ele>
        <time>2023-11-04T04:01:08Z</time>
      </trkpt>
      <trkpt lat="13.219401" lon="99.768304">
        <ele>70.0</ele>
        <time>2023-11-04T04:01:10Z</time>
      </trkpt>
      <trkpt lat="13.219334" lon="99.768240">
        <ele>71.0</ele>
        <time>2023-11-04T04:01:14Z</time>
      </trkpt>
      <trkpt lat="13.219233" lon="99.768210">
        <ele>72.0</ele>
        <time>2023-11-04T04:01:20Z</time>
      </trkpt>
      <trkpt lat="13.219135" lon="99.768223">
        <ele>70.0</ele>
        <time>2023-11-04T04:01:25Z</time>
      </trkpt>
      <trkpt lat="13.219068" lon="99.768184">
        <ele>68.0</ele>
        <time>2023-11-04T04:01:29Z</time>
      </trkpt>
      <trkpt lat="13.218979" lon="99.768172">
        <ele>67.2</ele>
        <time>2023-11-04T04:01:33Z</time>
      </trkpt>
      <trkpt lat="13.218935" lon="99.768196">
        <ele>67.0</ele>
        <time>2023-11-04T04:01:35Z</time>
      </trkpt>
      <trkpt lat="13.218905" lon="99.768250">
        <ele>66.0</ele>
        <time>2023-11-04T04:01:43Z</time>
      </trkpt>
      <trkpt lat="13.218866" lon="99.768240">
        <ele>66.0</ele>
        <time>2023-11-04T04:01:46Z</time>
      </trkpt>
      <trkpt lat="13.218820" lon="99.768243">
        <ele>67.0</ele>
        <time>2023-11-04T04:01:48Z</time>
      </trkpt>
      <trkpt lat="13.218793" lon="99.768228">
        <ele>66.8</ele>
        <time>2023-11-04T04:01:49Z</time>
      </trkpt>
      <trkpt lat="13.218764" lon="99.768173">
        <ele>66.8</ele>
        <time>2023-11-04T04:01:51Z</time>
      </trkpt>
      <trkpt lat="13.218771" lon="99.768109">
        <ele>66.0</ele>
        <time>2023-11-04T04:01:53Z</time>
      </trkpt>
      <trkpt lat="13.218737" lon="99.767980">
        <ele>67.3</ele>
        <time>2023-11-04T04:01:59Z</time>
      </trkpt>
      <trkpt lat="13.218737" lon="99.767914">
        <ele>67.4</ele>
        <time>2023-11-04T04:02:01Z</time>
      </trkpt>
      <trkpt lat="13.218682" lon="99.767686">
        <ele>68.1</ele>
        <time>2023-11-04T04:02:08Z</time>
      </trkpt>
      <trkpt lat="13.218650" lon="99.767478">
        <ele>68.5</ele>
        <time>2023-11-04T04:02:14Z</time>
      </trkpt>
      <trkpt lat="13.218635" lon="99.767296">
        <ele>68.0</ele>
        <time>2023-11-04T04:02:19Z</time>
      </trkpt>
      <trkpt lat="13.218613" lon="99.767197">
        <ele>70.0</ele>
        <time>2023-11-04T04:02:23Z</time>
      </trkpt>
      <trkpt lat="13.218628" lon="99.767146">
        <ele>71.0</ele>
        <time>2023-11-04T04:02:25Z</time>
      </trkpt>
      <trkpt lat="13.218661" lon="99.767106">
        <ele>69.0</ele>
        <time>2023-11-04T04:02:28Z</time>
      </trkpt>
      <trkpt lat="13.218668" lon="99.767058">
        <ele>69.0</ele>
        <time>2023-11-04T04:02:31Z</time>
      </trkpt>
      <trkpt lat="13.218686" lon="99.767021">
        <ele>69.0</ele>
        <time>2023-11-04T04:02:34Z</time>
      </trkpt>
      <trkpt lat="13.218689" lon="99.766985">
        <ele>69.0</ele>
        <time>2023-11-04T04:02:37Z</time>
      </trkpt>
      <trkpt lat="13.218680" lon="99.766952">
        <ele>69.0</ele>
        <time>2023-11-04T04:02:40Z</time>
      </trkpt>
      <trkpt lat="13.218715" lon="99.766900">
        <ele>69.0</ele>
        <time>2023-11-04T04:02:45Z</time>
      </trkpt>
      <trkpt lat="13.218726" lon="99.766844">
        <ele>69.0</ele>
        <time>2023-11-04T04:02:48Z</time>
      </trkpt>
      <trkpt lat="13.218788" lon="99.766812">
        <ele>68.0</ele>
        <time>2023-11-04T04:02:52Z</time>
      </trkpt>
      <trkpt lat="13.218812" lon="99.766770">
        <ele>68.8</ele>
        <time>2023-11-04T04:02:54Z</time>
      </trkpt>
      <trkpt lat="13.218880" lon="99.766772">
        <ele>68.0</ele>
        <time>2023-11-04T04:03:00Z</time>
      </trkpt>
      <trkpt lat="13.218886" lon="99.766707">
        <ele>54.0</ele>
        <time>2023-11-04T04:03:16Z</time>
      </trkpt>
      <trkpt lat="13.218943" lon="99.766641">
        <ele>69.0</ele>
        <time>2023-11-04T04:03:38Z</time>
      </trkpt>
      <trkpt lat="13.218946" lon="99.766522">
        <ele>68.0</ele>
        <time>2023-11-04T04:04:00Z</time>
      </trkpt>
      <trkpt lat="13.218951" lon="99.766574">
        <ele>69.0</ele>
        <time>2023-11-04T04:04:40Z</time>
      </trkpt>
      <trkpt lat="13.218933" lon="99.766643">
        <ele>68.0</ele>
        <time>2023-11-04T04:04:47Z</time>
      </trkpt>
      <trkpt lat="13.218914" lon="99.766675">
        <ele>68.0</ele>
        <time>2023-11-04T04:04:49Z</time>
      </trkpt>
      <trkpt lat="13.218945" lon="99.766742">
        <ele>64.0</ele>
        <time>2023-11-04T04:04:58Z</time>
      </trkpt>
      <trkpt lat="13.218956" lon="99.766724">
        <ele>60.0</ele>
        <time>2023-11-04T04:05:11Z</time>
      </trkpt>
      <trkpt lat="13.218960" lon="99.766682">
        <ele>64.0</ele>
        <time>2023-11-04T04:05:21Z</time>
      </trkpt>
      <trkpt lat="13.218986" lon="99.766714">
        <ele>69.0</ele>
        <time>2023-11-04T04:05:32Z</time>
      </trkpt>
      <trkpt lat="13.219032" lon="99.766642">
        <ele>70.0</ele>
        <time>2023-11-04T04:05:43Z</time>
      </trkpt>
      <trkpt lat="13.219073" lon="99.766646">
        <ele>64.0</ele>
        <time>2023-11-04T04:05:55Z</time>
      </trkpt>
      <trkpt lat="13.219109" lon="99.766634">
        <ele>69.0</ele>
        <time>2023-11-04T04:06:01Z</time>
      </trkpt>
      <trkpt lat="13.219132" lon="99.766601">
        <ele>70.0</ele>
        <time>2023-11-04T04:06:09Z</time>
      </trkpt>
      <trkpt lat="13.219195" lon="99.766585">
        <ele>72.0</ele>
        <time>2023-11-04T04:06:21Z</time>
      </trkpt>
      <trkpt lat="13.219198" lon="99.766546">
        <ele>72.8</ele>
        <time>2023-11-04T04:06:24Z</time>
      </trkpt>
      <trkpt lat="13.219230" lon="99.766530">
        <ele>71.0</ele>
        <time>2023-11-04T04:06:32Z</time>
      </trkpt>
      <trkpt lat="13.219240" lon="99.766476">
        <ele>72.0</ele>
        <time>2023-11-04T04:06:55Z</time>
      </trkpt>
      <trkpt lat="13.219266" lon="99.766480">
        <ele>72.0</ele>
        <time>2023-11-04T04:07:09Z</time>
      </trkpt>
      <trkpt lat="13.219277" lon="99.766456">
        <ele>72.0</ele>
        <time>2023-11-04T04:07:12Z</time>
      </trkpt>
      <trkpt lat="13.219306" lon="99.766362">
        <ele>72.0</ele>
        <time>2023-11-04T04:07:28Z</time>
      </trkpt>
      <trkpt lat="13.219286" lon="99.766278">
        <ele>68.0</ele>
        <time>2023-11-04T04:07:45Z</time>
      </trkpt>
      <trkpt lat="13.219292" lon="99.766235">
        <ele>72.0</ele>
        <time>2023-11-04T04:08:00Z</time>
      </trkpt>
      <trkpt lat="13.219268" lon="99.766202">
        <ele>63.0</ele>
        <time>2023-11-04T04:08:14Z</time>
      </trkpt>
      <trkpt lat="13.219297" lon="99.766121">
        <ele>70.0</ele>
        <time>2023-11-04T04:09:44Z</time>
      </trkpt>
      <trkpt lat="13.219285" lon="99.766068">
        <ele>73.0</ele>
        <time>2023-11-04T04:11:59Z</time>
      </trkpt>
      <trkpt lat="13.219286" lon="99.766010">
        <ele>72.0</ele>
        <time>2023-11-04T04:13:04Z</time>
      </trkpt>
      <trkpt lat="13.219378" lon="99.765913">
        <ele>72.0</ele>
        <time>2023-11-04T04:13:19Z</time>
      </trkpt>
      <trkpt lat="13.219355" lon="99.765884">
        <ele>68.0</ele>
        <time>2023-11-04T04:13:45Z</time>
      </trkpt>
      <trkpt lat="13.219365" lon="99.765850">
        <ele>74.0</ele>
        <time>2023-11-04T04:13:57Z</time>
      </trkpt>
      <trkpt lat="13.219268" lon="99.765780">
        <ele>70.0</ele>
        <time>2023-11-04T04:14:05Z</time>
      </trkpt>
      <trkpt lat="13.219237" lon="99.765739">
        <ele>65.0</ele>
        <time>2023-11-04T04:14:26Z</time>
      </trkpt>
      <trkpt lat="13.219228" lon="99.765695">
        <ele>74.0</ele>
        <time>2023-11-04T04:14:33Z</time>
      </trkpt>
      <trkpt lat="13.219375" lon="99.765509">
        <ele>76.0</ele>
        <time>2023-11-04T04:14:41Z</time>
      </trkpt>
      <trkpt lat="13.219670" lon="99.765237">
        <ele>78.0</ele>
        <time>2023-11-04T04:14:58Z</time>
      </trkpt>
      <trkpt lat="13.220109" lon="99.764868">
        <ele>78.0</ele>
        <time>2023-11-04T04:15:24Z</time>
      </trkpt>
      <trkpt lat="13.220144" lon="99.764810">
        <ele>78.0</ele>
        <time>2023-11-04T04:15:29Z</time>
      </trkpt>
      <trkpt lat="13.220137" lon="99.764770">
        <ele>78.0</ele>
        <time>2023-11-04T04:15:31Z</time>
      </trkpt>
      <trkpt lat="13.220098" lon="99.764717">
        <ele>78.5</ele>
        <time>2023-11-04T04:15:34Z</time>
      </trkpt>
      <trkpt lat="13.220008" lon="99.764634">
        <ele>78.0</ele>
        <time>2023-11-04T04:15:38Z</time>
      </trkpt>
      <trkpt lat="13.219997" lon="99.764603">
        <ele>78.0</ele>
        <time>2023-11-04T04:15:41Z</time>
      </trkpt>
      <trkpt lat="13.220024" lon="99.764580">
        <ele>80.0</ele>
        <time>2023-11-04T04:15:43Z</time>
      </trkpt>
      <trkpt lat="13.220034" lon="99.764620">
        <ele>80.0</ele>
        <time>2023-11-04T04:15:45Z</time>
      </trkpt>
      <trkpt lat="13.220026" lon="99.764655">
        <ele>80.0</ele>
        <time>2023-11-04T04:15:47Z</time>
      </trkpt>
      <trkpt lat="13.220043" lon="99.764694">
        <ele>80.4</ele>
        <time>2023-11-04T04:15:49Z</time>
      </trkpt>
      <trkpt lat="13.220097" lon="99.764720">
        <ele>78.0</ele>
        <time>2023-11-04T04:15:53Z</time>
      </trkpt>
      <trkpt lat="13.220133" lon="99.764709">
        <ele>78.0</ele>
        <time>2023-11-04T04:15:55Z</time>
      </trkpt>
      <trkpt lat="13.220190" lon="99.764668">
        <ele>80.0</ele>
        <time>2023-11-04T04:15:59Z</time>
      </trkpt>
      <trkpt lat="13.220275" lon="99.764586">
        <ele>82.0</ele>
        <time>2023-11-04T04:16:05Z</time>
      </trkpt>
      <trkpt lat="13.220349" lon="99.764548">
        <ele>82.0</ele>
        <time>2023-11-04T04:16:09Z</time>
      </trkpt>
      <trkpt lat="13.220457" lon="99.764437">
        <ele>82.0</ele>
        <time>2023-11-04T04:16:17Z</time>
      </trkpt>
      <trkpt lat="13.220484" lon="99.764382">
        <ele>83.7</ele>
        <time>2023-11-04T04:16:21Z</time>
      </trkpt>
      <trkpt lat="13.220484" lon="99.764345">
        <ele>84.0</ele>
        <time>2023-11-04T04:16:23Z</time>
      </trkpt>
      <trkpt lat="13.220523" lon="99.764274">
        <ele>86.0</ele>
        <time>2023-11-04T04:16:28Z</time>
      </trkpt>
      <trkpt lat="13.220531" lon="99.764194">
        <ele>85.0</ele>
        <time>2023-11-04T04:16:33Z</time>
      </trkpt>
      <trkpt lat="13.220548" lon="99.764149">
        <ele>84.0</ele>
        <time>2023-11-04T04:16:36Z</time>
      </trkpt>
      <trkpt lat="13.220536" lon="99.764076">
        <ele>86.0</ele>
        <time>2023-11-04T04:16:41Z</time>
      </trkpt>
      <trkpt lat="13.220467" lon="99.763942">
        <ele>90.0</ele>
        <time>2023-11-04T04:16:54Z</time>
      </trkpt>
      <trkpt lat="13.220468" lon="99.763903">
        <ele>90.0</ele>
        <time>2023-11-04T04:16:56Z</time>
      </trkpt>
      <trkpt lat="13.220443" lon="99.763768">
        <ele>92.0</ele>
        <time>2023-11-04T04:17:11Z</time>
      </trkpt>
      <trkpt lat="13.220455" lon="99.763731">
        <ele>91.0</ele>
        <time>2023-11-04T04:17:18Z</time>
      </trkpt>
      <trkpt lat="13.220445" lon="99.763688">
        <ele>92.0</ele>
        <time>2023-11-04T04:17:28Z</time>
      </trkpt>
      <trkpt lat="13.220453" lon="99.763644">
        <ele>92.0</ele>
        <time>2023-11-04T04:18:01Z</time>
      </trkpt>
      <trkpt lat="13.220391" lon="99.763556">
        <ele>93.0</ele>
        <time>2023-11-04T04:18:14Z</time>
      </trkpt>
      <trkpt lat="13.220381" lon="99.763523">
        <ele>96.0</ele>
        <time>2023-11-04T04:18:17Z</time>
      </trkpt>
      <trkpt lat="13.220383" lon="99.763369">
        <ele>98.0</ele>
        <time>2023-11-04T04:18:28Z</time>
      </trkpt>
      <trkpt lat="13.220402" lon="99.763277">
        <ele>96.0</ele>
        <time>2023-11-04T04:18:36Z</time>
      </trkpt>
      <trkpt lat="13.220390" lon="99.763106">
        <ele>102.0</ele>
        <time>2023-11-04T04:18:55Z</time>
      </trkpt>
      <trkpt lat="13.220339" lon="99.763068">
        <ele>105.0</ele>
        <time>2023-11-04T04:19:02Z</time>
      </trkpt>
      <trkpt lat="13.220316" lon="99.762887">
        <ele>105.0</ele>
        <time>2023-11-04T04:19:19Z</time>
      </trkpt>
      <trkpt lat="13.220279" lon="99.762866">
        <ele>107.0</ele>
        <time>2023-11-04T04:19:53Z</time>
      </trkpt>
      <trkpt lat="13.220254" lon="99.762776">
        <ele>107.0</ele>
        <time>2023-11-04T04:20:52Z</time>
      </trkpt>
      <trkpt lat="13.220207" lon="99.762708">
        <ele>111.0</ele>
        <time>2023-11-04T04:21:03Z</time>
      </trkpt>
      <trkpt lat="13.220144" lon="99.762674">
        <ele>108.0</ele>
        <time>2023-11-04T04:21:14Z</time>
      </trkpt>
      <trkpt lat="13.220087" lon="99.762560">
        <ele>110.0</ele>
        <time>2023-11-04T04:21:44Z</time>
      </trkpt>
      <trkpt lat="13.220058" lon="99.762421">
        <ele>115.0</ele>
        <time>2023-11-04T04:22:08Z</time>
      </trkpt>
      <trkpt lat="13.220039" lon="99.762412">
        <ele>117.0</ele>
        <time>2023-11-04T04:22:13Z</time>
      </trkpt>
      <trkpt lat="13.220022" lon="99.762350">
        <ele>115.0</ele>
        <time>2023-11-04T04:22:23Z</time>
      </trkpt>
      <trkpt lat="13.219995" lon="99.762329">
        <ele>115.0</ele>
        <time>2023-11-04T04:22:28Z</time>
      </trkpt>
      <trkpt lat="13.219926" lon="99.762337">
        <ele>119.0</ele>
        <time>2023-11-04T04:22:42Z</time>
      </trkpt>
      <trkpt lat="13.219883" lon="99.762360">
        <ele>120.0</ele>
        <time>2023-11-04T04:22:49Z</time>
      </trkpt>
      <trkpt lat="13.219822" lon="99.762326">
        <ele>122.0</ele>
        <time>2023-11-04T04:23:01Z</time>
      </trkpt>
      <trkpt lat="13.219820" lon="99.762293">
        <ele>122.0</ele>
        <time>2023-11-04T04:23:06Z</time>
      </trkpt>
      <trkpt lat="13.219793" lon="99.762307">
        <ele>120.0</ele>
        <time>2023-11-04T04:23:12Z</time>
      </trkpt>
      <trkpt lat="13.219780" lon="99.762341">
        <ele>120.0</ele>
        <time>2023-11-04T04:23:17Z</time>
      </trkpt>
      <trkpt lat="13.219707" lon="99.762337">
        <ele>124.0</ele>
        <time>2023-11-04T04:23:27Z</time>
      </trkpt>
      <trkpt lat="13.219650" lon="99.762350">
        <ele>126.0</ele>
        <time>2023-11-04T04:23:53Z</time>
      </trkpt>
      <trkpt lat="13.219530" lon="99.762326">
        <ele>126.0</ele>
        <time>2023-11-04T04:24:14Z</time>
      </trkpt>
      <trkpt lat="13.219525" lon="99.762295">
        <ele>126.0</ele>
        <time>2023-11-04T04:24:18Z</time>
      </trkpt>
      <trkpt lat="13.219480" lon="99.762239">
        <ele>126.0</ele>
        <time>2023-11-04T04:24:23Z</time>
      </trkpt>
      <trkpt lat="13.219380" lon="99.762211">
        <ele>123.0</ele>
        <time>2023-11-04T04:24:30Z</time>
      </trkpt>
      <trkpt lat="13.219278" lon="99.762162">
        <ele>122.0</ele>
        <time>2023-11-04T04:24:36Z</time>
      </trkpt>
      <trkpt lat="13.219170" lon="99.762167">
        <ele>121.0</ele>
        <time>2023-11-04T04:24:45Z</time>
      </trkpt>
      <trkpt lat="13.219038" lon="99.762228">
        <ele>122.0</ele>
        <time>2023-11-04T04:25:02Z</time>
      </trkpt>
      <trkpt lat="13.218875" lon="99.762251">
        <ele>116.0</ele>
        <time>2023-11-04T04:25:35Z</time>
      </trkpt>
      <trkpt lat="13.218857" lon="99.762282">
        <ele>108.0</ele>
        <time>2023-11-04T04:25:45Z</time>
      </trkpt>
      <trkpt lat="13.218798" lon="99.762273">
        <ele>111.0</ele>
        <time>2023-11-04T04:26:05Z</time>
      </trkpt>
      <trkpt lat="13.218772" lon="99.762296">
        <ele>112.0</ele>
        <time>2023-11-04T04:26:12Z</time>
      </trkpt>
      <trkpt lat="13.218652" lon="99.762322">
        <ele>107.2</ele>
        <time>2023-11-04T04:26:21Z</time>
      </trkpt>
      <trkpt lat="13.218622" lon="99.762349">
        <ele>106.0</ele>
        <time>2023-11-04T04:26:23Z</time>
      </trkpt>
      <trkpt lat="13.218486" lon="99.762311">
        <ele>100.0</ele>
        <time>2023-11-04T04:26:33Z</time>
      </trkpt>
      <trkpt lat="13.218348" lon="99.762364">
        <ele>98.0</ele>
        <time>2023-11-04T04:26:39Z</time>
      </trkpt>
      <trkpt lat="13.218315" lon="99.762398">
        <ele>97.0</ele>
        <time>2023-11-04T04:26:41Z</time>
      </trkpt>
      <trkpt lat="13.218248" lon="99.762423">
        <ele>95.0</ele>
        <time>2023-11-04T04:26:46Z</time>
      </trkpt>
      <trkpt lat="13.218117" lon="99.762409">
        <ele>92.0</ele>
        <time>2023-11-04T04:26:52Z</time>
      </trkpt>
      <trkpt lat="13.218030" lon="99.762376">
        <ele>89.0</ele>
        <time>2023-11-04T04:26:56Z</time>
      </trkpt>
      <trkpt lat="13.217937" lon="99.762411">
        <ele>88.0</ele>
        <time>2023-11-04T04:28:01Z</time>
      </trkpt>
      <trkpt lat="13.217894" lon="99.762465">
        <ele>88.0</ele>
        <time>2023-11-04T04:28:21Z</time>
      </trkpt>
      <trkpt lat="13.217882" lon="99.762503">
        <ele>88.0</ele>
        <time>2023-11-04T04:28:23Z</time>
      </trkpt>
      <trkpt lat="13.217791" lon="99.762620">
        <ele>87.2</ele>
        <time>2023-11-04T04:28:29Z</time>
      </trkpt>
      <trkpt lat="13.217736" lon="99.762741">
        <ele>85.3</ele>
        <time>2023-11-04T04:28:33Z</time>
      </trkpt>
      <trkpt lat="13.217680" lon="99.762816">
        <ele>83.8</ele>
        <time>2023-11-04T04:28:35Z</time>
      </trkpt>
      <trkpt lat="13.217658" lon="99.762864">
        <ele>82.6</ele>
        <time>2023-11-04T04:28:36Z</time>
      </trkpt>
      <trkpt lat="13.217648" lon="99.762964">
        <ele>81.8</ele>
        <time>2023-11-04T04:28:38Z</time>
      </trkpt>
      <trkpt lat="13.217622" lon="99.763037">
        <ele>80.5</ele>
        <time>2023-11-04T04:28:40Z</time>
      </trkpt>
      <trkpt lat="13.217624" lon="99.763070">
        <ele>80.6</ele>
        <time>2023-11-04T04:28:41Z</time>
      </trkpt>
      <trkpt lat="13.217601" lon="99.763112">
        <ele>80.3</ele>
        <time>2023-11-04T04:28:42Z</time>
      </trkpt>
      <trkpt lat="13.217569" lon="99.763141">
        <ele>80.4</ele>
        <time>2023-11-04T04:28:43Z</time>
      </trkpt>
      <trkpt lat="13.217526" lon="99.763157">
        <ele>80.2</ele>
        <time>2023-11-04T04:28:44Z</time>
      </trkpt>
      <trkpt lat="13.217515" lon="99.763204">
        <ele>79.3</ele>
        <time>2023-11-04T04:28:45Z</time>
      </trkpt>
      <trkpt lat="13.217517" lon="99.763244">
        <ele>78.4</ele>
        <time>2023-11-04T04:28:46Z</time>
      </trkpt>
      <trkpt lat="13.217471" lon="99.763313">
        <ele>78.8</ele>
        <time>2023-11-04T04:28:48Z</time>
      </trkpt>
      <trkpt lat="13.217383" lon="99.763492">
        <ele>76.0</ele>
        <time>2023-11-04T04:28:51Z</time>
      </trkpt>
      <trkpt lat="13.217388" lon="99.763557">
        <ele>76.4</ele>
        <time>2023-11-04T04:28:53Z</time>
      </trkpt>
      <trkpt lat="13.217460" lon="99.763720">
        <ele>75.3</ele>
        <time>2023-11-04T04:28:57Z</time>
      </trkpt>
      <trkpt lat="13.217467" lon="99.763753">
        <ele>74.7</ele>
        <time>2023-11-04T04:28:58Z</time>
      </trkpt>
      <trkpt lat="13.217460" lon="99.763785">
        <ele>73.0</ele>
        <time>2023-11-04T04:28:59Z</time>
      </trkpt>
      <trkpt lat="13.217487" lon="99.763816">
        <ele>72.0</ele>
        <time>2023-11-04T04:29:02Z</time>
      </trkpt>
      <trkpt lat="13.217523" lon="99.763830">
        <ele>72.0</ele>
        <time>2023-11-04T04:29:05Z</time>
      </trkpt>
      <trkpt lat="13.217582" lon="99.763909">
        <ele>72.0</ele>
        <time>2023-11-04T04:29:31Z</time>
      </trkpt>
      <trkpt lat="13.217592" lon="99.763943">
        <ele>72.0</ele>
        <time>2023-11-04T04:29:33Z</time>
      </trkpt>
      <trkpt lat="13.217589" lon="99.764075">
        <ele>72.7</ele>
        <time>2023-11-04T04:29:38Z</time>
      </trkpt>
      <trkpt lat="13.217571" lon="99.764175">
        <ele>72.0</ele>
        <time>2023-11-04T04:29:41Z</time>
      </trkpt>
      <trkpt lat="13.217502" lon="99.764428">
        <ele>70.9</ele>
        <time>2023-11-04T04:29:51Z</time>
      </trkpt>
      <trkpt lat="13.217506" lon="99.764495">
        <ele>70.5</ele>
        <time>2023-11-04T04:29:53Z</time>
      </trkpt>
      <trkpt lat="13.217489" lon="99.764570">
        <ele>70.2</ele>
        <time>2023-11-04T04:29:55Z</time>
      </trkpt>
      <trkpt lat="13.217431" lon="99.764664">
        <ele>69.2</ele>
        <time>2023-11-04T04:29:58Z</time>
      </trkpt>
      <trkpt lat="13.217415" lon="99.764748">
        <ele>68.4</ele>
        <time>2023-11-04T04:30:00Z</time>
      </trkpt>
      <trkpt lat="13.217325" lon="99.764919">
        <ele>66.8</ele>
        <time>2023-11-04T04:30:04Z</time>
      </trkpt>
      <trkpt lat="13.217254" lon="99.764980">
        <ele>67.1</ele>
        <time>2023-11-04T04:30:06Z</time>
      </trkpt>
      <trkpt lat="13.217172" lon="99.765015">
        <ele>66.6</ele>
        <time>2023-11-04T04:30:08Z</time>
      </trkpt>
      <trkpt lat="13.217083" lon="99.764943">
        <ele>67.7</ele>
        <time>2023-11-04T04:30:11Z</time>
      </trkpt>
      <trkpt lat="13.217023" lon="99.764913">
        <ele>67.8</ele>
        <time>2023-11-04T04:30:13Z</time>
      </trkpt>
      <trkpt lat="13.216981" lon="99.764903">
        <ele>66.0</ele>
        <time>2023-11-04T04:30:14Z</time>
      </trkpt>
      <trkpt lat="13.216678" lon="99.764935">
        <ele>68.1</ele>
        <time>2023-11-04T04:30:22Z</time>
      </trkpt>
      <trkpt lat="13.216592" lon="99.764964">
        <ele>67.7</ele>
        <time>2023-11-04T04:30:24Z</time>
      </trkpt>
      <trkpt lat="13.216518" lon="99.765012">
        <ele>68.0</ele>
        <time>2023-11-04T04:30:26Z</time>
      </trkpt>
      <trkpt lat="13.216363" lon="99.765144">
        <ele>66.9</ele>
        <time>2023-11-04T04:30:31Z</time>
      </trkpt>
      <trkpt lat="13.216138" lon="99.765216">
        <ele>66.3</ele>
        <time>2023-11-04T04:30:36Z</time>
      </trkpt>
      <trkpt lat="13.216077" lon="99.765289">
        <ele>65.6</ele>
        <time>2023-11-04T04:30:38Z</time>
      </trkpt>
      <trkpt lat="13.215997" lon="99.765360">
        <ele>64.9</ele>
        <time>2023-11-04T04:30:40Z</time>
      </trkpt>
      <trkpt lat="13.215940" lon="99.765466">
        <ele>63.5</ele>
        <time>2023-11-04T04:30:42Z</time>
      </trkpt>
      <trkpt lat="13.215809" lon="99.765563">
        <ele>63.4</ele>
        <time>2023-11-04T04:30:45Z</time>
      </trkpt>
      <trkpt lat="13.215735" lon="99.765634">
        <ele>63.5</ele>
        <time>2023-11-04T04:30:47Z</time>
      </trkpt>
      <trkpt lat="13.215686" lon="99.765642">
        <ele>63.4</ele>
        <time>2023-11-04T04:30:48Z</time>
      </trkpt>
      <trkpt lat="13.215640" lon="99.765629">
        <ele>63.2</ele>
        <time>2023-11-04T04:30:49Z</time>
      </trkpt>
      <trkpt lat="13.215549" lon="99.765656">
        <ele>63.0</ele>
        <time>2023-11-04T04:30:51Z</time>
      </trkpt>
      <trkpt lat="13.215511" lon="99.765692">
        <ele>63.2</ele>
        <time>2023-11-04T04:30:52Z</time>
      </trkpt>
      <trkpt lat="13.215462" lon="99.765772">
        <ele>63.4</ele>
        <time>2023-11-04T04:30:54Z</time>
      </trkpt>
      <trkpt lat="13.215407" lon="99.765892">
        <ele>63.4</ele>
        <time>2023-11-04T04:30:58Z</time>
      </trkpt>
      <trkpt lat="13.215278" lon="99.766025">
        <ele>62.8</ele>
        <time>2023-11-04T04:31:03Z</time>
      </trkpt>
      <trkpt lat="13.215241" lon="99.766047">
        <ele>62.5</ele>
        <time>2023-11-04T04:31:04Z</time>
      </trkpt>
      <trkpt lat="13.214989" lon="99.766084">
        <ele>60.4</ele>
        <time>2023-11-04T04:31:09Z</time>
      </trkpt>
      <trkpt lat="13.214945" lon="99.766062">
        <ele>60.3</ele>
        <time>2023-11-04T04:31:10Z</time>
      </trkpt>
      <trkpt lat="13.214897" lon="99.765977">
        <ele>60.8</ele>
        <time>2023-11-04T04:31:12Z</time>
      </trkpt>
      <trkpt lat="13.214863" lon="99.765889">
        <ele>61.9</ele>
        <time>2023-11-04T04:31:14Z</time>
      </trkpt>
      <trkpt lat="13.214834" lon="99.765859">
        <ele>62.5</ele>
        <time>2023-11-04T04:31:15Z</time>
      </trkpt>
      <trkpt lat="13.214802" lon="99.765756">
        <ele>62.0</ele>
        <time>2023-11-04T04:31:21Z</time>
      </trkpt>
      <trkpt lat="13.214701" lon="99.765588">
        <ele>64.0</ele>
        <time>2023-11-04T04:31:33Z</time>
      </trkpt>
      <trkpt lat="13.214679" lon="99.765558">
        <ele>64.0</ele>
        <time>2023-11-04T04:31:35Z</time>
      </trkpt>
      <trkpt lat="13.214643" lon="99.765532">
        <ele>64.0</ele>
        <time>2023-11-04T04:31:37Z</time>
      </trkpt>
      <trkpt lat="13.214537" lon="99.765523">
        <ele>64.0</ele>
        <time>2023-11-04T04:31:41Z</time>
      </trkpt>
      <trkpt lat="13.214448" lon="99.765532">
        <ele>65.0</ele>
        <time>2023-11-04T04:31:45Z</time>
      </trkpt>
      <trkpt lat="13.214412" lon="99.765551">
        <ele>66.0</ele>
        <time>2023-11-04T04:31:47Z</time>
      </trkpt>
      <trkpt lat="13.214281" lon="99.765659">
        <ele>65.8</ele>
        <time>2023-11-04T04:31:53Z</time>
      </trkpt>
      <trkpt lat="13.214161" lon="99.765784">
        <ele>66.0</ele>
        <time>2023-11-04T04:31:59Z</time>
      </trkpt>
      <trkpt lat="13.214085" lon="99.765842">
        <ele>65.7</ele>
        <time>2023-11-04T04:32:03Z</time>
      </trkpt>
      <trkpt lat="13.213964" lon="99.766017">
        <ele>64.5</ele>
        <time>2023-11-04T04:32:08Z</time>
      </trkpt>
      <trkpt lat="13.213925" lon="99.766021">
        <ele>62.0</ele>
        <time>2023-11-04T04:32:09Z</time>
      </trkpt>
      <trkpt lat="13.213897" lon="99.765998">
        <ele>64.0</ele>
        <time>2023-11-04T04:32:11Z</time>
      </trkpt>
      <trkpt lat="13.213764" lon="99.765840">
        <ele>62.0</ele>
        <time>2023-11-04T04:32:19Z</time>
      </trkpt>
      <trkpt lat="13.213568" lon="99.765804">
        <ele>64.0</ele>
        <time>2023-11-04T04:32:27Z</time>
      </trkpt>
      <trkpt lat="13.213517" lon="99.765744">
        <ele>64.0</ele>
        <time>2023-11-04T04:32:32Z</time>
      </trkpt>
      <trkpt lat="13.213487" lon="99.765728">
        <ele>64.0</ele>
        <time>2023-11-04T04:32:34Z</time>
      </trkpt>
      <trkpt lat="13.213424" lon="99.765720">
        <ele>64.0</ele>
        <time>2023-11-04T04:32:39Z</time>
      </trkpt>
      <trkpt lat="13.213261" lon="99.765646">
        <ele>63.0</ele>
        <time>2023-11-04T04:32:52Z</time>
      </trkpt>
      <trkpt lat="13.213126" lon="99.765629">
        <ele>64.0</ele>
        <time>2023-11-04T04:33:01Z</time>
      </trkpt>
      <trkpt lat="13.213075" lon="99.765593">
        <ele>64.5</ele>
        <time>2023-11-04T04:33:06Z</time>
      </trkpt>
      <trkpt lat="13.213015" lon="99.765599">
        <ele>64.0</ele>
        <time>2023-11-04T04:33:09Z</time>
      </trkpt>
      <trkpt lat="13.212984" lon="99.765617">
        <ele>64.0</ele>
        <time>2023-11-04T04:33:11Z</time>
      </trkpt>
      <trkpt lat="13.212958" lon="99.765646">
        <ele>65.0</ele>
        <time>2023-11-04T04:33:13Z</time>
      </trkpt>
      <trkpt lat="13.212899" lon="99.765816">
        <ele>66.1</ele>
        <time>2023-11-04T04:33:19Z</time>
      </trkpt>
      <trkpt lat="13.212861" lon="99.765885">
        <ele>66.3</ele>
        <time>2023-11-04T04:33:21Z</time>
      </trkpt>
      <trkpt lat="13.212802" lon="99.765944">
        <ele>66.4</ele>
        <time>2023-11-04T04:33:23Z</time>
      </trkpt>
      <trkpt lat="13.212732" lon="99.765988">
        <ele>66.2</ele>
        <time>2023-11-04T04:33:25Z</time>
      </trkpt>
      <trkpt lat="13.212680" lon="99.766060">
        <ele>66.3</ele>
        <time>2023-11-04T04:33:27Z</time>
      </trkpt>
      <trkpt lat="13.212603" lon="99.766107">
        <ele>65.6</ele>
        <time>2023-11-04T04:33:29Z</time>
      </trkpt>
      <trkpt lat="13.212524" lon="99.766225">
        <ele>65.3</ele>
        <time>2023-11-04T04:33:32Z</time>
      </trkpt>
      <trkpt lat="13.212498" lon="99.766325">
        <ele>64.5</ele>
        <time>2023-11-04T04:33:34Z</time>
      </trkpt>
      <trkpt lat="13.212479" lon="99.766491">
        <ele>63.9</ele>
        <time>2023-11-04T04:33:37Z</time>
      </trkpt>
      <trkpt lat="13.212488" lon="99.766609">
        <ele>63.4</ele>
        <time>2023-11-04T04:33:39Z</time>
      </trkpt>
      <trkpt lat="13.212467" lon="99.766847">
        <ele>62.6</ele>
        <time>2023-11-04T04:33:43Z</time>
      </trkpt>
      <trkpt lat="13.212423" lon="99.766952">
        <ele>62.4</ele>
        <time>2023-11-04T04:33:45Z</time>
      </trkpt>
      <trkpt lat="13.212341" lon="99.767028">
        <ele>61.8</ele>
        <time>2023-11-04T04:33:47Z</time>
      </trkpt>
      <trkpt lat="13.212278" lon="99.767119">
        <ele>61.2</ele>
        <time>2023-11-04T04:33:49Z</time>
      </trkpt>
      <trkpt lat="13.212280" lon="99.767397">
        <ele>61.3</ele>
        <time>2023-11-04T04:33:54Z</time>
      </trkpt>
      <trkpt lat="13.212258" lon="99.767447">
        <ele>61.5</ele>
        <time>2023-11-04T04:33:55Z</time>
      </trkpt>
      <trkpt lat="13.212183" lon="99.767523">
        <ele>61.3</ele>
        <time>2023-11-04T04:33:57Z</time>
      </trkpt>
      <trkpt lat="13.212140" lon="99.767538">
        <ele>61.1</ele>
        <time>2023-11-04T04:33:58Z</time>
      </trkpt>
      <trkpt lat="13.212089" lon="99.767525">
        <ele>61.1</ele>
        <time>2023-11-04T04:33:59Z</time>
      </trkpt>
      <trkpt lat="13.212018" lon="99.767488">
        <ele>60.9</ele>
        <time>2023-11-04T04:34:01Z</time>
      </trkpt>
      <trkpt lat="13.211952" lon="99.767519">
        <ele>61.2</ele>
        <time>2023-11-04T04:34:03Z</time>
      </trkpt>
      <trkpt lat="13.211915" lon="99.767523">
        <ele>60.9</ele>
        <time>2023-11-04T04:34:04Z</time>
      </trkpt>
      <trkpt lat="13.211874" lon="99.767506">
        <ele>60.2</ele>
        <time>2023-11-04T04:34:05Z</time>
      </trkpt>
      <trkpt lat="13.211830" lon="99.767504">
        <ele>60.1</ele>
        <time>2023-11-04T04:34:06Z</time>
      </trkpt>
      <trkpt lat="13.211745" lon="99.767530">
        <ele>59.8</ele>
        <time>2023-11-04T04:34:08Z</time>
      </trkpt>
      <trkpt lat="13.211658" lon="99.767528">
        <ele>59.6</ele>
        <time>2023-11-04T04:34:10Z</time>
      </trkpt>
      <trkpt lat="13.211621" lon="99.767510">
        <ele>59.3</ele>
        <time>2023-11-04T04:34:11Z</time>
      </trkpt>
      <trkpt lat="13.211598" lon="99.767468">
        <ele>59.1</ele>
        <time>2023-11-04T04:34:12Z</time>
      </trkpt>
      <trkpt lat="13.211599" lon="99.767422">
        <ele>59.3</ele>
        <time>2023-11-04T04:34:13Z</time>
      </trkpt>
      <trkpt lat="13.211618" lon="99.767347">
        <ele>59.3</ele>
        <time>2023-11-04T04:34:15Z</time>
      </trkpt>
      <trkpt lat="13.211619" lon="99.767305">
        <ele>59.5</ele>
        <time>2023-11-04T04:34:16Z</time>
      </trkpt>
      <trkpt lat="13.211604" lon="99.767271">
        <ele>59.4</ele>
        <time>2023-11-04T04:34:17Z</time>
      </trkpt>
      <trkpt lat="13.211573" lon="99.767247">
        <ele>58.0</ele>
        <time>2023-11-04T04:34:18Z</time>
      </trkpt>
      <trkpt lat="13.211489" lon="99.767258">
        <ele>60.7</ele>
        <time>2023-11-04T04:34:21Z</time>
      </trkpt>
      <trkpt lat="13.211461" lon="99.767277">
        <ele>60.1</ele>
        <time>2023-11-04T04:34:22Z</time>
      </trkpt>
      <trkpt lat="13.211426" lon="99.767342">
        <ele>60.5</ele>
        <time>2023-11-04T04:34:24Z</time>
      </trkpt>
      <trkpt lat="13.211387" lon="99.767368">
        <ele>60.0</ele>
        <time>2023-11-04T04:34:25Z</time>
      </trkpt>
      <trkpt lat="13.211322" lon="99.767436">
        <ele>59.7</ele>
        <time>2023-11-04T04:34:27Z</time>
      </trkpt>
      <trkpt lat="13.211237" lon="99.767490">
        <ele>58.9</ele>
        <time>2023-11-04T04:34:29Z</time>
      </trkpt>
      <trkpt lat="13.211119" lon="99.767659">
        <ele>59.2</ele>
        <time>2023-11-04T04:34:33Z</time>
      </trkpt>
      <trkpt lat="13.211077" lon="99.767749">
        <ele>59.3</ele>
        <time>2023-11-04T04:34:35Z</time>
      </trkpt>
      <trkpt lat="13.211047" lon="99.767937">
        <ele>59.8</ele>
        <time>2023-11-04T04:34:39Z</time>
      </trkpt>
      <trkpt lat="13.211045" lon="99.768023">
        <ele>59.9</ele>
        <time>2023-11-04T04:34:41Z</time>
      </trkpt>
      <trkpt lat="13.210961" lon="99.768111">
        <ele>60.6</ele>
        <time>2023-11-04T04:34:44Z</time>
      </trkpt>
      <trkpt lat="13.210933" lon="99.768178">
        <ele>60.7</ele>
        <time>2023-11-04T04:34:46Z</time>
      </trkpt>
      <trkpt lat="13.210934" lon="99.768414">
        <ele>59.7</ele>
        <time>2023-11-04T04:34:52Z</time>
      </trkpt>
      <trkpt lat="13.210922" lon="99.768454">
        <ele>59.3</ele>
        <time>2023-11-04T04:34:53Z</time>
      </trkpt>
      <trkpt lat="13.210894" lon="99.768490">
        <ele>59.5</ele>
        <time>2023-11-04T04:34:54Z</time>
      </trkpt>
      <trkpt lat="13.210884" lon="99.768530">
        <ele>59.6</ele>
        <time>2023-11-04T04:34:55Z</time>
      </trkpt>
      <trkpt lat="13.210918" lon="99.768654">
        <ele>59.2</ele>
        <time>2023-11-04T04:34:58Z</time>
      </trkpt>
      <trkpt lat="13.210887" lon="99.768849">
        <ele>58.0</ele>
        <time>2023-11-04T04:35:04Z</time>
      </trkpt>
      <trkpt lat="13.210857" lon="99.768879">
        <ele>58.5</ele>
        <time>2023-11-04T04:35:06Z</time>
      </trkpt>
      <trkpt lat="13.210819" lon="99.768891">
        <ele>58.1</ele>
        <time>2023-11-04T04:35:07Z</time>
      </trkpt>
      <trkpt lat="13.210782" lon="99.768920">
        <ele>57.7</ele>
        <time>2023-11-04T04:35:08Z</time>
      </trkpt>
      <trkpt lat="13.210676" lon="99.768904">
        <ele>56.2</ele>
        <time>2023-11-04T04:35:10Z</time>
      </trkpt>
      <trkpt lat="13.210629" lon="99.768916">
        <ele>55.8</ele>
        <time>2023-11-04T04:35:11Z</time>
      </trkpt>
      <trkpt lat="13.210585" lon="99.768937">
        <ele>55.9</ele>
        <time>2023-11-04T04:35:12Z</time>
      </trkpt>
      <trkpt lat="13.210492" lon="99.769007">
        <ele>55.3</ele>
        <time>2023-11-04T04:35:14Z</time>
      </trkpt>
      <trkpt lat="13.210445" lon="99.769021">
        <ele>54.0</ele>
        <time>2023-11-04T04:35:15Z</time>
      </trkpt>
      <trkpt lat="13.210388" lon="99.768996">
        <ele>54.0</ele>
        <time>2023-11-04T04:35:17Z</time>
      </trkpt>
      <trkpt lat="13.210360" lon="99.768961">
        <ele>55.0</ele>
        <time>2023-11-04T04:35:19Z</time>
      </trkpt>
      <trkpt lat="13.210340" lon="99.768913">
        <ele>56.2</ele>
        <time>2023-11-04T04:35:21Z</time>
      </trkpt>
      <trkpt lat="13.210305" lon="99.768705">
        <ele>56.0</ele>
        <time>2023-11-04T04:35:28Z</time>
      </trkpt>
      <trkpt lat="13.210240" lon="99.768670">
        <ele>56.0</ele>
        <time>2023-11-04T04:35:31Z</time>
      </trkpt>
      <trkpt lat="13.210160" lon="99.768670">
        <ele>56.0</ele>
        <time>2023-11-04T04:35:34Z</time>
      </trkpt>
      <trkpt lat="13.210049" lon="99.768635">
        <ele>57.0</ele>
        <time>2023-11-04T04:35:42Z</time>
      </trkpt>
      <trkpt lat="13.209970" lon="99.768631">
        <ele>60.0</ele>
        <time>2023-11-04T04:35:46Z</time>
      </trkpt>
      <trkpt lat="13.209886" lon="99.768643">
        <ele>60.0</ele>
        <time>2023-11-04T04:35:51Z</time>
      </trkpt>
      <trkpt lat="13.209787" lon="99.768621">
        <ele>60.0</ele>
        <time>2023-11-04T04:35:57Z</time>
      </trkpt>
      <trkpt lat="13.209699" lon="99.768551">
        <ele>60.0</ele>
        <time>2023-11-04T04:36:03Z</time>
      </trkpt>
      <trkpt lat="13.209531" lon="99.768471">
        <ele>60.0</ele>
        <time>2023-11-04T04:36:12Z</time>
      </trkpt>
      <trkpt lat="13.209384" lon="99.768452">
        <ele>60.0</ele>
        <time>2023-11-04T04:36:21Z</time>
      </trkpt>
      <trkpt lat="13.209296" lon="99.768454">
        <ele>60.0</ele>
        <time>2023-11-04T04:36:26Z</time>
      </trkpt>
      <trkpt lat="13.209261" lon="99.768443">
        <ele>60.0</ele>
        <time>2023-11-04T04:36:28Z</time>
      </trkpt>
      <trkpt lat="13.209228" lon="99.768422">
        <ele>60.0</ele>
        <time>2023-11-04T04:36:30Z</time>
      </trkpt>
      <trkpt lat="13.209141" lon="99.768336">
        <ele>60.0</ele>
        <time>2023-11-04T04:36:36Z</time>
      </trkpt>
      <trkpt lat="13.209105" lon="99.768314">
        <ele>60.0</ele>
        <time>2023-11-04T04:36:38Z</time>
      </trkpt>
      <trkpt lat="13.209032" lon="99.768291">
        <ele>60.0</ele>
        <time>2023-11-04T04:36:42Z</time>
      </trkpt>
      <trkpt lat="13.208865" lon="99.768281">
        <ele>60.0</ele>
        <time>2023-11-04T04:36:52Z</time>
      </trkpt>
      <trkpt lat="13.208830" lon="99.768288">
        <ele>60.0</ele>
        <time>2023-11-04T04:36:54Z</time>
      </trkpt>
      <trkpt lat="13.208707" lon="99.768256">
        <ele>55.0</ele>
        <time>2023-11-04T04:37:55Z</time>
      </trkpt>
      <trkpt lat="13.208682" lon="99.768227">
        <ele>60.0</ele>
        <time>2023-11-04T04:38:32Z</time>
      </trkpt>
      <trkpt lat="13.208637" lon="99.768203">
        <ele>60.0</ele>
        <time>2023-11-04T04:38:34Z</time>
      </trkpt>
      <trkpt lat="13.208588" lon="99.768194">
        <ele>60.7</ele>
        <time>2023-11-04T04:38:36Z</time>
      </trkpt>
      <trkpt lat="13.208458" lon="99.768201">
        <ele>60.8</ele>
        <time>2023-11-04T04:38:39Z</time>
      </trkpt>
      <trkpt lat="13.208431" lon="99.768225">
        <ele>61.2</ele>
        <time>2023-11-04T04:38:40Z</time>
      </trkpt>
      <trkpt lat="13.208315" lon="99.768227">
        <ele>62.0</ele>
        <time>2023-11-04T04:38:45Z</time>
      </trkpt>
      <trkpt lat="13.208215" lon="99.768196">
        <ele>62.0</ele>
        <time>2023-11-04T04:38:49Z</time>
      </trkpt>
      <trkpt lat="13.208021" lon="99.768022">
        <ele>63.0</ele>
        <time>2023-11-04T04:39:00Z</time>
      </trkpt>
      <trkpt lat="13.207998" lon="99.768050">
        <ele>63.0</ele>
        <time>2023-11-04T04:39:03Z</time>
      </trkpt>
      <trkpt lat="13.207988" lon="99.768094">
        <ele>63.0</ele>
        <time>2023-11-04T04:39:05Z</time>
      </trkpt>
      <trkpt lat="13.207960" lon="99.768131">
        <ele>63.6</ele>
        <time>2023-11-04T04:39:06Z</time>
      </trkpt>
      <trkpt lat="13.207818" lon="99.768201">
        <ele>60.8</ele>
        <time>2023-11-04T04:39:09Z</time>
      </trkpt>
      <trkpt lat="13.207733" lon="99.768310">
        <ele>59.3</ele>
        <time>2023-11-04T04:39:11Z</time>
      </trkpt>
      <trkpt lat="13.207649" lon="99.768376">
        <ele>59.2</ele>
        <time>2023-11-04T04:39:13Z</time>
      </trkpt>
      <trkpt lat="13.207626" lon="99.768414">
        <ele>59.9</ele>
        <time>2023-11-04T04:39:15Z</time>
      </trkpt>
      <trkpt lat="13.207598" lon="99.768496">
        <ele>61.1</ele>
        <time>2023-11-04T04:39:17Z</time>
      </trkpt>
      <trkpt lat="13.207500" lon="99.768634">
        <ele>60.0</ele>
        <time>2023-11-04T04:39:24Z</time>
      </trkpt>
      <trkpt lat="13.207492" lon="99.768684">
        <ele>62.1</ele>
        <time>2023-11-04T04:39:26Z</time>
      </trkpt>
      <trkpt lat="13.207499" lon="99.768757">
        <ele>61.9</ele>
        <time>2023-11-04T04:39:28Z</time>
      </trkpt>
      <trkpt lat="13.207529" lon="99.768838">
        <ele>61.8</ele>
        <time>2023-11-04T04:39:30Z</time>
      </trkpt>
      <trkpt lat="13.207643" lon="99.769569">
        <ele>59.4</ele>
        <time>2023-11-04T04:39:47Z</time>
      </trkpt>
      <trkpt lat="13.207705" lon="99.769575">
        <ele>58.9</ele>
        <time>2023-11-04T04:39:48Z</time>
      </trkpt>
      <trkpt lat="13.207653" lon="99.769707">
        <ele>60.2</ele>
        <time>2023-11-04T04:39:49Z</time>
      </trkpt>
      <trkpt lat="13.207717" lon="99.769753">
        <ele>59.0</ele>
        <time>2023-11-04T04:39:50Z</time>
      </trkpt>
      <trkpt lat="13.207736" lon="99.769790">
        <ele>59.4</ele>
        <time>2023-11-04T04:39:52Z</time>
      </trkpt>
      <trkpt lat="13.207736" lon="99.769742">
        <ele>59.1</ele>
        <time>2023-11-04T04:39:53Z</time>
      </trkpt>
      <trkpt lat="13.207750" lon="99.769784">
        <ele>59.0</ele>
        <time>2023-11-04T04:39:56Z</time>
      </trkpt>
      <trkpt lat="13.207812" lon="99.769889">
        <ele>60.0</ele>
        <time>2023-11-04T04:40:03Z</time>
      </trkpt>
      <trkpt lat="13.207832" lon="99.769975">
        <ele>60.0</ele>
        <time>2023-11-04T04:40:07Z</time>
      </trkpt>
      <trkpt lat="13.207814" lon="99.770020">
        <ele>61.5</ele>
        <time>2023-11-04T04:40:09Z</time>
      </trkpt>
      <trkpt lat="13.207778" lon="99.770071">
        <ele>61.0</ele>
        <time>2023-11-04T04:40:11Z</time>
      </trkpt>
      <trkpt lat="13.207661" lon="99.770174">
        <ele>60.3</ele>
        <time>2023-11-04T04:40:15Z</time>
      </trkpt>
      <trkpt lat="13.207598" lon="99.770190">
        <ele>60.3</ele>
        <time>2023-11-04T04:40:16Z</time>
      </trkpt>
      <trkpt lat="13.207551" lon="99.770233">
        <ele>60.0</ele>
        <time>2023-11-04T04:40:17Z</time>
      </trkpt>
      <trkpt lat="13.207482" lon="99.770246">
        <ele>59.1</ele>
        <time>2023-11-04T04:40:18Z</time>
      </trkpt>
      <trkpt lat="13.207448" lon="99.770290">
        <ele>57.7</ele>
        <time>2023-11-04T04:40:19Z</time>
      </trkpt>
      <trkpt lat="13.207276" lon="99.770405">
        <ele>60.0</ele>
        <time>2023-11-04T04:40:27Z</time>
      </trkpt>
      <trkpt lat="13.207205" lon="99.770527">
        <ele>62.0</ele>
        <time>2023-11-04T04:40:35Z</time>
      </trkpt>
      <trkpt lat="13.207132" lon="99.770608">
        <ele>63.0</ele>
        <time>2023-11-04T04:40:44Z</time>
      </trkpt>
      <trkpt lat="13.207123" lon="99.770666">
        <ele>64.0</ele>
        <time>2023-11-04T04:40:47Z</time>
      </trkpt>
      <trkpt lat="13.207035" lon="99.770781">
        <ele>62.0</ele>
        <time>2023-11-04T04:42:54Z</time>
      </trkpt>
      <trkpt lat="13.206900" lon="99.770892">
        <ele>62.8</ele>
        <time>2023-11-04T04:43:02Z</time>
      </trkpt>
      <trkpt lat="13.206786" lon="99.771094">
        <ele>63.0</ele>
        <time>2023-11-04T04:43:09Z</time>
      </trkpt>
      <trkpt lat="13.206642" lon="99.771229">
        <ele>63.0</ele>
        <time>2023-11-04T04:43:14Z</time>
      </trkpt>
      <trkpt lat="13.206585" lon="99.771333">
        <ele>64.2</ele>
        <time>2023-11-04T04:43:17Z</time>
      </trkpt>
      <trkpt lat="13.206469" lon="99.771420">
        <ele>64.3</ele>
        <time>2023-11-04T04:43:21Z</time>
      </trkpt>
      <trkpt lat="13.206410" lon="99.771503">
        <ele>64.3</ele>
        <time>2023-11-04T04:43:24Z</time>
      </trkpt>
      <trkpt lat="13.206391" lon="99.771569">
        <ele>64.3</ele>
        <time>2023-11-04T04:43:26Z</time>
      </trkpt>
      <trkpt lat="13.206371" lon="99.771787">
        <ele>63.2</ele>
        <time>2023-11-04T04:43:32Z</time>
      </trkpt>
      <trkpt lat="13.206385" lon="99.771831">
        <ele>63.1</ele>
        <time>2023-11-04T04:43:33Z</time>
      </trkpt>
      <trkpt lat="13.206476" lon="99.771954">
        <ele>62.9</ele>
        <time>2023-11-04T04:43:36Z</time>
      </trkpt>
      <trkpt lat="13.206510" lon="99.772047">
        <ele>62.5</ele>
        <time>2023-11-04T04:43:38Z</time>
      </trkpt>
      <trkpt lat="13.206554" lon="99.772292">
        <ele>62.2</ele>
        <time>2023-11-04T04:43:43Z</time>
      </trkpt>
      <trkpt lat="13.206556" lon="99.772397">
        <ele>62.2</ele>
        <time>2023-11-04T04:43:45Z</time>
      </trkpt>
      <trkpt lat="13.206585" lon="99.772480">
        <ele>61.7</ele>
        <time>2023-11-04T04:43:47Z</time>
      </trkpt>
      <trkpt lat="13.206580" lon="99.772517">
        <ele>61.6</ele>
        <time>2023-11-04T04:43:48Z</time>
      </trkpt>
      <trkpt lat="13.206562" lon="99.772550">
        <ele>61.6</ele>
        <time>2023-11-04T04:43:49Z</time>
      </trkpt>
      <trkpt lat="13.206561" lon="99.772590">
        <ele>60.0</ele>
        <time>2023-11-04T04:43:50Z</time>
      </trkpt>
      <trkpt lat="13.206585" lon="99.772632">
        <ele>60.9</ele>
        <time>2023-11-04T04:43:52Z</time>
      </trkpt>
      <trkpt lat="13.206575" lon="99.772708">
        <ele>60.8</ele>
        <time>2023-11-04T04:43:54Z</time>
      </trkpt>
      <trkpt lat="13.206573" lon="99.772897">
        <ele>60.4</ele>
        <time>2023-11-04T04:43:58Z</time>
      </trkpt>
      <trkpt lat="13.206552" lon="99.772982">
        <ele>60.0</ele>
        <time>2023-11-04T04:44:00Z</time>
      </trkpt>
      <trkpt lat="13.206552" lon="99.773024">
        <ele>60.5</ele>
        <time>2023-11-04T04:44:01Z</time>
      </trkpt>
      <trkpt lat="13.206590" lon="99.773107">
        <ele>59.9</ele>
        <time>2023-11-04T04:44:03Z</time>
      </trkpt>
      <trkpt lat="13.206575" lon="99.773144">
        <ele>59.5</ele>
        <time>2023-11-04T04:44:04Z</time>
      </trkpt>
      <trkpt lat="13.206438" lon="99.773306">
        <ele>57.7</ele>
        <time>2023-11-04T04:44:08Z</time>
      </trkpt>
      <trkpt lat="13.206359" lon="99.773473">
        <ele>57.4</ele>
        <time>2023-11-04T04:44:11Z</time>
      </trkpt>
      <trkpt lat="13.206274" lon="99.773604">
        <ele>57.4</ele>
        <time>2023-11-04T04:44:14Z</time>
      </trkpt>
      <trkpt lat="13.206174" lon="99.773843">
        <ele>57.0</ele>
        <time>2023-11-04T04:44:21Z</time>
      </trkpt>
      <trkpt lat="13.206158" lon="99.773916">
        <ele>57.0</ele>
        <time>2023-11-04T04:44:26Z</time>
      </trkpt>
      <trkpt lat="13.206130" lon="99.773987">
        <ele>57.0</ele>
        <time>2023-11-04T04:44:30Z</time>
      </trkpt>
      <trkpt lat="13.206095" lon="99.774015">
        <ele>58.0</ele>
        <time>2023-11-04T04:44:32Z</time>
      </trkpt>
      <trkpt lat="13.206046" lon="99.774014">
        <ele>58.0</ele>
        <time>2023-11-04T04:44:34Z</time>
      </trkpt>
      <trkpt lat="13.205950" lon="99.773954">
        <ele>58.0</ele>
        <time>2023-11-04T04:44:38Z</time>
      </trkpt>
      <trkpt lat="13.205763" lon="99.773893">
        <ele>58.0</ele>
        <time>2023-11-04T04:44:46Z</time>
      </trkpt>
      <trkpt lat="13.205665" lon="99.773887">
        <ele>60.0</ele>
        <time>2023-11-04T04:44:50Z</time>
      </trkpt>
      <trkpt lat="13.205566" lon="99.773909">
        <ele>60.0</ele>
        <time>2023-11-04T04:44:54Z</time>
      </trkpt>
      <trkpt lat="13.205516" lon="99.773898">
        <ele>60.0</ele>
        <time>2023-11-04T04:44:56Z</time>
      </trkpt>
      <trkpt lat="13.205441" lon="99.773930">
        <ele>61.7</ele>
        <time>2023-11-04T04:45:00Z</time>
      </trkpt>
      <trkpt lat="13.205379" lon="99.773938">
        <ele>62.0</ele>
        <time>2023-11-04T04:45:04Z</time>
      </trkpt>
      <trkpt lat="13.205306" lon="99.773972">
        <ele>62.0</ele>
        <time>2023-11-04T04:45:08Z</time>
      </trkpt>
      <trkpt lat="13.205199" lon="99.773999">
        <ele>64.0</ele>
        <time>2023-11-04T04:45:14Z</time>
      </trkpt>
      <trkpt lat="13.205077" lon="99.774105">
        <ele>64.0</ele>
        <time>2023-11-04T04:45:20Z</time>
      </trkpt>
      <trkpt lat="13.204975" lon="99.774179">
        <ele>66.0</ele>
        <time>2023-11-04T04:45:26Z</time>
      </trkpt>
      <trkpt lat="13.204933" lon="99.774249">
        <ele>66.0</ele>
        <time>2023-11-04T04:45:30Z</time>
      </trkpt>
      <trkpt lat="13.204911" lon="99.774341">
        <ele>66.0</ele>
        <time>2023-11-04T04:45:34Z</time>
      </trkpt>
      <trkpt lat="13.204892" lon="99.774380">
        <ele>66.0</ele>
        <time>2023-11-04T04:45:36Z</time>
      </trkpt>
      <trkpt lat="13.204863" lon="99.774528">
        <ele>68.0</ele>
        <time>2023-11-04T04:45:42Z</time>
      </trkpt>
      <trkpt lat="13.204582" lon="99.775054">
        <ele>69.4</ele>
        <time>2023-11-04T04:46:05Z</time>
      </trkpt>
      <trkpt lat="13.204493" lon="99.775315">
        <ele>68.0</ele>
        <time>2023-11-04T04:46:16Z</time>
      </trkpt>
      <trkpt lat="13.204496" lon="99.775497">
        <ele>64.0</ele>
        <time>2023-11-04T04:46:26Z</time>
      </trkpt>
      <trkpt lat="13.204634" lon="99.775551">
        <ele>67.4</ele>
        <time>2023-11-04T04:46:39Z</time>
      </trkpt>
      <trkpt lat="13.204643" lon="99.775580">
        <ele>66.0</ele>
        <time>2023-11-04T04:46:40Z</time>
      </trkpt>
      <trkpt lat="13.204715" lon="99.776009">
        <ele>68.0</ele>
        <time>2023-11-04T04:46:55Z</time>
      </trkpt>
      <trkpt lat="13.204700" lon="99.776214">
        <ele>67.3</ele>
        <time>2023-11-04T04:47:02Z</time>
      </trkpt>
      <trkpt lat="13.204714" lon="99.776341">
        <ele>67.4</ele>
        <time>2023-11-04T04:47:05Z</time>
      </trkpt>
      <trkpt lat="13.204769" lon="99.776534">
        <ele>68.1</ele>
        <time>2023-11-04T04:47:10Z</time>
      </trkpt>
      <trkpt lat="13.204867" lon="99.776736">
        <ele>68.9</ele>
        <time>2023-11-04T04:47:17Z</time>
      </trkpt>
      <trkpt lat="13.204870" lon="99.776783">
        <ele>68.9</ele>
        <time>2023-11-04T04:47:18Z</time>
      </trkpt>
      <trkpt lat="13.204792" lon="99.776964">
        <ele>68.3</ele>
        <time>2023-11-04T04:47:22Z</time>
      </trkpt>
      <trkpt lat="13.204759" lon="99.777005">
        <ele>67.7</ele>
        <time>2023-11-04T04:47:23Z</time>
      </trkpt>
      <trkpt lat="13.204700" lon="99.777115">
        <ele>66.2</ele>
        <time>2023-11-04T04:47:25Z</time>
      </trkpt>
      <trkpt lat="13.204660" lon="99.777162">
        <ele>65.3</ele>
        <time>2023-11-04T04:47:26Z</time>
      </trkpt>
      <trkpt lat="13.204593" lon="99.777291">
        <ele>64.6</ele>
        <time>2023-11-04T04:47:28Z</time>
      </trkpt>
      <trkpt lat="13.204520" lon="99.777396">
        <ele>63.9</ele>
        <time>2023-11-04T04:47:30Z</time>
      </trkpt>
      <trkpt lat="13.204495" lon="99.777453">
        <ele>63.4</ele>
        <time>2023-11-04T04:47:31Z</time>
      </trkpt>
      <trkpt lat="13.204417" lon="99.777548">
        <ele>63.0</ele>
        <time>2023-11-04T04:47:33Z</time>
      </trkpt>
      <trkpt lat="13.204382" lon="99.777608">
        <ele>63.2</ele>
        <time>2023-11-04T04:47:34Z</time>
      </trkpt>
      <trkpt lat="13.204333" lon="99.777809">
        <ele>62.5</ele>
        <time>2023-11-04T04:47:37Z</time>
      </trkpt>
      <trkpt lat="13.204320" lon="99.777939">
        <ele>63.0</ele>
        <time>2023-11-04T04:47:39Z</time>
      </trkpt>
      <trkpt lat="13.204328" lon="99.778258">
        <ele>62.2</ele>
        <time>2023-11-04T04:47:44Z</time>
      </trkpt>
      <trkpt lat="13.204358" lon="99.778390">
        <ele>61.2</ele>
        <time>2023-11-04T04:47:47Z</time>
      </trkpt>
      <trkpt lat="13.204342" lon="99.778422">
        <ele>61.2</ele>
        <time>2023-11-04T04:47:48Z</time>
      </trkpt>
      <trkpt lat="13.204317" lon="99.778440">
        <ele>60.8</ele>
        <time>2023-11-04T04:47:49Z</time>
      </trkpt>
      <trkpt lat="13.204253" lon="99.778439">
        <ele>59.8</ele>
        <time>2023-11-04T04:47:51Z</time>
      </trkpt>
      <trkpt lat="13.204221" lon="99.778475">
        <ele>59.5</ele>
        <time>2023-11-04T04:47:52Z</time>
      </trkpt>
      <trkpt lat="13.203824" lon="99.778621">
        <ele>57.5</ele>
        <time>2023-11-04T04:48:00Z</time>
      </trkpt>
      <trkpt lat="13.203450" lon="99.778808">
        <ele>57.3</ele>
        <time>2023-11-04T04:48:09Z</time>
      </trkpt>
      <trkpt lat="13.203360" lon="99.778837">
        <ele>56.0</ele>
        <time>2023-11-04T04:48:12Z</time>
      </trkpt>
      <trkpt lat="13.203340" lon="99.778875">
        <ele>57.6</ele>
        <time>2023-11-04T04:48:14Z</time>
      </trkpt>
      <trkpt lat="13.203347" lon="99.778911">
        <ele>57.6</ele>
        <time>2023-11-04T04:48:15Z</time>
      </trkpt>
      <trkpt lat="13.203409" lon="99.778986">
        <ele>57.7</ele>
        <time>2023-11-04T04:48:16Z</time>
      </trkpt>
      <trkpt lat="13.203585" lon="99.779321">
        <ele>57.5</ele>
        <time>2023-11-04T04:48:25Z</time>
      </trkpt>
      <trkpt lat="13.203623" lon="99.779412">
        <ele>57.3</ele>
        <time>2023-11-04T04:48:27Z</time>
      </trkpt>
      <trkpt lat="13.203767" lon="99.779634">
        <ele>56.8</ele>
        <time>2023-11-04T04:48:34Z</time>
      </trkpt>
      <trkpt lat="13.203949" lon="99.779972">
        <ele>56.3</ele>
        <time>2023-11-04T04:48:44Z</time>
      </trkpt>
      <trkpt lat="13.203968" lon="99.780030">
        <ele>56.2</ele>
        <time>2023-11-04T04:48:46Z</time>
      </trkpt>
      <trkpt lat="13.203962" lon="99.780067">
        <ele>55.6</ele>
        <time>2023-11-04T04:48:47Z</time>
      </trkpt>
      <trkpt lat="13.203884" lon="99.780136">
        <ele>55.6</ele>
        <time>2023-11-04T04:48:50Z</time>
      </trkpt>
      <trkpt lat="13.203824" lon="99.780215">
        <ele>55.0</ele>
        <time>2023-11-04T04:48:53Z</time>
      </trkpt>
      <trkpt lat="13.203706" lon="99.780291">
        <ele>55.0</ele>
        <time>2023-11-04T04:48:58Z</time>
      </trkpt>
      <trkpt lat="13.203640" lon="99.780285">
        <ele>55.0</ele>
        <time>2023-11-04T04:49:01Z</time>
      </trkpt>
      <trkpt lat="13.203506" lon="99.780329">
        <ele>54.0</ele>
        <time>2023-11-04T04:49:06Z</time>
      </trkpt>
      <trkpt lat="13.203097" lon="99.780511">
        <ele>56.0</ele>
        <time>2023-11-04T04:49:22Z</time>
      </trkpt>
      <trkpt lat="13.203039" lon="99.780559">
        <ele>54.0</ele>
        <time>2023-11-04T04:49:40Z</time>
      </trkpt>
      <trkpt lat="13.202995" lon="99.780577">
        <ele>57.0</ele>
        <time>2023-11-04T04:49:46Z</time>
      </trkpt>
      <trkpt lat="13.202951" lon="99.780643">
        <ele>57.0</ele>
        <time>2023-11-04T04:50:01Z</time>
      </trkpt>
      <trkpt lat="13.202951" lon="99.780676">
        <ele>56.0</ele>
        <time>2023-11-04T04:50:02Z</time>
      </trkpt>
      <trkpt lat="13.203034" lon="99.780785">
        <ele>55.3</ele>
        <time>2023-11-04T04:50:07Z</time>
      </trkpt>
      <trkpt lat="13.203157" lon="99.780995">
        <ele>54.7</ele>
        <time>2023-11-04T04:50:13Z</time>
      </trkpt>
      <trkpt lat="13.203292" lon="99.781171">
        <ele>54.7</ele>
        <time>2023-11-04T04:50:18Z</time>
      </trkpt>
      <trkpt lat="13.203317" lon="99.781256">
        <ele>54.7</ele>
        <time>2023-11-04T04:50:20Z</time>
      </trkpt>
      <trkpt lat="13.203317" lon="99.781343">
        <ele>54.9</ele>
        <time>2023-11-04T04:50:21Z</time>
      </trkpt>
      <trkpt lat="13.203284" lon="99.781598">
        <ele>55.8</ele>
        <time>2023-11-04T04:50:26Z</time>
      </trkpt>
      <trkpt lat="13.203282" lon="99.781702">
        <ele>55.2</ele>
        <time>2023-11-04T04:50:28Z</time>
      </trkpt>
      <trkpt lat="13.203246" lon="99.781857">
        <ele>54.5</ele>
        <time>2023-11-04T04:50:31Z</time>
      </trkpt>
      <trkpt lat="13.203300" lon="99.781921">
        <ele>54.6</ele>
        <time>2023-11-04T04:50:32Z</time>
      </trkpt>
      <trkpt lat="13.203228" lon="99.782380">
        <ele>54.2</ele>
        <time>2023-11-04T04:50:42Z</time>
      </trkpt>
      <trkpt lat="13.203190" lon="99.782463">
        <ele>54.0</ele>
        <time>2023-11-04T04:50:44Z</time>
      </trkpt>
      <trkpt lat="13.203207" lon="99.782510">
        <ele>54.1</ele>
        <time>2023-11-04T04:50:45Z</time>
      </trkpt>
      <trkpt lat="13.203199" lon="99.782587">
        <ele>55.8</ele>
        <time>2023-11-04T04:50:47Z</time>
      </trkpt>
      <trkpt lat="13.203167" lon="99.782695">
        <ele>55.4</ele>
        <time>2023-11-04T04:50:50Z</time>
      </trkpt>
      <trkpt lat="13.203172" lon="99.782737">
        <ele>55.8</ele>
        <time>2023-11-04T04:50:51Z</time>
      </trkpt>
      <trkpt lat="13.203157" lon="99.782774">
        <ele>55.6</ele>
        <time>2023-11-04T04:50:52Z</time>
      </trkpt>
      <trkpt lat="13.203148" lon="99.782905">
        <ele>54.4</ele>
        <time>2023-11-04T04:50:55Z</time>
      </trkpt>
      <trkpt lat="13.203100" lon="99.783127">
        <ele>53.7</ele>
        <time>2023-11-04T04:51:00Z</time>
      </trkpt>
      <trkpt lat="13.203079" lon="99.783335">
        <ele>51.0</ele>
        <time>2023-11-04T04:51:09Z</time>
      </trkpt>
      <trkpt lat="13.203078" lon="99.783281">
        <ele>52.0</ele>
        <time>2023-11-04T04:51:15Z</time>
      </trkpt>
      <trkpt lat="13.203054" lon="99.783250">
        <ele>52.0</ele>
        <time>2023-11-04T04:51:17Z</time>
      </trkpt>
      <trkpt lat="13.203002" lon="99.783238">
        <ele>50.9</ele>
        <time>2023-11-04T04:51:19Z</time>
      </trkpt>
      <trkpt lat="13.202933" lon="99.783239">
        <ele>50.0</ele>
        <time>2023-11-04T04:51:20Z</time>
      </trkpt>
      <trkpt lat="13.202876" lon="99.783255">
        <ele>49.9</ele>
        <time>2023-11-04T04:51:21Z</time>
      </trkpt>
      <trkpt lat="13.202814" lon="99.783258">
        <ele>50.0</ele>
        <time>2023-11-04T04:51:22Z</time>
      </trkpt>
      <trkpt lat="13.202310" lon="99.783136">
        <ele>50.8</ele>
        <time>2023-11-04T04:51:31Z</time>
      </trkpt>
      <trkpt lat="13.202007" lon="99.783077">
        <ele>51.2</ele>
        <time>2023-11-04T04:51:37Z</time>
      </trkpt>
      <trkpt lat="13.201612" lon="99.782972">
        <ele>50.0</ele>
        <time>2023-11-04T04:51:44Z</time>
      </trkpt>
      <trkpt lat="13.201543" lon="99.782977">
        <ele>50.2</ele>
        <time>2023-11-04T04:51:45Z</time>
      </trkpt>
      <trkpt lat="13.201483" lon="99.782954">
        <ele>50.5</ele>
        <time>2023-11-04T04:51:46Z</time>
      </trkpt>
      <trkpt lat="13.201423" lon="99.782955">
        <ele>50.6</ele>
        <time>2023-11-04T04:51:47Z</time>
      </trkpt>
      <trkpt lat="13.201127" lon="99.782902">
        <ele>52.0</ele>
        <time>2023-11-04T04:51:54Z</time>
      </trkpt>
      <trkpt lat="13.201033" lon="99.782906">
        <ele>52.0</ele>
        <time>2023-11-04T04:51:58Z</time>
      </trkpt>
      <trkpt lat="13.201073" lon="99.782987">
        <ele>52.3</ele>
        <time>2023-11-04T04:52:00Z</time>
      </trkpt>
      <trkpt lat="13.201135" lon="99.783274">
        <ele>51.7</ele>
        <time>2023-11-04T04:52:07Z</time>
      </trkpt>
      <trkpt lat="13.201273" lon="99.783814">
        <ele>50.4</ele>
        <time>2023-11-04T04:52:19Z</time>
      </trkpt>
      <trkpt lat="13.201257" lon="99.783853">
        <ele>50.6</ele>
        <time>2023-11-04T04:52:20Z</time>
      </trkpt>
      <trkpt lat="13.201270" lon="99.783937">
        <ele>50.7</ele>
        <time>2023-11-04T04:52:22Z</time>
      </trkpt>
      <trkpt lat="13.201287" lon="99.783982">
        <ele>50.6</ele>
        <time>2023-11-04T04:52:23Z</time>
      </trkpt>
      <trkpt lat="13.201286" lon="99.784030">
        <ele>50.8</ele>
        <time>2023-11-04T04:52:24Z</time>
      </trkpt>
      <trkpt lat="13.201318" lon="99.784122">
        <ele>50.6</ele>
        <time>2023-11-04T04:52:26Z</time>
      </trkpt>
      <trkpt lat="13.201364" lon="99.784328">
        <ele>50.1</ele>
        <time>2023-11-04T04:52:30Z</time>
      </trkpt>
      <trkpt lat="13.201417" lon="99.784369">
        <ele>50.1</ele>
        <time>2023-11-04T04:52:31Z</time>
      </trkpt>
      <trkpt lat="13.201568" lon="99.784912">
        <ele>48.0</ele>
        <time>2023-11-04T04:52:41Z</time>
      </trkpt>
      <trkpt lat="13.201401" lon="99.784948">
        <ele>47.3</ele>
        <time>2023-11-04T04:52:44Z</time>
      </trkpt>
      <trkpt lat="13.201170" lon="99.784922">
        <ele>46.9</ele>
        <time>2023-11-04T04:52:48Z</time>
      </trkpt>
      <trkpt lat="13.200822" lon="99.784916">
        <ele>49.8</ele>
        <time>2023-11-04T04:52:57Z</time>
      </trkpt>
      <trkpt lat="13.200666" lon="99.784888">
        <ele>51.3</ele>
        <time>2023-11-04T04:53:02Z</time>
      </trkpt>
      <trkpt lat="13.200562" lon="99.784895">
        <ele>50.5</ele>
        <time>2023-11-04T04:53:05Z</time>
      </trkpt>
      <trkpt lat="13.200531" lon="99.784914">
        <ele>50.3</ele>
        <time>2023-11-04T04:53:06Z</time>
      </trkpt>
      <trkpt lat="13.200323" lon="99.785274">
        <ele>48.4</ele>
        <time>2023-11-04T04:53:16Z</time>
      </trkpt>
      <trkpt lat="13.200304" lon="99.785365">
        <ele>48.3</ele>
        <time>2023-11-04T04:53:18Z</time>
      </trkpt>
      <trkpt lat="13.200310" lon="99.785526">
        <ele>48.0</ele>
        <time>2023-11-04T04:53:21Z</time>
      </trkpt>
      <trkpt lat="13.200368" lon="99.785584">
        <ele>47.8</ele>
        <time>2023-11-04T04:53:22Z</time>
      </trkpt>
      <trkpt lat="13.200364" lon="99.785639">
        <ele>47.7</ele>
        <time>2023-11-04T04:53:23Z</time>
      </trkpt>
      <trkpt lat="13.200343" lon="99.785802">
        <ele>47.5</ele>
        <time>2023-11-04T04:53:26Z</time>
      </trkpt>
      <trkpt lat="13.200323" lon="99.785868">
        <ele>47.4</ele>
        <time>2023-11-04T04:53:27Z</time>
      </trkpt>
      <trkpt lat="13.200303" lon="99.785917">
        <ele>47.4</ele>
        <time>2023-11-04T04:53:28Z</time>
      </trkpt>
      <trkpt lat="13.200258" lon="99.785955">
        <ele>47.6</ele>
        <time>2023-11-04T04:53:29Z</time>
      </trkpt>
      <trkpt lat="13.200206" lon="99.786049">
        <ele>47.5</ele>
        <time>2023-11-04T04:53:31Z</time>
      </trkpt>
      <trkpt lat="13.200208" lon="99.786149">
        <ele>47.8</ele>
        <time>2023-11-04T04:53:34Z</time>
      </trkpt>
      <trkpt lat="13.200261" lon="99.786356">
        <ele>48.4</ele>
        <time>2023-11-04T04:53:39Z</time>
      </trkpt>
      <trkpt lat="13.200254" lon="99.786422">
        <ele>47.9</ele>
        <time>2023-11-04T04:53:40Z</time>
      </trkpt>
      <trkpt lat="13.200230" lon="99.786481">
        <ele>48.0</ele>
        <time>2023-11-04T04:53:41Z</time>
      </trkpt>
      <trkpt lat="13.200189" lon="99.786529">
        <ele>47.4</ele>
        <time>2023-11-04T04:53:42Z</time>
      </trkpt>
      <trkpt lat="13.200123" lon="99.786555">
        <ele>47.3</ele>
        <time>2023-11-04T04:53:43Z</time>
      </trkpt>
      <trkpt lat="13.200048" lon="99.786600">
        <ele>47.8</ele>
        <time>2023-11-04T04:53:45Z</time>
      </trkpt>
      <trkpt lat="13.199915" lon="99.786650">
        <ele>46.6</ele>
        <time>2023-11-04T04:53:48Z</time>
      </trkpt>
      <trkpt lat="13.199704" lon="99.786549">
        <ele>46.2</ele>
        <time>2023-11-04T04:53:52Z</time>
      </trkpt>
      <trkpt lat="13.199571" lon="99.786549">
        <ele>47.4</ele>
        <time>2023-11-04T04:53:56Z</time>
      </trkpt>
      <trkpt lat="13.199482" lon="99.786528">
        <ele>47.5</ele>
        <time>2023-11-04T04:53:59Z</time>
      </trkpt>
      <trkpt lat="13.199383" lon="99.786519">
        <ele>48.0</ele>
        <time>2023-11-04T04:54:02Z</time>
      </trkpt>
      <trkpt lat="13.199213" lon="99.786524">
        <ele>48.0</ele>
        <time>2023-11-04T04:54:07Z</time>
      </trkpt>
      <trkpt lat="13.199130" lon="99.786536">
        <ele>48.5</ele>
        <time>2023-11-04T04:54:10Z</time>
      </trkpt>
      <trkpt lat="13.198884" lon="99.786503">
        <ele>48.7</ele>
        <time>2023-11-04T04:54:17Z</time>
      </trkpt>
      <trkpt lat="13.198654" lon="99.786504">
        <ele>49.5</ele>
        <time>2023-11-04T04:54:23Z</time>
      </trkpt>
      <trkpt lat="13.198503" lon="99.786533">
        <ele>50.1</ele>
        <time>2023-11-04T04:54:26Z</time>
      </trkpt>
      <trkpt lat="13.198414" lon="99.786525">
        <ele>50.6</ele>
        <time>2023-11-04T04:54:28Z</time>
      </trkpt>
      <trkpt lat="13.198255" lon="99.786582">
        <ele>52.0</ele>
        <time>2023-11-04T04:54:34Z</time>
      </trkpt>
      <trkpt lat="13.198164" lon="99.786654">
        <ele>52.0</ele>
        <time>2023-11-04T04:54:40Z</time>
      </trkpt>
      <trkpt lat="13.198115" lon="99.786726">
        <ele>53.3</ele>
        <time>2023-11-04T04:54:44Z</time>
      </trkpt>
      <trkpt lat="13.197971" lon="99.787054">
        <ele>51.6</ele>
        <time>2023-11-04T04:54:53Z</time>
      </trkpt>
      <trkpt lat="13.197975" lon="99.787107">
        <ele>51.7</ele>
        <time>2023-11-04T04:54:54Z</time>
      </trkpt>
      <trkpt lat="13.197958" lon="99.787219">
        <ele>51.0</ele>
        <time>2023-11-04T04:54:56Z</time>
      </trkpt>
      <trkpt lat="13.198037" lon="99.787280">
        <ele>51.1</ele>
        <time>2023-11-04T04:54:57Z</time>
      </trkpt>
      <trkpt lat="13.198019" lon="99.787482">
        <ele>51.2</ele>
        <time>2023-11-04T04:55:01Z</time>
      </trkpt>
      <trkpt lat="13.197874" lon="99.788060">
        <ele>52.4</ele>
        <time>2023-11-04T04:55:24Z</time>
      </trkpt>
      <trkpt lat="13.197790" lon="99.788072">
        <ele>52.7</ele>
        <time>2023-11-04T04:55:25Z</time>
      </trkpt>
      <trkpt lat="13.197778" lon="99.788260">
        <ele>53.3</ele>
        <time>2023-11-04T04:55:31Z</time>
      </trkpt>
      <trkpt lat="13.197793" lon="99.788415">
        <ele>52.9</ele>
        <time>2023-11-04T04:55:35Z</time>
      </trkpt>
      <trkpt lat="13.197856" lon="99.788728">
        <ele>52.6</ele>
        <time>2023-11-04T04:55:42Z</time>
      </trkpt>
      <trkpt lat="13.197904" lon="99.788880">
        <ele>52.2</ele>
        <time>2023-11-04T04:55:45Z</time>
      </trkpt>
      <trkpt lat="13.197957" lon="99.788924">
        <ele>52.2</ele>
        <time>2023-11-04T04:55:46Z</time>
      </trkpt>
      <trkpt lat="13.198044" lon="99.789291">
        <ele>51.0</ele>
        <time>2023-11-04T04:55:55Z</time>
      </trkpt>
      <trkpt lat="13.197867" lon="99.789321">
        <ele>50.0</ele>
        <time>2023-11-04T04:55:59Z</time>
      </trkpt>
      <trkpt lat="13.197762" lon="99.789367">
        <ele>51.0</ele>
        <time>2023-11-04T04:56:03Z</time>
      </trkpt>
      <trkpt lat="13.197499" lon="99.789423">
        <ele>52.7</ele>
        <time>2023-11-04T04:56:12Z</time>
      </trkpt>
      <trkpt lat="13.197344" lon="99.789471">
        <ele>53.3</ele>
        <time>2023-11-04T04:56:17Z</time>
      </trkpt>
      <trkpt lat="13.197247" lon="99.789484">
        <ele>53.5</ele>
        <time>2023-11-04T04:56:20Z</time>
      </trkpt>
      <trkpt lat="13.197157" lon="99.789528">
        <ele>53.5</ele>
        <time>2023-11-04T04:56:23Z</time>
      </trkpt>
      <trkpt lat="13.197045" lon="99.789553">
        <ele>52.0</ele>
        <time>2023-11-04T04:56:26Z</time>
      </trkpt>
      <trkpt lat="13.196898" lon="99.789617">
        <ele>53.7</ele>
        <time>2023-11-04T04:56:32Z</time>
      </trkpt>
      <trkpt lat="13.196879" lon="99.789685">
        <ele>53.5</ele>
        <time>2023-11-04T04:56:34Z</time>
      </trkpt>
      <trkpt lat="13.196884" lon="99.789727">
        <ele>53.0</ele>
        <time>2023-11-04T04:56:35Z</time>
      </trkpt>
      <trkpt lat="13.196998" lon="99.789925">
        <ele>52.0</ele>
        <time>2023-11-04T04:56:40Z</time>
      </trkpt>
      <trkpt lat="13.197062" lon="99.790076">
        <ele>50.7</ele>
        <time>2023-11-04T04:56:44Z</time>
      </trkpt>
      <trkpt lat="13.197016" lon="99.790270">
        <ele>48.3</ele>
        <time>2023-11-04T04:56:53Z</time>
      </trkpt>
      <trkpt lat="13.196868" lon="99.790364">
        <ele>48.0</ele>
        <time>2023-11-04T04:56:58Z</time>
      </trkpt>
      <trkpt lat="13.196797" lon="99.790391">
        <ele>48.3</ele>
        <time>2023-11-04T04:57:00Z</time>
      </trkpt>
      <trkpt lat="13.196666" lon="99.790389">
        <ele>48.0</ele>
        <time>2023-11-04T04:57:04Z</time>
      </trkpt>
      <trkpt lat="13.196588" lon="99.790367">
        <ele>49.0</ele>
        <time>2023-11-04T04:57:07Z</time>
      </trkpt>
      <trkpt lat="13.196474" lon="99.790367">
        <ele>49.3</ele>
        <time>2023-11-04T04:57:10Z</time>
      </trkpt>
      <trkpt lat="13.196256" lon="99.790521">
        <ele>48.0</ele>
        <time>2023-11-04T04:57:16Z</time>
      </trkpt>
      <trkpt lat="13.196178" lon="99.790614">
        <ele>49.4</ele>
        <time>2023-11-04T04:57:20Z</time>
      </trkpt>
      <trkpt lat="13.196129" lon="99.790735">
        <ele>49.4</ele>
        <time>2023-11-04T04:57:23Z</time>
      </trkpt>
      <trkpt lat="13.196027" lon="99.790853">
        <ele>49.2</ele>
        <time>2023-11-04T04:57:27Z</time>
      </trkpt>
      <trkpt lat="13.195956" lon="99.791059">
        <ele>48.7</ele>
        <time>2023-11-04T04:57:32Z</time>
      </trkpt>
      <trkpt lat="13.195900" lon="99.791146">
        <ele>49.6</ele>
        <time>2023-11-04T04:57:35Z</time>
      </trkpt>
      <trkpt lat="13.195584" lon="99.791157">
        <ele>51.1</ele>
        <time>2023-11-04T04:57:46Z</time>
      </trkpt>
      <trkpt lat="13.195523" lon="99.791168">
        <ele>51.1</ele>
        <time>2023-11-04T04:57:48Z</time>
      </trkpt>
      <trkpt lat="13.195323" lon="99.791170">
        <ele>52.0</ele>
        <time>2023-11-04T04:57:57Z</time>
      </trkpt>
      <trkpt lat="13.194981" lon="99.791149">
        <ele>58.0</ele>
        <time>2023-11-04T04:58:16Z</time>
      </trkpt>
      <trkpt lat="13.194937" lon="99.791162">
        <ele>58.0</ele>
        <time>2023-11-04T04:58:19Z</time>
      </trkpt>
      <trkpt lat="13.194811" lon="99.791598">
        <ele>58.2</ele>
        <time>2023-11-04T04:58:31Z</time>
      </trkpt>
      <trkpt lat="13.194728" lon="99.791738">
        <ele>57.3</ele>
        <time>2023-11-04T04:58:34Z</time>
      </trkpt>
      <trkpt lat="13.194649" lon="99.791805">
        <ele>57.0</ele>
        <time>2023-11-04T04:58:36Z</time>
      </trkpt>
      <trkpt lat="13.194528" lon="99.791846">
        <ele>57.2</ele>
        <time>2023-11-04T04:58:39Z</time>
      </trkpt>
      <trkpt lat="13.194303" lon="99.791992">
        <ele>58.7</ele>
        <time>2023-11-04T04:58:46Z</time>
      </trkpt>
      <trkpt lat="13.194075" lon="99.792110">
        <ele>59.6</ele>
        <time>2023-11-04T04:58:53Z</time>
      </trkpt>
      <trkpt lat="13.193692" lon="99.792396">
        <ele>57.7</ele>
        <time>2023-11-04T04:59:04Z</time>
      </trkpt>
      <trkpt lat="13.193543" lon="99.792455">
        <ele>57.0</ele>
        <time>2023-11-04T04:59:07Z</time>
      </trkpt>
      <trkpt lat="13.193190" lon="99.792649">
        <ele>57.4</ele>
        <time>2023-11-04T04:59:15Z</time>
      </trkpt>
      <trkpt lat="13.193062" lon="99.792678">
        <ele>57.2</ele>
        <time>2023-11-04T04:59:18Z</time>
      </trkpt>
      <trkpt lat="13.192855" lon="99.792702">
        <ele>57.2</ele>
        <time>2023-11-04T04:59:23Z</time>
      </trkpt>
      <trkpt lat="13.192707" lon="99.792816">
        <ele>57.3</ele>
        <time>2023-11-04T04:59:26Z</time>
      </trkpt>
      <trkpt lat="13.192462" lon="99.792500">
        <ele>58.0</ele>
        <time>2023-11-04T04:59:36Z</time>
      </trkpt>
      <trkpt lat="13.192427" lon="99.792405">
        <ele>57.0</ele>
        <time>2023-11-04T04:59:40Z</time>
      </trkpt>
      <trkpt lat="13.192400" lon="99.792372">
        <ele>58.0</ele>
        <time>2023-11-04T04:59:42Z</time>
      </trkpt>
      <trkpt lat="13.192364" lon="99.792290">
        <ele>59.0</ele>
        <time>2023-11-04T04:59:46Z</time>
      </trkpt>
      <trkpt lat="13.192351" lon="99.792218">
        <ele>59.0</ele>
        <time>2023-11-04T04:59:50Z</time>
      </trkpt>
      <trkpt lat="13.192260" lon="99.792056">
        <ele>60.6</ele>
        <time>2023-11-04T05:00:00Z</time>
      </trkpt>
      <trkpt lat="13.192232" lon="99.792042">
        <ele>60.0</ele>
        <time>2023-11-04T05:00:01Z</time>
      </trkpt>
      <trkpt lat="13.192181" lon="99.792042">
        <ele>60.0</ele>
        <time>2023-11-04T05:00:03Z</time>
      </trkpt>
      <trkpt lat="13.192088" lon="99.792059">
        <ele>59.4</ele>
        <time>2023-11-04T05:00:06Z</time>
      </trkpt>
      <trkpt lat="13.192041" lon="99.792084">
        <ele>58.4</ele>
        <time>2023-11-04T05:00:07Z</time>
      </trkpt>
      <trkpt lat="13.191944" lon="99.792167">
        <ele>56.9</ele>
        <time>2023-11-04T05:00:09Z</time>
      </trkpt>
      <trkpt lat="13.191836" lon="99.792233">
        <ele>56.2</ele>
        <time>2023-11-04T05:00:11Z</time>
      </trkpt>
      <trkpt lat="13.191704" lon="99.792346">
        <ele>55.0</ele>
        <time>2023-11-04T05:00:14Z</time>
      </trkpt>
      <trkpt lat="13.191658" lon="99.792370">
        <ele>54.0</ele>
        <time>2023-11-04T05:00:15Z</time>
      </trkpt>
      <trkpt lat="13.191569" lon="99.792363">
        <ele>53.8</ele>
        <time>2023-11-04T05:00:18Z</time>
      </trkpt>
      <trkpt lat="13.191546" lon="99.792332">
        <ele>53.9</ele>
        <time>2023-11-04T05:00:19Z</time>
      </trkpt>
      <trkpt lat="13.191526" lon="99.792248">
        <ele>53.7</ele>
        <time>2023-11-04T05:00:21Z</time>
      </trkpt>
      <trkpt lat="13.191461" lon="99.792206">
        <ele>53.3</ele>
        <time>2023-11-04T05:00:23Z</time>
      </trkpt>
      <trkpt lat="13.191397" lon="99.792126">
        <ele>52.6</ele>
        <time>2023-11-04T05:00:26Z</time>
      </trkpt>
      <trkpt lat="13.191388" lon="99.792095">
        <ele>53.0</ele>
        <time>2023-11-04T05:00:27Z</time>
      </trkpt>
      <trkpt lat="13.191285" lon="99.791952">
        <ele>53.3</ele>
        <time>2023-11-04T05:00:31Z</time>
      </trkpt>
      <trkpt lat="13.191217" lon="99.791827">
        <ele>53.5</ele>
        <time>2023-11-04T05:00:34Z</time>
      </trkpt>
      <trkpt lat="13.191138" lon="99.791791">
        <ele>54.1</ele>
        <time>2023-11-04T05:00:36Z</time>
      </trkpt>
      <trkpt lat="13.191097" lon="99.791785">
        <ele>54.2</ele>
        <time>2023-11-04T05:00:37Z</time>
      </trkpt>
      <trkpt lat="13.191066" lon="99.791794">
        <ele>54.5</ele>
        <time>2023-11-04T05:00:38Z</time>
      </trkpt>
      <trkpt lat="13.190784" lon="99.792036">
        <ele>53.2</ele>
        <time>2023-11-04T05:00:50Z</time>
      </trkpt>
      <trkpt lat="13.190721" lon="99.792059">
        <ele>52.0</ele>
        <time>2023-11-04T05:00:52Z</time>
      </trkpt>
      <trkpt lat="13.190621" lon="99.792064">
        <ele>51.6</ele>
        <time>2023-11-04T05:00:56Z</time>
      </trkpt>
      <trkpt lat="13.190417" lon="99.792032">
        <ele>48.7</ele>
        <time>2023-11-04T05:01:00Z</time>
      </trkpt>
      <trkpt lat="13.190279" lon="99.792030">
        <ele>49.0</ele>
        <time>2023-11-04T05:01:02Z</time>
      </trkpt>
      <trkpt lat="13.190127" lon="99.792012">
        <ele>50.6</ele>
        <time>2023-11-04T05:01:05Z</time>
      </trkpt>
      <trkpt lat="13.189877" lon="99.792027">
        <ele>50.4</ele>
        <time>2023-11-04T05:01:10Z</time>
      </trkpt>
      <trkpt lat="13.189723" lon="99.792201">
        <ele>49.8</ele>
        <time>2023-11-04T05:01:16Z</time>
      </trkpt>
      <trkpt lat="13.189681" lon="99.792224">
        <ele>49.8</ele>
        <time>2023-11-04T05:01:17Z</time>
      </trkpt>
      <trkpt lat="13.189636" lon="99.792232">
        <ele>50.0</ele>
        <time>2023-11-04T05:01:18Z</time>
      </trkpt>
      <trkpt lat="13.189490" lon="99.792313">
        <ele>48.8</ele>
        <time>2023-11-04T05:01:21Z</time>
      </trkpt>
      <trkpt lat="13.189361" lon="99.792344">
        <ele>47.8</ele>
        <time>2023-11-04T05:01:23Z</time>
      </trkpt>
      <trkpt lat="13.189270" lon="99.792426">
        <ele>48.5</ele>
        <time>2023-11-04T05:01:25Z</time>
      </trkpt>
      <trkpt lat="13.189230" lon="99.792564">
        <ele>50.1</ele>
        <time>2023-11-04T05:01:28Z</time>
      </trkpt>
      <trkpt lat="13.189238" lon="99.792602">
        <ele>50.3</ele>
        <time>2023-11-04T05:01:29Z</time>
      </trkpt>
      <trkpt lat="13.189291" lon="99.792663">
        <ele>50.1</ele>
        <time>2023-11-04T05:01:31Z</time>
      </trkpt>
      <trkpt lat="13.189324" lon="99.792684">
        <ele>50.6</ele>
        <time>2023-11-04T05:01:32Z</time>
      </trkpt>
      <trkpt lat="13.189376" lon="99.792749">
        <ele>49.9</ele>
        <time>2023-11-04T05:01:34Z</time>
      </trkpt>
      <trkpt lat="13.189392" lon="99.792795">
        <ele>49.8</ele>
        <time>2023-11-04T05:01:35Z</time>
      </trkpt>
      <trkpt lat="13.189328" lon="99.793014">
        <ele>48.8</ele>
        <time>2023-11-04T05:01:39Z</time>
      </trkpt>
      <trkpt lat="13.189263" lon="99.793107">
        <ele>48.1</ele>
        <time>2023-11-04T05:01:41Z</time>
      </trkpt>
      <trkpt lat="13.189257" lon="99.793155">
        <ele>47.8</ele>
        <time>2023-11-04T05:01:42Z</time>
      </trkpt>
      <trkpt lat="13.189294" lon="99.793265">
        <ele>46.6</ele>
        <time>2023-11-04T05:01:44Z</time>
      </trkpt>
      <trkpt lat="13.189407" lon="99.793511">
        <ele>45.2</ele>
        <time>2023-11-04T05:01:48Z</time>
      </trkpt>
      <trkpt lat="13.189482" lon="99.793621">
        <ele>45.0</ele>
        <time>2023-11-04T05:01:50Z</time>
      </trkpt>
      <trkpt lat="13.189581" lon="99.793720">
        <ele>45.8</ele>
        <time>2023-11-04T05:01:53Z</time>
      </trkpt>
      <trkpt lat="13.189673" lon="99.793745">
        <ele>44.1</ele>
        <time>2023-11-04T05:01:56Z</time>
      </trkpt>
      <trkpt lat="13.189800" lon="99.793738">
        <ele>42.8</ele>
        <time>2023-11-04T05:01:58Z</time>
      </trkpt>
      <trkpt lat="13.189967" lon="99.793603">
        <ele>44.7</ele>
        <time>2023-11-04T05:02:03Z</time>
      </trkpt>
      <trkpt lat="13.190010" lon="99.793541">
        <ele>45.5</ele>
        <time>2023-11-04T05:02:05Z</time>
      </trkpt>
      <trkpt lat="13.190089" lon="99.793523">
        <ele>43.9</ele>
        <time>2023-11-04T05:02:07Z</time>
      </trkpt>
      <trkpt lat="13.190150" lon="99.793531">
        <ele>44.3</ele>
        <time>2023-11-04T05:02:08Z</time>
      </trkpt>
      <trkpt lat="13.190245" lon="99.793586">
        <ele>44.4</ele>
        <time>2023-11-04T05:02:10Z</time>
      </trkpt>
      <trkpt lat="13.190315" lon="99.793663">
        <ele>45.3</ele>
        <time>2023-11-04T05:02:12Z</time>
      </trkpt>
      <trkpt lat="13.190371" lon="99.793806">
        <ele>45.3</ele>
        <time>2023-11-04T05:02:16Z</time>
      </trkpt>
      <trkpt lat="13.190488" lon="99.793879">
        <ele>44.6</ele>
        <time>2023-11-04T05:02:19Z</time>
      </trkpt>
      <trkpt lat="13.190791" lon="99.793865">
        <ele>48.2</ele>
        <time>2023-11-04T05:02:29Z</time>
      </trkpt>
      <trkpt lat="13.190848" lon="99.793837">
        <ele>48.0</ele>
        <time>2023-11-04T05:02:32Z</time>
      </trkpt>
      <trkpt lat="13.190950" lon="99.793807">
        <ele>48.0</ele>
        <time>2023-11-04T05:02:39Z</time>
      </trkpt>
      <trkpt lat="13.190982" lon="99.793783">
        <ele>49.0</ele>
        <time>2023-11-04T05:02:41Z</time>
      </trkpt>
      <trkpt lat="13.190991" lon="99.793716">
        <ele>42.0</ele>
        <time>2023-11-04T05:03:11Z</time>
      </trkpt>
      <trkpt lat="13.190993" lon="99.793733">
        <ele>49.3</ele>
        <time>2023-11-04T05:03:53Z</time>
      </trkpt>
    </trkseg>
    <trkseg>
      <trkpt lat="13.190991" lon="99.793737">
        <ele>51.2</ele>
        <time>2023-11-04T05:16:16Z</time>
      </trkpt>
      <trkpt lat="13.191001" lon="99.793732">
        <ele>50.5</ele>
        <time>2023-11-04T05:16:37Z</time>
      </trkpt>
      <trkpt lat="13.191018" lon="99.793761">
        <ele>45.0</ele>
        <time>2023-11-04T05:16:42Z</time>
      </trkpt>
      <trkpt lat="13.190989" lon="99.793797">
        <ele>47.0</ele>
        <time>2023-11-04T05:16:47Z</time>
      </trkpt>
      <trkpt lat="13.190995" lon="99.793836">
        <ele>50.4</ele>
        <time>2023-11-04T05:16:49Z</time>
      </trkpt>
      <trkpt lat="13.190987" lon="99.793868">
        <ele>50.0</ele>
        <time>2023-11-04T05:16:50Z</time>
      </trkpt>
      <trkpt lat="13.190829" lon="99.793995">
        <ele>49.0</ele>
        <time>2023-11-04T05:16:57Z</time>
      </trkpt>
      <trkpt lat="13.190653" lon="99.794266">
        <ele>49.6</ele>
        <time>2023-11-04T05:17:07Z</time>
      </trkpt>
      <trkpt lat="13.190491" lon="99.794477">
        <ele>48.9</ele>
        <time>2023-11-04T05:17:14Z</time>
      </trkpt>
      <trkpt lat="13.190376" lon="99.794646">
        <ele>48.7</ele>
        <time>2023-11-04T05:17:19Z</time>
      </trkpt>
      <trkpt lat="13.190263" lon="99.794767">
        <ele>48.8</ele>
        <time>2023-11-04T05:17:23Z</time>
      </trkpt>
      <trkpt lat="13.189719" lon="99.795178">
        <ele>48.9</ele>
        <time>2023-11-04T05:17:38Z</time>
      </trkpt>
      <trkpt lat="13.189313" lon="99.795462">
        <ele>48.8</ele>
        <time>2023-11-04T05:17:48Z</time>
      </trkpt>
      <trkpt lat="13.189299" lon="99.795539">
        <ele>48.9</ele>
        <time>2023-11-04T05:17:49Z</time>
      </trkpt>
      <trkpt lat="13.189155" lon="99.795605">
        <ele>49.2</ele>
        <time>2023-11-04T05:17:52Z</time>
      </trkpt>
      <trkpt lat="13.189032" lon="99.795602">
        <ele>49.8</ele>
        <time>2023-11-04T05:17:54Z</time>
      </trkpt>
      <trkpt lat="13.188927" lon="99.795583">
        <ele>49.9</ele>
        <time>2023-11-04T05:17:56Z</time>
      </trkpt>
      <trkpt lat="13.188879" lon="99.795535">
        <ele>50.2</ele>
        <time>2023-11-04T05:17:57Z</time>
      </trkpt>
      <trkpt lat="13.188784" lon="99.795496">
        <ele>50.1</ele>
        <time>2023-11-04T05:17:59Z</time>
      </trkpt>
      <trkpt lat="13.188706" lon="99.795430">
        <ele>50.0</ele>
        <time>2023-11-04T05:18:01Z</time>
      </trkpt>
      <trkpt lat="13.188690" lon="99.795378">
        <ele>50.0</ele>
        <time>2023-11-04T05:18:02Z</time>
      </trkpt>
      <trkpt lat="13.188627" lon="99.795304">
        <ele>50.0</ele>
        <time>2023-11-04T05:18:04Z</time>
      </trkpt>
      <trkpt lat="13.188491" lon="99.795105">
        <ele>49.4</ele>
        <time>2023-11-04T05:18:09Z</time>
      </trkpt>
      <trkpt lat="13.188450" lon="99.795070">
        <ele>49.5</ele>
        <time>2023-11-04T05:18:10Z</time>
      </trkpt>
      <trkpt lat="13.188387" lon="99.794953">
        <ele>48.0</ele>
        <time>2023-11-04T05:18:13Z</time>
      </trkpt>
      <trkpt lat="13.188324" lon="99.794888">
        <ele>48.0</ele>
        <time>2023-11-04T05:18:16Z</time>
      </trkpt>
      <trkpt lat="13.188262" lon="99.794793">
        <ele>48.7</ele>
        <time>2023-11-04T05:18:20Z</time>
      </trkpt>
      <trkpt lat="13.188206" lon="99.794729">
        <ele>48.4</ele>
        <time>2023-11-04T05:18:23Z</time>
      </trkpt>
      <trkpt lat="13.188131" lon="99.794605">
        <ele>48.0</ele>
        <time>2023-11-04T05:18:28Z</time>
      </trkpt>
      <trkpt lat="13.188082" lon="99.794557">
        <ele>48.6</ele>
        <time>2023-11-04T05:18:30Z</time>
      </trkpt>
      <trkpt lat="13.187956" lon="99.794387">
        <ele>49.4</ele>
        <time>2023-11-04T05:18:36Z</time>
      </trkpt>
      <trkpt lat="13.187782" lon="99.794108">
        <ele>50.0</ele>
        <time>2023-11-04T05:18:46Z</time>
      </trkpt>
      <trkpt lat="13.187774" lon="99.794037">
        <ele>51.3</ele>
        <time>2023-11-04T05:18:49Z</time>
      </trkpt>
      <trkpt lat="13.187807" lon="99.793973">
        <ele>51.9</ele>
        <time>2023-11-04T05:18:51Z</time>
      </trkpt>
      <trkpt lat="13.187831" lon="99.793954">
        <ele>52.3</ele>
        <time>2023-11-04T05:18:52Z</time>
      </trkpt>
      <trkpt lat="13.187849" lon="99.793876">
        <ele>52.8</ele>
        <time>2023-11-04T05:18:54Z</time>
      </trkpt>
      <trkpt lat="13.187806" lon="99.793698">
        <ele>54.0</ele>
        <time>2023-11-04T05:18:58Z</time>
      </trkpt>
      <trkpt lat="13.187786" lon="99.793571">
        <ele>55.0</ele>
        <time>2023-11-04T05:19:01Z</time>
      </trkpt>
      <trkpt lat="13.187782" lon="99.793402">
        <ele>57.4</ele>
        <time>2023-11-04T05:19:07Z</time>
      </trkpt>
      <trkpt lat="13.187750" lon="99.793252">
        <ele>58.0</ele>
        <time>2023-11-04T05:19:12Z</time>
      </trkpt>
      <trkpt lat="13.187790" lon="99.793032">
        <ele>58.0</ele>
        <time>2023-11-04T05:19:19Z</time>
      </trkpt>
      <trkpt lat="13.187813" lon="99.792836">
        <ele>59.1</ele>
        <time>2023-11-04T05:19:26Z</time>
      </trkpt>
      <trkpt lat="13.187765" lon="99.792477">
        <ele>56.0</ele>
        <time>2023-11-04T05:19:36Z</time>
      </trkpt>
      <trkpt lat="13.187739" lon="99.792414">
        <ele>57.3</ele>
        <time>2023-11-04T05:19:39Z</time>
      </trkpt>
      <trkpt lat="13.187625" lon="99.792295">
        <ele>56.1</ele>
        <time>2023-11-04T05:19:43Z</time>
      </trkpt>
      <trkpt lat="13.187559" lon="99.792179">
        <ele>55.7</ele>
        <time>2023-11-04T05:19:45Z</time>
      </trkpt>
      <trkpt lat="13.187519" lon="99.792142">
        <ele>55.8</ele>
        <time>2023-11-04T05:19:46Z</time>
      </trkpt>
      <trkpt lat="13.187403" lon="99.791963">
        <ele>56.0</ele>
        <time>2023-11-04T05:19:52Z</time>
      </trkpt>
      <trkpt lat="13.187253" lon="99.791811">
        <ele>58.0</ele>
        <time>2023-11-04T05:20:02Z</time>
      </trkpt>
      <trkpt lat="13.187188" lon="99.791767">
        <ele>58.0</ele>
        <time>2023-11-04T05:20:07Z</time>
      </trkpt>
      <trkpt lat="13.187113" lon="99.791691">
        <ele>58.0</ele>
        <time>2023-11-04T05:20:13Z</time>
      </trkpt>
      <trkpt lat="13.186968" lon="99.791606">
        <ele>60.0</ele>
        <time>2023-11-04T05:20:23Z</time>
      </trkpt>
      <trkpt lat="13.186796" lon="99.791686">
        <ele>60.0</ele>
        <time>2023-11-04T05:20:33Z</time>
      </trkpt>
      <trkpt lat="13.186650" lon="99.791783">
        <ele>59.0</ele>
        <time>2023-11-04T05:20:37Z</time>
      </trkpt>
      <trkpt lat="13.186591" lon="99.791808">
        <ele>58.7</ele>
        <time>2023-11-04T05:20:38Z</time>
      </trkpt>
      <trkpt lat="13.186456" lon="99.791824">
        <ele>57.8</ele>
        <time>2023-11-04T05:20:40Z</time>
      </trkpt>
      <trkpt lat="13.186426" lon="99.791888">
        <ele>58.1</ele>
        <time>2023-11-04T05:20:41Z</time>
      </trkpt>
      <trkpt lat="13.186407" lon="99.791852">
        <ele>59.2</ele>
        <time>2023-11-04T05:20:42Z</time>
      </trkpt>
      <trkpt lat="13.186195" lon="99.791792">
        <ele>59.4</ele>
        <time>2023-11-04T05:20:52Z</time>
      </trkpt>
      <trkpt lat="13.186097" lon="99.791777">
        <ele>58.0</ele>
        <time>2023-11-04T05:20:55Z</time>
      </trkpt>
      <trkpt lat="13.185991" lon="99.791802">
        <ele>59.0</ele>
        <time>2023-11-04T05:20:59Z</time>
      </trkpt>
      <trkpt lat="13.185935" lon="99.791798">
        <ele>60.1</ele>
        <time>2023-11-04T05:21:01Z</time>
      </trkpt>
      <trkpt lat="13.185862" lon="99.791763">
        <ele>60.6</ele>
        <time>2023-11-04T05:21:03Z</time>
      </trkpt>
      <trkpt lat="13.185818" lon="99.791770">
        <ele>60.0</ele>
        <time>2023-11-04T05:21:04Z</time>
      </trkpt>
      <trkpt lat="13.185791" lon="99.791812">
        <ele>60.0</ele>
        <time>2023-11-04T05:21:06Z</time>
      </trkpt>
      <trkpt lat="13.185808" lon="99.791970">
        <ele>61.5</ele>
        <time>2023-11-04T05:21:11Z</time>
      </trkpt>
      <trkpt lat="13.185801" lon="99.792007">
        <ele>61.2</ele>
        <time>2023-11-04T05:21:12Z</time>
      </trkpt>
      <trkpt lat="13.185640" lon="99.792268">
        <ele>62.6</ele>
        <time>2023-11-04T05:21:19Z</time>
      </trkpt>
      <trkpt lat="13.185534" lon="99.792355">
        <ele>62.0</ele>
        <time>2023-11-04T05:21:24Z</time>
      </trkpt>
      <trkpt lat="13.185475" lon="99.792433">
        <ele>63.0</ele>
        <time>2023-11-04T05:21:28Z</time>
      </trkpt>
      <trkpt lat="13.185420" lon="99.792479">
        <ele>62.0</ele>
        <time>2023-11-04T05:21:32Z</time>
      </trkpt>
      <trkpt lat="13.185248" lon="99.792665">
        <ele>61.5</ele>
        <time>2023-11-04T05:21:40Z</time>
      </trkpt>
      <trkpt lat="13.185122" lon="99.792765">
        <ele>61.7</ele>
        <time>2023-11-04T05:21:43Z</time>
      </trkpt>
      <trkpt lat="13.185005" lon="99.792880">
        <ele>62.6</ele>
        <time>2023-11-04T05:21:46Z</time>
      </trkpt>
      <trkpt lat="13.184990" lon="99.792939">
        <ele>63.1</ele>
        <time>2023-11-04T05:21:47Z</time>
      </trkpt>
      <trkpt lat="13.184931" lon="99.793031">
        <ele>61.5</ele>
        <time>2023-11-04T05:21:49Z</time>
      </trkpt>
      <trkpt lat="13.184907" lon="99.793087">
        <ele>60.6</ele>
        <time>2023-11-04T05:21:50Z</time>
      </trkpt>
      <trkpt lat="13.184848" lon="99.793169">
        <ele>58.8</ele>
        <time>2023-11-04T05:21:52Z</time>
      </trkpt>
      <trkpt lat="13.184828" lon="99.793221">
        <ele>58.2</ele>
        <time>2023-11-04T05:21:53Z</time>
      </trkpt>
      <trkpt lat="13.184756" lon="99.793345">
        <ele>58.3</ele>
        <time>2023-11-04T05:21:56Z</time>
      </trkpt>
      <trkpt lat="13.184732" lon="99.793543">
        <ele>56.0</ele>
        <time>2023-11-04T05:22:04Z</time>
      </trkpt>
      <trkpt lat="13.184749" lon="99.793603">
        <ele>56.0</ele>
        <time>2023-11-04T05:22:06Z</time>
      </trkpt>
      <trkpt lat="13.184760" lon="99.793707">
        <ele>56.7</ele>
        <time>2023-11-04T05:22:09Z</time>
      </trkpt>
      <trkpt lat="13.184734" lon="99.793857">
        <ele>55.9</ele>
        <time>2023-11-04T05:22:12Z</time>
      </trkpt>
      <trkpt lat="13.184714" lon="99.793901">
        <ele>55.7</ele>
        <time>2023-11-04T05:22:13Z</time>
      </trkpt>
      <trkpt lat="13.184707" lon="99.793948">
        <ele>55.2</ele>
        <time>2023-11-04T05:22:14Z</time>
      </trkpt>
      <trkpt lat="13.184699" lon="99.794076">
        <ele>53.7</ele>
        <time>2023-11-04T05:22:16Z</time>
      </trkpt>
      <trkpt lat="13.184707" lon="99.794146">
        <ele>53.7</ele>
        <time>2023-11-04T05:22:17Z</time>
      </trkpt>
      <trkpt lat="13.184737" lon="99.794203">
        <ele>53.6</ele>
        <time>2023-11-04T05:22:18Z</time>
      </trkpt>
      <trkpt lat="13.184779" lon="99.794244">
        <ele>54.2</ele>
        <time>2023-11-04T05:22:19Z</time>
      </trkpt>
      <trkpt lat="13.184861" lon="99.794299">
        <ele>54.7</ele>
        <time>2023-11-04T05:22:21Z</time>
      </trkpt>
      <trkpt lat="13.184892" lon="99.794337">
        <ele>54.9</ele>
        <time>2023-11-04T05:22:22Z</time>
      </trkpt>
      <trkpt lat="13.184913" lon="99.794426">
        <ele>53.7</ele>
        <time>2023-11-04T05:22:24Z</time>
      </trkpt>
      <trkpt lat="13.184948" lon="99.794501">
        <ele>53.1</ele>
        <time>2023-11-04T05:22:25Z</time>
      </trkpt>
      <trkpt lat="13.184930" lon="99.794538">
        <ele>52.0</ele>
        <time>2023-11-04T05:22:27Z</time>
      </trkpt>
      <trkpt lat="13.184894" lon="99.794535">
        <ele>48.0</ele>
        <time>2023-11-04T05:22:32Z</time>
      </trkpt>
      <trkpt lat="13.184793" lon="99.794564">
        <ele>50.0</ele>
        <time>2023-11-04T05:22:56Z</time>
      </trkpt>
      <trkpt lat="13.184634" lon="99.794586">
        <ele>50.4</ele>
        <time>2023-11-04T05:23:01Z</time>
      </trkpt>
      <trkpt lat="13.184589" lon="99.794581">
        <ele>50.0</ele>
        <time>2023-11-04T05:23:02Z</time>
      </trkpt>
      <trkpt lat="13.184475" lon="99.794545">
        <ele>48.5</ele>
        <time>2023-11-04T05:23:04Z</time>
      </trkpt>
      <trkpt lat="13.184272" lon="99.794529">
        <ele>47.8</ele>
        <time>2023-11-04T05:23:07Z</time>
      </trkpt>
      <trkpt lat="13.184222" lon="99.794558">
        <ele>47.4</ele>
        <time>2023-11-04T05:23:08Z</time>
      </trkpt>
      <trkpt lat="13.184097" lon="99.794667">
        <ele>45.9</ele>
        <time>2023-11-04T05:23:11Z</time>
      </trkpt>
      <trkpt lat="13.183808" lon="99.794846">
        <ele>44.9</ele>
        <time>2023-11-04T05:23:16Z</time>
      </trkpt>
      <trkpt lat="13.183765" lon="99.794892">
        <ele>45.0</ele>
        <time>2023-11-04T05:23:17Z</time>
      </trkpt>
      <trkpt lat="13.183718" lon="99.794924">
        <ele>45.4</ele>
        <time>2023-11-04T05:23:18Z</time>
      </trkpt>
      <trkpt lat="13.183658" lon="99.795006">
        <ele>45.9</ele>
        <time>2023-11-04T05:23:20Z</time>
      </trkpt>
      <trkpt lat="13.183643" lon="99.795052">
        <ele>46.2</ele>
        <time>2023-11-04T05:23:21Z</time>
      </trkpt>
      <trkpt lat="13.183634" lon="99.795133">
        <ele>46.2</ele>
        <time>2023-11-04T05:23:23Z</time>
      </trkpt>
      <trkpt lat="13.183603" lon="99.795167">
        <ele>45.7</ele>
        <time>2023-11-04T05:23:24Z</time>
      </trkpt>
      <trkpt lat="13.183566" lon="99.795175">
        <ele>45.9</ele>
        <time>2023-11-04T05:23:25Z</time>
      </trkpt>
      <trkpt lat="13.183528" lon="99.795166">
        <ele>45.8</ele>
        <time>2023-11-04T05:23:26Z</time>
      </trkpt>
      <trkpt lat="13.183463" lon="99.795131">
        <ele>45.1</ele>
        <time>2023-11-04T05:23:28Z</time>
      </trkpt>
      <trkpt lat="13.183423" lon="99.795135">
        <ele>45.1</ele>
        <time>2023-11-04T05:23:29Z</time>
      </trkpt>
      <trkpt lat="13.183235" lon="99.795204">
        <ele>46.1</ele>
        <time>2023-11-04T05:23:33Z</time>
      </trkpt>
      <trkpt lat="13.183200" lon="99.795242">
        <ele>46.0</ele>
        <time>2023-11-04T05:23:34Z</time>
      </trkpt>
      <trkpt lat="13.183141" lon="99.795399">
        <ele>48.5</ele>
        <time>2023-11-04T05:23:41Z</time>
      </trkpt>
      <trkpt lat="13.183053" lon="99.795482">
        <ele>48.0</ele>
        <time>2023-11-04T05:23:46Z</time>
      </trkpt>
      <trkpt lat="13.183023" lon="99.795639">
        <ele>47.9</ele>
        <time>2023-11-04T05:23:52Z</time>
      </trkpt>
      <trkpt lat="13.182917" lon="99.795762">
        <ele>47.4</ele>
        <time>2023-11-04T05:23:56Z</time>
      </trkpt>
      <trkpt lat="13.182881" lon="99.795777">
        <ele>47.5</ele>
        <time>2023-11-04T05:23:57Z</time>
      </trkpt>
      <trkpt lat="13.182264" lon="99.795909">
        <ele>48.1</ele>
        <time>2023-11-04T05:24:13Z</time>
      </trkpt>
      <trkpt lat="13.182157" lon="99.795915">
        <ele>47.6</ele>
        <time>2023-11-04T05:24:16Z</time>
      </trkpt>
      <trkpt lat="13.182015" lon="99.795899">
        <ele>46.7</ele>
        <time>2023-11-04T05:24:20Z</time>
      </trkpt>
      <trkpt lat="13.181959" lon="99.795921">
        <ele>46.1</ele>
        <time>2023-11-04T05:24:21Z</time>
      </trkpt>
      <trkpt lat="13.181804" lon="99.796054">
        <ele>46.2</ele>
        <time>2023-11-04T05:24:25Z</time>
      </trkpt>
      <trkpt lat="13.181751" lon="99.796073">
        <ele>46.0</ele>
        <time>2023-11-04T05:24:26Z</time>
      </trkpt>
      <trkpt lat="13.181704" lon="99.796112">
        <ele>45.9</ele>
        <time>2023-11-04T05:24:27Z</time>
      </trkpt>
      <trkpt lat="13.181585" lon="99.796288">
        <ele>45.1</ele>
        <time>2023-11-04T05:24:31Z</time>
      </trkpt>
      <trkpt lat="13.181395" lon="99.796514">
        <ele>45.6</ele>
        <time>2023-11-04T05:24:37Z</time>
      </trkpt>
      <trkpt lat="13.181230" lon="99.796677">
        <ele>46.7</ele>
        <time>2023-11-04T05:24:43Z</time>
      </trkpt>
      <trkpt lat="13.181190" lon="99.796697">
        <ele>46.0</ele>
        <time>2023-11-04T05:24:44Z</time>
      </trkpt>
      <trkpt lat="13.181135" lon="99.796695">
        <ele>46.0</ele>
        <time>2023-11-04T05:24:46Z</time>
      </trkpt>
      <trkpt lat="13.180783" lon="99.796475">
        <ele>48.0</ele>
        <time>2023-11-04T05:25:01Z</time>
      </trkpt>
      <trkpt lat="13.180607" lon="99.796387">
        <ele>50.0</ele>
        <time>2023-11-04T05:25:09Z</time>
      </trkpt>
      <trkpt lat="13.180372" lon="99.796309">
        <ele>48.0</ele>
        <time>2023-11-04T05:25:19Z</time>
      </trkpt>
      <trkpt lat="13.179941" lon="99.796241">
        <ele>50.0</ele>
        <time>2023-11-04T05:25:32Z</time>
      </trkpt>
      <trkpt lat="13.179734" lon="99.796278">
        <ele>50.4</ele>
        <time>2023-11-04T05:25:36Z</time>
      </trkpt>
      <trkpt lat="13.179641" lon="99.796283">
        <ele>49.9</ele>
        <time>2023-11-04T05:25:38Z</time>
      </trkpt>
      <trkpt lat="13.179426" lon="99.796316">
        <ele>48.2</ele>
        <time>2023-11-04T05:25:42Z</time>
      </trkpt>
      <trkpt lat="13.179297" lon="99.796354">
        <ele>47.2</ele>
        <time>2023-11-04T05:25:44Z</time>
      </trkpt>
      <trkpt lat="13.179230" lon="99.796349">
        <ele>46.6</ele>
        <time>2023-11-04T05:25:45Z</time>
      </trkpt>
      <trkpt lat="13.179103" lon="99.796307">
        <ele>45.4</ele>
        <time>2023-11-04T05:25:47Z</time>
      </trkpt>
      <trkpt lat="13.178974" lon="99.796294">
        <ele>43.9</ele>
        <time>2023-11-04T05:25:49Z</time>
      </trkpt>
      <trkpt lat="13.178932" lon="99.796262">
        <ele>44.1</ele>
        <time>2023-11-04T05:25:50Z</time>
      </trkpt>
      <trkpt lat="13.178880" lon="99.796156">
        <ele>44.1</ele>
        <time>2023-11-04T05:25:52Z</time>
      </trkpt>
      <trkpt lat="13.178820" lon="99.796064">
        <ele>44.1</ele>
        <time>2023-11-04T05:25:54Z</time>
      </trkpt>
      <trkpt lat="13.178774" lon="99.796053">
        <ele>43.5</ele>
        <time>2023-11-04T05:25:55Z</time>
      </trkpt>
      <trkpt lat="13.178723" lon="99.796071">
        <ele>43.6</ele>
        <time>2023-11-04T05:25:56Z</time>
      </trkpt>
      <trkpt lat="13.178588" lon="99.796153">
        <ele>43.7</ele>
        <time>2023-11-04T05:25:59Z</time>
      </trkpt>
      <trkpt lat="13.178457" lon="99.796164">
        <ele>43.8</ele>
        <time>2023-11-04T05:26:02Z</time>
      </trkpt>
      <trkpt lat="13.178412" lon="99.796184">
        <ele>43.7</ele>
        <time>2023-11-04T05:26:03Z</time>
      </trkpt>
      <trkpt lat="13.178237" lon="99.796305">
        <ele>43.2</ele>
        <time>2023-11-04T05:26:07Z</time>
      </trkpt>
      <trkpt lat="13.178097" lon="99.796364">
        <ele>43.5</ele>
        <time>2023-11-04T05:26:10Z</time>
      </trkpt>
      <trkpt lat="13.178052" lon="99.796395">
        <ele>43.0</ele>
        <time>2023-11-04T05:26:11Z</time>
      </trkpt>
      <trkpt lat="13.177896" lon="99.796551">
        <ele>42.8</ele>
        <time>2023-11-04T05:26:15Z</time>
      </trkpt>
      <trkpt lat="13.177867" lon="99.796601">
        <ele>42.7</ele>
        <time>2023-11-04T05:26:16Z</time>
      </trkpt>
      <trkpt lat="13.177856" lon="99.796662">
        <ele>42.6</ele>
        <time>2023-11-04T05:26:17Z</time>
      </trkpt>
      <trkpt lat="13.177865" lon="99.796776">
        <ele>41.9</ele>
        <time>2023-11-04T05:26:19Z</time>
      </trkpt>
      <trkpt lat="13.177852" lon="99.797100">
        <ele>40.8</ele>
        <time>2023-11-04T05:26:24Z</time>
      </trkpt>
      <trkpt lat="13.177831" lon="99.797161">
        <ele>40.6</ele>
        <time>2023-11-04T05:26:25Z</time>
      </trkpt>
      <trkpt lat="13.177796" lon="99.797211">
        <ele>40.2</ele>
        <time>2023-11-04T05:26:26Z</time>
      </trkpt>
      <trkpt lat="13.177712" lon="99.797272">
        <ele>39.5</ele>
        <time>2023-11-04T05:26:28Z</time>
      </trkpt>
      <trkpt lat="13.177667" lon="99.797260">
        <ele>40.1</ele>
        <time>2023-11-04T05:26:29Z</time>
      </trkpt>
      <trkpt lat="13.177595" lon="99.797201">
        <ele>40.6</ele>
        <time>2023-11-04T05:26:31Z</time>
      </trkpt>
      <trkpt lat="13.177471" lon="99.797175">
        <ele>40.7</ele>
        <time>2023-11-04T05:26:34Z</time>
      </trkpt>
      <trkpt lat="13.177337" lon="99.797096">
        <ele>41.7</ele>
        <time>2023-11-04T05:26:38Z</time>
      </trkpt>
      <trkpt lat="13.177272" lon="99.797002">
        <ele>42.4</ele>
        <time>2023-11-04T05:26:41Z</time>
      </trkpt>
      <trkpt lat="13.177201" lon="99.796930">
        <ele>43.0</ele>
        <time>2023-11-04T05:26:44Z</time>
      </trkpt>
      <trkpt lat="13.177056" lon="99.796858">
        <ele>42.9</ele>
        <time>2023-11-04T05:26:49Z</time>
      </trkpt>
      <trkpt lat="13.176843" lon="99.796814">
        <ele>42.7</ele>
        <time>2023-11-04T05:26:56Z</time>
      </trkpt>
      <trkpt lat="13.176773" lon="99.796774">
        <ele>42.0</ele>
        <time>2023-11-04T05:26:58Z</time>
      </trkpt>
      <trkpt lat="13.176670" lon="99.796576">
        <ele>42.0</ele>
        <time>2023-11-04T05:27:52Z</time>
      </trkpt>
      <trkpt lat="13.176564" lon="99.796467">
        <ele>43.3</ele>
        <time>2023-11-04T05:27:57Z</time>
      </trkpt>
      <trkpt lat="13.176523" lon="99.796412">
        <ele>43.9</ele>
        <time>2023-11-04T05:28:00Z</time>
      </trkpt>
      <trkpt lat="13.176486" lon="99.796282">
        <ele>43.3</ele>
        <time>2023-11-04T05:28:04Z</time>
      </trkpt>
      <trkpt lat="13.176467" lon="99.796245">
        <ele>43.1</ele>
        <time>2023-11-04T05:28:05Z</time>
      </trkpt>
      <trkpt lat="13.176228" lon="99.796029">
        <ele>43.7</ele>
        <time>2023-11-04T05:28:14Z</time>
      </trkpt>
      <trkpt lat="13.176118" lon="99.795908">
        <ele>42.0</ele>
        <time>2023-11-04T05:28:21Z</time>
      </trkpt>
      <trkpt lat="13.176086" lon="99.795900">
        <ele>42.0</ele>
        <time>2023-11-04T05:28:23Z</time>
      </trkpt>
      <trkpt lat="13.176049" lon="99.795859">
        <ele>40.0</ele>
        <time>2023-11-04T05:28:50Z</time>
      </trkpt>
      <trkpt lat="13.176054" lon="99.795771">
        <ele>42.5</ele>
        <time>2023-11-04T05:28:59Z</time>
      </trkpt>
      <trkpt lat="13.176076" lon="99.795729">
        <ele>42.0</ele>
        <time>2023-11-04T05:29:00Z</time>
      </trkpt>
      <trkpt lat="13.176103" lon="99.795689">
        <ele>42.0</ele>
        <time>2023-11-04T05:29:02Z</time>
      </trkpt>
      <trkpt lat="13.176192" lon="99.795631">
        <ele>42.0</ele>
        <time>2023-11-04T05:29:06Z</time>
      </trkpt>
      <trkpt lat="13.176223" lon="99.795590">
        <ele>42.0</ele>
        <time>2023-11-04T05:29:08Z</time>
      </trkpt>
      <trkpt lat="13.176227" lon="99.795543">
        <ele>44.0</ele>
        <time>2023-11-04T05:29:10Z</time>
      </trkpt>
      <trkpt lat="13.176211" lon="99.795505">
        <ele>44.0</ele>
        <time>2023-11-04T05:29:12Z</time>
      </trkpt>
      <trkpt lat="13.176153" lon="99.795428">
        <ele>44.0</ele>
        <time>2023-11-04T05:29:16Z</time>
      </trkpt>
      <trkpt lat="13.176135" lon="99.795380">
        <ele>44.0</ele>
        <time>2023-11-04T05:29:18Z</time>
      </trkpt>
      <trkpt lat="13.176107" lon="99.795201">
        <ele>46.0</ele>
        <time>2023-11-04T05:29:26Z</time>
      </trkpt>
      <trkpt lat="13.176067" lon="99.795121">
        <ele>46.0</ele>
        <time>2023-11-04T05:29:30Z</time>
      </trkpt>
      <trkpt lat="13.176040" lon="99.795087">
        <ele>46.0</ele>
        <time>2023-11-04T05:29:32Z</time>
      </trkpt>
      <trkpt lat="13.175978" lon="99.795044">
        <ele>48.0</ele>
        <time>2023-11-04T05:29:36Z</time>
      </trkpt>
      <trkpt lat="13.175830" lon="99.794974">
        <ele>48.0</ele>
        <time>2023-11-04T05:29:44Z</time>
      </trkpt>
      <trkpt lat="13.175798" lon="99.794940">
        <ele>48.0</ele>
        <time>2023-11-04T05:29:46Z</time>
      </trkpt>
      <trkpt lat="13.175777" lon="99.794898">
        <ele>48.0</ele>
        <time>2023-11-04T05:29:48Z</time>
      </trkpt>
      <trkpt lat="13.175741" lon="99.794773">
        <ele>50.0</ele>
        <time>2023-11-04T05:29:54Z</time>
      </trkpt>
      <trkpt lat="13.175724" lon="99.794656">
        <ele>50.0</ele>
        <time>2023-11-04T05:30:00Z</time>
      </trkpt>
      <trkpt lat="13.175668" lon="99.794519">
        <ele>52.0</ele>
        <time>2023-11-04T05:30:08Z</time>
      </trkpt>
      <trkpt lat="13.175661" lon="99.794415">
        <ele>51.0</ele>
        <time>2023-11-04T05:30:15Z</time>
      </trkpt>
      <trkpt lat="13.175637" lon="99.794389">
        <ele>54.0</ele>
        <time>2023-11-04T05:30:17Z</time>
      </trkpt>
      <trkpt lat="13.175387" lon="99.794423">
        <ele>54.7</ele>
        <time>2023-11-04T05:30:27Z</time>
      </trkpt>
      <trkpt lat="13.175214" lon="99.794420">
        <ele>55.4</ele>
        <time>2023-11-04T05:30:32Z</time>
      </trkpt>
      <trkpt lat="13.175093" lon="99.794402">
        <ele>56.0</ele>
        <time>2023-11-04T05:30:36Z</time>
      </trkpt>
      <trkpt lat="13.174945" lon="99.794397">
        <ele>55.5</ele>
        <time>2023-11-04T05:30:41Z</time>
      </trkpt>
      <trkpt lat="13.174889" lon="99.794406">
        <ele>54.9</ele>
        <time>2023-11-04T05:30:42Z</time>
      </trkpt>
      <trkpt lat="13.174679" lon="99.794470">
        <ele>55.2</ele>
        <time>2023-11-04T05:30:47Z</time>
      </trkpt>
      <trkpt lat="13.174632" lon="99.794480">
        <ele>54.6</ele>
        <time>2023-11-04T05:30:48Z</time>
      </trkpt>
      <trkpt lat="13.174581" lon="99.794476">
        <ele>54.6</ele>
        <time>2023-11-04T05:30:49Z</time>
      </trkpt>
      <trkpt lat="13.174481" lon="99.794433">
        <ele>54.8</ele>
        <time>2023-11-04T05:30:51Z</time>
      </trkpt>
      <trkpt lat="13.174247" lon="99.794265">
        <ele>56.0</ele>
        <time>2023-11-04T05:31:00Z</time>
      </trkpt>
      <trkpt lat="13.174090" lon="99.794137">
        <ele>54.6</ele>
        <time>2023-11-04T05:31:05Z</time>
      </trkpt>
      <trkpt lat="13.173929" lon="99.793981">
        <ele>54.6</ele>
        <time>2023-11-04T05:31:09Z</time>
      </trkpt>
      <trkpt lat="13.173561" lon="99.793689">
        <ele>52.8</ele>
        <time>2023-11-04T05:31:20Z</time>
      </trkpt>
      <trkpt lat="13.173334" lon="99.793571">
        <ele>54.0</ele>
        <time>2023-11-04T05:31:27Z</time>
      </trkpt>
      <trkpt lat="13.173160" lon="99.793506">
        <ele>53.8</ele>
        <time>2023-11-04T05:31:34Z</time>
      </trkpt>
      <trkpt lat="13.172811" lon="99.793398">
        <ele>54.5</ele>
        <time>2023-11-04T05:31:41Z</time>
      </trkpt>
      <trkpt lat="13.172655" lon="99.793388">
        <ele>53.7</ele>
        <time>2023-11-04T05:31:44Z</time>
      </trkpt>
      <trkpt lat="13.172608" lon="99.793396">
        <ele>54.2</ele>
        <time>2023-11-04T05:31:45Z</time>
      </trkpt>
      <trkpt lat="13.172303" lon="99.793395">
        <ele>53.3</ele>
        <time>2023-11-04T05:31:52Z</time>
      </trkpt>
      <trkpt lat="13.172153" lon="99.793378">
        <ele>53.3</ele>
        <time>2023-11-04T05:31:55Z</time>
      </trkpt>
      <trkpt lat="13.171942" lon="99.793392">
        <ele>53.4</ele>
        <time>2023-11-04T05:31:59Z</time>
      </trkpt>
      <trkpt lat="13.171898" lon="99.793374">
        <ele>53.9</ele>
        <time>2023-11-04T05:32:00Z</time>
      </trkpt>
      <trkpt lat="13.171866" lon="99.793284">
        <ele>53.6</ele>
        <time>2023-11-04T05:32:02Z</time>
      </trkpt>
      <trkpt lat="13.171908" lon="99.793224">
        <ele>53.5</ele>
        <time>2023-11-04T05:32:03Z</time>
      </trkpt>
      <trkpt lat="13.171818" lon="99.792824">
        <ele>52.2</ele>
        <time>2023-11-04T05:32:12Z</time>
      </trkpt>
      <trkpt lat="13.171806" lon="99.792410">
        <ele>51.3</ele>
        <time>2023-11-04T05:32:20Z</time>
      </trkpt>
      <trkpt lat="13.171818" lon="99.792094">
        <ele>50.6</ele>
        <time>2023-11-04T05:32:26Z</time>
      </trkpt>
      <trkpt lat="13.171799" lon="99.791823">
        <ele>50.3</ele>
        <time>2023-11-04T05:32:31Z</time>
      </trkpt>
      <trkpt lat="13.171753" lon="99.791558">
        <ele>50.2</ele>
        <time>2023-11-04T05:32:36Z</time>
      </trkpt>
      <trkpt lat="13.171700" lon="99.791400">
        <ele>50.7</ele>
        <time>2023-11-04T05:32:39Z</time>
      </trkpt>
      <trkpt lat="13.171544" lon="99.791133">
        <ele>51.5</ele>
        <time>2023-11-04T05:32:45Z</time>
      </trkpt>
      <trkpt lat="13.171448" lon="99.791026">
        <ele>51.9</ele>
        <time>2023-11-04T05:32:48Z</time>
      </trkpt>
      <trkpt lat="13.171413" lon="99.790999">
        <ele>51.9</ele>
        <time>2023-11-04T05:32:49Z</time>
      </trkpt>
      <trkpt lat="13.171384" lon="99.790922">
        <ele>52.3</ele>
        <time>2023-11-04T05:32:51Z</time>
      </trkpt>
      <trkpt lat="13.171352" lon="99.790897">
        <ele>52.6</ele>
        <time>2023-11-04T05:32:52Z</time>
      </trkpt>
      <trkpt lat="13.171283" lon="99.790813">
        <ele>53.4</ele>
        <time>2023-11-04T05:32:55Z</time>
      </trkpt>
      <trkpt lat="13.171294" lon="99.790757">
        <ele>53.6</ele>
        <time>2023-11-04T05:32:56Z</time>
      </trkpt>
      <trkpt lat="13.171281" lon="99.790726">
        <ele>53.9</ele>
        <time>2023-11-04T05:32:57Z</time>
      </trkpt>
      <trkpt lat="13.171113" lon="99.790440">
        <ele>56.0</ele>
        <time>2023-11-04T05:33:08Z</time>
      </trkpt>
      <trkpt lat="13.171059" lon="99.790302">
        <ele>58.0</ele>
        <time>2023-11-04T05:33:14Z</time>
      </trkpt>
      <trkpt lat="13.171036" lon="99.790274">
        <ele>58.0</ele>
        <time>2023-11-04T05:33:16Z</time>
      </trkpt>
      <trkpt lat="13.171001" lon="99.790263">
        <ele>60.0</ele>
        <time>2023-11-04T05:33:18Z</time>
      </trkpt>
      <trkpt lat="13.170957" lon="99.790275">
        <ele>60.0</ele>
        <time>2023-11-04T05:33:20Z</time>
      </trkpt>
      <trkpt lat="13.170899" lon="99.790322">
        <ele>60.7</ele>
        <time>2023-11-04T05:33:23Z</time>
      </trkpt>
      <trkpt lat="13.170877" lon="99.790359">
        <ele>60.0</ele>
        <time>2023-11-04T05:33:24Z</time>
      </trkpt>
      <trkpt lat="13.170866" lon="99.790405">
        <ele>60.3</ele>
        <time>2023-11-04T05:33:26Z</time>
      </trkpt>
      <trkpt lat="13.170854" lon="99.790513">
        <ele>59.8</ele>
        <time>2023-11-04T05:33:29Z</time>
      </trkpt>
      <trkpt lat="13.170794" lon="99.790564">
        <ele>59.8</ele>
        <time>2023-11-04T05:33:31Z</time>
      </trkpt>
      <trkpt lat="13.170692" lon="99.790619">
        <ele>58.5</ele>
        <time>2023-11-04T05:33:34Z</time>
      </trkpt>
      <trkpt lat="13.170477" lon="99.790760">
        <ele>58.5</ele>
        <time>2023-11-04T05:33:40Z</time>
      </trkpt>
      <trkpt lat="13.170362" lon="99.790807">
        <ele>57.9</ele>
        <time>2023-11-04T05:33:43Z</time>
      </trkpt>
      <trkpt lat="13.170038" lon="99.791009">
        <ele>57.1</ele>
        <time>2023-11-04T05:33:51Z</time>
      </trkpt>
      <trkpt lat="13.169757" lon="99.791088">
        <ele>57.1</ele>
        <time>2023-11-04T05:33:57Z</time>
      </trkpt>
      <trkpt lat="13.169530" lon="99.791170">
        <ele>55.7</ele>
        <time>2023-11-04T05:34:02Z</time>
      </trkpt>
      <trkpt lat="13.169482" lon="99.791179">
        <ele>55.2</ele>
        <time>2023-11-04T05:34:03Z</time>
      </trkpt>
      <trkpt lat="13.169386" lon="99.791157">
        <ele>55.6</ele>
        <time>2023-11-04T05:34:05Z</time>
      </trkpt>
      <trkpt lat="13.169257" lon="99.791171">
        <ele>55.9</ele>
        <time>2023-11-04T05:34:08Z</time>
      </trkpt>
      <trkpt lat="13.169222" lon="99.791188">
        <ele>55.6</ele>
        <time>2023-11-04T05:34:09Z</time>
      </trkpt>
      <trkpt lat="13.169133" lon="99.791204">
        <ele>56.0</ele>
        <time>2023-11-04T05:34:11Z</time>
      </trkpt>
      <trkpt lat="13.169092" lon="99.791198">
        <ele>56.2</ele>
        <time>2023-11-04T05:34:12Z</time>
      </trkpt>
      <trkpt lat="13.169018" lon="99.791150">
        <ele>55.8</ele>
        <time>2023-11-04T05:34:14Z</time>
      </trkpt>
      <trkpt lat="13.168960" lon="99.791049">
        <ele>55.2</ele>
        <time>2023-11-04T05:34:17Z</time>
      </trkpt>
      <trkpt lat="13.168924" lon="99.791019">
        <ele>55.0</ele>
        <time>2023-11-04T05:34:18Z</time>
      </trkpt>
      <trkpt lat="13.168730" lon="99.790909">
        <ele>57.0</ele>
        <time>2023-11-04T05:34:23Z</time>
      </trkpt>
      <trkpt lat="13.168463" lon="99.790863">
        <ele>58.3</ele>
        <time>2023-11-04T05:34:31Z</time>
      </trkpt>
      <trkpt lat="13.168271" lon="99.790739">
        <ele>58.3</ele>
        <time>2023-11-04T05:34:37Z</time>
      </trkpt>
      <trkpt lat="13.168180" lon="99.790658">
        <ele>58.4</ele>
        <time>2023-11-04T05:34:40Z</time>
      </trkpt>
      <trkpt lat="13.168047" lon="99.790583">
        <ele>59.0</ele>
        <time>2023-11-04T05:34:44Z</time>
      </trkpt>
      <trkpt lat="13.167977" lon="99.790570">
        <ele>59.3</ele>
        <time>2023-11-04T05:34:46Z</time>
      </trkpt>
      <trkpt lat="13.167822" lon="99.790580">
        <ele>59.2</ele>
        <time>2023-11-04T05:34:50Z</time>
      </trkpt>
      <trkpt lat="13.167779" lon="99.790592">
        <ele>59.1</ele>
        <time>2023-11-04T05:34:51Z</time>
      </trkpt>
      <trkpt lat="13.167662" lon="99.790589">
        <ele>59.1</ele>
        <time>2023-11-04T05:34:54Z</time>
      </trkpt>
      <trkpt lat="13.167526" lon="99.790530">
        <ele>58.9</ele>
        <time>2023-11-04T05:34:58Z</time>
      </trkpt>
      <trkpt lat="13.167395" lon="99.790495">
        <ele>59.5</ele>
        <time>2023-11-04T05:35:02Z</time>
      </trkpt>
      <trkpt lat="13.167312" lon="99.790453">
        <ele>59.0</ele>
        <time>2023-11-04T05:35:05Z</time>
      </trkpt>
      <trkpt lat="13.167206" lon="99.790426">
        <ele>60.0</ele>
        <time>2023-11-04T05:35:09Z</time>
      </trkpt>
      <trkpt lat="13.167125" lon="99.790381">
        <ele>60.0</ele>
        <time>2023-11-04T05:35:12Z</time>
      </trkpt>
      <trkpt lat="13.166858" lon="99.790194">
        <ele>60.9</ele>
        <time>2023-11-04T05:35:23Z</time>
      </trkpt>
      <trkpt lat="13.166752" lon="99.790170">
        <ele>60.5</ele>
        <time>2023-11-04T05:35:26Z</time>
      </trkpt>
      <trkpt lat="13.166568" lon="99.790174">
        <ele>59.1</ele>
        <time>2023-11-04T05:35:30Z</time>
      </trkpt>
      <trkpt lat="13.166273" lon="99.790147">
        <ele>58.3</ele>
        <time>2023-11-04T05:35:35Z</time>
      </trkpt>
      <trkpt lat="13.166186" lon="99.790159">
        <ele>33.0</ele>
        <time>2023-11-04T05:35:53Z</time>
      </trkpt>
      <trkpt lat="13.166138" lon="99.790055">
        <ele>58.0</ele>
        <time>2023-11-04T05:36:16Z</time>
      </trkpt>
      <trkpt lat="13.166093" lon="99.790021">
        <ele>59.0</ele>
        <time>2023-11-04T05:36:19Z</time>
      </trkpt>
      <trkpt lat="13.166070" lon="99.789944">
        <ele>60.0</ele>
        <time>2023-11-04T05:36:24Z</time>
      </trkpt>
      <trkpt lat="13.166108" lon="99.789813">
        <ele>60.0</ele>
        <time>2023-11-04T05:36:32Z</time>
      </trkpt>
      <trkpt lat="13.166106" lon="99.789773">
        <ele>60.0</ele>
        <time>2023-11-04T05:36:34Z</time>
      </trkpt>
      <trkpt lat="13.166086" lon="99.789737">
        <ele>60.0</ele>
        <time>2023-11-04T05:36:36Z</time>
      </trkpt>
      <trkpt lat="13.166066" lon="99.789662">
        <ele>62.0</ele>
        <time>2023-11-04T05:36:40Z</time>
      </trkpt>
      <trkpt lat="13.166105" lon="99.789455">
        <ele>64.0</ele>
        <time>2023-11-04T05:36:52Z</time>
      </trkpt>
      <trkpt lat="13.166105" lon="99.789378">
        <ele>63.0</ele>
        <time>2023-11-04T05:36:57Z</time>
      </trkpt>
      <trkpt lat="13.166084" lon="99.789337">
        <ele>63.0</ele>
        <time>2023-11-04T05:37:00Z</time>
      </trkpt>
      <trkpt lat="13.166048" lon="99.789315">
        <ele>64.0</ele>
        <time>2023-11-04T05:37:02Z</time>
      </trkpt>
      <trkpt lat="13.165880" lon="99.789275">
        <ele>65.0</ele>
        <time>2023-11-04T05:37:09Z</time>
      </trkpt>
      <trkpt lat="13.165748" lon="99.789132">
        <ele>66.0</ele>
        <time>2023-11-04T05:37:17Z</time>
      </trkpt>
      <trkpt lat="13.165707" lon="99.789102">
        <ele>66.0</ele>
        <time>2023-11-04T05:37:19Z</time>
      </trkpt>
      <trkpt lat="13.165496" lon="99.789039">
        <ele>67.0</ele>
        <time>2023-11-04T05:37:27Z</time>
      </trkpt>
      <trkpt lat="13.165370" lon="99.788928">
        <ele>66.0</ele>
        <time>2023-11-04T05:37:50Z</time>
      </trkpt>
      <trkpt lat="13.165319" lon="99.788917">
        <ele>66.0</ele>
        <time>2023-11-04T05:37:52Z</time>
      </trkpt>
      <trkpt lat="13.165235" lon="99.788961">
        <ele>66.2</ele>
        <time>2023-11-04T05:37:56Z</time>
      </trkpt>
      <trkpt lat="13.165109" lon="99.789095">
        <ele>64.2</ele>
        <time>2023-11-04T05:38:01Z</time>
      </trkpt>
      <trkpt lat="13.165028" lon="99.789158">
        <ele>63.0</ele>
        <time>2023-11-04T05:38:03Z</time>
      </trkpt>
      <trkpt lat="13.164996" lon="99.789203">
        <ele>62.8</ele>
        <time>2023-11-04T05:38:04Z</time>
      </trkpt>
      <trkpt lat="13.164914" lon="99.789282">
        <ele>61.4</ele>
        <time>2023-11-04T05:38:06Z</time>
      </trkpt>
      <trkpt lat="13.164867" lon="99.789308">
        <ele>61.4</ele>
        <time>2023-11-04T05:38:07Z</time>
      </trkpt>
      <trkpt lat="13.164778" lon="99.789411">
        <ele>61.1</ele>
        <time>2023-11-04T05:38:09Z</time>
      </trkpt>
      <trkpt lat="13.164716" lon="99.789444">
        <ele>60.2</ele>
        <time>2023-11-04T05:38:10Z</time>
      </trkpt>
      <trkpt lat="13.164532" lon="99.789580">
        <ele>59.2</ele>
        <time>2023-11-04T05:38:13Z</time>
      </trkpt>
      <trkpt lat="13.164322" lon="99.789806">
        <ele>58.1</ele>
        <time>2023-11-04T05:38:18Z</time>
      </trkpt>
      <trkpt lat="13.164285" lon="99.789813">
        <ele>56.9</ele>
        <time>2023-11-04T05:38:19Z</time>
      </trkpt>
      <trkpt lat="13.164195" lon="99.789864">
        <ele>55.2</ele>
        <time>2023-11-04T05:38:21Z</time>
      </trkpt>
      <trkpt lat="13.164159" lon="99.789904">
        <ele>54.8</ele>
        <time>2023-11-04T05:38:22Z</time>
      </trkpt>
      <trkpt lat="13.164061" lon="99.789953">
        <ele>54.6</ele>
        <time>2023-11-04T05:38:24Z</time>
      </trkpt>
      <trkpt lat="13.164022" lon="99.789987">
        <ele>54.4</ele>
        <time>2023-11-04T05:38:25Z</time>
      </trkpt>
      <trkpt lat="13.163755" lon="99.790568">
        <ele>53.9</ele>
        <time>2023-11-04T05:38:37Z</time>
      </trkpt>
      <trkpt lat="13.163722" lon="99.790744">
        <ele>52.8</ele>
        <time>2023-11-04T05:38:40Z</time>
      </trkpt>
      <trkpt lat="13.163705" lon="99.790939">
        <ele>51.6</ele>
        <time>2023-11-04T05:38:43Z</time>
      </trkpt>
      <trkpt lat="13.163741" lon="99.791228">
        <ele>50.6</ele>
        <time>2023-11-04T05:38:47Z</time>
      </trkpt>
      <trkpt lat="13.163730" lon="99.791383">
        <ele>49.9</ele>
        <time>2023-11-04T05:38:49Z</time>
      </trkpt>
      <trkpt lat="13.163747" lon="99.791520">
        <ele>50.2</ele>
        <time>2023-11-04T05:38:51Z</time>
      </trkpt>
      <trkpt lat="13.163751" lon="99.791654">
        <ele>49.0</ele>
        <time>2023-11-04T05:38:53Z</time>
      </trkpt>
      <trkpt lat="13.163737" lon="99.791727">
        <ele>48.6</ele>
        <time>2023-11-04T05:38:54Z</time>
      </trkpt>
      <trkpt lat="13.163729" lon="99.791926">
        <ele>47.0</ele>
        <time>2023-11-04T05:38:57Z</time>
      </trkpt>
      <trkpt lat="13.163695" lon="99.791967">
        <ele>46.6</ele>
        <time>2023-11-04T05:38:58Z</time>
      </trkpt>
      <trkpt lat="13.163639" lon="99.791992">
        <ele>46.3</ele>
        <time>2023-11-04T05:38:59Z</time>
      </trkpt>
      <trkpt lat="13.163490" lon="99.792010">
        <ele>46.0</ele>
        <time>2023-11-04T05:39:36Z</time>
      </trkpt>
      <trkpt lat="13.163357" lon="99.792081">
        <ele>45.9</ele>
        <time>2023-11-04T05:39:51Z</time>
      </trkpt>
      <trkpt lat="13.163287" lon="99.792101">
        <ele>46.3</ele>
        <time>2023-11-04T05:39:53Z</time>
      </trkpt>
      <trkpt lat="13.162954" lon="99.792255">
        <ele>46.0</ele>
        <time>2023-11-04T05:40:02Z</time>
      </trkpt>
      <trkpt lat="13.162888" lon="99.792298">
        <ele>45.7</ele>
        <time>2023-11-04T05:40:04Z</time>
      </trkpt>
      <trkpt lat="13.162803" lon="99.792374">
        <ele>45.7</ele>
        <time>2023-11-04T05:40:07Z</time>
      </trkpt>
      <trkpt lat="13.162616" lon="99.792469">
        <ele>47.0</ele>
        <time>2023-11-04T05:40:13Z</time>
      </trkpt>
      <trkpt lat="13.162582" lon="99.792473">
        <ele>47.2</ele>
        <time>2023-11-04T05:40:14Z</time>
      </trkpt>
      <trkpt lat="13.162483" lon="99.792512">
        <ele>47.4</ele>
        <time>2023-11-04T05:40:17Z</time>
      </trkpt>
      <trkpt lat="13.162387" lon="99.792576">
        <ele>47.4</ele>
        <time>2023-11-04T05:40:20Z</time>
      </trkpt>
      <trkpt lat="13.162316" lon="99.792598">
        <ele>47.7</ele>
        <time>2023-11-04T05:40:22Z</time>
      </trkpt>
      <trkpt lat="13.162211" lon="99.792647">
        <ele>47.9</ele>
        <time>2023-11-04T05:40:26Z</time>
      </trkpt>
      <trkpt lat="13.162173" lon="99.792642">
        <ele>48.0</ele>
        <time>2023-11-04T05:40:27Z</time>
      </trkpt>
      <trkpt lat="13.162098" lon="99.792509">
        <ele>48.6</ele>
        <time>2023-11-04T05:40:32Z</time>
      </trkpt>
      <trkpt lat="13.162004" lon="99.792459">
        <ele>48.3</ele>
        <time>2023-11-04T05:40:35Z</time>
      </trkpt>
      <trkpt lat="13.161873" lon="99.792462">
        <ele>47.2</ele>
        <time>2023-11-04T05:40:38Z</time>
      </trkpt>
      <trkpt lat="13.161831" lon="99.792473">
        <ele>47.2</ele>
        <time>2023-11-04T05:40:39Z</time>
      </trkpt>
      <trkpt lat="13.161808" lon="99.792497">
        <ele>46.7</ele>
        <time>2023-11-04T05:40:40Z</time>
      </trkpt>
      <trkpt lat="13.161809" lon="99.792538">
        <ele>46.0</ele>
        <time>2023-11-04T05:40:41Z</time>
      </trkpt>
      <trkpt lat="13.161879" lon="99.792604">
        <ele>46.5</ele>
        <time>2023-11-04T05:40:45Z</time>
      </trkpt>
      <trkpt lat="13.161911" lon="99.792674">
        <ele>46.0</ele>
        <time>2023-11-04T05:40:48Z</time>
      </trkpt>
      <trkpt lat="13.161917" lon="99.792763">
        <ele>46.5</ele>
        <time>2023-11-04T05:40:51Z</time>
      </trkpt>
      <trkpt lat="13.161909" lon="99.792806">
        <ele>46.5</ele>
        <time>2023-11-04T05:40:52Z</time>
      </trkpt>
      <trkpt lat="13.161886" lon="99.792841">
        <ele>45.9</ele>
        <time>2023-11-04T05:40:53Z</time>
      </trkpt>
      <trkpt lat="13.161878" lon="99.792920">
        <ele>43.8</ele>
        <time>2023-11-04T05:40:55Z</time>
      </trkpt>
      <trkpt lat="13.161900" lon="99.792951">
        <ele>43.2</ele>
        <time>2023-11-04T05:40:56Z</time>
      </trkpt>
      <trkpt lat="13.161966" lon="99.792970">
        <ele>44.7</ele>
        <time>2023-11-04T05:40:58Z</time>
      </trkpt>
      <trkpt lat="13.162042" lon="99.793045">
        <ele>46.5</ele>
        <time>2023-11-04T05:41:01Z</time>
      </trkpt>
      <trkpt lat="13.162057" lon="99.793080">
        <ele>46.7</ele>
        <time>2023-11-04T05:41:02Z</time>
      </trkpt>
      <trkpt lat="13.162085" lon="99.793224">
        <ele>47.4</ele>
        <time>2023-11-04T05:41:06Z</time>
      </trkpt>
      <trkpt lat="13.162109" lon="99.793260">
        <ele>48.0</ele>
        <time>2023-11-04T05:41:07Z</time>
      </trkpt>
      <trkpt lat="13.162116" lon="99.793300">
        <ele>48.0</ele>
        <time>2023-11-04T05:41:08Z</time>
      </trkpt>
      <trkpt lat="13.162084" lon="99.793383">
        <ele>48.0</ele>
        <time>2023-11-04T05:41:12Z</time>
      </trkpt>
      <trkpt lat="13.162000" lon="99.793497">
        <ele>46.3</ele>
        <time>2023-11-04T05:41:17Z</time>
      </trkpt>
      <trkpt lat="13.161977" lon="99.793610">
        <ele>45.1</ele>
        <time>2023-11-04T05:41:19Z</time>
      </trkpt>
      <trkpt lat="13.161932" lon="99.793703">
        <ele>45.6</ele>
        <time>2023-11-04T05:41:21Z</time>
      </trkpt>
      <trkpt lat="13.161922" lon="99.793745">
        <ele>45.8</ele>
        <time>2023-11-04T05:41:22Z</time>
      </trkpt>
      <trkpt lat="13.161944" lon="99.793823">
        <ele>46.1</ele>
        <time>2023-11-04T05:41:24Z</time>
      </trkpt>
      <trkpt lat="13.161929" lon="99.793950">
        <ele>46.1</ele>
        <time>2023-11-04T05:41:27Z</time>
      </trkpt>
      <trkpt lat="13.161970" lon="99.794092">
        <ele>46.3</ele>
        <time>2023-11-04T05:41:31Z</time>
      </trkpt>
      <trkpt lat="13.162058" lon="99.794211">
        <ele>46.1</ele>
        <time>2023-11-04T05:41:34Z</time>
      </trkpt>
      <trkpt lat="13.162064" lon="99.794256">
        <ele>46.2</ele>
        <time>2023-11-04T05:41:35Z</time>
      </trkpt>
      <trkpt lat="13.162060" lon="99.794300">
        <ele>46.2</ele>
        <time>2023-11-04T05:41:36Z</time>
      </trkpt>
      <trkpt lat="13.161951" lon="99.794645">
        <ele>45.7</ele>
        <time>2023-11-04T05:41:44Z</time>
      </trkpt>
      <trkpt lat="13.161956" lon="99.794745">
        <ele>45.1</ele>
        <time>2023-11-04T05:41:46Z</time>
      </trkpt>
      <trkpt lat="13.161939" lon="99.795108">
        <ele>43.2</ele>
        <time>2023-11-04T05:41:53Z</time>
      </trkpt>
      <trkpt lat="13.161956" lon="99.795156">
        <ele>43.5</ele>
        <time>2023-11-04T05:41:54Z</time>
      </trkpt>
      <trkpt lat="13.161989" lon="99.795192">
        <ele>43.7</ele>
        <time>2023-11-04T05:41:55Z</time>
      </trkpt>
      <trkpt lat="13.162026" lon="99.795212">
        <ele>43.6</ele>
        <time>2023-11-04T05:41:56Z</time>
      </trkpt>
      <trkpt lat="13.162069" lon="99.795215">
        <ele>43.8</ele>
        <time>2023-11-04T05:41:57Z</time>
      </trkpt>
      <trkpt lat="13.162151" lon="99.795194">
        <ele>43.7</ele>
        <time>2023-11-04T05:41:59Z</time>
      </trkpt>
      <trkpt lat="13.162234" lon="99.795195">
        <ele>44.0</ele>
        <time>2023-11-04T05:42:01Z</time>
      </trkpt>
      <trkpt lat="13.162277" lon="99.795188">
        <ele>44.0</ele>
        <time>2023-11-04T05:42:02Z</time>
      </trkpt>
      <trkpt lat="13.162320" lon="99.795168">
        <ele>43.9</ele>
        <time>2023-11-04T05:42:03Z</time>
      </trkpt>
      <trkpt lat="13.162365" lon="99.795167">
        <ele>43.8</ele>
        <time>2023-11-04T05:42:04Z</time>
      </trkpt>
      <trkpt lat="13.162577" lon="99.795213">
        <ele>42.4</ele>
        <time>2023-11-04T05:42:09Z</time>
      </trkpt>
      <trkpt lat="13.162694" lon="99.795298">
        <ele>40.9</ele>
        <time>2023-11-04T05:42:12Z</time>
      </trkpt>
      <trkpt lat="13.162732" lon="99.795336">
        <ele>40.9</ele>
        <time>2023-11-04T05:42:13Z</time>
      </trkpt>
      <trkpt lat="13.162781" lon="99.795435">
        <ele>40.9</ele>
        <time>2023-11-04T05:42:15Z</time>
      </trkpt>
      <trkpt lat="13.162807" lon="99.795545">
        <ele>40.8</ele>
        <time>2023-11-04T05:42:17Z</time>
      </trkpt>
      <trkpt lat="13.162870" lon="99.795630">
        <ele>40.8</ele>
        <time>2023-11-04T05:42:19Z</time>
      </trkpt>
      <trkpt lat="13.162891" lon="99.795698">
        <ele>40.1</ele>
        <time>2023-11-04T05:42:21Z</time>
      </trkpt>
      <trkpt lat="13.162926" lon="99.795765">
        <ele>40.7</ele>
        <time>2023-11-04T05:42:23Z</time>
      </trkpt>
      <trkpt lat="13.162988" lon="99.795836">
        <ele>41.4</ele>
        <time>2023-11-04T05:42:25Z</time>
      </trkpt>
      <trkpt lat="13.163069" lon="99.795902">
        <ele>40.9</ele>
        <time>2023-11-04T05:42:27Z</time>
      </trkpt>
      <trkpt lat="13.163117" lon="99.795926">
        <ele>41.1</ele>
        <time>2023-11-04T05:42:28Z</time>
      </trkpt>
      <trkpt lat="13.163234" lon="99.795925">
        <ele>41.1</ele>
        <time>2023-11-04T05:42:31Z</time>
      </trkpt>
      <trkpt lat="13.163302" lon="99.795979">
        <ele>40.6</ele>
        <time>2023-11-04T05:42:33Z</time>
      </trkpt>
      <trkpt lat="13.163370" lon="99.796233">
        <ele>40.0</ele>
        <time>2023-11-04T05:42:38Z</time>
      </trkpt>
      <trkpt lat="13.163406" lon="99.796330">
        <ele>39.9</ele>
        <time>2023-11-04T05:42:40Z</time>
      </trkpt>
      <trkpt lat="13.163491" lon="99.796506">
        <ele>39.8</ele>
        <time>2023-11-04T05:42:44Z</time>
      </trkpt>
      <trkpt lat="13.163564" lon="99.796846">
        <ele>40.8</ele>
        <time>2023-11-04T05:42:51Z</time>
      </trkpt>
      <trkpt lat="13.163557" lon="99.796951">
        <ele>40.6</ele>
        <time>2023-11-04T05:42:53Z</time>
      </trkpt>
      <trkpt lat="13.163540" lon="99.797010">
        <ele>40.4</ele>
        <time>2023-11-04T05:42:54Z</time>
      </trkpt>
      <trkpt lat="13.163509" lon="99.797065">
        <ele>39.8</ele>
        <time>2023-11-04T05:42:55Z</time>
      </trkpt>
      <trkpt lat="13.163491" lon="99.797137">
        <ele>38.1</ele>
        <time>2023-11-04T05:42:56Z</time>
      </trkpt>
      <trkpt lat="13.163452" lon="99.797186">
        <ele>38.8</ele>
        <time>2023-11-04T05:42:57Z</time>
      </trkpt>
      <trkpt lat="13.163333" lon="99.797436">
        <ele>40.1</ele>
        <time>2023-11-04T05:43:02Z</time>
      </trkpt>
      <trkpt lat="13.163315" lon="99.797530">
        <ele>40.4</ele>
        <time>2023-11-04T05:43:04Z</time>
      </trkpt>
      <trkpt lat="13.163320" lon="99.797575">
        <ele>40.0</ele>
        <time>2023-11-04T05:43:05Z</time>
      </trkpt>
      <trkpt lat="13.163353" lon="99.797599">
        <ele>38.0</ele>
        <time>2023-11-04T05:43:16Z</time>
      </trkpt>
      <trkpt lat="13.163410" lon="99.797611">
        <ele>40.0</ele>
        <time>2023-11-04T05:43:28Z</time>
      </trkpt>
      <trkpt lat="13.163449" lon="99.797591">
        <ele>40.0</ele>
        <time>2023-11-04T05:43:30Z</time>
      </trkpt>
      <trkpt lat="13.163499" lon="99.797533">
        <ele>41.5</ele>
        <time>2023-11-04T05:43:33Z</time>
      </trkpt>
      <trkpt lat="13.163587" lon="99.797388">
        <ele>42.1</ele>
        <time>2023-11-04T05:43:38Z</time>
      </trkpt>
      <trkpt lat="13.163631" lon="99.797334">
        <ele>42.1</ele>
        <time>2023-11-04T05:43:40Z</time>
      </trkpt>
      <trkpt lat="13.163660" lon="99.797262">
        <ele>42.0</ele>
        <time>2023-11-04T05:43:42Z</time>
      </trkpt>
      <trkpt lat="13.163690" lon="99.797226">
        <ele>41.8</ele>
        <time>2023-11-04T05:43:43Z</time>
      </trkpt>
      <trkpt lat="13.163812" lon="99.797127">
        <ele>42.8</ele>
        <time>2023-11-04T05:43:46Z</time>
      </trkpt>
      <trkpt lat="13.163891" lon="99.797091">
        <ele>43.4</ele>
        <time>2023-11-04T05:43:49Z</time>
      </trkpt>
      <trkpt lat="13.163963" lon="99.797006">
        <ele>44.0</ele>
        <time>2023-11-04T05:43:52Z</time>
      </trkpt>
      <trkpt lat="13.164005" lon="99.796979">
        <ele>43.0</ele>
        <time>2023-11-04T05:43:54Z</time>
      </trkpt>
      <trkpt lat="13.164051" lon="99.796968">
        <ele>44.0</ele>
        <time>2023-11-04T05:43:56Z</time>
      </trkpt>
      <trkpt lat="13.164199" lon="99.796847">
        <ele>43.3</ele>
        <time>2023-11-04T05:44:01Z</time>
      </trkpt>
      <trkpt lat="13.164244" lon="99.796742">
        <ele>42.5</ele>
        <time>2023-11-04T05:44:04Z</time>
      </trkpt>
      <trkpt lat="13.164316" lon="99.796682">
        <ele>43.1</ele>
        <time>2023-11-04T05:44:06Z</time>
      </trkpt>
      <trkpt lat="13.164370" lon="99.796617">
        <ele>43.9</ele>
        <time>2023-11-04T05:44:08Z</time>
      </trkpt>
      <trkpt lat="13.164509" lon="99.796513">
        <ele>44.7</ele>
        <time>2023-11-04T05:44:12Z</time>
      </trkpt>
      <trkpt lat="13.164560" lon="99.796458">
        <ele>44.3</ele>
        <time>2023-11-04T05:44:14Z</time>
      </trkpt>
      <trkpt lat="13.164594" lon="99.796436">
        <ele>44.4</ele>
        <time>2023-11-04T05:44:15Z</time>
      </trkpt>
      <trkpt lat="13.164675" lon="99.796409">
        <ele>44.2</ele>
        <time>2023-11-04T05:44:17Z</time>
      </trkpt>
      <trkpt lat="13.164699" lon="99.796386">
        <ele>44.8</ele>
        <time>2023-11-04T05:44:18Z</time>
      </trkpt>
      <trkpt lat="13.164744" lon="99.796376">
        <ele>44.0</ele>
        <time>2023-11-04T05:44:19Z</time>
      </trkpt>
      <trkpt lat="13.164839" lon="99.796391">
        <ele>46.0</ele>
        <time>2023-11-04T05:44:23Z</time>
      </trkpt>
      <trkpt lat="13.164881" lon="99.796379">
        <ele>46.1</ele>
        <time>2023-11-04T05:44:25Z</time>
      </trkpt>
      <trkpt lat="13.164936" lon="99.796342">
        <ele>45.6</ele>
        <time>2023-11-04T05:44:27Z</time>
      </trkpt>
      <trkpt lat="13.165025" lon="99.796313">
        <ele>46.0</ele>
        <time>2023-11-04T05:44:30Z</time>
      </trkpt>
      <trkpt lat="13.165234" lon="99.796286">
        <ele>45.1</ele>
        <time>2023-11-04T05:44:36Z</time>
      </trkpt>
      <trkpt lat="13.165426" lon="99.796201">
        <ele>46.3</ele>
        <time>2023-11-04T05:44:41Z</time>
      </trkpt>
      <trkpt lat="13.165750" lon="99.796258">
        <ele>48.5</ele>
        <time>2023-11-04T05:44:50Z</time>
      </trkpt>
      <trkpt lat="13.165964" lon="99.796267">
        <ele>50.0</ele>
        <time>2023-11-04T05:44:57Z</time>
      </trkpt>
      <trkpt lat="13.166003" lon="99.796281">
        <ele>50.0</ele>
        <time>2023-11-04T05:44:59Z</time>
      </trkpt>
      <trkpt lat="13.166061" lon="99.796361">
        <ele>50.0</ele>
        <time>2023-11-04T05:45:03Z</time>
      </trkpt>
      <trkpt lat="13.166103" lon="99.796388">
        <ele>50.0</ele>
        <time>2023-11-04T05:45:05Z</time>
      </trkpt>
      <trkpt lat="13.166239" lon="99.796532">
        <ele>49.0</ele>
        <time>2023-11-04T05:45:14Z</time>
      </trkpt>
      <trkpt lat="13.166327" lon="99.796701">
        <ele>50.0</ele>
        <time>2023-11-04T05:45:23Z</time>
      </trkpt>
      <trkpt lat="13.166375" lon="99.796701">
        <ele>50.0</ele>
        <time>2023-11-04T05:45:26Z</time>
      </trkpt>
      <trkpt lat="13.166414" lon="99.796649">
        <ele>51.0</ele>
        <time>2023-11-04T05:45:29Z</time>
      </trkpt>
      <trkpt lat="13.166475" lon="99.796617">
        <ele>50.0</ele>
        <time>2023-11-04T05:45:31Z</time>
      </trkpt>
      <trkpt lat="13.166737" lon="99.796614">
        <ele>51.1</ele>
        <time>2023-11-04T05:45:39Z</time>
      </trkpt>
      <trkpt lat="13.166865" lon="99.796636">
        <ele>50.2</ele>
        <time>2023-11-04T05:45:42Z</time>
      </trkpt>
      <trkpt lat="13.167029" lon="99.796647">
        <ele>49.4</ele>
        <time>2023-11-04T05:45:45Z</time>
      </trkpt>
      <trkpt lat="13.167359" lon="99.796570">
        <ele>48.4</ele>
        <time>2023-11-04T05:45:51Z</time>
      </trkpt>
      <trkpt lat="13.167571" lon="99.796424">
        <ele>49.2</ele>
        <time>2023-11-04T05:45:56Z</time>
      </trkpt>
      <trkpt lat="13.167681" lon="99.796335">
        <ele>49.5</ele>
        <time>2023-11-04T05:45:59Z</time>
      </trkpt>
      <trkpt lat="13.167804" lon="99.796216">
        <ele>50.1</ele>
        <time>2023-11-04T05:46:03Z</time>
      </trkpt>
      <trkpt lat="13.167879" lon="99.796109">
        <ele>50.2</ele>
        <time>2023-11-04T05:46:06Z</time>
      </trkpt>
      <trkpt lat="13.167939" lon="99.795950">
        <ele>50.4</ele>
        <time>2023-11-04T05:46:10Z</time>
      </trkpt>
      <trkpt lat="13.167965" lon="99.795830">
        <ele>50.0</ele>
        <time>2023-11-04T05:46:13Z</time>
      </trkpt>
      <trkpt lat="13.167996" lon="99.795744">
        <ele>50.0</ele>
        <time>2023-11-04T05:46:16Z</time>
      </trkpt>
      <trkpt lat="13.168104" lon="99.795526">
        <ele>53.5</ele>
        <time>2023-11-04T05:46:24Z</time>
      </trkpt>
      <trkpt lat="13.168280" lon="99.795302">
        <ele>53.5</ele>
        <time>2023-11-04T05:46:30Z</time>
      </trkpt>
      <trkpt lat="13.168355" lon="99.795118">
        <ele>53.0</ele>
        <time>2023-11-04T05:46:34Z</time>
      </trkpt>
      <trkpt lat="13.168546" lon="99.794786">
        <ele>52.3</ele>
        <time>2023-11-04T05:46:41Z</time>
      </trkpt>
      <trkpt lat="13.168577" lon="99.794682">
        <ele>52.1</ele>
        <time>2023-11-04T05:46:43Z</time>
      </trkpt>
      <trkpt lat="13.168577" lon="99.794634">
        <ele>52.2</ele>
        <time>2023-11-04T05:46:44Z</time>
      </trkpt>
      <trkpt lat="13.168551" lon="99.794561">
        <ele>52.2</ele>
        <time>2023-11-04T05:46:46Z</time>
      </trkpt>
      <trkpt lat="13.168507" lon="99.794319">
        <ele>51.8</ele>
        <time>2023-11-04T05:46:55Z</time>
      </trkpt>
      <trkpt lat="13.168508" lon="99.794212">
        <ele>50.0</ele>
        <time>2023-11-04T05:46:58Z</time>
      </trkpt>
      <trkpt lat="13.168518" lon="99.794163">
        <ele>48.0</ele>
        <time>2023-11-04T05:47:05Z</time>
      </trkpt>
      <trkpt lat="13.168543" lon="99.794136">
        <ele>50.2</ele>
        <time>2023-11-04T05:47:09Z</time>
      </trkpt>
      <trkpt lat="13.168580" lon="99.794137">
        <ele>50.0</ele>
        <time>2023-11-04T05:47:10Z</time>
      </trkpt>
      <trkpt lat="13.168838" lon="99.794214">
        <ele>48.0</ele>
        <time>2023-11-04T05:47:20Z</time>
      </trkpt>
      <trkpt lat="13.169108" lon="99.794328">
        <ele>48.0</ele>
        <time>2023-11-04T05:47:29Z</time>
      </trkpt>
      <trkpt lat="13.169220" lon="99.794392">
        <ele>48.0</ele>
        <time>2023-11-04T05:47:34Z</time>
      </trkpt>
      <trkpt lat="13.169327" lon="99.794489">
        <ele>50.0</ele>
        <time>2023-11-04T05:47:40Z</time>
      </trkpt>
      <trkpt lat="13.169339" lon="99.794527">
        <ele>50.0</ele>
        <time>2023-11-04T05:47:42Z</time>
      </trkpt>
      <trkpt lat="13.169325" lon="99.794568">
        <ele>50.0</ele>
        <time>2023-11-04T05:47:44Z</time>
      </trkpt>
      <trkpt lat="13.169100" lon="99.794835">
        <ele>46.2</ele>
        <time>2023-11-04T05:48:13Z</time>
      </trkpt>
      <trkpt lat="13.169030" lon="99.795003">
        <ele>46.1</ele>
        <time>2023-11-04T05:48:18Z</time>
      </trkpt>
      <trkpt lat="13.169003" lon="99.795118">
        <ele>45.6</ele>
        <time>2023-11-04T05:48:21Z</time>
      </trkpt>
      <trkpt lat="13.169006" lon="99.795158">
        <ele>44.9</ele>
        <time>2023-11-04T05:48:22Z</time>
      </trkpt>
      <trkpt lat="13.169034" lon="99.795227">
        <ele>45.3</ele>
        <time>2023-11-04T05:48:24Z</time>
      </trkpt>
      <trkpt lat="13.169032" lon="99.795268">
        <ele>45.1</ele>
        <time>2023-11-04T05:48:25Z</time>
      </trkpt>
      <trkpt lat="13.169013" lon="99.795307">
        <ele>45.0</ele>
        <time>2023-11-04T05:48:26Z</time>
      </trkpt>
      <trkpt lat="13.168983" lon="99.795340">
        <ele>45.0</ele>
        <time>2023-11-04T05:48:27Z</time>
      </trkpt>
      <trkpt lat="13.168802" lon="99.795411">
        <ele>44.2</ele>
        <time>2023-11-04T05:48:32Z</time>
      </trkpt>
      <trkpt lat="13.168769" lon="99.795435">
        <ele>44.0</ele>
        <time>2023-11-04T05:48:33Z</time>
      </trkpt>
      <trkpt lat="13.168737" lon="99.795500">
        <ele>44.3</ele>
        <time>2023-11-04T05:48:35Z</time>
      </trkpt>
      <trkpt lat="13.168739" lon="99.795608">
        <ele>44.0</ele>
        <time>2023-11-04T05:48:38Z</time>
      </trkpt>
      <trkpt lat="13.168780" lon="99.795777">
        <ele>42.6</ele>
        <time>2023-11-04T05:48:42Z</time>
      </trkpt>
      <trkpt lat="13.168784" lon="99.795884">
        <ele>41.8</ele>
        <time>2023-11-04T05:48:44Z</time>
      </trkpt>
      <trkpt lat="13.168816" lon="99.795989">
        <ele>42.4</ele>
        <time>2023-11-04T05:48:46Z</time>
      </trkpt>
      <trkpt lat="13.168945" lon="99.796231">
        <ele>42.0</ele>
        <time>2023-11-04T05:48:52Z</time>
      </trkpt>
      <trkpt lat="13.169006" lon="99.796292">
        <ele>42.0</ele>
        <time>2023-11-04T05:48:56Z</time>
      </trkpt>
      <trkpt lat="13.169031" lon="99.796333">
        <ele>43.5</ele>
        <time>2023-11-04T05:48:58Z</time>
      </trkpt>
      <trkpt lat="13.169088" lon="99.796621">
        <ele>44.0</ele>
        <time>2023-11-04T05:49:07Z</time>
      </trkpt>
      <trkpt lat="13.169121" lon="99.796660">
        <ele>44.0</ele>
        <time>2023-11-04T05:49:09Z</time>
      </trkpt>
      <trkpt lat="13.169170" lon="99.796661">
        <ele>44.0</ele>
        <time>2023-11-04T05:49:11Z</time>
      </trkpt>
      <trkpt lat="13.169200" lon="99.796632">
        <ele>44.0</ele>
        <time>2023-11-04T05:49:13Z</time>
      </trkpt>
      <trkpt lat="13.169235" lon="99.796632">
        <ele>44.0</ele>
        <time>2023-11-04T05:49:15Z</time>
      </trkpt>
      <trkpt lat="13.169278" lon="99.796684">
        <ele>46.0</ele>
        <time>2023-11-04T05:49:20Z</time>
      </trkpt>
      <trkpt lat="13.169277" lon="99.796772">
        <ele>45.3</ele>
        <time>2023-11-04T05:49:24Z</time>
      </trkpt>
      <trkpt lat="13.169248" lon="99.796898">
        <ele>44.0</ele>
        <time>2023-11-04T05:49:27Z</time>
      </trkpt>
      <trkpt lat="13.169248" lon="99.796939">
        <ele>44.0</ele>
        <time>2023-11-04T05:49:29Z</time>
      </trkpt>
      <trkpt lat="13.169323" lon="99.797112">
        <ele>42.0</ele>
        <time>2023-11-04T05:49:42Z</time>
      </trkpt>
      <trkpt lat="13.169352" lon="99.797136">
        <ele>44.0</ele>
        <time>2023-11-04T05:49:45Z</time>
      </trkpt>
      <trkpt lat="13.169502" lon="99.797194">
        <ele>45.0</ele>
        <time>2023-11-04T05:49:56Z</time>
      </trkpt>
      <trkpt lat="13.169543" lon="99.797192">
        <ele>45.0</ele>
        <time>2023-11-04T05:49:59Z</time>
      </trkpt>
      <trkpt lat="13.169589" lon="99.797204">
        <ele>46.0</ele>
        <time>2023-11-04T05:50:01Z</time>
      </trkpt>
      <trkpt lat="13.169615" lon="99.797226">
        <ele>45.0</ele>
        <time>2023-11-04T05:50:04Z</time>
      </trkpt>
      <trkpt lat="13.169703" lon="99.797249">
        <ele>45.0</ele>
        <time>2023-11-04T05:50:31Z</time>
      </trkpt>
      <trkpt lat="13.169742" lon="99.797274">
        <ele>42.0</ele>
        <time>2023-11-04T05:51:26Z</time>
      </trkpt>
      <trkpt lat="13.169775" lon="99.797349">
        <ele>44.0</ele>
        <time>2023-11-04T05:51:42Z</time>
      </trkpt>
      <trkpt lat="13.169686" lon="99.797649">
        <ele>45.0</ele>
        <time>2023-11-04T05:52:06Z</time>
      </trkpt>
      <trkpt lat="13.169587" lon="99.797790">
        <ele>39.0</ele>
        <time>2023-11-04T05:52:47Z</time>
      </trkpt>
      <trkpt lat="13.169622" lon="99.797788">
        <ele>41.0</ele>
        <time>2023-11-04T05:53:13Z</time>
      </trkpt>
      <trkpt lat="13.169690" lon="99.797862">
        <ele>42.0</ele>
        <time>2023-11-04T05:53:19Z</time>
      </trkpt>
      <trkpt lat="13.169781" lon="99.797902">
        <ele>42.0</ele>
        <time>2023-11-04T05:53:23Z</time>
      </trkpt>
      <trkpt lat="13.169875" lon="99.797973">
        <ele>43.5</ele>
        <time>2023-11-04T05:53:28Z</time>
      </trkpt>
      <trkpt lat="13.169914" lon="99.797983">
        <ele>43.4</ele>
        <time>2023-11-04T05:53:29Z</time>
      </trkpt>
      <trkpt lat="13.170225" lon="99.797954">
        <ele>44.9</ele>
        <time>2023-11-04T05:53:39Z</time>
      </trkpt>
      <trkpt lat="13.170400" lon="99.797962">
        <ele>45.1</ele>
        <time>2023-11-04T05:53:44Z</time>
      </trkpt>
      <trkpt lat="13.170599" lon="99.797900">
        <ele>46.1</ele>
        <time>2023-11-04T05:53:50Z</time>
      </trkpt>
      <trkpt lat="13.170674" lon="99.797896">
        <ele>45.0</ele>
        <time>2023-11-04T05:53:53Z</time>
      </trkpt>
      <trkpt lat="13.170706" lon="99.797861">
        <ele>44.0</ele>
        <time>2023-11-04T05:53:55Z</time>
      </trkpt>
      <trkpt lat="13.170737" lon="99.797771">
        <ele>45.0</ele>
        <time>2023-11-04T05:53:59Z</time>
      </trkpt>
      <trkpt lat="13.170752" lon="99.797662">
        <ele>46.0</ele>
        <time>2023-11-04T05:54:03Z</time>
      </trkpt>
      <trkpt lat="13.170780" lon="99.797616">
        <ele>46.0</ele>
        <time>2023-11-04T05:54:05Z</time>
      </trkpt>
      <trkpt lat="13.170867" lon="99.797542">
        <ele>46.0</ele>
        <time>2023-11-04T05:55:31Z</time>
      </trkpt>
    </trkseg>
    <trkseg>
      <trkpt lat="13.170496" lon="99.798576">
        <ele>45.4</ele>
        <time>2023-11-04T05:56:23Z</time>
      </trkpt>
      <trkpt lat="13.170466" lon="99.798662">
        <ele>44.9</ele>
        <time>2023-11-04T05:56:26Z</time>
      </trkpt>
      <trkpt lat="13.170426" lon="99.798847">
        <ele>45.0</ele>
        <time>2023-11-04T05:56:31Z</time>
      </trkpt>
      <trkpt lat="13.170359" lon="99.799027">
        <ele>45.6</ele>
        <time>2023-11-04T05:56:36Z</time>
      </trkpt>
      <trkpt lat="13.170352" lon="99.799131">
        <ele>45.1</ele>
        <time>2023-11-04T05:56:39Z</time>
      </trkpt>
      <trkpt lat="13.170389" lon="99.799176">
        <ele>26.0</ele>
        <time>2023-11-04T05:56:52Z</time>
      </trkpt>
      <trkpt lat="13.170556" lon="99.799307">
        <ele>44.0</ele>
        <time>2023-11-04T05:57:12Z</time>
      </trkpt>
      <trkpt lat="13.170692" lon="99.799503">
        <ele>43.9</ele>
        <time>2023-11-04T05:57:19Z</time>
      </trkpt>
      <trkpt lat="13.170824" lon="99.799598">
        <ele>43.0</ele>
        <time>2023-11-04T05:57:23Z</time>
      </trkpt>
      <trkpt lat="13.170880" lon="99.799654">
        <ele>42.6</ele>
        <time>2023-11-04T05:57:25Z</time>
      </trkpt>
      <trkpt lat="13.170921" lon="99.799733">
        <ele>41.6</ele>
        <time>2023-11-04T05:57:27Z</time>
      </trkpt>
      <trkpt lat="13.170905" lon="99.799815">
        <ele>42.1</ele>
        <time>2023-11-04T05:57:29Z</time>
      </trkpt>
      <trkpt lat="13.170915" lon="99.799858">
        <ele>42.5</ele>
        <time>2023-11-04T05:57:30Z</time>
      </trkpt>
      <trkpt lat="13.170943" lon="99.799882">
        <ele>42.3</ele>
        <time>2023-11-04T05:57:31Z</time>
      </trkpt>
      <trkpt lat="13.171015" lon="99.799917">
        <ele>41.9</ele>
        <time>2023-11-04T05:57:33Z</time>
      </trkpt>
      <trkpt lat="13.171143" lon="99.800051">
        <ele>40.8</ele>
        <time>2023-11-04T05:57:37Z</time>
      </trkpt>
      <trkpt lat="13.171172" lon="99.800067">
        <ele>40.7</ele>
        <time>2023-11-04T05:57:38Z</time>
      </trkpt>
      <trkpt lat="13.171217" lon="99.800153">
        <ele>40.3</ele>
        <time>2023-11-04T05:57:41Z</time>
      </trkpt>
      <trkpt lat="13.171229" lon="99.800288">
        <ele>39.0</ele>
        <time>2023-11-04T05:57:48Z</time>
      </trkpt>
      <trkpt lat="13.171281" lon="99.800299">
        <ele>36.0</ele>
        <time>2023-11-04T05:57:51Z</time>
      </trkpt>
      <trkpt lat="13.171409" lon="99.800271">
        <ele>38.0</ele>
        <time>2023-11-04T05:57:58Z</time>
      </trkpt>
      <trkpt lat="13.171494" lon="99.800269">
        <ele>38.0</ele>
        <time>2023-11-04T05:58:02Z</time>
      </trkpt>
      <trkpt lat="13.171571" lon="99.800240">
        <ele>39.5</ele>
        <time>2023-11-04T05:58:06Z</time>
      </trkpt>
      <trkpt lat="13.171743" lon="99.800230">
        <ele>40.0</ele>
        <time>2023-11-04T05:58:13Z</time>
      </trkpt>
      <trkpt lat="13.171845" lon="99.800281">
        <ele>40.0</ele>
        <time>2023-11-04T05:58:19Z</time>
      </trkpt>
      <trkpt lat="13.171874" lon="99.800310">
        <ele>40.0</ele>
        <time>2023-11-04T05:58:21Z</time>
      </trkpt>
      <trkpt lat="13.171857" lon="99.800418">
        <ele>40.0</ele>
        <time>2023-11-04T05:58:25Z</time>
      </trkpt>
      <trkpt lat="13.171815" lon="99.800518">
        <ele>40.0</ele>
        <time>2023-11-04T05:58:29Z</time>
      </trkpt>
      <trkpt lat="13.171835" lon="99.800563">
        <ele>38.0</ele>
        <time>2023-11-04T05:58:31Z</time>
      </trkpt>
      <trkpt lat="13.171878" lon="99.800581">
        <ele>39.7</ele>
        <time>2023-11-04T05:58:33Z</time>
      </trkpt>
      <trkpt lat="13.172117" lon="99.800527">
        <ele>39.6</ele>
        <time>2023-11-04T05:58:40Z</time>
      </trkpt>
      <trkpt lat="13.172232" lon="99.800532">
        <ele>39.6</ele>
        <time>2023-11-04T05:58:43Z</time>
      </trkpt>
      <trkpt lat="13.172792" lon="99.800444">
        <ele>41.5</ele>
        <time>2023-11-04T05:59:02Z</time>
      </trkpt>
      <trkpt lat="13.173314" lon="99.800402">
        <ele>41.4</ele>
        <time>2023-11-04T05:59:16Z</time>
      </trkpt>
      <trkpt lat="13.173508" lon="99.800360">
        <ele>41.7</ele>
        <time>2023-11-04T05:59:21Z</time>
      </trkpt>
      <trkpt lat="13.173562" lon="99.800320">
        <ele>41.8</ele>
        <time>2023-11-04T05:59:23Z</time>
      </trkpt>
      <trkpt lat="13.173572" lon="99.800283">
        <ele>41.7</ele>
        <time>2023-11-04T05:59:24Z</time>
      </trkpt>
      <trkpt lat="13.173568" lon="99.800203">
        <ele>41.7</ele>
        <time>2023-11-04T05:59:26Z</time>
      </trkpt>
      <trkpt lat="13.173596" lon="99.800136">
        <ele>41.7</ele>
        <time>2023-11-04T05:59:28Z</time>
      </trkpt>
      <trkpt lat="13.173643" lon="99.800078">
        <ele>41.5</ele>
        <time>2023-11-04T05:59:30Z</time>
      </trkpt>
      <trkpt lat="13.173655" lon="99.800044">
        <ele>41.8</ele>
        <time>2023-11-04T05:59:31Z</time>
      </trkpt>
      <trkpt lat="13.173661" lon="99.799967">
        <ele>41.7</ele>
        <time>2023-11-04T05:59:33Z</time>
      </trkpt>
      <trkpt lat="13.173695" lon="99.799810">
        <ele>42.3</ele>
        <time>2023-11-04T05:59:38Z</time>
      </trkpt>
      <trkpt lat="13.173720" lon="99.799747">
        <ele>42.4</ele>
        <time>2023-11-04T05:59:40Z</time>
      </trkpt>
      <trkpt lat="13.173803" lon="99.799682">
        <ele>42.8</ele>
        <time>2023-11-04T05:59:43Z</time>
      </trkpt>
      <trkpt lat="13.173879" lon="99.799679">
        <ele>42.9</ele>
        <time>2023-11-04T05:59:45Z</time>
      </trkpt>
      <trkpt lat="13.174249" lon="99.799763">
        <ele>42.5</ele>
        <time>2023-11-04T05:59:54Z</time>
      </trkpt>
      <trkpt lat="13.174442" lon="99.799847">
        <ele>42.7</ele>
        <time>2023-11-04T05:59:58Z</time>
      </trkpt>
      <trkpt lat="13.174622" lon="99.799893">
        <ele>43.0</ele>
        <time>2023-11-04T06:00:02Z</time>
      </trkpt>
      <trkpt lat="13.174707" lon="99.799941">
        <ele>43.9</ele>
        <time>2023-11-04T06:00:04Z</time>
      </trkpt>
      <trkpt lat="13.174754" lon="99.799945">
        <ele>43.9</ele>
        <time>2023-11-04T06:00:05Z</time>
      </trkpt>
      <trkpt lat="13.174797" lon="99.799962">
        <ele>43.6</ele>
        <time>2023-11-04T06:00:06Z</time>
      </trkpt>
      <trkpt lat="13.174870" lon="99.800033">
        <ele>44.1</ele>
        <time>2023-11-04T06:00:08Z</time>
      </trkpt>
      <trkpt lat="13.174910" lon="99.800059">
        <ele>44.0</ele>
        <time>2023-11-04T06:00:09Z</time>
      </trkpt>
      <trkpt lat="13.175004" lon="99.800097">
        <ele>43.4</ele>
        <time>2023-11-04T06:00:11Z</time>
      </trkpt>
      <trkpt lat="13.175091" lon="99.800149">
        <ele>43.8</ele>
        <time>2023-11-04T06:00:13Z</time>
      </trkpt>
      <trkpt lat="13.175277" lon="99.800219">
        <ele>42.8</ele>
        <time>2023-11-04T06:00:16Z</time>
      </trkpt>
      <trkpt lat="13.175434" lon="99.800309">
        <ele>43.1</ele>
        <time>2023-11-04T06:00:20Z</time>
      </trkpt>
      <trkpt lat="13.175505" lon="99.800336">
        <ele>43.2</ele>
        <time>2023-11-04T06:00:22Z</time>
      </trkpt>
      <trkpt lat="13.175539" lon="99.800326">
        <ele>42.5</ele>
        <time>2023-11-04T06:00:23Z</time>
      </trkpt>
      <trkpt lat="13.175572" lon="99.800302">
        <ele>42.5</ele>
        <time>2023-11-04T06:00:24Z</time>
      </trkpt>
      <trkpt lat="13.175648" lon="99.800213">
        <ele>42.3</ele>
        <time>2023-11-04T06:00:27Z</time>
      </trkpt>
      <trkpt lat="13.175810" lon="99.800084">
        <ele>41.5</ele>
        <time>2023-11-04T06:00:33Z</time>
      </trkpt>
      <trkpt lat="13.176033" lon="99.799949">
        <ele>39.8</ele>
        <time>2023-11-04T06:00:39Z</time>
      </trkpt>
      <trkpt lat="13.176232" lon="99.799870">
        <ele>38.5</ele>
        <time>2023-11-04T06:00:43Z</time>
      </trkpt>
      <trkpt lat="13.176333" lon="99.799816">
        <ele>37.9</ele>
        <time>2023-11-04T06:00:45Z</time>
      </trkpt>
      <trkpt lat="13.176427" lon="99.799749">
        <ele>37.6</ele>
        <time>2023-11-04T06:00:47Z</time>
      </trkpt>
      <trkpt lat="13.176609" lon="99.799650">
        <ele>37.4</ele>
        <time>2023-11-04T06:00:51Z</time>
      </trkpt>
      <trkpt lat="13.176851" lon="99.799489">
        <ele>38.4</ele>
        <time>2023-11-04T06:00:57Z</time>
      </trkpt>
      <trkpt lat="13.176968" lon="99.799441">
        <ele>38.9</ele>
        <time>2023-11-04T06:01:01Z</time>
      </trkpt>
      <trkpt lat="13.177040" lon="99.799423">
        <ele>38.8</ele>
        <time>2023-11-04T06:01:03Z</time>
      </trkpt>
      <trkpt lat="13.177091" lon="99.799379">
        <ele>38.0</ele>
        <time>2023-11-04T06:01:05Z</time>
      </trkpt>
      <trkpt lat="13.177158" lon="99.799354">
        <ele>36.0</ele>
        <time>2023-11-04T06:01:11Z</time>
      </trkpt>
      <trkpt lat="13.177268" lon="99.799334">
        <ele>36.0</ele>
        <time>2023-11-04T06:01:22Z</time>
      </trkpt>
      <trkpt lat="13.177366" lon="99.799293">
        <ele>36.0</ele>
        <time>2023-11-04T06:01:33Z</time>
      </trkpt>
      <trkpt lat="13.177636" lon="99.799246">
        <ele>34.0</ele>
        <time>2023-11-04T06:01:45Z</time>
      </trkpt>
      <trkpt lat="13.177691" lon="99.799244">
        <ele>36.0</ele>
        <time>2023-11-04T06:01:47Z</time>
      </trkpt>
      <trkpt lat="13.177734" lon="99.799228">
        <ele>36.5</ele>
        <time>2023-11-04T06:01:49Z</time>
      </trkpt>
      <trkpt lat="13.177760" lon="99.799202">
        <ele>36.0</ele>
        <time>2023-11-04T06:01:50Z</time>
      </trkpt>
      <trkpt lat="13.178023" lon="99.799061">
        <ele>38.8</ele>
        <time>2023-11-04T06:02:01Z</time>
      </trkpt>
      <trkpt lat="13.178104" lon="99.798997">
        <ele>38.0</ele>
        <time>2023-11-04T06:02:04Z</time>
      </trkpt>
      <trkpt lat="13.178297" lon="99.798893">
        <ele>40.4</ele>
        <time>2023-11-04T06:02:15Z</time>
      </trkpt>
      <trkpt lat="13.178344" lon="99.798890">
        <ele>40.0</ele>
        <time>2023-11-04T06:02:17Z</time>
      </trkpt>
      <trkpt lat="13.178384" lon="99.798900">
        <ele>40.0</ele>
        <time>2023-11-04T06:02:19Z</time>
      </trkpt>
      <trkpt lat="13.178413" lon="99.798930">
        <ele>40.0</ele>
        <time>2023-11-04T06:02:21Z</time>
      </trkpt>
      <trkpt lat="13.178622" lon="99.799079">
        <ele>40.0</ele>
        <time>2023-11-04T06:02:34Z</time>
      </trkpt>
      <trkpt lat="13.178657" lon="99.799116">
        <ele>41.0</ele>
        <time>2023-11-04T06:02:36Z</time>
      </trkpt>
      <trkpt lat="13.178681" lon="99.799163">
        <ele>42.0</ele>
        <time>2023-11-04T06:02:38Z</time>
      </trkpt>
      <trkpt lat="13.178693" lon="99.799282">
        <ele>42.1</ele>
        <time>2023-11-04T06:02:42Z</time>
      </trkpt>
      <trkpt lat="13.178750" lon="99.799420">
        <ele>42.4</ele>
        <time>2023-11-04T06:02:46Z</time>
      </trkpt>
      <trkpt lat="13.178759" lon="99.799463">
        <ele>42.4</ele>
        <time>2023-11-04T06:02:47Z</time>
      </trkpt>
      <trkpt lat="13.178756" lon="99.799551">
        <ele>42.6</ele>
        <time>2023-11-04T06:02:49Z</time>
      </trkpt>
      <trkpt lat="13.178772" lon="99.799641">
        <ele>42.1</ele>
        <time>2023-11-04T06:02:51Z</time>
      </trkpt>
      <trkpt lat="13.178838" lon="99.799835">
        <ele>41.7</ele>
        <time>2023-11-04T06:02:55Z</time>
      </trkpt>
      <trkpt lat="13.178933" lon="99.800067">
        <ele>40.6</ele>
        <time>2023-11-04T06:02:59Z</time>
      </trkpt>
      <trkpt lat="13.179112" lon="99.800760">
        <ele>38.4</ele>
        <time>2023-11-04T06:03:10Z</time>
      </trkpt>
      <trkpt lat="13.179233" lon="99.801153">
        <ele>36.0</ele>
        <time>2023-11-04T06:03:19Z</time>
      </trkpt>
      <trkpt lat="13.179372" lon="99.801111">
        <ele>36.5</ele>
        <time>2023-11-04T06:03:22Z</time>
      </trkpt>
      <trkpt lat="13.179420" lon="99.801160">
        <ele>36.6</ele>
        <time>2023-11-04T06:03:24Z</time>
      </trkpt>
      <trkpt lat="13.179492" lon="99.801199">
        <ele>36.7</ele>
        <time>2023-11-04T06:03:27Z</time>
      </trkpt>
      <trkpt lat="13.179528" lon="99.801288">
        <ele>36.0</ele>
        <time>2023-11-04T06:03:30Z</time>
      </trkpt>
      <trkpt lat="13.179556" lon="99.801321">
        <ele>36.0</ele>
        <time>2023-11-04T06:03:33Z</time>
      </trkpt>
      <trkpt lat="13.179630" lon="99.801346">
        <ele>36.0</ele>
        <time>2023-11-04T06:03:38Z</time>
      </trkpt>
      <trkpt lat="13.179678" lon="99.801414">
        <ele>36.0</ele>
        <time>2023-11-04T06:03:42Z</time>
      </trkpt>
      <trkpt lat="13.179688" lon="99.801518">
        <ele>34.0</ele>
        <time>2023-11-04T06:03:46Z</time>
      </trkpt>
      <trkpt lat="13.179745" lon="99.801605">
        <ele>35.3</ele>
        <time>2023-11-04T06:03:50Z</time>
      </trkpt>
      <trkpt lat="13.179771" lon="99.801627">
        <ele>35.4</ele>
        <time>2023-11-04T06:03:51Z</time>
      </trkpt>
      <trkpt lat="13.179832" lon="99.801615">
        <ele>34.0</ele>
        <time>2023-11-04T06:03:53Z</time>
      </trkpt>
      <trkpt lat="13.179869" lon="99.801584">
        <ele>35.1</ele>
        <time>2023-11-04T06:03:57Z</time>
      </trkpt>
      <trkpt lat="13.179871" lon="99.801521">
        <ele>33.0</ele>
        <time>2023-11-04T06:04:02Z</time>
      </trkpt>
      <trkpt lat="13.179919" lon="99.801465">
        <ele>34.0</ele>
        <time>2023-11-04T06:04:07Z</time>
      </trkpt>
      <trkpt lat="13.179971" lon="99.801431">
        <ele>36.0</ele>
        <time>2023-11-04T06:04:11Z</time>
      </trkpt>
      <trkpt lat="13.180091" lon="99.801451">
        <ele>36.1</ele>
        <time>2023-11-04T06:04:17Z</time>
      </trkpt>
      <trkpt lat="13.180141" lon="99.801431">
        <ele>35.0</ele>
        <time>2023-11-04T06:04:21Z</time>
      </trkpt>
      <trkpt lat="13.180597" lon="99.801510">
        <ele>35.9</ele>
        <time>2023-11-04T06:04:36Z</time>
      </trkpt>
      <trkpt lat="13.180936" lon="99.801553">
        <ele>33.9</ele>
        <time>2023-11-04T06:04:43Z</time>
      </trkpt>
      <trkpt lat="13.181024" lon="99.801555">
        <ele>32.5</ele>
        <time>2023-11-04T06:04:45Z</time>
      </trkpt>
      <trkpt lat="13.181072" lon="99.801607">
        <ele>32.6</ele>
        <time>2023-11-04T06:04:47Z</time>
      </trkpt>
      <trkpt lat="13.181130" lon="99.801642">
        <ele>32.3</ele>
        <time>2023-11-04T06:04:49Z</time>
      </trkpt>
      <trkpt lat="13.181169" lon="99.801643">
        <ele>32.0</ele>
        <time>2023-11-04T06:04:50Z</time>
      </trkpt>
      <trkpt lat="13.181310" lon="99.801610">
        <ele>32.0</ele>
        <time>2023-11-04T06:04:55Z</time>
      </trkpt>
      <trkpt lat="13.181537" lon="99.801634">
        <ele>33.4</ele>
        <time>2023-11-04T06:05:03Z</time>
      </trkpt>
      <trkpt lat="13.181640" lon="99.801654">
        <ele>33.4</ele>
        <time>2023-11-04T06:05:06Z</time>
      </trkpt>
      <trkpt lat="13.181731" lon="99.801684">
        <ele>32.9</ele>
        <time>2023-11-04T06:05:09Z</time>
      </trkpt>
      <trkpt lat="13.181796" lon="99.801676">
        <ele>32.9</ele>
        <time>2023-11-04T06:05:11Z</time>
      </trkpt>
      <trkpt lat="13.181863" lon="99.801605">
        <ele>32.9</ele>
        <time>2023-11-04T06:05:14Z</time>
      </trkpt>
      <trkpt lat="13.181965" lon="99.801532">
        <ele>33.3</ele>
        <time>2023-11-04T06:05:18Z</time>
      </trkpt>
      <trkpt lat="13.182003" lon="99.801511">
        <ele>32.0</ele>
        <time>2023-11-04T06:05:19Z</time>
      </trkpt>
      <trkpt lat="13.182113" lon="99.801489">
        <ele>32.0</ele>
        <time>2023-11-04T06:05:23Z</time>
      </trkpt>
      <trkpt lat="13.182156" lon="99.801454">
        <ele>32.0</ele>
        <time>2023-11-04T06:05:25Z</time>
      </trkpt>
      <trkpt lat="13.182207" lon="99.801320">
        <ele>33.9</ele>
        <time>2023-11-04T06:05:30Z</time>
      </trkpt>
      <trkpt lat="13.182199" lon="99.801254">
        <ele>34.2</ele>
        <time>2023-11-04T06:05:32Z</time>
      </trkpt>
      <trkpt lat="13.182230" lon="99.800939">
        <ele>35.1</ele>
        <time>2023-11-04T06:05:42Z</time>
      </trkpt>
      <trkpt lat="13.182270" lon="99.800783">
        <ele>35.6</ele>
        <time>2023-11-04T06:05:47Z</time>
      </trkpt>
      <trkpt lat="13.182306" lon="99.800526">
        <ele>36.1</ele>
        <time>2023-11-04T06:05:55Z</time>
      </trkpt>
      <trkpt lat="13.182338" lon="99.800432">
        <ele>35.9</ele>
        <time>2023-11-04T06:05:58Z</time>
      </trkpt>
      <trkpt lat="13.182356" lon="99.800405">
        <ele>36.0</ele>
        <time>2023-11-04T06:05:59Z</time>
      </trkpt>
      <trkpt lat="13.182393" lon="99.800390">
        <ele>36.1</ele>
        <time>2023-11-04T06:06:00Z</time>
      </trkpt>
      <trkpt lat="13.182701" lon="99.800421">
        <ele>36.5</ele>
        <time>2023-11-04T06:06:08Z</time>
      </trkpt>
      <trkpt lat="13.182736" lon="99.800428">
        <ele>36.6</ele>
        <time>2023-11-04T06:06:09Z</time>
      </trkpt>
      <trkpt lat="13.182780" lon="99.800453">
        <ele>36.0</ele>
        <time>2023-11-04T06:06:10Z</time>
      </trkpt>
      <trkpt lat="13.182873" lon="99.800429">
        <ele>35.6</ele>
        <time>2023-11-04T06:06:14Z</time>
      </trkpt>
      <trkpt lat="13.183076" lon="99.800464">
        <ele>35.1</ele>
        <time>2023-11-04T06:06:20Z</time>
      </trkpt>
      <trkpt lat="13.183122" lon="99.800459">
        <ele>35.3</ele>
        <time>2023-11-04T06:06:21Z</time>
      </trkpt>
      <trkpt lat="13.183174" lon="99.800473">
        <ele>35.2</ele>
        <time>2023-11-04T06:06:22Z</time>
      </trkpt>
      <trkpt lat="13.183223" lon="99.800470">
        <ele>34.8</ele>
        <time>2023-11-04T06:06:23Z</time>
      </trkpt>
      <trkpt lat="13.183256" lon="99.800454">
        <ele>35.3</ele>
        <time>2023-11-04T06:06:24Z</time>
      </trkpt>
      <trkpt lat="13.183312" lon="99.800481">
        <ele>34.9</ele>
        <time>2023-11-04T06:06:25Z</time>
      </trkpt>
      <trkpt lat="13.183359" lon="99.800487">
        <ele>35.2</ele>
        <time>2023-11-04T06:06:26Z</time>
      </trkpt>
      <trkpt lat="13.183401" lon="99.800480">
        <ele>35.1</ele>
        <time>2023-11-04T06:06:27Z</time>
      </trkpt>
      <trkpt lat="13.183434" lon="99.800491">
        <ele>34.8</ele>
        <time>2023-11-04T06:06:28Z</time>
      </trkpt>
      <trkpt lat="13.183460" lon="99.800473">
        <ele>35.1</ele>
        <time>2023-11-04T06:06:29Z</time>
      </trkpt>
      <trkpt lat="13.183581" lon="99.800513">
        <ele>35.1</ele>
        <time>2023-11-04T06:06:32Z</time>
      </trkpt>
      <trkpt lat="13.183623" lon="99.800514">
        <ele>34.9</ele>
        <time>2023-11-04T06:06:33Z</time>
      </trkpt>
      <trkpt lat="13.183650" lon="99.800529">
        <ele>34.3</ele>
        <time>2023-11-04T06:06:34Z</time>
      </trkpt>
      <trkpt lat="13.183710" lon="99.800522">
        <ele>34.4</ele>
        <time>2023-11-04T06:06:35Z</time>
      </trkpt>
      <trkpt lat="13.183784" lon="99.800528">
        <ele>33.1</ele>
        <time>2023-11-04T06:06:37Z</time>
      </trkpt>
      <trkpt lat="13.184036" lon="99.800568">
        <ele>34.5</ele>
        <time>2023-11-04T06:06:46Z</time>
      </trkpt>
      <trkpt lat="13.184188" lon="99.800573">
        <ele>34.0</ele>
        <time>2023-11-04T06:06:51Z</time>
      </trkpt>
      <trkpt lat="13.184325" lon="99.800599">
        <ele>36.0</ele>
        <time>2023-11-04T06:06:57Z</time>
      </trkpt>
      <trkpt lat="13.184469" lon="99.800599">
        <ele>36.0</ele>
        <time>2023-11-04T06:07:17Z</time>
      </trkpt>
      <trkpt lat="13.184546" lon="99.800614">
        <ele>36.0</ele>
        <time>2023-11-04T06:07:38Z</time>
      </trkpt>
      <trkpt lat="13.184666" lon="99.800618">
        <ele>36.0</ele>
        <time>2023-11-04T06:07:44Z</time>
      </trkpt>
      <trkpt lat="13.184706" lon="99.800635">
        <ele>36.0</ele>
        <time>2023-11-04T06:07:46Z</time>
      </trkpt>
      <trkpt lat="13.184731" lon="99.800663">
        <ele>36.0</ele>
        <time>2023-11-04T06:07:48Z</time>
      </trkpt>
      <trkpt lat="13.184771" lon="99.800668">
        <ele>36.0</ele>
        <time>2023-11-04T06:07:50Z</time>
      </trkpt>
      <trkpt lat="13.184870" lon="99.800668">
        <ele>36.0</ele>
        <time>2023-11-04T06:07:54Z</time>
      </trkpt>
      <trkpt lat="13.184900" lon="99.800637">
        <ele>36.0</ele>
        <time>2023-11-04T06:07:56Z</time>
      </trkpt>
      <trkpt lat="13.184945" lon="99.800624">
        <ele>36.0</ele>
        <time>2023-11-04T06:07:58Z</time>
      </trkpt>
      <trkpt lat="13.185041" lon="99.800640">
        <ele>36.0</ele>
        <time>2023-11-04T06:08:02Z</time>
      </trkpt>
      <trkpt lat="13.185094" lon="99.800632">
        <ele>37.6</ele>
        <time>2023-11-04T06:08:05Z</time>
      </trkpt>
      <trkpt lat="13.185102" lon="99.800545">
        <ele>36.0</ele>
        <time>2023-11-04T06:08:08Z</time>
      </trkpt>
      <trkpt lat="13.185123" lon="99.800498">
        <ele>36.0</ele>
        <time>2023-11-04T06:08:10Z</time>
      </trkpt>
      <trkpt lat="13.185320" lon="99.800160">
        <ele>37.8</ele>
        <time>2023-11-04T06:08:24Z</time>
      </trkpt>
      <trkpt lat="13.185375" lon="99.800033">
        <ele>38.0</ele>
        <time>2023-11-04T06:08:28Z</time>
      </trkpt>
      <trkpt lat="13.185439" lon="99.799933">
        <ele>38.0</ele>
        <time>2023-11-04T06:08:32Z</time>
      </trkpt>
      <trkpt lat="13.185547" lon="99.799882">
        <ele>38.0</ele>
        <time>2023-11-04T06:08:36Z</time>
      </trkpt>
      <trkpt lat="13.185640" lon="99.799727">
        <ele>38.0</ele>
        <time>2023-11-04T06:08:42Z</time>
      </trkpt>
      <trkpt lat="13.185701" lon="99.799680">
        <ele>38.7</ele>
        <time>2023-11-04T06:08:45Z</time>
      </trkpt>
      <trkpt lat="13.185914" lon="99.799687">
        <ele>38.3</ele>
        <time>2023-11-04T06:08:52Z</time>
      </trkpt>
      <trkpt lat="13.186079" lon="99.799725">
        <ele>38.3</ele>
        <time>2023-11-04T06:08:57Z</time>
      </trkpt>
      <trkpt lat="13.186200" lon="99.799781">
        <ele>38.1</ele>
        <time>2023-11-04T06:09:00Z</time>
      </trkpt>
      <trkpt lat="13.186502" lon="99.799872">
        <ele>37.4</ele>
        <time>2023-11-04T06:09:08Z</time>
      </trkpt>
      <trkpt lat="13.186852" lon="99.799931">
        <ele>36.3</ele>
        <time>2023-11-04T06:09:15Z</time>
      </trkpt>
      <trkpt lat="13.186961" lon="99.799992">
        <ele>35.0</ele>
        <time>2023-11-04T06:09:18Z</time>
      </trkpt>
      <trkpt lat="13.187015" lon="99.799981">
        <ele>36.0</ele>
        <time>2023-11-04T06:09:21Z</time>
      </trkpt>
      <trkpt lat="13.187072" lon="99.799984">
        <ele>36.0</ele>
        <time>2023-11-04T06:09:23Z</time>
      </trkpt>
      <trkpt lat="13.187186" lon="99.800021">
        <ele>36.0</ele>
        <time>2023-11-04T06:09:27Z</time>
      </trkpt>
      <trkpt lat="13.187296" lon="99.800014">
        <ele>37.0</ele>
        <time>2023-11-04T06:09:31Z</time>
      </trkpt>
      <trkpt lat="13.187398" lon="99.800037">
        <ele>36.0</ele>
        <time>2023-11-04T06:09:35Z</time>
      </trkpt>
      <trkpt lat="13.187498" lon="99.800034">
        <ele>36.0</ele>
        <time>2023-11-04T06:09:39Z</time>
      </trkpt>
      <trkpt lat="13.187540" lon="99.800013">
        <ele>36.0</ele>
        <time>2023-11-04T06:09:41Z</time>
      </trkpt>
      <trkpt lat="13.187589" lon="99.800018">
        <ele>36.0</ele>
        <time>2023-11-04T06:09:43Z</time>
      </trkpt>
      <trkpt lat="13.187727" lon="99.800068">
        <ele>38.0</ele>
        <time>2023-11-04T06:09:50Z</time>
      </trkpt>
      <trkpt lat="13.188072" lon="99.800087">
        <ele>40.0</ele>
        <time>2023-11-04T06:10:04Z</time>
      </trkpt>
      <trkpt lat="13.188118" lon="99.800096">
        <ele>40.0</ele>
        <time>2023-11-04T06:10:06Z</time>
      </trkpt>
      <trkpt lat="13.188158" lon="99.800124">
        <ele>40.0</ele>
        <time>2023-11-04T06:10:08Z</time>
      </trkpt>
      <trkpt lat="13.188205" lon="99.800120">
        <ele>40.0</ele>
        <time>2023-11-04T06:10:10Z</time>
      </trkpt>
      <trkpt lat="13.188227" lon="99.800083">
        <ele>40.6</ele>
        <time>2023-11-04T06:10:12Z</time>
      </trkpt>
      <trkpt lat="13.188261" lon="99.799934">
        <ele>40.7</ele>
        <time>2023-11-04T06:10:17Z</time>
      </trkpt>
      <trkpt lat="13.188285" lon="99.799873">
        <ele>40.3</ele>
        <time>2023-11-04T06:10:19Z</time>
      </trkpt>
      <trkpt lat="13.188351" lon="99.799784">
        <ele>40.5</ele>
        <time>2023-11-04T06:10:22Z</time>
      </trkpt>
      <trkpt lat="13.188386" lon="99.799694">
        <ele>40.7</ele>
        <time>2023-11-04T06:10:25Z</time>
      </trkpt>
      <trkpt lat="13.188424" lon="99.799635">
        <ele>40.3</ele>
        <time>2023-11-04T06:10:27Z</time>
      </trkpt>
      <trkpt lat="13.188464" lon="99.799430">
        <ele>41.1</ele>
        <time>2023-11-04T06:10:33Z</time>
      </trkpt>
      <trkpt lat="13.188496" lon="99.799328">
        <ele>40.0</ele>
        <time>2023-11-04T06:10:36Z</time>
      </trkpt>
      <trkpt lat="13.188575" lon="99.799238">
        <ele>40.0</ele>
        <time>2023-11-04T06:10:40Z</time>
      </trkpt>
      <trkpt lat="13.188658" lon="99.799171">
        <ele>42.0</ele>
        <time>2023-11-04T06:10:44Z</time>
      </trkpt>
      <trkpt lat="13.188698" lon="99.799164">
        <ele>42.0</ele>
        <time>2023-11-04T06:10:46Z</time>
      </trkpt>
      <trkpt lat="13.188730" lon="99.799194">
        <ele>42.2</ele>
        <time>2023-11-04T06:10:48Z</time>
      </trkpt>
      <trkpt lat="13.188781" lon="99.799434">
        <ele>42.6</ele>
        <time>2023-11-04T06:10:55Z</time>
      </trkpt>
      <trkpt lat="13.188833" lon="99.799547">
        <ele>42.7</ele>
        <time>2023-11-04T06:10:58Z</time>
      </trkpt>
      <trkpt lat="13.188975" lon="99.799983">
        <ele>41.9</ele>
        <time>2023-11-04T06:11:08Z</time>
      </trkpt>
      <trkpt lat="13.189042" lon="99.800113">
        <ele>42.0</ele>
        <time>2023-11-04T06:11:11Z</time>
      </trkpt>
      <trkpt lat="13.189103" lon="99.800286">
        <ele>42.3</ele>
        <time>2023-11-04T06:11:15Z</time>
      </trkpt>
      <trkpt lat="13.189169" lon="99.800445">
        <ele>41.6</ele>
        <time>2023-11-04T06:11:19Z</time>
      </trkpt>
      <trkpt lat="13.189195" lon="99.800483">
        <ele>41.1</ele>
        <time>2023-11-04T06:11:20Z</time>
      </trkpt>
      <trkpt lat="13.189199" lon="99.800530">
        <ele>41.1</ele>
        <time>2023-11-04T06:11:21Z</time>
      </trkpt>
      <trkpt lat="13.189220" lon="99.800566">
        <ele>40.8</ele>
        <time>2023-11-04T06:11:22Z</time>
      </trkpt>
      <trkpt lat="13.189247" lon="99.800586">
        <ele>40.9</ele>
        <time>2023-11-04T06:11:23Z</time>
      </trkpt>
      <trkpt lat="13.189270" lon="99.800585">
        <ele>40.0</ele>
        <time>2023-11-04T06:11:24Z</time>
      </trkpt>
      <trkpt lat="13.189349" lon="99.800535">
        <ele>40.0</ele>
        <time>2023-11-04T06:11:28Z</time>
      </trkpt>
      <trkpt lat="13.189403" lon="99.800469">
        <ele>40.0</ele>
        <time>2023-11-04T06:11:31Z</time>
      </trkpt>
      <trkpt lat="13.189451" lon="99.800464">
        <ele>40.0</ele>
        <time>2023-11-04T06:11:33Z</time>
      </trkpt>
      <trkpt lat="13.189551" lon="99.800476">
        <ele>39.8</ele>
        <time>2023-11-04T06:11:36Z</time>
      </trkpt>
      <trkpt lat="13.189583" lon="99.800463">
        <ele>39.7</ele>
        <time>2023-11-04T06:11:37Z</time>
      </trkpt>
      <trkpt lat="13.189619" lon="99.800469">
        <ele>39.6</ele>
        <time>2023-11-04T06:11:38Z</time>
      </trkpt>
      <trkpt lat="13.189685" lon="99.800430">
        <ele>38.8</ele>
        <time>2023-11-04T06:11:40Z</time>
      </trkpt>
      <trkpt lat="13.189717" lon="99.800441">
        <ele>38.4</ele>
        <time>2023-11-04T06:11:41Z</time>
      </trkpt>
      <trkpt lat="13.189755" lon="99.800434">
        <ele>38.0</ele>
        <time>2023-11-04T06:11:42Z</time>
      </trkpt>
      <trkpt lat="13.189903" lon="99.800363">
        <ele>36.0</ele>
        <time>2023-11-04T06:11:48Z</time>
      </trkpt>
      <trkpt lat="13.189990" lon="99.800354">
        <ele>36.0</ele>
        <time>2023-11-04T06:13:07Z</time>
      </trkpt>
      <trkpt lat="13.190000" lon="99.800292">
        <ele>34.0</ele>
        <time>2023-11-04T06:13:53Z</time>
      </trkpt>
      <trkpt lat="13.190067" lon="99.800281">
        <ele>36.0</ele>
        <time>2023-11-04T06:14:17Z</time>
      </trkpt>
      <trkpt lat="13.190101" lon="99.800342">
        <ele>38.0</ele>
        <time>2023-11-04T06:14:27Z</time>
      </trkpt>
      <trkpt lat="13.190091" lon="99.800415">
        <ele>38.0</ele>
        <time>2023-11-04T06:14:31Z</time>
      </trkpt>
      <trkpt lat="13.190152" lon="99.800617">
        <ele>36.0</ele>
        <time>2023-11-04T06:14:42Z</time>
      </trkpt>
      <trkpt lat="13.190187" lon="99.800653">
        <ele>36.0</ele>
        <time>2023-11-04T06:14:51Z</time>
      </trkpt>
      <trkpt lat="13.190280" lon="99.800600">
        <ele>36.0</ele>
        <time>2023-11-04T06:14:57Z</time>
      </trkpt>
      <trkpt lat="13.190477" lon="99.800558">
        <ele>34.0</ele>
        <time>2023-11-04T06:15:05Z</time>
      </trkpt>
      <trkpt lat="13.190548" lon="99.800560">
        <ele>34.0</ele>
        <time>2023-11-04T06:15:09Z</time>
      </trkpt>
      <trkpt lat="13.190634" lon="99.800582">
        <ele>34.0</ele>
        <time>2023-11-04T06:15:13Z</time>
      </trkpt>
      <trkpt lat="13.190666" lon="99.800575">
        <ele>34.0</ele>
        <time>2023-11-04T06:15:15Z</time>
      </trkpt>
      <trkpt lat="13.190744" lon="99.800530">
        <ele>33.0</ele>
        <time>2023-11-04T06:15:21Z</time>
      </trkpt>
      <trkpt lat="13.190783" lon="99.800525">
        <ele>34.0</ele>
        <time>2023-11-04T06:15:23Z</time>
      </trkpt>
      <trkpt lat="13.190849" lon="99.800567">
        <ele>36.0</ele>
        <time>2023-11-04T06:15:28Z</time>
      </trkpt>
      <trkpt lat="13.190935" lon="99.800734">
        <ele>36.0</ele>
        <time>2023-11-04T06:15:37Z</time>
      </trkpt>
      <trkpt lat="13.190942" lon="99.800765">
        <ele>36.0</ele>
        <time>2023-11-04T06:15:39Z</time>
      </trkpt>
      <trkpt lat="13.191020" lon="99.800843">
        <ele>36.0</ele>
        <time>2023-11-04T06:15:45Z</time>
      </trkpt>
      <trkpt lat="13.191111" lon="99.800826">
        <ele>36.0</ele>
        <time>2023-11-04T06:15:49Z</time>
      </trkpt>
      <trkpt lat="13.191288" lon="99.800774">
        <ele>36.0</ele>
        <time>2023-11-04T06:15:57Z</time>
      </trkpt>
      <trkpt lat="13.191328" lon="99.800776">
        <ele>34.0</ele>
        <time>2023-11-04T06:15:59Z</time>
      </trkpt>
      <trkpt lat="13.191372" lon="99.800788">
        <ele>34.0</ele>
        <time>2023-11-04T06:16:01Z</time>
      </trkpt>
      <trkpt lat="13.191406" lon="99.800813">
        <ele>34.0</ele>
        <time>2023-11-04T06:16:03Z</time>
      </trkpt>
      <trkpt lat="13.191512" lon="99.800932">
        <ele>35.0</ele>
        <time>2023-11-04T06:16:12Z</time>
      </trkpt>
      <trkpt lat="13.191682" lon="99.800962">
        <ele>34.0</ele>
        <time>2023-11-04T06:16:35Z</time>
      </trkpt>
      <trkpt lat="13.191969" lon="99.800855">
        <ele>35.7</ele>
        <time>2023-11-04T06:16:45Z</time>
      </trkpt>
      <trkpt lat="13.192069" lon="99.800836">
        <ele>36.0</ele>
        <time>2023-11-04T06:16:48Z</time>
      </trkpt>
      <trkpt lat="13.192104" lon="99.800847">
        <ele>36.0</ele>
        <time>2023-11-04T06:16:50Z</time>
      </trkpt>
      <trkpt lat="13.192162" lon="99.800882">
        <ele>38.0</ele>
        <time>2023-11-04T06:16:54Z</time>
      </trkpt>
      <trkpt lat="13.192180" lon="99.800922">
        <ele>38.0</ele>
        <time>2023-11-04T06:16:56Z</time>
      </trkpt>
      <trkpt lat="13.192213" lon="99.801104">
        <ele>38.5</ele>
        <time>2023-11-04T06:17:02Z</time>
      </trkpt>
      <trkpt lat="13.192354" lon="99.801631">
        <ele>37.9</ele>
        <time>2023-11-04T06:17:15Z</time>
      </trkpt>
      <trkpt lat="13.192389" lon="99.801696">
        <ele>38.1</ele>
        <time>2023-11-04T06:17:17Z</time>
      </trkpt>
      <trkpt lat="13.192415" lon="99.801718">
        <ele>38.0</ele>
        <time>2023-11-04T06:17:18Z</time>
      </trkpt>
      <trkpt lat="13.192456" lon="99.801722">
        <ele>38.0</ele>
        <time>2023-11-04T06:17:20Z</time>
      </trkpt>
      <trkpt lat="13.192485" lon="99.801690">
        <ele>38.0</ele>
        <time>2023-11-04T06:17:56Z</time>
      </trkpt>
    </trkseg>
    <trkseg>
      <trkpt lat="13.192462" lon="99.801704">
        <ele>39.3</ele>
        <time>2023-11-04T07:44:56Z</time>
      </trkpt>
      <trkpt lat="13.192625" lon="99.801698">
        <ele>36.4</ele>
        <time>2023-11-04T07:45:07Z</time>
      </trkpt>
      <trkpt lat="13.192888" lon="99.801639">
        <ele>36.3</ele>
        <time>2023-11-04T07:45:14Z</time>
      </trkpt>
      <trkpt lat="13.193121" lon="99.801539">
        <ele>37.0</ele>
        <time>2023-11-04T07:45:20Z</time>
      </trkpt>
      <trkpt lat="13.193516" lon="99.801399">
        <ele>36.4</ele>
        <time>2023-11-04T07:45:29Z</time>
      </trkpt>
      <trkpt lat="13.193792" lon="99.801343">
        <ele>35.9</ele>
        <time>2023-11-04T07:45:35Z</time>
      </trkpt>
      <trkpt lat="13.194156" lon="99.801342">
        <ele>34.8</ele>
        <time>2023-11-04T07:45:42Z</time>
      </trkpt>
      <trkpt lat="13.194378" lon="99.801321">
        <ele>34.8</ele>
        <time>2023-11-04T07:45:46Z</time>
      </trkpt>
      <trkpt lat="13.194652" lon="99.801277">
        <ele>34.8</ele>
        <time>2023-11-04T07:45:51Z</time>
      </trkpt>
      <trkpt lat="13.194767" lon="99.801274">
        <ele>35.3</ele>
        <time>2023-11-04T07:45:53Z</time>
      </trkpt>
      <trkpt lat="13.195004" lon="99.801249">
        <ele>35.4</ele>
        <time>2023-11-04T07:45:57Z</time>
      </trkpt>
      <trkpt lat="13.195354" lon="99.801252">
        <ele>35.9</ele>
        <time>2023-11-04T07:46:03Z</time>
      </trkpt>
      <trkpt lat="13.195468" lon="99.801265">
        <ele>36.1</ele>
        <time>2023-11-04T07:46:05Z</time>
      </trkpt>
      <trkpt lat="13.195523" lon="99.801250">
        <ele>36.0</ele>
        <time>2023-11-04T07:46:06Z</time>
      </trkpt>
      <trkpt lat="13.195637" lon="99.801251">
        <ele>36.2</ele>
        <time>2023-11-04T07:46:08Z</time>
      </trkpt>
      <trkpt lat="13.195695" lon="99.801268">
        <ele>36.4</ele>
        <time>2023-11-04T07:46:09Z</time>
      </trkpt>
      <trkpt lat="13.195875" lon="99.801257">
        <ele>36.6</ele>
        <time>2023-11-04T07:46:12Z</time>
      </trkpt>
      <trkpt lat="13.196192" lon="99.801268">
        <ele>36.5</ele>
        <time>2023-11-04T07:46:17Z</time>
      </trkpt>
      <trkpt lat="13.196318" lon="99.801256">
        <ele>36.4</ele>
        <time>2023-11-04T07:46:19Z</time>
      </trkpt>
      <trkpt lat="13.196368" lon="99.801237">
        <ele>36.8</ele>
        <time>2023-11-04T07:46:20Z</time>
      </trkpt>
      <trkpt lat="13.196400" lon="99.801199">
        <ele>36.6</ele>
        <time>2023-11-04T07:46:21Z</time>
      </trkpt>
      <trkpt lat="13.196423" lon="99.801146">
        <ele>36.4</ele>
        <time>2023-11-04T07:46:22Z</time>
      </trkpt>
      <trkpt lat="13.196389" lon="99.801081">
        <ele>36.6</ele>
        <time>2023-11-04T07:46:23Z</time>
      </trkpt>
      <trkpt lat="13.196356" lon="99.800966">
        <ele>36.5</ele>
        <time>2023-11-04T07:46:25Z</time>
      </trkpt>
      <trkpt lat="13.196349" lon="99.800909">
        <ele>36.5</ele>
        <time>2023-11-04T07:46:26Z</time>
      </trkpt>
      <trkpt lat="13.196357" lon="99.800851">
        <ele>36.4</ele>
        <time>2023-11-04T07:46:27Z</time>
      </trkpt>
      <trkpt lat="13.196303" lon="99.800232">
        <ele>37.4</ele>
        <time>2023-11-04T07:46:39Z</time>
      </trkpt>
      <trkpt lat="13.196275" lon="99.800186">
        <ele>37.5</ele>
        <time>2023-11-04T07:46:40Z</time>
      </trkpt>
      <trkpt lat="13.196271" lon="99.800050">
        <ele>37.7</ele>
        <time>2023-11-04T07:46:43Z</time>
      </trkpt>
      <trkpt lat="13.196222" lon="99.799654">
        <ele>36.5</ele>
        <time>2023-11-04T07:46:50Z</time>
      </trkpt>
      <trkpt lat="13.196215" lon="99.799550">
        <ele>36.4</ele>
        <time>2023-11-04T07:46:52Z</time>
      </trkpt>
      <trkpt lat="13.196237" lon="99.799494">
        <ele>36.5</ele>
        <time>2023-11-04T07:46:53Z</time>
      </trkpt>
      <trkpt lat="13.196143" lon="99.798976">
        <ele>37.1</ele>
        <time>2023-11-04T07:47:03Z</time>
      </trkpt>
      <trkpt lat="13.196113" lon="99.798876">
        <ele>36.8</ele>
        <time>2023-11-04T07:47:05Z</time>
      </trkpt>
      <trkpt lat="13.196119" lon="99.798821">
        <ele>36.8</ele>
        <time>2023-11-04T07:47:06Z</time>
      </trkpt>
      <trkpt lat="13.196082" lon="99.798562">
        <ele>36.9</ele>
        <time>2023-11-04T07:47:12Z</time>
      </trkpt>
      <trkpt lat="13.196080" lon="99.798459">
        <ele>36.9</ele>
        <time>2023-11-04T07:47:14Z</time>
      </trkpt>
      <trkpt lat="13.196113" lon="99.798126">
        <ele>37.5</ele>
        <time>2023-11-04T07:47:20Z</time>
      </trkpt>
      <trkpt lat="13.196140" lon="99.798014">
        <ele>37.3</ele>
        <time>2023-11-04T07:47:22Z</time>
      </trkpt>
      <trkpt lat="13.196233" lon="99.797884">
        <ele>36.9</ele>
        <time>2023-11-04T07:47:25Z</time>
      </trkpt>
      <trkpt lat="13.196287" lon="99.797873">
        <ele>37.1</ele>
        <time>2023-11-04T07:47:26Z</time>
      </trkpt>
      <trkpt lat="13.196401" lon="99.797899">
        <ele>37.1</ele>
        <time>2023-11-04T07:47:28Z</time>
      </trkpt>
      <trkpt lat="13.196820" lon="99.797944">
        <ele>36.3</ele>
        <time>2023-11-04T07:47:35Z</time>
      </trkpt>
      <trkpt lat="13.197105" lon="99.797967">
        <ele>36.2</ele>
        <time>2023-11-04T07:47:40Z</time>
      </trkpt>
      <trkpt lat="13.197212" lon="99.797967">
        <ele>36.5</ele>
        <time>2023-11-04T07:47:42Z</time>
      </trkpt>
      <trkpt lat="13.197888" lon="99.798071">
        <ele>34.9</ele>
        <time>2023-11-04T07:47:54Z</time>
      </trkpt>
      <trkpt lat="13.198161" lon="99.798106">
        <ele>35.3</ele>
        <time>2023-11-04T07:47:59Z</time>
      </trkpt>
      <trkpt lat="13.198339" lon="99.798116">
        <ele>36.0</ele>
        <time>2023-11-04T07:48:02Z</time>
      </trkpt>
      <trkpt lat="13.198508" lon="99.798149">
        <ele>36.4</ele>
        <time>2023-11-04T07:48:05Z</time>
      </trkpt>
      <trkpt lat="13.198626" lon="99.798159">
        <ele>36.2</ele>
        <time>2023-11-04T07:48:07Z</time>
      </trkpt>
      <trkpt lat="13.198755" lon="99.798148">
        <ele>36.2</ele>
        <time>2023-11-04T07:48:09Z</time>
      </trkpt>
      <trkpt lat="13.198815" lon="99.798135">
        <ele>36.4</ele>
        <time>2023-11-04T07:48:10Z</time>
      </trkpt>
      <trkpt lat="13.198869" lon="99.798105">
        <ele>35.9</ele>
        <time>2023-11-04T07:48:11Z</time>
      </trkpt>
      <trkpt lat="13.198927" lon="99.798106">
        <ele>35.7</ele>
        <time>2023-11-04T07:48:12Z</time>
      </trkpt>
      <trkpt lat="13.198939" lon="99.797830">
        <ele>36.3</ele>
        <time>2023-11-04T07:48:15Z</time>
      </trkpt>
      <trkpt lat="13.198932" lon="99.797756">
        <ele>36.4</ele>
        <time>2023-11-04T07:48:16Z</time>
      </trkpt>
      <trkpt lat="13.198886" lon="99.797444">
        <ele>36.7</ele>
        <time>2023-11-04T07:48:21Z</time>
      </trkpt>
      <trkpt lat="13.198860" lon="99.797389">
        <ele>36.6</ele>
        <time>2023-11-04T07:48:22Z</time>
      </trkpt>
      <trkpt lat="13.198865" lon="99.797331">
        <ele>36.6</ele>
        <time>2023-11-04T07:48:23Z</time>
      </trkpt>
      <trkpt lat="13.198831" lon="99.797216">
        <ele>36.6</ele>
        <time>2023-11-04T07:48:25Z</time>
      </trkpt>
      <trkpt lat="13.198784" lon="99.797171">
        <ele>36.8</ele>
        <time>2023-11-04T07:48:26Z</time>
      </trkpt>
      <trkpt lat="13.198708" lon="99.797017">
        <ele>36.9</ele>
        <time>2023-11-04T07:48:29Z</time>
      </trkpt>
      <trkpt lat="13.198547" lon="99.796792">
        <ele>37.2</ele>
        <time>2023-11-04T07:48:34Z</time>
      </trkpt>
      <trkpt lat="13.198534" lon="99.796742">
        <ele>37.3</ele>
        <time>2023-11-04T07:48:35Z</time>
      </trkpt>
      <trkpt lat="13.198403" lon="99.796532">
        <ele>37.9</ele>
        <time>2023-11-04T07:48:40Z</time>
      </trkpt>
      <trkpt lat="13.198371" lon="99.796500">
        <ele>37.7</ele>
        <time>2023-11-04T07:48:41Z</time>
      </trkpt>
      <trkpt lat="13.198304" lon="99.796375">
        <ele>37.4</ele>
        <time>2023-11-04T07:48:44Z</time>
      </trkpt>
      <trkpt lat="13.198204" lon="99.796222">
        <ele>37.3</ele>
        <time>2023-11-04T07:48:48Z</time>
      </trkpt>
      <trkpt lat="13.198197" lon="99.796177">
        <ele>37.2</ele>
        <time>2023-11-04T07:48:49Z</time>
      </trkpt>
      <trkpt lat="13.198157" lon="99.796067">
        <ele>34.8</ele>
        <time>2023-11-04T07:48:54Z</time>
      </trkpt>
      <trkpt lat="13.198240" lon="99.795975">
        <ele>34.5</ele>
        <time>2023-11-04T07:48:55Z</time>
      </trkpt>
      <trkpt lat="13.198327" lon="99.795833">
        <ele>34.8</ele>
        <time>2023-11-04T07:48:58Z</time>
      </trkpt>
      <trkpt lat="13.198367" lon="99.795790">
        <ele>34.9</ele>
        <time>2023-11-04T07:48:59Z</time>
      </trkpt>
      <trkpt lat="13.198406" lon="99.795769">
        <ele>36.1</ele>
        <time>2023-11-04T07:49:00Z</time>
      </trkpt>
      <trkpt lat="13.198725" lon="99.795827">
        <ele>35.6</ele>
        <time>2023-11-04T07:49:07Z</time>
      </trkpt>
      <trkpt lat="13.198803" lon="99.795804">
        <ele>35.1</ele>
        <time>2023-11-04T07:49:09Z</time>
      </trkpt>
      <trkpt lat="13.198857" lon="99.795738">
        <ele>34.8</ele>
        <time>2023-11-04T07:49:11Z</time>
      </trkpt>
      <trkpt lat="13.198861" lon="99.795695">
        <ele>34.8</ele>
        <time>2023-11-04T07:49:12Z</time>
      </trkpt>
      <trkpt lat="13.198841" lon="99.795646">
        <ele>34.9</ele>
        <time>2023-11-04T07:49:13Z</time>
      </trkpt>
      <trkpt lat="13.198840" lon="99.795602">
        <ele>34.8</ele>
        <time>2023-11-04T07:49:14Z</time>
      </trkpt>
      <trkpt lat="13.199021" lon="99.795446">
        <ele>34.0</ele>
        <time>2023-11-04T07:49:20Z</time>
      </trkpt>
      <trkpt lat="13.199082" lon="99.795337">
        <ele>33.0</ele>
        <time>2023-11-04T07:49:26Z</time>
      </trkpt>
      <trkpt lat="13.199155" lon="99.795298">
        <ele>32.0</ele>
        <time>2023-11-04T07:49:30Z</time>
      </trkpt>
      <trkpt lat="13.199267" lon="99.795204">
        <ele>33.0</ele>
        <time>2023-11-04T07:49:36Z</time>
      </trkpt>
      <trkpt lat="13.199320" lon="99.795182">
        <ele>34.0</ele>
        <time>2023-11-04T07:49:38Z</time>
      </trkpt>
      <trkpt lat="13.199396" lon="99.795167">
        <ele>34.5</ele>
        <time>2023-11-04T07:49:41Z</time>
      </trkpt>
      <trkpt lat="13.199547" lon="99.795178">
        <ele>35.0</ele>
        <time>2023-11-04T07:49:45Z</time>
      </trkpt>
      <trkpt lat="13.199637" lon="99.795197">
        <ele>35.6</ele>
        <time>2023-11-04T07:49:48Z</time>
      </trkpt>
      <trkpt lat="13.199824" lon="99.795188">
        <ele>35.4</ele>
        <time>2023-11-04T07:49:53Z</time>
      </trkpt>
      <trkpt lat="13.199908" lon="99.795166">
        <ele>35.3</ele>
        <time>2023-11-04T07:49:55Z</time>
      </trkpt>
      <trkpt lat="13.200108" lon="99.795171">
        <ele>35.7</ele>
        <time>2023-11-04T07:50:00Z</time>
      </trkpt>
      <trkpt lat="13.200228" lon="99.795163">
        <ele>36.1</ele>
        <time>2023-11-04T07:50:03Z</time>
      </trkpt>
      <trkpt lat="13.200486" lon="99.795206">
        <ele>36.4</ele>
        <time>2023-11-04T07:50:09Z</time>
      </trkpt>
      <trkpt lat="13.200516" lon="99.795227">
        <ele>36.5</ele>
        <time>2023-11-04T07:50:10Z</time>
      </trkpt>
      <trkpt lat="13.200583" lon="99.795228">
        <ele>36.5</ele>
        <time>2023-11-04T07:50:12Z</time>
      </trkpt>
      <trkpt lat="13.200848" lon="99.795373">
        <ele>37.1</ele>
        <time>2023-11-04T07:50:19Z</time>
      </trkpt>
      <trkpt lat="13.200921" lon="99.795435">
        <ele>36.9</ele>
        <time>2023-11-04T07:50:21Z</time>
      </trkpt>
      <trkpt lat="13.201106" lon="99.795471">
        <ele>38.0</ele>
        <time>2023-11-04T07:50:26Z</time>
      </trkpt>
      <trkpt lat="13.201182" lon="99.795465">
        <ele>38.0</ele>
        <time>2023-11-04T07:50:29Z</time>
      </trkpt>
      <trkpt lat="13.201248" lon="99.795448">
        <ele>38.0</ele>
        <time>2023-11-04T07:50:31Z</time>
      </trkpt>
      <trkpt lat="13.201334" lon="99.795387">
        <ele>37.9</ele>
        <time>2023-11-04T07:50:34Z</time>
      </trkpt>
      <trkpt lat="13.201384" lon="99.795286">
        <ele>38.2</ele>
        <time>2023-11-04T07:50:37Z</time>
      </trkpt>
      <trkpt lat="13.201418" lon="99.795189">
        <ele>38.3</ele>
        <time>2023-11-04T07:50:40Z</time>
      </trkpt>
      <trkpt lat="13.201449" lon="99.795026">
        <ele>39.3</ele>
        <time>2023-11-04T07:50:45Z</time>
      </trkpt>
      <trkpt lat="13.201407" lon="99.794802">
        <ele>41.1</ele>
        <time>2023-11-04T07:50:51Z</time>
      </trkpt>
      <trkpt lat="13.201384" lon="99.794732">
        <ele>41.0</ele>
        <time>2023-11-04T07:50:53Z</time>
      </trkpt>
      <trkpt lat="13.201379" lon="99.794658">
        <ele>40.6</ele>
        <time>2023-11-04T07:50:55Z</time>
      </trkpt>
      <trkpt lat="13.201343" lon="99.794463">
        <ele>40.4</ele>
        <time>2023-11-04T07:51:00Z</time>
      </trkpt>
      <trkpt lat="13.201322" lon="99.794196">
        <ele>40.0</ele>
        <time>2023-11-04T07:51:09Z</time>
      </trkpt>
      <trkpt lat="13.201303" lon="99.794139">
        <ele>40.0</ele>
        <time>2023-11-04T07:51:11Z</time>
      </trkpt>
      <trkpt lat="13.201307" lon="99.794057">
        <ele>40.0</ele>
        <time>2023-11-04T07:51:14Z</time>
      </trkpt>
      <trkpt lat="13.201325" lon="99.794009">
        <ele>40.0</ele>
        <time>2023-11-04T07:51:16Z</time>
      </trkpt>
      <trkpt lat="13.201383" lon="99.793946">
        <ele>40.0</ele>
        <time>2023-11-04T07:51:20Z</time>
      </trkpt>
      <trkpt lat="13.201446" lon="99.793899">
        <ele>42.0</ele>
        <time>2023-11-04T07:51:24Z</time>
      </trkpt>
      <trkpt lat="13.201575" lon="99.793702">
        <ele>42.0</ele>
        <time>2023-11-04T07:51:33Z</time>
      </trkpt>
      <trkpt lat="13.201649" lon="99.793655">
        <ele>43.3</ele>
        <time>2023-11-04T07:51:39Z</time>
      </trkpt>
      <trkpt lat="13.201950" lon="99.793619">
        <ele>43.6</ele>
        <time>2023-11-04T07:51:49Z</time>
      </trkpt>
      <trkpt lat="13.202021" lon="99.793563">
        <ele>44.3</ele>
        <time>2023-11-04T07:51:52Z</time>
      </trkpt>
      <trkpt lat="13.202062" lon="99.793550">
        <ele>44.0</ele>
        <time>2023-11-04T07:51:53Z</time>
      </trkpt>
      <trkpt lat="13.202504" lon="99.793476">
        <ele>45.1</ele>
        <time>2023-11-04T07:52:06Z</time>
      </trkpt>
      <trkpt lat="13.202696" lon="99.793410">
        <ele>45.4</ele>
        <time>2023-11-04T07:52:11Z</time>
      </trkpt>
      <trkpt lat="13.202812" lon="99.793360">
        <ele>45.4</ele>
        <time>2023-11-04T07:52:14Z</time>
      </trkpt>
      <trkpt lat="13.203050" lon="99.793233">
        <ele>44.6</ele>
        <time>2023-11-04T07:52:20Z</time>
      </trkpt>
      <trkpt lat="13.203191" lon="99.793083">
        <ele>43.7</ele>
        <time>2023-11-04T07:52:24Z</time>
      </trkpt>
      <trkpt lat="13.203236" lon="99.793071">
        <ele>43.5</ele>
        <time>2023-11-04T07:52:25Z</time>
      </trkpt>
      <trkpt lat="13.203284" lon="99.793087">
        <ele>42.0</ele>
        <time>2023-11-04T07:52:26Z</time>
      </trkpt>
      <trkpt lat="13.203317" lon="99.793119">
        <ele>42.5</ele>
        <time>2023-11-04T07:52:28Z</time>
      </trkpt>
      <trkpt lat="13.203362" lon="99.793120">
        <ele>42.0</ele>
        <time>2023-11-04T07:52:29Z</time>
      </trkpt>
      <trkpt lat="13.203478" lon="99.793033">
        <ele>42.0</ele>
        <time>2023-11-04T07:52:32Z</time>
      </trkpt>
      <trkpt lat="13.203506" lon="99.792994">
        <ele>42.0</ele>
        <time>2023-11-04T07:52:33Z</time>
      </trkpt>
      <trkpt lat="13.203522" lon="99.792913">
        <ele>42.2</ele>
        <time>2023-11-04T07:52:35Z</time>
      </trkpt>
      <trkpt lat="13.203545" lon="99.792882">
        <ele>42.2</ele>
        <time>2023-11-04T07:52:36Z</time>
      </trkpt>
      <trkpt lat="13.203581" lon="99.792879">
        <ele>42.2</ele>
        <time>2023-11-04T07:52:37Z</time>
      </trkpt>
      <trkpt lat="13.203681" lon="99.792932">
        <ele>41.9</ele>
        <time>2023-11-04T07:52:40Z</time>
      </trkpt>
      <trkpt lat="13.203712" lon="99.792923">
        <ele>42.0</ele>
        <time>2023-11-04T07:52:41Z</time>
      </trkpt>
      <trkpt lat="13.203738" lon="99.792894">
        <ele>42.1</ele>
        <time>2023-11-04T07:52:42Z</time>
      </trkpt>
      <trkpt lat="13.203827" lon="99.792832">
        <ele>42.0</ele>
        <time>2023-11-04T07:52:45Z</time>
      </trkpt>
      <trkpt lat="13.203838" lon="99.792764">
        <ele>42.5</ele>
        <time>2023-11-04T07:52:47Z</time>
      </trkpt>
      <trkpt lat="13.203910" lon="99.792733">
        <ele>42.2</ele>
        <time>2023-11-04T07:52:49Z</time>
      </trkpt>
      <trkpt lat="13.203955" lon="99.792736">
        <ele>42.2</ele>
        <time>2023-11-04T07:52:50Z</time>
      </trkpt>
      <trkpt lat="13.204045" lon="99.792775">
        <ele>42.2</ele>
        <time>2023-11-04T07:52:52Z</time>
      </trkpt>
      <trkpt lat="13.204085" lon="99.792783">
        <ele>42.2</ele>
        <time>2023-11-04T07:52:53Z</time>
      </trkpt>
      <trkpt lat="13.204275" lon="99.792789">
        <ele>41.3</ele>
        <time>2023-11-04T07:52:57Z</time>
      </trkpt>
      <trkpt lat="13.204320" lon="99.792770">
        <ele>40.0</ele>
        <time>2023-11-04T07:52:58Z</time>
      </trkpt>
      <trkpt lat="13.204322" lon="99.792723">
        <ele>41.9</ele>
        <time>2023-11-04T07:53:00Z</time>
      </trkpt>
      <trkpt lat="13.204275" lon="99.792643">
        <ele>41.9</ele>
        <time>2023-11-04T07:53:02Z</time>
      </trkpt>
      <trkpt lat="13.204262" lon="99.792600">
        <ele>41.8</ele>
        <time>2023-11-04T07:53:03Z</time>
      </trkpt>
      <trkpt lat="13.204219" lon="99.792360">
        <ele>41.9</ele>
        <time>2023-11-04T07:53:08Z</time>
      </trkpt>
      <trkpt lat="13.204212" lon="99.792213">
        <ele>41.5</ele>
        <time>2023-11-04T07:53:11Z</time>
      </trkpt>
      <trkpt lat="13.204227" lon="99.791910">
        <ele>41.9</ele>
        <time>2023-11-04T07:53:17Z</time>
      </trkpt>
      <trkpt lat="13.204255" lon="99.791803">
        <ele>42.3</ele>
        <time>2023-11-04T07:53:19Z</time>
      </trkpt>
      <trkpt lat="13.204335" lon="99.791767">
        <ele>42.5</ele>
        <time>2023-11-04T07:53:20Z</time>
      </trkpt>
      <trkpt lat="13.204407" lon="99.791461">
        <ele>44.8</ele>
        <time>2023-11-04T07:53:26Z</time>
      </trkpt>
      <trkpt lat="13.204672" lon="99.790514">
        <ele>48.1</ele>
        <time>2023-11-04T07:53:47Z</time>
      </trkpt>
      <trkpt lat="13.204652" lon="99.790463">
        <ele>48.4</ele>
        <time>2023-11-04T07:53:48Z</time>
      </trkpt>
      <trkpt lat="13.204669" lon="99.790327">
        <ele>48.8</ele>
        <time>2023-11-04T07:53:51Z</time>
      </trkpt>
      <trkpt lat="13.204806" lon="99.789918">
        <ele>50.0</ele>
        <time>2023-11-04T07:54:01Z</time>
      </trkpt>
      <trkpt lat="13.204840" lon="99.789878">
        <ele>50.0</ele>
        <time>2023-11-04T07:54:03Z</time>
      </trkpt>
      <trkpt lat="13.204923" lon="99.789870">
        <ele>50.1</ele>
        <time>2023-11-04T07:54:06Z</time>
      </trkpt>
      <trkpt lat="13.205063" lon="99.789929">
        <ele>50.8</ele>
        <time>2023-11-04T07:54:09Z</time>
      </trkpt>
      <trkpt lat="13.205173" lon="99.789916">
        <ele>50.5</ele>
        <time>2023-11-04T07:54:11Z</time>
      </trkpt>
      <trkpt lat="13.205282" lon="99.789938">
        <ele>50.1</ele>
        <time>2023-11-04T07:54:13Z</time>
      </trkpt>
      <trkpt lat="13.205333" lon="99.789934">
        <ele>50.1</ele>
        <time>2023-11-04T07:54:14Z</time>
      </trkpt>
      <trkpt lat="13.205377" lon="99.789913">
        <ele>50.0</ele>
        <time>2023-11-04T07:54:15Z</time>
      </trkpt>
      <trkpt lat="13.205408" lon="99.789915">
        <ele>48.4</ele>
        <time>2023-11-04T07:54:16Z</time>
      </trkpt>
      <trkpt lat="13.205478" lon="99.789851">
        <ele>49.6</ele>
        <time>2023-11-04T07:54:18Z</time>
      </trkpt>
      <trkpt lat="13.205514" lon="99.789842">
        <ele>49.5</ele>
        <time>2023-11-04T07:54:19Z</time>
      </trkpt>
      <trkpt lat="13.205706" lon="99.789837">
        <ele>49.6</ele>
        <time>2023-11-04T07:54:24Z</time>
      </trkpt>
      <trkpt lat="13.205798" lon="99.789847">
        <ele>48.0</ele>
        <time>2023-11-04T07:54:26Z</time>
      </trkpt>
      <trkpt lat="13.205836" lon="99.789832">
        <ele>50.0</ele>
        <time>2023-11-04T07:54:28Z</time>
      </trkpt>
      <trkpt lat="13.205855" lon="99.789803">
        <ele>50.0</ele>
        <time>2023-11-04T07:54:30Z</time>
      </trkpt>
      <trkpt lat="13.205861" lon="99.789754">
        <ele>50.0</ele>
        <time>2023-11-04T07:54:32Z</time>
      </trkpt>
      <trkpt lat="13.205831" lon="99.789574">
        <ele>53.0</ele>
        <time>2023-11-04T07:54:56Z</time>
      </trkpt>
      <trkpt lat="13.205840" lon="99.789530">
        <ele>51.0</ele>
        <time>2023-11-04T07:55:03Z</time>
      </trkpt>
      <trkpt lat="13.205832" lon="99.789565">
        <ele>50.0</ele>
        <time>2023-11-04T07:55:18Z</time>
      </trkpt>
      <trkpt lat="13.205836" lon="99.789676">
        <ele>50.0</ele>
        <time>2023-11-04T07:55:27Z</time>
      </trkpt>
      <trkpt lat="13.205869" lon="99.789705">
        <ele>46.0</ele>
        <time>2023-11-04T07:55:51Z</time>
      </trkpt>
      <trkpt lat="13.205846" lon="99.789630">
        <ele>48.0</ele>
        <time>2023-11-04T07:56:05Z</time>
      </trkpt>
      <trkpt lat="13.205853" lon="99.789600">
        <ele>46.0</ele>
        <time>2023-11-04T07:56:07Z</time>
      </trkpt>
      <trkpt lat="13.206027" lon="99.789550">
        <ele>42.0</ele>
        <time>2023-11-04T07:56:19Z</time>
      </trkpt>
      <trkpt lat="13.206139" lon="99.789507">
        <ele>40.0</ele>
        <time>2023-11-04T07:56:35Z</time>
      </trkpt>
      <trkpt lat="13.206159" lon="99.789487">
        <ele>41.0</ele>
        <time>2023-11-04T07:56:44Z</time>
      </trkpt>
      <trkpt lat="13.206283" lon="99.789479">
        <ele>42.0</ele>
        <time>2023-11-04T07:56:57Z</time>
      </trkpt>
      <trkpt lat="13.206512" lon="99.789487">
        <ele>42.0</ele>
        <time>2023-11-04T07:57:07Z</time>
      </trkpt>
      <trkpt lat="13.206648" lon="99.789468">
        <ele>41.0</ele>
        <time>2023-11-04T07:57:13Z</time>
      </trkpt>
      <trkpt lat="13.207048" lon="99.789444">
        <ele>40.0</ele>
        <time>2023-11-04T07:57:32Z</time>
      </trkpt>
      <trkpt lat="13.207118" lon="99.789429">
        <ele>40.0</ele>
        <time>2023-11-04T07:57:36Z</time>
      </trkpt>
      <trkpt lat="13.207259" lon="99.789435">
        <ele>40.0</ele>
        <time>2023-11-04T07:57:42Z</time>
      </trkpt>
      <trkpt lat="13.207369" lon="99.789426">
        <ele>40.0</ele>
        <time>2023-11-04T07:57:46Z</time>
      </trkpt>
      <trkpt lat="13.207741" lon="99.789438">
        <ele>40.6</ele>
        <time>2023-11-04T07:57:58Z</time>
      </trkpt>
      <trkpt lat="13.208334" lon="99.789414">
        <ele>39.9</ele>
        <time>2023-11-04T07:58:16Z</time>
      </trkpt>
      <trkpt lat="13.208551" lon="99.789381">
        <ele>38.0</ele>
        <time>2023-11-04T07:59:05Z</time>
      </trkpt>
      <trkpt lat="13.208533" lon="99.789360">
        <ele>36.0</ele>
        <time>2023-11-04T08:01:28Z</time>
      </trkpt>
      <trkpt lat="13.208533" lon="99.789263">
        <ele>35.0</ele>
        <time>2023-11-04T08:03:24Z</time>
      </trkpt>
      <trkpt lat="13.208574" lon="99.789229">
        <ele>38.0</ele>
        <time>2023-11-04T08:03:28Z</time>
      </trkpt>
      <trkpt lat="13.208683" lon="99.789204">
        <ele>39.0</ele>
        <time>2023-11-04T08:03:32Z</time>
      </trkpt>
      <trkpt lat="13.208721" lon="99.789220">
        <ele>39.0</ele>
        <time>2023-11-04T08:03:33Z</time>
      </trkpt>
      <trkpt lat="13.208753" lon="99.789217">
        <ele>39.4</ele>
        <time>2023-11-04T08:03:34Z</time>
      </trkpt>
      <trkpt lat="13.208820" lon="99.789189">
        <ele>39.8</ele>
        <time>2023-11-04T08:03:36Z</time>
      </trkpt>
      <trkpt lat="13.208857" lon="99.789188">
        <ele>39.3</ele>
        <time>2023-11-04T08:03:37Z</time>
      </trkpt>
      <trkpt lat="13.208930" lon="99.789222">
        <ele>38.5</ele>
        <time>2023-11-04T08:03:39Z</time>
      </trkpt>
      <trkpt lat="13.208978" lon="99.789230">
        <ele>37.8</ele>
        <time>2023-11-04T08:03:40Z</time>
      </trkpt>
      <trkpt lat="13.209031" lon="99.789224">
        <ele>37.7</ele>
        <time>2023-11-04T08:03:41Z</time>
      </trkpt>
      <trkpt lat="13.209146" lon="99.789141">
        <ele>36.5</ele>
        <time>2023-11-04T08:03:44Z</time>
      </trkpt>
      <trkpt lat="13.209198" lon="99.789123">
        <ele>36.5</ele>
        <time>2023-11-04T08:03:45Z</time>
      </trkpt>
      <trkpt lat="13.209361" lon="99.789103">
        <ele>36.5</ele>
        <time>2023-11-04T08:03:48Z</time>
      </trkpt>
      <trkpt lat="13.209392" lon="99.789070">
        <ele>36.7</ele>
        <time>2023-11-04T08:03:49Z</time>
      </trkpt>
      <trkpt lat="13.209402" lon="99.789028">
        <ele>36.4</ele>
        <time>2023-11-04T08:03:50Z</time>
      </trkpt>
      <trkpt lat="13.209417" lon="99.788800">
        <ele>37.1</ele>
        <time>2023-11-04T08:03:55Z</time>
      </trkpt>
      <trkpt lat="13.209408" lon="99.788716">
        <ele>36.9</ele>
        <time>2023-11-04T08:03:57Z</time>
      </trkpt>
      <trkpt lat="13.209340" lon="99.788562">
        <ele>37.6</ele>
        <time>2023-11-04T08:04:01Z</time>
      </trkpt>
      <trkpt lat="13.209214" lon="99.788387">
        <ele>38.6</ele>
        <time>2023-11-04T08:04:07Z</time>
      </trkpt>
      <trkpt lat="13.209140" lon="99.788317">
        <ele>38.9</ele>
        <time>2023-11-04T08:04:10Z</time>
      </trkpt>
      <trkpt lat="13.209102" lon="99.788253">
        <ele>38.9</ele>
        <time>2023-11-04T08:04:12Z</time>
      </trkpt>
      <trkpt lat="13.209075" lon="99.788139">
        <ele>39.5</ele>
        <time>2023-11-04T08:04:15Z</time>
      </trkpt>
      <trkpt lat="13.209009" lon="99.788008">
        <ele>39.6</ele>
        <time>2023-11-04T08:04:19Z</time>
      </trkpt>
      <trkpt lat="13.208987" lon="99.787930">
        <ele>39.7</ele>
        <time>2023-11-04T08:04:21Z</time>
      </trkpt>
      <trkpt lat="13.208966" lon="99.787782">
        <ele>40.2</ele>
        <time>2023-11-04T08:04:25Z</time>
      </trkpt>
      <trkpt lat="13.208962" lon="99.787675">
        <ele>40.4</ele>
        <time>2023-11-04T08:04:28Z</time>
      </trkpt>
      <trkpt lat="13.208989" lon="99.787564">
        <ele>40.6</ele>
        <time>2023-11-04T08:04:31Z</time>
      </trkpt>
      <trkpt lat="13.208993" lon="99.787487">
        <ele>40.5</ele>
        <time>2023-11-04T08:04:33Z</time>
      </trkpt>
      <trkpt lat="13.209014" lon="99.787410">
        <ele>40.6</ele>
        <time>2023-11-04T08:04:35Z</time>
      </trkpt>
      <trkpt lat="13.209033" lon="99.787266">
        <ele>41.6</ele>
        <time>2023-11-04T08:04:39Z</time>
      </trkpt>
      <trkpt lat="13.209108" lon="99.787089">
        <ele>42.4</ele>
        <time>2023-11-04T08:04:44Z</time>
      </trkpt>
      <trkpt lat="13.209203" lon="99.786907">
        <ele>42.7</ele>
        <time>2023-11-04T08:04:49Z</time>
      </trkpt>
      <trkpt lat="13.209276" lon="99.786729">
        <ele>42.8</ele>
        <time>2023-11-04T08:04:53Z</time>
      </trkpt>
      <trkpt lat="13.209350" lon="99.786597">
        <ele>42.7</ele>
        <time>2023-11-04T08:04:56Z</time>
      </trkpt>
      <trkpt lat="13.209421" lon="99.786573">
        <ele>42.8</ele>
        <time>2023-11-04T08:04:57Z</time>
      </trkpt>
      <trkpt lat="13.209444" lon="99.786532">
        <ele>42.9</ele>
        <time>2023-11-04T08:04:58Z</time>
      </trkpt>
      <trkpt lat="13.209590" lon="99.786218">
        <ele>43.7</ele>
        <time>2023-11-04T08:05:05Z</time>
      </trkpt>
      <trkpt lat="13.209595" lon="99.786168">
        <ele>43.7</ele>
        <time>2023-11-04T08:05:06Z</time>
      </trkpt>
      <trkpt lat="13.209656" lon="99.786052">
        <ele>43.5</ele>
        <time>2023-11-04T08:05:09Z</time>
      </trkpt>
      <trkpt lat="13.209671" lon="99.786005">
        <ele>44.1</ele>
        <time>2023-11-04T08:05:10Z</time>
      </trkpt>
      <trkpt lat="13.209701" lon="99.785972">
        <ele>44.1</ele>
        <time>2023-11-04T08:05:11Z</time>
      </trkpt>
      <trkpt lat="13.209869" lon="99.785524">
        <ele>42.9</ele>
        <time>2023-11-04T08:05:20Z</time>
      </trkpt>
      <trkpt lat="13.209905" lon="99.785376">
        <ele>42.2</ele>
        <time>2023-11-04T08:05:24Z</time>
      </trkpt>
      <trkpt lat="13.209854" lon="99.785266">
        <ele>41.6</ele>
        <time>2023-11-04T08:05:27Z</time>
      </trkpt>
      <trkpt lat="13.209797" lon="99.784922">
        <ele>42.3</ele>
        <time>2023-11-04T08:05:34Z</time>
      </trkpt>
      <trkpt lat="13.209832" lon="99.784867">
        <ele>42.8</ele>
        <time>2023-11-04T08:05:35Z</time>
      </trkpt>
      <trkpt lat="13.209804" lon="99.784616">
        <ele>42.0</ele>
        <time>2023-11-04T08:05:42Z</time>
      </trkpt>
      <trkpt lat="13.210250" lon="99.784477">
        <ele>41.0</ele>
        <time>2023-11-04T08:05:51Z</time>
      </trkpt>
      <trkpt lat="13.210394" lon="99.784402">
        <ele>40.1</ele>
        <time>2023-11-04T08:05:55Z</time>
      </trkpt>
      <trkpt lat="13.210519" lon="99.784321">
        <ele>40.4</ele>
        <time>2023-11-04T08:05:59Z</time>
      </trkpt>
      <trkpt lat="13.210554" lon="99.784307">
        <ele>40.1</ele>
        <time>2023-11-04T08:06:00Z</time>
      </trkpt>
      <trkpt lat="13.210589" lon="99.784311">
        <ele>40.0</ele>
        <time>2023-11-04T08:06:01Z</time>
      </trkpt>
      <trkpt lat="13.210631" lon="99.784295">
        <ele>40.0</ele>
        <time>2023-11-04T08:06:02Z</time>
      </trkpt>
      <trkpt lat="13.210693" lon="99.784250">
        <ele>40.1</ele>
        <time>2023-11-04T08:06:05Z</time>
      </trkpt>
      <trkpt lat="13.210802" lon="99.784110">
        <ele>39.9</ele>
        <time>2023-11-04T08:06:10Z</time>
      </trkpt>
      <trkpt lat="13.210835" lon="99.784050">
        <ele>40.1</ele>
        <time>2023-11-04T08:06:12Z</time>
      </trkpt>
      <trkpt lat="13.210842" lon="99.783912">
        <ele>39.4</ele>
        <time>2023-11-04T08:06:16Z</time>
      </trkpt>
      <trkpt lat="13.210866" lon="99.783852">
        <ele>40.0</ele>
        <time>2023-11-04T08:06:18Z</time>
      </trkpt>
      <trkpt lat="13.210835" lon="99.783645">
        <ele>40.0</ele>
        <time>2023-11-04T08:06:25Z</time>
      </trkpt>
      <trkpt lat="13.210831" lon="99.783531">
        <ele>40.0</ele>
        <time>2023-11-04T08:06:29Z</time>
      </trkpt>
      <trkpt lat="13.210810" lon="99.783445">
        <ele>40.0</ele>
        <time>2023-11-04T08:06:32Z</time>
      </trkpt>
      <trkpt lat="13.210811" lon="99.783399">
        <ele>41.5</ele>
        <time>2023-11-04T08:06:34Z</time>
      </trkpt>
      <trkpt lat="13.210858" lon="99.783315">
        <ele>41.6</ele>
        <time>2023-11-04T08:06:37Z</time>
      </trkpt>
      <trkpt lat="13.210892" lon="99.783297">
        <ele>41.9</ele>
        <time>2023-11-04T08:06:38Z</time>
      </trkpt>
      <trkpt lat="13.210927" lon="99.783292">
        <ele>41.6</ele>
        <time>2023-11-04T08:06:39Z</time>
      </trkpt>
      <trkpt lat="13.210970" lon="99.783234">
        <ele>41.4</ele>
        <time>2023-11-04T08:06:41Z</time>
      </trkpt>
      <trkpt lat="13.210973" lon="99.783200">
        <ele>41.8</ele>
        <time>2023-11-04T08:06:42Z</time>
      </trkpt>
      <trkpt lat="13.210929" lon="99.783133">
        <ele>40.0</ele>
        <time>2023-11-04T08:06:47Z</time>
      </trkpt>
      <trkpt lat="13.210932" lon="99.783103">
        <ele>42.0</ele>
        <time>2023-11-04T08:06:50Z</time>
      </trkpt>
      <trkpt lat="13.210956" lon="99.783074">
        <ele>42.0</ele>
        <time>2023-11-04T08:06:52Z</time>
      </trkpt>
      <trkpt lat="13.210967" lon="99.783041">
        <ele>42.0</ele>
        <time>2023-11-04T08:06:54Z</time>
      </trkpt>
      <trkpt lat="13.211038" lon="99.782981">
        <ele>42.6</ele>
        <time>2023-11-04T08:06:58Z</time>
      </trkpt>
      <trkpt lat="13.211139" lon="99.782919">
        <ele>42.0</ele>
        <time>2023-11-04T08:07:01Z</time>
      </trkpt>
      <trkpt lat="13.211162" lon="99.782871">
        <ele>42.0</ele>
        <time>2023-11-04T08:07:03Z</time>
      </trkpt>
      <trkpt lat="13.211205" lon="99.782863">
        <ele>43.0</ele>
        <time>2023-11-04T08:07:05Z</time>
      </trkpt>
      <trkpt lat="13.211232" lon="99.782795">
        <ele>42.8</ele>
        <time>2023-11-04T08:07:08Z</time>
      </trkpt>
      <trkpt lat="13.211252" lon="99.782772">
        <ele>43.0</ele>
        <time>2023-11-04T08:07:09Z</time>
      </trkpt>
      <trkpt lat="13.211385" lon="99.782691">
        <ele>41.3</ele>
        <time>2023-11-04T08:07:13Z</time>
      </trkpt>
      <trkpt lat="13.211425" lon="99.782634">
        <ele>42.1</ele>
        <time>2023-11-04T08:07:15Z</time>
      </trkpt>
      <trkpt lat="13.211460" lon="99.782625">
        <ele>42.0</ele>
        <time>2023-11-04T08:07:16Z</time>
      </trkpt>
      <trkpt lat="13.211494" lon="99.782636">
        <ele>41.3</ele>
        <time>2023-11-04T08:07:17Z</time>
      </trkpt>
      <trkpt lat="13.211532" lon="99.782630">
        <ele>41.1</ele>
        <time>2023-11-04T08:07:18Z</time>
      </trkpt>
      <trkpt lat="13.211560" lon="99.782615">
        <ele>41.3</ele>
        <time>2023-11-04T08:07:19Z</time>
      </trkpt>
      <trkpt lat="13.211584" lon="99.782581">
        <ele>41.0</ele>
        <time>2023-11-04T08:07:20Z</time>
      </trkpt>
      <trkpt lat="13.211723" lon="99.782512">
        <ele>41.6</ele>
        <time>2023-11-04T08:07:24Z</time>
      </trkpt>
      <trkpt lat="13.211895" lon="99.782374">
        <ele>41.5</ele>
        <time>2023-11-04T08:07:29Z</time>
      </trkpt>
      <trkpt lat="13.212019" lon="99.782342">
        <ele>41.1</ele>
        <time>2023-11-04T08:07:32Z</time>
      </trkpt>
      <trkpt lat="13.212047" lon="99.782324">
        <ele>40.9</ele>
        <time>2023-11-04T08:07:33Z</time>
      </trkpt>
      <trkpt lat="13.212110" lon="99.782232">
        <ele>40.2</ele>
        <time>2023-11-04T08:07:36Z</time>
      </trkpt>
      <trkpt lat="13.212137" lon="99.782169">
        <ele>40.5</ele>
        <time>2023-11-04T08:07:38Z</time>
      </trkpt>
      <trkpt lat="13.212158" lon="99.782059">
        <ele>40.0</ele>
        <time>2023-11-04T08:07:41Z</time>
      </trkpt>
      <trkpt lat="13.212150" lon="99.781968">
        <ele>42.0</ele>
        <time>2023-11-04T08:07:45Z</time>
      </trkpt>
      <trkpt lat="13.212160" lon="99.781922">
        <ele>41.9</ele>
        <time>2023-11-04T08:07:47Z</time>
      </trkpt>
      <trkpt lat="13.212188" lon="99.781890">
        <ele>41.0</ele>
        <time>2023-11-04T08:07:48Z</time>
      </trkpt>
      <trkpt lat="13.212233" lon="99.781879">
        <ele>42.0</ele>
        <time>2023-11-04T08:07:50Z</time>
      </trkpt>
      <trkpt lat="13.212298" lon="99.781912">
        <ele>42.5</ele>
        <time>2023-11-04T08:07:53Z</time>
      </trkpt>
      <trkpt lat="13.212484" lon="99.782038">
        <ele>42.3</ele>
        <time>2023-11-04T08:07:59Z</time>
      </trkpt>
      <trkpt lat="13.212691" lon="99.782117">
        <ele>40.4</ele>
        <time>2023-11-04T08:08:04Z</time>
      </trkpt>
      <trkpt lat="13.212749" lon="99.782133">
        <ele>40.6</ele>
        <time>2023-11-04T08:08:05Z</time>
      </trkpt>
      <trkpt lat="13.212790" lon="99.782121">
        <ele>42.8</ele>
        <time>2023-11-04T08:08:06Z</time>
      </trkpt>
      <trkpt lat="13.213195" lon="99.782258">
        <ele>42.3</ele>
        <time>2023-11-04T08:08:16Z</time>
      </trkpt>
      <trkpt lat="13.213412" lon="99.782288">
        <ele>42.3</ele>
        <time>2023-11-04T08:08:21Z</time>
      </trkpt>
      <trkpt lat="13.213731" lon="99.782229">
        <ele>41.6</ele>
        <time>2023-11-04T08:08:28Z</time>
      </trkpt>
      <trkpt lat="13.213887" lon="99.782180">
        <ele>42.3</ele>
        <time>2023-11-04T08:08:32Z</time>
      </trkpt>
      <trkpt lat="13.214045" lon="99.782153">
        <ele>43.8</ele>
        <time>2023-11-04T08:08:36Z</time>
      </trkpt>
      <trkpt lat="13.214087" lon="99.782165">
        <ele>44.1</ele>
        <time>2023-11-04T08:08:37Z</time>
      </trkpt>
      <trkpt lat="13.214115" lon="99.782200">
        <ele>43.8</ele>
        <time>2023-11-04T08:08:38Z</time>
      </trkpt>
      <trkpt lat="13.214109" lon="99.782254">
        <ele>43.8</ele>
        <time>2023-11-04T08:08:39Z</time>
      </trkpt>
      <trkpt lat="13.214027" lon="99.782388">
        <ele>43.7</ele>
        <time>2023-11-04T08:08:42Z</time>
      </trkpt>
      <trkpt lat="13.213985" lon="99.782486">
        <ele>43.4</ele>
        <time>2023-11-04T08:08:44Z</time>
      </trkpt>
      <trkpt lat="13.213994" lon="99.782573">
        <ele>42.0</ele>
        <time>2023-11-04T08:08:47Z</time>
      </trkpt>
      <trkpt lat="13.213921" lon="99.782588">
        <ele>42.0</ele>
        <time>2023-11-04T08:08:50Z</time>
      </trkpt>
      <trkpt lat="13.213913" lon="99.782630">
        <ele>42.0</ele>
        <time>2023-11-04T08:08:55Z</time>
      </trkpt>
      <trkpt lat="13.213949" lon="99.782534">
        <ele>42.0</ele>
        <time>2023-11-04T08:09:05Z</time>
      </trkpt>
      <trkpt lat="13.213990" lon="99.782523">
        <ele>43.2</ele>
        <time>2023-11-04T08:09:07Z</time>
      </trkpt>
      <trkpt lat="13.214245" lon="99.782609">
        <ele>43.2</ele>
        <time>2023-11-04T08:09:15Z</time>
      </trkpt>
      <trkpt lat="13.214376" lon="99.782598">
        <ele>43.0</ele>
        <time>2023-11-04T08:09:19Z</time>
      </trkpt>
      <trkpt lat="13.214416" lon="99.782605">
        <ele>43.0</ele>
        <time>2023-11-04T08:09:20Z</time>
      </trkpt>
      <trkpt lat="13.214957" lon="99.782797">
        <ele>43.5</ele>
        <time>2023-11-04T08:09:35Z</time>
      </trkpt>
      <trkpt lat="13.215260" lon="99.782854">
        <ele>43.0</ele>
        <time>2023-11-04T08:09:45Z</time>
      </trkpt>
      <trkpt lat="13.215373" lon="99.782896">
        <ele>42.9</ele>
        <time>2023-11-04T08:09:48Z</time>
      </trkpt>
      <trkpt lat="13.215441" lon="99.782938">
        <ele>42.7</ele>
        <time>2023-11-04T08:09:50Z</time>
      </trkpt>
      <trkpt lat="13.216032" lon="99.783197">
        <ele>42.0</ele>
        <time>2023-11-04T08:10:04Z</time>
      </trkpt>
      <trkpt lat="13.216076" lon="99.783202">
        <ele>42.1</ele>
        <time>2023-11-04T08:10:05Z</time>
      </trkpt>
      <trkpt lat="13.216331" lon="99.783285">
        <ele>42.2</ele>
        <time>2023-11-04T08:10:11Z</time>
      </trkpt>
      <trkpt lat="13.216515" lon="99.783297">
        <ele>41.8</ele>
        <time>2023-11-04T08:10:15Z</time>
      </trkpt>
      <trkpt lat="13.216656" lon="99.783317">
        <ele>41.8</ele>
        <time>2023-11-04T08:10:18Z</time>
      </trkpt>
      <trkpt lat="13.216694" lon="99.783313">
        <ele>41.8</ele>
        <time>2023-11-04T08:10:19Z</time>
      </trkpt>
      <trkpt lat="13.216710" lon="99.783286">
        <ele>40.0</ele>
        <time>2023-11-04T08:10:20Z</time>
      </trkpt>
      <trkpt lat="13.216712" lon="99.783234">
        <ele>42.0</ele>
        <time>2023-11-04T08:10:22Z</time>
      </trkpt>
      <trkpt lat="13.216753" lon="99.783204">
        <ele>41.0</ele>
        <time>2023-11-04T08:10:24Z</time>
      </trkpt>
      <trkpt lat="13.217063" lon="99.783233">
        <ele>42.2</ele>
        <time>2023-11-04T08:10:34Z</time>
      </trkpt>
      <trkpt lat="13.217184" lon="99.783259">
        <ele>42.4</ele>
        <time>2023-11-04T08:10:37Z</time>
      </trkpt>
      <trkpt lat="13.217263" lon="99.783255">
        <ele>42.4</ele>
        <time>2023-11-04T08:10:39Z</time>
      </trkpt>
      <trkpt lat="13.217425" lon="99.783273">
        <ele>42.4</ele>
        <time>2023-11-04T08:10:43Z</time>
      </trkpt>
      <trkpt lat="13.217544" lon="99.783273">
        <ele>41.4</ele>
        <time>2023-11-04T08:10:46Z</time>
      </trkpt>
      <trkpt lat="13.217655" lon="99.783232">
        <ele>41.6</ele>
        <time>2023-11-04T08:10:49Z</time>
      </trkpt>
      <trkpt lat="13.217769" lon="99.783225">
        <ele>41.5</ele>
        <time>2023-11-04T08:10:52Z</time>
      </trkpt>
      <trkpt lat="13.217807" lon="99.783234">
        <ele>41.6</ele>
        <time>2023-11-04T08:10:53Z</time>
      </trkpt>
      <trkpt lat="13.217912" lon="99.783232">
        <ele>40.9</ele>
        <time>2023-11-04T08:10:56Z</time>
      </trkpt>
      <trkpt lat="13.217972" lon="99.783203">
        <ele>41.1</ele>
        <time>2023-11-04T08:10:58Z</time>
      </trkpt>
      <trkpt lat="13.218035" lon="99.783187">
        <ele>40.8</ele>
        <time>2023-11-04T08:11:00Z</time>
      </trkpt>
      <trkpt lat="13.218265" lon="99.783180">
        <ele>41.2</ele>
        <time>2023-11-04T08:11:06Z</time>
      </trkpt>
      <trkpt lat="13.218341" lon="99.783162">
        <ele>41.3</ele>
        <time>2023-11-04T08:11:08Z</time>
      </trkpt>
      <trkpt lat="13.218374" lon="99.783141">
        <ele>41.2</ele>
        <time>2023-11-04T08:11:09Z</time>
      </trkpt>
      <trkpt lat="13.218416" lon="99.783068">
        <ele>41.5</ele>
        <time>2023-11-04T08:11:11Z</time>
      </trkpt>
      <trkpt lat="13.218448" lon="99.783038">
        <ele>41.8</ele>
        <time>2023-11-04T08:11:12Z</time>
      </trkpt>
      <trkpt lat="13.218488" lon="99.783027">
        <ele>41.5</ele>
        <time>2023-11-04T08:11:13Z</time>
      </trkpt>
      <trkpt lat="13.218517" lon="99.783001">
        <ele>41.4</ele>
        <time>2023-11-04T08:11:14Z</time>
      </trkpt>
      <trkpt lat="13.218531" lon="99.782966">
        <ele>40.9</ele>
        <time>2023-11-04T08:11:15Z</time>
      </trkpt>
      <trkpt lat="13.218528" lon="99.782850">
        <ele>41.1</ele>
        <time>2023-11-04T08:11:18Z</time>
      </trkpt>
      <trkpt lat="13.218621" lon="99.782779">
        <ele>40.9</ele>
        <time>2023-11-04T08:11:21Z</time>
      </trkpt>
      <trkpt lat="13.218688" lon="99.782763">
        <ele>41.5</ele>
        <time>2023-11-04T08:11:23Z</time>
      </trkpt>
      <trkpt lat="13.218740" lon="99.782715">
        <ele>41.1</ele>
        <time>2023-11-04T08:11:25Z</time>
      </trkpt>
      <trkpt lat="13.218812" lon="99.782714">
        <ele>41.0</ele>
        <time>2023-11-04T08:11:27Z</time>
      </trkpt>
      <trkpt lat="13.218981" lon="99.782586">
        <ele>42.4</ele>
        <time>2023-11-04T08:11:33Z</time>
      </trkpt>
      <trkpt lat="13.219048" lon="99.782547">
        <ele>42.3</ele>
        <time>2023-11-04T08:11:35Z</time>
      </trkpt>
      <trkpt lat="13.219235" lon="99.782469">
        <ele>42.0</ele>
        <time>2023-11-04T08:11:40Z</time>
      </trkpt>
      <trkpt lat="13.219302" lon="99.782416">
        <ele>43.1</ele>
        <time>2023-11-04T08:11:42Z</time>
      </trkpt>
      <trkpt lat="13.219331" lon="99.782381">
        <ele>43.0</ele>
        <time>2023-11-04T08:11:43Z</time>
      </trkpt>
      <trkpt lat="13.219367" lon="99.782305">
        <ele>42.8</ele>
        <time>2023-11-04T08:11:45Z</time>
      </trkpt>
      <trkpt lat="13.219395" lon="99.782273">
        <ele>42.9</ele>
        <time>2023-11-04T08:11:46Z</time>
      </trkpt>
      <trkpt lat="13.219472" lon="99.782232">
        <ele>42.7</ele>
        <time>2023-11-04T08:11:48Z</time>
      </trkpt>
      <trkpt lat="13.219502" lon="99.782201">
        <ele>42.7</ele>
        <time>2023-11-04T08:11:49Z</time>
      </trkpt>
      <trkpt lat="13.219518" lon="99.782162">
        <ele>42.6</ele>
        <time>2023-11-04T08:11:50Z</time>
      </trkpt>
      <trkpt lat="13.219546" lon="99.781924">
        <ele>42.2</ele>
        <time>2023-11-04T08:11:56Z</time>
      </trkpt>
      <trkpt lat="13.219520" lon="99.781857">
        <ele>42.2</ele>
        <time>2023-11-04T08:11:58Z</time>
      </trkpt>
      <trkpt lat="13.219447" lon="99.781828">
        <ele>42.4</ele>
        <time>2023-11-04T08:12:00Z</time>
      </trkpt>
      <trkpt lat="13.219428" lon="99.781799">
        <ele>42.4</ele>
        <time>2023-11-04T08:12:01Z</time>
      </trkpt>
      <trkpt lat="13.219421" lon="99.781761">
        <ele>42.4</ele>
        <time>2023-11-04T08:12:02Z</time>
      </trkpt>
      <trkpt lat="13.219372" lon="99.781660">
        <ele>42.8</ele>
        <time>2023-11-04T08:12:05Z</time>
      </trkpt>
      <trkpt lat="13.219371" lon="99.781586">
        <ele>42.7</ele>
        <time>2023-11-04T08:12:07Z</time>
      </trkpt>
      <trkpt lat="13.219314" lon="99.781505">
        <ele>42.0</ele>
        <time>2023-11-04T08:12:10Z</time>
      </trkpt>
      <trkpt lat="13.219269" lon="99.781495">
        <ele>42.0</ele>
        <time>2023-11-04T08:12:12Z</time>
      </trkpt>
      <trkpt lat="13.219233" lon="99.781498">
        <ele>43.4</ele>
        <time>2023-11-04T08:12:14Z</time>
      </trkpt>
      <trkpt lat="13.219138" lon="99.781536">
        <ele>42.0</ele>
        <time>2023-11-04T08:12:40Z</time>
      </trkpt>
      <trkpt lat="13.219093" lon="99.781520">
        <ele>42.0</ele>
        <time>2023-11-04T08:12:42Z</time>
      </trkpt>
      <trkpt lat="13.219046" lon="99.781528">
        <ele>42.0</ele>
        <time>2023-11-04T08:12:44Z</time>
      </trkpt>
      <trkpt lat="13.219000" lon="99.781517">
        <ele>43.8</ele>
        <time>2023-11-04T08:12:46Z</time>
      </trkpt>
      <trkpt lat="13.218973" lon="99.781497">
        <ele>43.9</ele>
        <time>2023-11-04T08:12:47Z</time>
      </trkpt>
      <trkpt lat="13.218903" lon="99.781392">
        <ele>43.8</ele>
        <time>2023-11-04T08:12:51Z</time>
      </trkpt>
      <trkpt lat="13.218860" lon="99.781260">
        <ele>43.9</ele>
        <time>2023-11-04T08:12:55Z</time>
      </trkpt>
      <trkpt lat="13.218819" lon="99.781171">
        <ele>43.8</ele>
        <time>2023-11-04T08:12:58Z</time>
      </trkpt>
      <trkpt lat="13.218794" lon="99.781068">
        <ele>43.8</ele>
        <time>2023-11-04T08:13:01Z</time>
      </trkpt>
      <trkpt lat="13.218756" lon="99.781016">
        <ele>43.8</ele>
        <time>2023-11-04T08:13:03Z</time>
      </trkpt>
      <trkpt lat="13.218725" lon="99.780999">
        <ele>44.3</ele>
        <time>2023-11-04T08:13:04Z</time>
      </trkpt>
      <trkpt lat="13.218704" lon="99.780967">
        <ele>44.1</ele>
        <time>2023-11-04T08:13:05Z</time>
      </trkpt>
      <trkpt lat="13.218700" lon="99.780893">
        <ele>44.6</ele>
        <time>2023-11-04T08:13:07Z</time>
      </trkpt>
      <trkpt lat="13.218660" lon="99.780831">
        <ele>44.7</ele>
        <time>2023-11-04T08:13:09Z</time>
      </trkpt>
      <trkpt lat="13.218640" lon="99.780722">
        <ele>44.8</ele>
        <time>2023-11-04T08:13:12Z</time>
      </trkpt>
      <trkpt lat="13.218601" lon="99.780651">
        <ele>44.4</ele>
        <time>2023-11-04T08:13:14Z</time>
      </trkpt>
      <trkpt lat="13.218550" lon="99.780587">
        <ele>44.6</ele>
        <time>2023-11-04T08:13:16Z</time>
      </trkpt>
      <trkpt lat="13.218521" lon="99.780522">
        <ele>45.2</ele>
        <time>2023-11-04T08:13:18Z</time>
      </trkpt>
      <trkpt lat="13.218527" lon="99.780488">
        <ele>45.0</ele>
        <time>2023-11-04T08:13:19Z</time>
      </trkpt>
      <trkpt lat="13.218491" lon="99.780432">
        <ele>45.2</ele>
        <time>2023-11-04T08:13:21Z</time>
      </trkpt>
      <trkpt lat="13.218481" lon="99.780383">
        <ele>44.0</ele>
        <time>2023-11-04T08:13:22Z</time>
      </trkpt>
      <trkpt lat="13.218498" lon="99.780339">
        <ele>44.0</ele>
        <time>2023-11-04T08:13:24Z</time>
      </trkpt>
      <trkpt lat="13.218551" lon="99.780325">
        <ele>44.0</ele>
        <time>2023-11-04T08:13:26Z</time>
      </trkpt>
      <trkpt lat="13.218570" lon="99.780293">
        <ele>44.0</ele>
        <time>2023-11-04T08:13:28Z</time>
      </trkpt>
      <trkpt lat="13.218528" lon="99.780265">
        <ele>45.1</ele>
        <time>2023-11-04T08:13:30Z</time>
      </trkpt>
      <trkpt lat="13.218546" lon="99.780224">
        <ele>45.2</ele>
        <time>2023-11-04T08:13:31Z</time>
      </trkpt>
      <trkpt lat="13.218547" lon="99.780189">
        <ele>44.7</ele>
        <time>2023-11-04T08:13:32Z</time>
      </trkpt>
      <trkpt lat="13.218519" lon="99.780172">
        <ele>45.1</ele>
        <time>2023-11-04T08:13:33Z</time>
      </trkpt>
      <trkpt lat="13.218476" lon="99.780178">
        <ele>44.0</ele>
        <time>2023-11-04T08:13:34Z</time>
      </trkpt>
      <trkpt lat="13.218374" lon="99.780079">
        <ele>45.4</ele>
        <time>2023-11-04T08:13:39Z</time>
      </trkpt>
      <trkpt lat="13.218365" lon="99.780044">
        <ele>45.3</ele>
        <time>2023-11-04T08:13:40Z</time>
      </trkpt>
      <trkpt lat="13.218377" lon="99.779929">
        <ele>45.2</ele>
        <time>2023-11-04T08:13:43Z</time>
      </trkpt>
      <trkpt lat="13.218329" lon="99.779818">
        <ele>45.2</ele>
        <time>2023-11-04T08:13:46Z</time>
      </trkpt>
      <trkpt lat="13.218301" lon="99.779702">
        <ele>45.3</ele>
        <time>2023-11-04T08:13:49Z</time>
      </trkpt>
      <trkpt lat="13.218319" lon="99.779662">
        <ele>45.2</ele>
        <time>2023-11-04T08:13:50Z</time>
      </trkpt>
      <trkpt lat="13.218348" lon="99.779628">
        <ele>45.1</ele>
        <time>2023-11-04T08:13:51Z</time>
      </trkpt>
      <trkpt lat="13.218598" lon="99.779470">
        <ele>46.0</ele>
        <time>2023-11-04T08:13:58Z</time>
      </trkpt>
      <trkpt lat="13.218631" lon="99.779441">
        <ele>46.1</ele>
        <time>2023-11-04T08:13:59Z</time>
      </trkpt>
      <trkpt lat="13.218672" lon="99.779373">
        <ele>46.4</ele>
        <time>2023-11-04T08:14:01Z</time>
      </trkpt>
      <trkpt lat="13.218745" lon="99.779328">
        <ele>46.7</ele>
        <time>2023-11-04T08:14:03Z</time>
      </trkpt>
      <trkpt lat="13.218805" lon="99.779271">
        <ele>46.9</ele>
        <time>2023-11-04T08:14:05Z</time>
      </trkpt>
      <trkpt lat="13.218868" lon="99.779231">
        <ele>46.9</ele>
        <time>2023-11-04T08:14:07Z</time>
      </trkpt>
      <trkpt lat="13.218890" lon="99.779200">
        <ele>46.7</ele>
        <time>2023-11-04T08:14:08Z</time>
      </trkpt>
      <trkpt lat="13.218901" lon="99.779128">
        <ele>47.2</ele>
        <time>2023-11-04T08:14:10Z</time>
      </trkpt>
      <trkpt lat="13.218917" lon="99.779090">
        <ele>47.2</ele>
        <time>2023-11-04T08:14:11Z</time>
      </trkpt>
      <trkpt lat="13.219020" lon="99.778956">
        <ele>47.1</ele>
        <time>2023-11-04T08:14:15Z</time>
      </trkpt>
      <trkpt lat="13.219042" lon="99.778881">
        <ele>47.4</ele>
        <time>2023-11-04T08:14:17Z</time>
      </trkpt>
      <trkpt lat="13.219066" lon="99.778851">
        <ele>47.2</ele>
        <time>2023-11-04T08:14:18Z</time>
      </trkpt>
      <trkpt lat="13.219142" lon="99.778825">
        <ele>47.6</ele>
        <time>2023-11-04T08:14:20Z</time>
      </trkpt>
      <trkpt lat="13.219211" lon="99.778787">
        <ele>48.1</ele>
        <time>2023-11-04T08:14:22Z</time>
      </trkpt>
      <trkpt lat="13.219269" lon="99.778703">
        <ele>48.0</ele>
        <time>2023-11-04T08:14:25Z</time>
      </trkpt>
      <trkpt lat="13.219307" lon="99.778681">
        <ele>48.0</ele>
        <time>2023-11-04T08:14:26Z</time>
      </trkpt>
      <trkpt lat="13.219308" lon="99.778550">
        <ele>49.5</ele>
        <time>2023-11-04T08:14:30Z</time>
      </trkpt>
      <trkpt lat="13.219285" lon="99.778446">
        <ele>49.7</ele>
        <time>2023-11-04T08:14:33Z</time>
      </trkpt>
      <trkpt lat="13.219291" lon="99.778408">
        <ele>49.8</ele>
        <time>2023-11-04T08:14:34Z</time>
      </trkpt>
      <trkpt lat="13.219401" lon="99.778278">
        <ele>49.9</ele>
        <time>2023-11-04T08:14:38Z</time>
      </trkpt>
      <trkpt lat="13.219404" lon="99.778235">
        <ele>50.4</ele>
        <time>2023-11-04T08:14:39Z</time>
      </trkpt>
      <trkpt lat="13.219464" lon="99.778179">
        <ele>50.5</ele>
        <time>2023-11-04T08:14:41Z</time>
      </trkpt>
      <trkpt lat="13.219540" lon="99.778141">
        <ele>50.7</ele>
        <time>2023-11-04T08:14:43Z</time>
      </trkpt>
      <trkpt lat="13.219633" lon="99.778137">
        <ele>51.0</ele>
        <time>2023-11-04T08:14:45Z</time>
      </trkpt>
      <trkpt lat="13.219721" lon="99.778122">
        <ele>51.8</ele>
        <time>2023-11-04T08:14:47Z</time>
      </trkpt>
      <trkpt lat="13.219852" lon="99.778084">
        <ele>51.6</ele>
        <time>2023-11-04T08:14:50Z</time>
      </trkpt>
      <trkpt lat="13.220036" lon="99.778057">
        <ele>51.0</ele>
        <time>2023-11-04T08:14:54Z</time>
      </trkpt>
      <trkpt lat="13.220210" lon="99.777981">
        <ele>50.6</ele>
        <time>2023-11-04T08:14:58Z</time>
      </trkpt>
      <trkpt lat="13.220256" lon="99.777975">
        <ele>51.1</ele>
        <time>2023-11-04T08:14:59Z</time>
      </trkpt>
      <trkpt lat="13.220358" lon="99.777989">
        <ele>51.2</ele>
        <time>2023-11-04T08:15:01Z</time>
      </trkpt>
      <trkpt lat="13.220402" lon="99.777974">
        <ele>51.1</ele>
        <time>2023-11-04T08:15:02Z</time>
      </trkpt>
      <trkpt lat="13.220434" lon="99.777940">
        <ele>51.2</ele>
        <time>2023-11-04T08:15:03Z</time>
      </trkpt>
      <trkpt lat="13.220436" lon="99.777852">
        <ele>50.0</ele>
        <time>2023-11-04T08:15:05Z</time>
      </trkpt>
      <trkpt lat="13.220469" lon="99.777742">
        <ele>51.0</ele>
        <time>2023-11-04T08:15:09Z</time>
      </trkpt>
      <trkpt lat="13.220505" lon="99.777714">
        <ele>51.0</ele>
        <time>2023-11-04T08:15:10Z</time>
      </trkpt>
      <trkpt lat="13.220609" lon="99.777681">
        <ele>50.6</ele>
        <time>2023-11-04T08:15:13Z</time>
      </trkpt>
      <trkpt lat="13.220676" lon="99.777672">
        <ele>50.4</ele>
        <time>2023-11-04T08:15:15Z</time>
      </trkpt>
      <trkpt lat="13.220751" lon="99.777642">
        <ele>50.0</ele>
        <time>2023-11-04T08:15:17Z</time>
      </trkpt>
      <trkpt lat="13.220803" lon="99.777638">
        <ele>51.0</ele>
        <time>2023-11-04T08:15:19Z</time>
      </trkpt>
      <trkpt lat="13.221084" lon="99.777541">
        <ele>50.6</ele>
        <time>2023-11-04T08:15:26Z</time>
      </trkpt>
      <trkpt lat="13.221423" lon="99.777463">
        <ele>50.9</ele>
        <time>2023-11-04T08:15:34Z</time>
      </trkpt>
      <trkpt lat="13.221469" lon="99.777461">
        <ele>50.6</ele>
        <time>2023-11-04T08:15:35Z</time>
      </trkpt>
      <trkpt lat="13.221603" lon="99.777413">
        <ele>50.8</ele>
        <time>2023-11-04T08:15:38Z</time>
      </trkpt>
      <trkpt lat="13.221701" lon="99.777399">
        <ele>51.8</ele>
        <time>2023-11-04T08:15:40Z</time>
      </trkpt>
      <trkpt lat="13.221885" lon="99.777354">
        <ele>51.6</ele>
        <time>2023-11-04T08:15:44Z</time>
      </trkpt>
      <trkpt lat="13.221976" lon="99.777344">
        <ele>51.4</ele>
        <time>2023-11-04T08:15:46Z</time>
      </trkpt>
      <trkpt lat="13.222066" lon="99.777308">
        <ele>50.6</ele>
        <time>2023-11-04T08:15:48Z</time>
      </trkpt>
      <trkpt lat="13.222211" lon="99.777298">
        <ele>51.3</ele>
        <time>2023-11-04T08:15:51Z</time>
      </trkpt>
      <trkpt lat="13.222302" lon="99.777272">
        <ele>51.4</ele>
        <time>2023-11-04T08:15:53Z</time>
      </trkpt>
      <trkpt lat="13.222402" lon="99.777271">
        <ele>51.0</ele>
        <time>2023-11-04T08:15:55Z</time>
      </trkpt>
      <trkpt lat="13.222635" lon="99.777164">
        <ele>50.4</ele>
        <time>2023-11-04T08:16:00Z</time>
      </trkpt>
      <trkpt lat="13.222761" lon="99.777128">
        <ele>50.2</ele>
        <time>2023-11-04T08:16:02Z</time>
      </trkpt>
      <trkpt lat="13.222771" lon="99.777085">
        <ele>50.3</ele>
        <time>2023-11-04T08:16:03Z</time>
      </trkpt>
      <trkpt lat="13.222803" lon="99.777055">
        <ele>50.2</ele>
        <time>2023-11-04T08:16:04Z</time>
      </trkpt>
      <trkpt lat="13.222947" lon="99.776969">
        <ele>50.0</ele>
        <time>2023-11-04T08:16:08Z</time>
      </trkpt>
      <trkpt lat="13.222995" lon="99.776966">
        <ele>50.1</ele>
        <time>2023-11-04T08:16:10Z</time>
      </trkpt>
      <trkpt lat="13.223060" lon="99.776935">
        <ele>50.0</ele>
        <time>2023-11-04T08:16:12Z</time>
      </trkpt>
      <trkpt lat="13.223100" lon="99.776966">
        <ele>50.0</ele>
        <time>2023-11-04T08:16:14Z</time>
      </trkpt>
      <trkpt lat="13.223112" lon="99.777011">
        <ele>49.8</ele>
        <time>2023-11-04T08:16:16Z</time>
      </trkpt>
      <trkpt lat="13.223139" lon="99.777046">
        <ele>49.9</ele>
        <time>2023-11-04T08:16:17Z</time>
      </trkpt>
      <trkpt lat="13.223178" lon="99.777066">
        <ele>49.0</ele>
        <time>2023-11-04T08:16:18Z</time>
      </trkpt>
      <trkpt lat="13.223261" lon="99.777168">
        <ele>49.5</ele>
        <time>2023-11-04T08:16:24Z</time>
      </trkpt>
      <trkpt lat="13.223259" lon="99.777215">
        <ele>49.5</ele>
        <time>2023-11-04T08:16:25Z</time>
      </trkpt>
      <trkpt lat="13.223229" lon="99.777294">
        <ele>49.4</ele>
        <time>2023-11-04T08:16:27Z</time>
      </trkpt>
      <trkpt lat="13.223244" lon="99.777334">
        <ele>49.5</ele>
        <time>2023-11-04T08:16:28Z</time>
      </trkpt>
      <trkpt lat="13.223274" lon="99.777356">
        <ele>49.4</ele>
        <time>2023-11-04T08:16:29Z</time>
      </trkpt>
      <trkpt lat="13.223347" lon="99.777370">
        <ele>49.2</ele>
        <time>2023-11-04T08:16:31Z</time>
      </trkpt>
      <trkpt lat="13.223383" lon="99.777364">
        <ele>49.3</ele>
        <time>2023-11-04T08:16:32Z</time>
      </trkpt>
      <trkpt lat="13.223467" lon="99.777374">
        <ele>49.3</ele>
        <time>2023-11-04T08:16:34Z</time>
      </trkpt>
      <trkpt lat="13.223539" lon="99.777334">
        <ele>49.1</ele>
        <time>2023-11-04T08:16:36Z</time>
      </trkpt>
      <trkpt lat="13.223600" lon="99.777282">
        <ele>49.3</ele>
        <time>2023-11-04T08:16:38Z</time>
      </trkpt>
      <trkpt lat="13.223640" lon="99.777268">
        <ele>49.4</ele>
        <time>2023-11-04T08:16:39Z</time>
      </trkpt>
      <trkpt lat="13.223686" lon="99.777282">
        <ele>49.2</ele>
        <time>2023-11-04T08:16:40Z</time>
      </trkpt>
      <trkpt lat="13.223734" lon="99.777279">
        <ele>49.1</ele>
        <time>2023-11-04T08:16:41Z</time>
      </trkpt>
      <trkpt lat="13.223856" lon="99.777222">
        <ele>48.9</ele>
        <time>2023-11-04T08:16:44Z</time>
      </trkpt>
      <trkpt lat="13.223902" lon="99.777225">
        <ele>48.8</ele>
        <time>2023-11-04T08:16:45Z</time>
      </trkpt>
      <trkpt lat="13.223992" lon="99.777266">
        <ele>48.7</ele>
        <time>2023-11-04T08:16:47Z</time>
      </trkpt>
      <trkpt lat="13.224281" lon="99.777256">
        <ele>48.7</ele>
        <time>2023-11-04T08:16:53Z</time>
      </trkpt>
      <trkpt lat="13.224479" lon="99.777308">
        <ele>48.3</ele>
        <time>2023-11-04T08:16:57Z</time>
      </trkpt>
      <trkpt lat="13.224564" lon="99.777367">
        <ele>48.1</ele>
        <time>2023-11-04T08:16:59Z</time>
      </trkpt>
      <trkpt lat="13.224657" lon="99.777412">
        <ele>48.0</ele>
        <time>2023-11-04T08:17:01Z</time>
      </trkpt>
      <trkpt lat="13.224755" lon="99.777410">
        <ele>47.9</ele>
        <time>2023-11-04T08:17:03Z</time>
      </trkpt>
      <trkpt lat="13.224857" lon="99.777438">
        <ele>47.7</ele>
        <time>2023-11-04T08:17:05Z</time>
      </trkpt>
      <trkpt lat="13.224937" lon="99.777500">
        <ele>47.4</ele>
        <time>2023-11-04T08:17:07Z</time>
      </trkpt>
      <trkpt lat="13.225021" lon="99.777679">
        <ele>47.3</ele>
        <time>2023-11-04T08:17:11Z</time>
      </trkpt>
      <trkpt lat="13.225132" lon="99.777874">
        <ele>46.6</ele>
        <time>2023-11-04T08:17:16Z</time>
      </trkpt>
      <trkpt lat="13.225107" lon="99.778011">
        <ele>45.8</ele>
        <time>2023-11-04T08:17:19Z</time>
      </trkpt>
      <trkpt lat="13.225140" lon="99.778094">
        <ele>46.0</ele>
        <time>2023-11-04T08:17:21Z</time>
      </trkpt>
      <trkpt lat="13.225140" lon="99.778136">
        <ele>45.9</ele>
        <time>2023-11-04T08:17:22Z</time>
      </trkpt>
      <trkpt lat="13.225174" lon="99.778224">
        <ele>45.7</ele>
        <time>2023-11-04T08:17:24Z</time>
      </trkpt>
      <trkpt lat="13.225222" lon="99.778304">
        <ele>45.5</ele>
        <time>2023-11-04T08:17:26Z</time>
      </trkpt>
      <trkpt lat="13.225224" lon="99.778391">
        <ele>44.9</ele>
        <time>2023-11-04T08:17:28Z</time>
      </trkpt>
      <trkpt lat="13.225204" lon="99.778424">
        <ele>44.7</ele>
        <time>2023-11-04T08:17:29Z</time>
      </trkpt>
      <trkpt lat="13.225192" lon="99.778476">
        <ele>44.0</ele>
        <time>2023-11-04T08:17:30Z</time>
      </trkpt>
      <trkpt lat="13.225234" lon="99.778523">
        <ele>43.5</ele>
        <time>2023-11-04T08:17:32Z</time>
      </trkpt>
      <trkpt lat="13.225254" lon="99.778577">
        <ele>43.1</ele>
        <time>2023-11-04T08:17:33Z</time>
      </trkpt>
      <trkpt lat="13.225343" lon="99.778713">
        <ele>43.3</ele>
        <time>2023-11-04T08:17:36Z</time>
      </trkpt>
      <trkpt lat="13.225380" lon="99.778749">
        <ele>43.2</ele>
        <time>2023-11-04T08:17:37Z</time>
      </trkpt>
      <trkpt lat="13.225428" lon="99.778775">
        <ele>43.1</ele>
        <time>2023-11-04T08:17:38Z</time>
      </trkpt>
      <trkpt lat="13.225578" lon="99.778819">
        <ele>42.8</ele>
        <time>2023-11-04T08:17:41Z</time>
      </trkpt>
      <trkpt lat="13.225698" lon="99.778906">
        <ele>42.7</ele>
        <time>2023-11-04T08:17:44Z</time>
      </trkpt>
      <trkpt lat="13.225740" lon="99.778929">
        <ele>42.7</ele>
        <time>2023-11-04T08:17:45Z</time>
      </trkpt>
      <trkpt lat="13.225786" lon="99.778933">
        <ele>42.6</ele>
        <time>2023-11-04T08:17:46Z</time>
      </trkpt>
      <trkpt lat="13.225824" lon="99.778958">
        <ele>42.7</ele>
        <time>2023-11-04T08:17:47Z</time>
      </trkpt>
      <trkpt lat="13.225862" lon="99.779089">
        <ele>42.3</ele>
        <time>2023-11-04T08:17:50Z</time>
      </trkpt>
      <trkpt lat="13.225886" lon="99.779135">
        <ele>42.0</ele>
        <time>2023-11-04T08:17:51Z</time>
      </trkpt>
      <trkpt lat="13.225930" lon="99.779147">
        <ele>42.8</ele>
        <time>2023-11-04T08:17:53Z</time>
      </trkpt>
      <trkpt lat="13.225971" lon="99.779138">
        <ele>43.3</ele>
        <time>2023-11-04T08:17:54Z</time>
      </trkpt>
      <trkpt lat="13.226124" lon="99.779181">
        <ele>43.7</ele>
        <time>2023-11-04T08:17:58Z</time>
      </trkpt>
      <trkpt lat="13.226189" lon="99.779229">
        <ele>44.0</ele>
        <time>2023-11-04T08:18:00Z</time>
      </trkpt>
      <trkpt lat="13.226237" lon="99.779322">
        <ele>44.7</ele>
        <time>2023-11-04T08:18:04Z</time>
      </trkpt>
      <trkpt lat="13.226265" lon="99.779533">
        <ele>45.0</ele>
        <time>2023-11-04T08:18:10Z</time>
      </trkpt>
      <trkpt lat="13.226259" lon="99.779616">
        <ele>44.9</ele>
        <time>2023-11-04T08:18:12Z</time>
      </trkpt>
      <trkpt lat="13.226275" lon="99.779809">
        <ele>44.5</ele>
        <time>2023-11-04T08:18:17Z</time>
      </trkpt>
      <trkpt lat="13.226325" lon="99.779859">
        <ele>44.8</ele>
        <time>2023-11-04T08:18:19Z</time>
      </trkpt>
      <trkpt lat="13.226333" lon="99.779888">
        <ele>44.6</ele>
        <time>2023-11-04T08:18:20Z</time>
      </trkpt>
      <trkpt lat="13.226302" lon="99.780014">
        <ele>44.3</ele>
        <time>2023-11-04T08:18:23Z</time>
      </trkpt>
      <trkpt lat="13.226335" lon="99.780241">
        <ele>42.8</ele>
        <time>2023-11-04T08:18:28Z</time>
      </trkpt>
      <trkpt lat="13.226298" lon="99.780422">
        <ele>43.2</ele>
        <time>2023-11-04T08:18:32Z</time>
      </trkpt>
      <trkpt lat="13.226341" lon="99.780494">
        <ele>42.8</ele>
        <time>2023-11-04T08:18:34Z</time>
      </trkpt>
      <trkpt lat="13.226378" lon="99.780637">
        <ele>41.4</ele>
        <time>2023-11-04T08:18:37Z</time>
      </trkpt>
      <trkpt lat="13.226440" lon="99.780728">
        <ele>41.6</ele>
        <time>2023-11-04T08:18:39Z</time>
      </trkpt>
      <trkpt lat="13.226489" lon="99.780749">
        <ele>42.0</ele>
        <time>2023-11-04T08:18:40Z</time>
      </trkpt>
      <trkpt lat="13.226611" lon="99.780757">
        <ele>42.2</ele>
        <time>2023-11-04T08:18:43Z</time>
      </trkpt>
      <trkpt lat="13.226804" lon="99.780713">
        <ele>41.8</ele>
        <time>2023-11-04T08:18:48Z</time>
      </trkpt>
      <trkpt lat="13.226880" lon="99.780677">
        <ele>41.8</ele>
        <time>2023-11-04T08:18:50Z</time>
      </trkpt>
      <trkpt lat="13.226948" lon="99.780626">
        <ele>42.8</ele>
        <time>2023-11-04T08:18:52Z</time>
      </trkpt>
      <trkpt lat="13.226965" lon="99.780584">
        <ele>42.6</ele>
        <time>2023-11-04T08:18:53Z</time>
      </trkpt>
      <trkpt lat="13.226965" lon="99.780539">
        <ele>42.5</ele>
        <time>2023-11-04T08:18:54Z</time>
      </trkpt>
      <trkpt lat="13.226999" lon="99.780505">
        <ele>41.6</ele>
        <time>2023-11-04T08:18:55Z</time>
      </trkpt>
      <trkpt lat="13.227034" lon="99.780428">
        <ele>41.8</ele>
        <time>2023-11-04T08:18:57Z</time>
      </trkpt>
      <trkpt lat="13.227086" lon="99.780357">
        <ele>42.4</ele>
        <time>2023-11-04T08:18:59Z</time>
      </trkpt>
      <trkpt lat="13.227141" lon="99.780294">
        <ele>43.1</ele>
        <time>2023-11-04T08:19:01Z</time>
      </trkpt>
      <trkpt lat="13.227256" lon="99.780243">
        <ele>42.0</ele>
        <time>2023-11-04T08:19:04Z</time>
      </trkpt>
      <trkpt lat="13.227453" lon="99.780260">
        <ele>43.8</ele>
        <time>2023-11-04T08:19:09Z</time>
      </trkpt>
      <trkpt lat="13.227510" lon="99.780256">
        <ele>43.4</ele>
        <time>2023-11-04T08:19:10Z</time>
      </trkpt>
      <trkpt lat="13.227615" lon="99.780200">
        <ele>43.1</ele>
        <time>2023-11-04T08:19:12Z</time>
      </trkpt>
      <trkpt lat="13.227675" lon="99.780190">
        <ele>43.1</ele>
        <time>2023-11-04T08:19:13Z</time>
      </trkpt>
      <trkpt lat="13.227727" lon="99.780214">
        <ele>43.5</ele>
        <time>2023-11-04T08:19:14Z</time>
      </trkpt>
      <trkpt lat="13.227817" lon="99.780286">
        <ele>43.3</ele>
        <time>2023-11-04T08:19:16Z</time>
      </trkpt>
      <trkpt lat="13.227917" lon="99.780392">
        <ele>43.8</ele>
        <time>2023-11-04T08:19:19Z</time>
      </trkpt>
      <trkpt lat="13.228005" lon="99.780416">
        <ele>44.1</ele>
        <time>2023-11-04T08:19:21Z</time>
      </trkpt>
      <trkpt lat="13.228043" lon="99.780407">
        <ele>44.2</ele>
        <time>2023-11-04T08:19:22Z</time>
      </trkpt>
      <trkpt lat="13.228124" lon="99.780287">
        <ele>44.5</ele>
        <time>2023-11-04T08:19:25Z</time>
      </trkpt>
      <trkpt lat="13.228168" lon="99.780153">
        <ele>44.5</ele>
        <time>2023-11-04T08:19:28Z</time>
      </trkpt>
      <trkpt lat="13.228220" lon="99.780073">
        <ele>44.1</ele>
        <time>2023-11-04T08:19:30Z</time>
      </trkpt>
      <trkpt lat="13.228236" lon="99.780032">
        <ele>44.9</ele>
        <time>2023-11-04T08:19:31Z</time>
      </trkpt>
      <trkpt lat="13.228386" lon="99.779817">
        <ele>45.3</ele>
        <time>2023-11-04T08:19:37Z</time>
      </trkpt>
      <trkpt lat="13.228487" lon="99.779645">
        <ele>45.7</ele>
        <time>2023-11-04T08:19:42Z</time>
      </trkpt>
      <trkpt lat="13.228533" lon="99.779537">
        <ele>44.0</ele>
        <time>2023-11-04T08:19:45Z</time>
      </trkpt>
      <trkpt lat="13.228581" lon="99.779538">
        <ele>45.4</ele>
        <time>2023-11-04T08:19:47Z</time>
      </trkpt>
      <trkpt lat="13.228632" lon="99.779586">
        <ele>45.2</ele>
        <time>2023-11-04T08:19:49Z</time>
      </trkpt>
      <trkpt lat="13.228663" lon="99.779598">
        <ele>45.0</ele>
        <time>2023-11-04T08:19:50Z</time>
      </trkpt>
      <trkpt lat="13.228712" lon="99.779648">
        <ele>44.9</ele>
        <time>2023-11-04T08:19:52Z</time>
      </trkpt>
      <trkpt lat="13.228765" lon="99.779681">
        <ele>44.2</ele>
        <time>2023-11-04T08:19:54Z</time>
      </trkpt>
      <trkpt lat="13.228832" lon="99.779747">
        <ele>44.3</ele>
        <time>2023-11-04T08:19:57Z</time>
      </trkpt>
      <trkpt lat="13.228893" lon="99.779769">
        <ele>43.7</ele>
        <time>2023-11-04T08:19:59Z</time>
      </trkpt>
      <trkpt lat="13.228961" lon="99.779763">
        <ele>44.1</ele>
        <time>2023-11-04T08:20:01Z</time>
      </trkpt>
      <trkpt lat="13.229210" lon="99.779828">
        <ele>43.9</ele>
        <time>2023-11-04T08:20:08Z</time>
      </trkpt>
      <trkpt lat="13.229281" lon="99.779817">
        <ele>44.1</ele>
        <time>2023-11-04T08:20:10Z</time>
      </trkpt>
      <trkpt lat="13.229435" lon="99.779739">
        <ele>44.2</ele>
        <time>2023-11-04T08:20:15Z</time>
      </trkpt>
      <trkpt lat="13.229470" lon="99.779757">
        <ele>44.0</ele>
        <time>2023-11-04T08:20:16Z</time>
      </trkpt>
      <trkpt lat="13.229509" lon="99.779828">
        <ele>44.3</ele>
        <time>2023-11-04T08:20:18Z</time>
      </trkpt>
      <trkpt lat="13.229583" lon="99.779876">
        <ele>44.1</ele>
        <time>2023-11-04T08:20:20Z</time>
      </trkpt>
      <trkpt lat="13.229704" lon="99.779896">
        <ele>43.9</ele>
        <time>2023-11-04T08:20:23Z</time>
      </trkpt>
      <trkpt lat="13.229778" lon="99.779928">
        <ele>43.8</ele>
        <time>2023-11-04T08:20:25Z</time>
      </trkpt>
      <trkpt lat="13.229833" lon="99.779989">
        <ele>43.2</ele>
        <time>2023-11-04T08:20:27Z</time>
      </trkpt>
      <trkpt lat="13.229967" lon="99.780052">
        <ele>42.8</ele>
        <time>2023-11-04T08:20:31Z</time>
      </trkpt>
      <trkpt lat="13.229996" lon="99.780088">
        <ele>42.6</ele>
        <time>2023-11-04T08:20:32Z</time>
      </trkpt>
      <trkpt lat="13.230016" lon="99.780172">
        <ele>42.6</ele>
        <time>2023-11-04T08:20:34Z</time>
      </trkpt>
      <trkpt lat="13.230081" lon="99.780270">
        <ele>42.4</ele>
        <time>2023-11-04T08:20:37Z</time>
      </trkpt>
      <trkpt lat="13.230122" lon="99.780272">
        <ele>38.0</ele>
        <time>2023-11-04T08:20:55Z</time>
      </trkpt>
      <trkpt lat="13.230191" lon="99.780332">
        <ele>41.0</ele>
        <time>2023-11-04T08:21:30Z</time>
      </trkpt>
      <trkpt lat="13.230164" lon="99.780375">
        <ele>41.9</ele>
        <time>2023-11-04T08:21:32Z</time>
      </trkpt>
      <trkpt lat="13.230133" lon="99.780391">
        <ele>42.0</ele>
        <time>2023-11-04T08:21:33Z</time>
      </trkpt>
      <trkpt lat="13.230091" lon="99.780440">
        <ele>42.0</ele>
        <time>2023-11-04T08:21:35Z</time>
      </trkpt>
      <trkpt lat="13.229982" lon="99.780678">
        <ele>42.4</ele>
        <time>2023-11-04T08:21:42Z</time>
      </trkpt>
      <trkpt lat="13.229954" lon="99.780693">
        <ele>42.8</ele>
        <time>2023-11-04T08:21:43Z</time>
      </trkpt>
      <trkpt lat="13.229858" lon="99.780791">
        <ele>42.0</ele>
        <time>2023-11-04T08:21:48Z</time>
      </trkpt>
      <trkpt lat="13.229869" lon="99.780844">
        <ele>42.0</ele>
        <time>2023-11-04T08:21:50Z</time>
      </trkpt>
      <trkpt lat="13.229909" lon="99.780857">
        <ele>42.4</ele>
        <time>2023-11-04T08:21:52Z</time>
      </trkpt>
      <trkpt lat="13.229939" lon="99.780848">
        <ele>42.0</ele>
        <time>2023-11-04T08:21:53Z</time>
      </trkpt>
      <trkpt lat="13.230007" lon="99.780859">
        <ele>41.8</ele>
        <time>2023-11-04T08:21:55Z</time>
      </trkpt>
      <trkpt lat="13.230093" lon="99.780831">
        <ele>40.0</ele>
        <time>2023-11-04T08:21:58Z</time>
      </trkpt>
      <trkpt lat="13.230136" lon="99.780829">
        <ele>40.0</ele>
        <time>2023-11-04T08:22:00Z</time>
      </trkpt>
      <trkpt lat="13.230179" lon="99.780843">
        <ele>41.7</ele>
        <time>2023-11-04T08:22:02Z</time>
      </trkpt>
      <trkpt lat="13.230198" lon="99.780880">
        <ele>40.0</ele>
        <time>2023-11-04T08:22:03Z</time>
      </trkpt>
      <trkpt lat="13.230277" lon="99.780898">
        <ele>40.0</ele>
        <time>2023-11-04T08:22:07Z</time>
      </trkpt>
      <trkpt lat="13.230321" lon="99.780877">
        <ele>40.0</ele>
        <time>2023-11-04T08:22:10Z</time>
      </trkpt>
      <trkpt lat="13.230370" lon="99.780870">
        <ele>40.0</ele>
        <time>2023-11-04T08:22:15Z</time>
      </trkpt>
      <trkpt lat="13.230456" lon="99.780921">
        <ele>40.0</ele>
        <time>2023-11-04T08:22:24Z</time>
      </trkpt>
      <trkpt lat="13.230504" lon="99.780986">
        <ele>40.0</ele>
        <time>2023-11-04T08:22:30Z</time>
      </trkpt>
      <trkpt lat="13.230549" lon="99.780947">
        <ele>40.0</ele>
        <time>2023-11-04T08:25:07Z</time>
      </trkpt>
      <trkpt lat="13.230644" lon="99.781203">
        <ele>41.5</ele>
        <time>2023-11-04T08:25:18Z</time>
      </trkpt>
      <trkpt lat="13.230636" lon="99.781239">
        <ele>40.0</ele>
        <time>2023-11-04T08:25:19Z</time>
      </trkpt>
      <trkpt lat="13.230716" lon="99.781269">
        <ele>41.7</ele>
        <time>2023-11-04T08:25:23Z</time>
      </trkpt>
      <trkpt lat="13.230754" lon="99.781248">
        <ele>40.0</ele>
        <time>2023-11-04T08:25:24Z</time>
      </trkpt>
      <trkpt lat="13.230869" lon="99.781112">
        <ele>40.0</ele>
        <time>2023-11-04T08:25:30Z</time>
      </trkpt>
      <trkpt lat="13.230912" lon="99.781088">
        <ele>41.7</ele>
        <time>2023-11-04T08:25:32Z</time>
      </trkpt>
      <trkpt lat="13.230979" lon="99.781017">
        <ele>42.1</ele>
        <time>2023-11-04T08:25:35Z</time>
      </trkpt>
      <trkpt lat="13.231006" lon="99.781003">
        <ele>42.0</ele>
        <time>2023-11-04T08:25:36Z</time>
      </trkpt>
      <trkpt lat="13.231050" lon="99.781057">
        <ele>41.8</ele>
        <time>2023-11-04T08:25:39Z</time>
      </trkpt>
      <trkpt lat="13.231158" lon="99.781146">
        <ele>41.5</ele>
        <time>2023-11-04T08:25:43Z</time>
      </trkpt>
      <trkpt lat="13.231193" lon="99.781154">
        <ele>41.6</ele>
        <time>2023-11-04T08:25:44Z</time>
      </trkpt>
      <trkpt lat="13.231270" lon="99.781126">
        <ele>42.2</ele>
        <time>2023-11-04T08:25:47Z</time>
      </trkpt>
      <trkpt lat="13.231306" lon="99.781139">
        <ele>41.8</ele>
        <time>2023-11-04T08:25:48Z</time>
      </trkpt>
      <trkpt lat="13.231330" lon="99.781169">
        <ele>42.0</ele>
        <time>2023-11-04T08:25:49Z</time>
      </trkpt>
      <trkpt lat="13.231331" lon="99.781215">
        <ele>42.2</ele>
        <time>2023-11-04T08:25:50Z</time>
      </trkpt>
      <trkpt lat="13.231361" lon="99.781366">
        <ele>41.9</ele>
        <time>2023-11-04T08:25:54Z</time>
      </trkpt>
      <trkpt lat="13.231461" lon="99.781482">
        <ele>40.0</ele>
        <time>2023-11-04T08:25:58Z</time>
      </trkpt>
      <trkpt lat="13.231443" lon="99.781561">
        <ele>41.7</ele>
        <time>2023-11-04T08:26:01Z</time>
      </trkpt>
      <trkpt lat="13.231459" lon="99.781594">
        <ele>41.8</ele>
        <time>2023-11-04T08:26:02Z</time>
      </trkpt>
      <trkpt lat="13.231517" lon="99.781634">
        <ele>41.7</ele>
        <time>2023-11-04T08:26:04Z</time>
      </trkpt>
      <trkpt lat="13.231566" lon="99.781738">
        <ele>41.5</ele>
        <time>2023-11-04T08:26:07Z</time>
      </trkpt>
      <trkpt lat="13.231587" lon="99.781811">
        <ele>41.3</ele>
        <time>2023-11-04T08:26:09Z</time>
      </trkpt>
      <trkpt lat="13.231583" lon="99.781850">
        <ele>41.1</ele>
        <time>2023-11-04T08:26:10Z</time>
      </trkpt>
      <trkpt lat="13.231625" lon="99.781906">
        <ele>41.3</ele>
        <time>2023-11-04T08:26:12Z</time>
      </trkpt>
      <trkpt lat="13.231679" lon="99.782005">
        <ele>41.1</ele>
        <time>2023-11-04T08:26:15Z</time>
      </trkpt>
      <trkpt lat="13.231747" lon="99.782058">
        <ele>40.9</ele>
        <time>2023-11-04T08:26:17Z</time>
      </trkpt>
      <trkpt lat="13.231822" lon="99.782078">
        <ele>40.6</ele>
        <time>2023-11-04T08:26:19Z</time>
      </trkpt>
      <trkpt lat="13.231938" lon="99.782083">
        <ele>40.7</ele>
        <time>2023-11-04T08:26:22Z</time>
      </trkpt>
      <trkpt lat="13.232009" lon="99.782051">
        <ele>40.5</ele>
        <time>2023-11-04T08:26:24Z</time>
      </trkpt>
      <trkpt lat="13.232090" lon="99.782076">
        <ele>40.6</ele>
        <time>2023-11-04T08:26:26Z</time>
      </trkpt>
      <trkpt lat="13.232200" lon="99.782246">
        <ele>40.4</ele>
        <time>2023-11-04T08:26:31Z</time>
      </trkpt>
      <trkpt lat="13.232227" lon="99.782321">
        <ele>40.3</ele>
        <time>2023-11-04T08:26:33Z</time>
      </trkpt>
      <trkpt lat="13.232250" lon="99.782351">
        <ele>40.2</ele>
        <time>2023-11-04T08:26:34Z</time>
      </trkpt>
      <trkpt lat="13.232286" lon="99.782369">
        <ele>40.0</ele>
        <time>2023-11-04T08:26:35Z</time>
      </trkpt>
      <trkpt lat="13.232326" lon="99.782374">
        <ele>40.1</ele>
        <time>2023-11-04T08:26:36Z</time>
      </trkpt>
      <trkpt lat="13.232428" lon="99.782433">
        <ele>40.1</ele>
        <time>2023-11-04T08:26:39Z</time>
      </trkpt>
      <trkpt lat="13.232574" lon="99.782486">
        <ele>40.0</ele>
        <time>2023-11-04T08:26:43Z</time>
      </trkpt>
      <trkpt lat="13.232692" lon="99.782492">
        <ele>39.9</ele>
        <time>2023-11-04T08:26:46Z</time>
      </trkpt>
      <trkpt lat="13.232821" lon="99.782459">
        <ele>41.5</ele>
        <time>2023-11-04T08:26:50Z</time>
      </trkpt>
      <trkpt lat="13.232888" lon="99.782485">
        <ele>41.2</ele>
        <time>2023-11-04T08:26:52Z</time>
      </trkpt>
      <trkpt lat="13.232959" lon="99.782482">
        <ele>41.0</ele>
        <time>2023-11-04T08:26:54Z</time>
      </trkpt>
      <trkpt lat="13.232999" lon="99.782462">
        <ele>42.3</ele>
        <time>2023-11-04T08:26:56Z</time>
      </trkpt>
      <trkpt lat="13.233029" lon="99.782473">
        <ele>42.2</ele>
        <time>2023-11-04T08:26:57Z</time>
      </trkpt>
      <trkpt lat="13.233068" lon="99.782528">
        <ele>42.0</ele>
        <time>2023-11-04T08:26:59Z</time>
      </trkpt>
      <trkpt lat="13.233170" lon="99.782568">
        <ele>41.6</ele>
        <time>2023-11-04T08:27:02Z</time>
      </trkpt>
      <trkpt lat="13.233193" lon="99.782594">
        <ele>41.4</ele>
        <time>2023-11-04T08:27:03Z</time>
      </trkpt>
      <trkpt lat="13.233217" lon="99.782706">
        <ele>40.8</ele>
        <time>2023-11-04T08:27:06Z</time>
      </trkpt>
      <trkpt lat="13.233283" lon="99.782757">
        <ele>40.8</ele>
        <time>2023-11-04T08:27:08Z</time>
      </trkpt>
      <trkpt lat="13.233456" lon="99.782929">
        <ele>40.6</ele>
        <time>2023-11-04T08:27:14Z</time>
      </trkpt>
      <trkpt lat="13.233521" lon="99.782978">
        <ele>40.3</ele>
        <time>2023-11-04T08:27:16Z</time>
      </trkpt>
      <trkpt lat="13.233571" lon="99.783046">
        <ele>40.1</ele>
        <time>2023-11-04T08:27:18Z</time>
      </trkpt>
      <trkpt lat="13.233716" lon="99.783189">
        <ele>40.1</ele>
        <time>2023-11-04T08:27:23Z</time>
      </trkpt>
      <trkpt lat="13.233761" lon="99.783245">
        <ele>40.2</ele>
        <time>2023-11-04T08:27:25Z</time>
      </trkpt>
      <trkpt lat="13.233767" lon="99.783277">
        <ele>40.1</ele>
        <time>2023-11-04T08:27:26Z</time>
      </trkpt>
      <trkpt lat="13.233757" lon="99.783306">
        <ele>39.8</ele>
        <time>2023-11-04T08:27:27Z</time>
      </trkpt>
      <trkpt lat="13.233692" lon="99.783342">
        <ele>40.1</ele>
        <time>2023-11-04T08:27:29Z</time>
      </trkpt>
      <trkpt lat="13.233516" lon="99.783542">
        <ele>39.7</ele>
        <time>2023-11-04T08:27:35Z</time>
      </trkpt>
      <trkpt lat="13.233419" lon="99.783636">
        <ele>39.9</ele>
        <time>2023-11-04T08:27:38Z</time>
      </trkpt>
      <trkpt lat="13.233346" lon="99.783750">
        <ele>39.4</ele>
        <time>2023-11-04T08:27:41Z</time>
      </trkpt>
      <trkpt lat="13.233330" lon="99.783790">
        <ele>39.3</ele>
        <time>2023-11-04T08:27:42Z</time>
      </trkpt>
      <trkpt lat="13.233326" lon="99.783874">
        <ele>39.1</ele>
        <time>2023-11-04T08:27:44Z</time>
      </trkpt>
      <trkpt lat="13.233388" lon="99.783998">
        <ele>38.2</ele>
        <time>2023-11-04T08:27:47Z</time>
      </trkpt>
      <trkpt lat="13.233478" lon="99.784038">
        <ele>38.8</ele>
        <time>2023-11-04T08:27:49Z</time>
      </trkpt>
      <trkpt lat="13.233554" lon="99.784058">
        <ele>39.0</ele>
        <time>2023-11-04T08:27:51Z</time>
      </trkpt>
      <trkpt lat="13.233657" lon="99.784361">
        <ele>37.8</ele>
        <time>2023-11-04T08:27:59Z</time>
      </trkpt>
      <trkpt lat="13.233663" lon="99.784403">
        <ele>37.8</ele>
        <time>2023-11-04T08:28:00Z</time>
      </trkpt>
      <trkpt lat="13.233751" lon="99.784569">
        <ele>38.0</ele>
        <time>2023-11-04T08:28:05Z</time>
      </trkpt>
      <trkpt lat="13.233760" lon="99.784627">
        <ele>38.0</ele>
        <time>2023-11-04T08:28:07Z</time>
      </trkpt>
      <trkpt lat="13.233813" lon="99.784703">
        <ele>38.4</ele>
        <time>2023-11-04T08:28:10Z</time>
      </trkpt>
      <trkpt lat="13.233826" lon="99.784746">
        <ele>38.4</ele>
        <time>2023-11-04T08:28:11Z</time>
      </trkpt>
      <trkpt lat="13.233871" lon="99.784798">
        <ele>38.0</ele>
        <time>2023-11-04T08:28:13Z</time>
      </trkpt>
      <trkpt lat="13.233907" lon="99.784792">
        <ele>37.7</ele>
        <time>2023-11-04T08:28:14Z</time>
      </trkpt>
      <trkpt lat="13.234023" lon="99.784698">
        <ele>38.0</ele>
        <time>2023-11-04T08:28:18Z</time>
      </trkpt>
      <trkpt lat="13.234062" lon="99.784686">
        <ele>37.8</ele>
        <time>2023-11-04T08:28:19Z</time>
      </trkpt>
      <trkpt lat="13.234189" lon="99.784678">
        <ele>36.9</ele>
        <time>2023-11-04T08:28:22Z</time>
      </trkpt>
      <trkpt lat="13.234481" lon="99.784611">
        <ele>36.9</ele>
        <time>2023-11-04T08:28:28Z</time>
      </trkpt>
      <trkpt lat="13.234817" lon="99.784494">
        <ele>37.6</ele>
        <time>2023-11-04T08:28:36Z</time>
      </trkpt>
      <trkpt lat="13.234977" lon="99.784514">
        <ele>38.1</ele>
        <time>2023-11-04T08:28:40Z</time>
      </trkpt>
      <trkpt lat="13.235050" lon="99.784512">
        <ele>37.9</ele>
        <time>2023-11-04T08:28:42Z</time>
      </trkpt>
      <trkpt lat="13.235121" lon="99.784489">
        <ele>38.2</ele>
        <time>2023-11-04T08:28:44Z</time>
      </trkpt>
      <trkpt lat="13.235161" lon="99.784493">
        <ele>38.1</ele>
        <time>2023-11-04T08:28:45Z</time>
      </trkpt>
      <trkpt lat="13.235281" lon="99.784535">
        <ele>37.9</ele>
        <time>2023-11-04T08:28:48Z</time>
      </trkpt>
      <trkpt lat="13.235390" lon="99.784531">
        <ele>38.2</ele>
        <time>2023-11-04T08:28:51Z</time>
      </trkpt>
      <trkpt lat="13.235459" lon="99.784504">
        <ele>38.7</ele>
        <time>2023-11-04T08:28:53Z</time>
      </trkpt>
      <trkpt lat="13.235546" lon="99.784531">
        <ele>38.9</ele>
        <time>2023-11-04T08:28:56Z</time>
      </trkpt>
      <trkpt lat="13.235609" lon="99.784631">
        <ele>38.6</ele>
        <time>2023-11-04T08:28:59Z</time>
      </trkpt>
      <trkpt lat="13.235817" lon="99.784826">
        <ele>38.7</ele>
        <time>2023-11-04T08:29:07Z</time>
      </trkpt>
      <trkpt lat="13.236010" lon="99.784892">
        <ele>38.6</ele>
        <time>2023-11-04T08:29:12Z</time>
      </trkpt>
      <trkpt lat="13.236081" lon="99.784947">
        <ele>38.2</ele>
        <time>2023-11-04T08:29:14Z</time>
      </trkpt>
      <trkpt lat="13.236605" lon="99.785466">
        <ele>37.8</ele>
        <time>2023-11-04T08:29:29Z</time>
      </trkpt>
      <trkpt lat="13.236999" lon="99.785840">
        <ele>38.2</ele>
        <time>2023-11-04T08:29:40Z</time>
      </trkpt>
      <trkpt lat="13.237240" lon="99.786106">
        <ele>38.2</ele>
        <time>2023-11-04T08:29:47Z</time>
      </trkpt>
      <trkpt lat="13.237386" lon="99.786318">
        <ele>38.0</ele>
        <time>2023-11-04T08:29:52Z</time>
      </trkpt>
      <trkpt lat="13.237515" lon="99.786628">
        <ele>38.2</ele>
        <time>2023-11-04T08:29:58Z</time>
      </trkpt>
      <trkpt lat="13.237630" lon="99.787085">
        <ele>37.7</ele>
        <time>2023-11-04T08:30:06Z</time>
      </trkpt>
      <trkpt lat="13.237660" lon="99.787316">
        <ele>37.1</ele>
        <time>2023-11-04T08:30:10Z</time>
      </trkpt>
      <trkpt lat="13.237695" lon="99.787357">
        <ele>37.0</ele>
        <time>2023-11-04T08:30:11Z</time>
      </trkpt>
      <trkpt lat="13.237748" lon="99.787366">
        <ele>37.2</ele>
        <time>2023-11-04T08:30:12Z</time>
      </trkpt>
      <trkpt lat="13.237798" lon="99.787349">
        <ele>36.7</ele>
        <time>2023-11-04T08:30:13Z</time>
      </trkpt>
      <trkpt lat="13.237970" lon="99.787250">
        <ele>36.6</ele>
        <time>2023-11-04T08:30:17Z</time>
      </trkpt>
      <trkpt lat="13.238583" lon="99.787096">
        <ele>37.4</ele>
        <time>2023-11-04T08:30:30Z</time>
      </trkpt>
      <trkpt lat="13.238837" lon="99.787039">
        <ele>37.4</ele>
        <time>2023-11-04T08:30:35Z</time>
      </trkpt>
      <trkpt lat="13.239034" lon="99.787009">
        <ele>37.5</ele>
        <time>2023-11-04T08:30:39Z</time>
      </trkpt>
      <trkpt lat="13.239323" lon="99.786923">
        <ele>37.6</ele>
        <time>2023-11-04T08:30:45Z</time>
      </trkpt>
      <trkpt lat="13.239533" lon="99.786879">
        <ele>37.9</ele>
        <time>2023-11-04T08:30:49Z</time>
      </trkpt>
      <trkpt lat="13.239829" lon="99.786783">
        <ele>38.2</ele>
        <time>2023-11-04T08:30:55Z</time>
      </trkpt>
      <trkpt lat="13.240035" lon="99.786742">
        <ele>38.7</ele>
        <time>2023-11-04T08:30:59Z</time>
      </trkpt>
      <trkpt lat="13.240083" lon="99.786726">
        <ele>38.8</ele>
        <time>2023-11-04T08:31:00Z</time>
      </trkpt>
      <trkpt lat="13.240119" lon="99.786691">
        <ele>38.4</ele>
        <time>2023-11-04T08:31:01Z</time>
      </trkpt>
      <trkpt lat="13.240266" lon="99.786656">
        <ele>38.7</ele>
        <time>2023-11-04T08:31:04Z</time>
      </trkpt>
      <trkpt lat="13.240310" lon="99.786635">
        <ele>38.7</ele>
        <time>2023-11-04T08:31:05Z</time>
      </trkpt>
      <trkpt lat="13.240409" lon="99.786617">
        <ele>38.7</ele>
        <time>2023-11-04T08:31:07Z</time>
      </trkpt>
      <trkpt lat="13.240557" lon="99.786560">
        <ele>38.8</ele>
        <time>2023-11-04T08:31:10Z</time>
      </trkpt>
      <trkpt lat="13.240788" lon="99.786494">
        <ele>38.9</ele>
        <time>2023-11-04T08:31:15Z</time>
      </trkpt>
      <trkpt lat="13.241135" lon="99.786375">
        <ele>39.0</ele>
        <time>2023-11-04T08:31:23Z</time>
      </trkpt>
      <trkpt lat="13.241268" lon="99.786361">
        <ele>39.0</ele>
        <time>2023-11-04T08:31:26Z</time>
      </trkpt>
      <trkpt lat="13.241581" lon="99.786290">
        <ele>39.1</ele>
        <time>2023-11-04T08:31:33Z</time>
      </trkpt>
      <trkpt lat="13.241624" lon="99.786292">
        <ele>39.0</ele>
        <time>2023-11-04T08:31:34Z</time>
      </trkpt>
      <trkpt lat="13.241717" lon="99.786277">
        <ele>39.0</ele>
        <time>2023-11-04T08:31:36Z</time>
      </trkpt>
      <trkpt lat="13.241896" lon="99.786211">
        <ele>38.8</ele>
        <time>2023-11-04T08:31:40Z</time>
      </trkpt>
      <trkpt lat="13.242324" lon="99.786171">
        <ele>39.4</ele>
        <time>2023-11-04T08:31:49Z</time>
      </trkpt>
      <trkpt lat="13.242467" lon="99.786131">
        <ele>39.5</ele>
        <time>2023-11-04T08:31:52Z</time>
      </trkpt>
      <trkpt lat="13.242609" lon="99.786104">
        <ele>39.7</ele>
        <time>2023-11-04T08:31:55Z</time>
      </trkpt>
      <trkpt lat="13.242875" lon="99.785989">
        <ele>39.8</ele>
        <time>2023-11-04T08:32:01Z</time>
      </trkpt>
      <trkpt lat="13.242968" lon="99.785970">
        <ele>40.2</ele>
        <time>2023-11-04T08:32:03Z</time>
      </trkpt>
      <trkpt lat="13.243155" lon="99.785892">
        <ele>40.8</ele>
        <time>2023-11-04T08:32:08Z</time>
      </trkpt>
      <trkpt lat="13.243325" lon="99.785845">
        <ele>40.2</ele>
        <time>2023-11-04T08:32:12Z</time>
      </trkpt>
      <trkpt lat="13.243622" lon="99.785732">
        <ele>39.8</ele>
        <time>2023-11-04T08:32:18Z</time>
      </trkpt>
      <trkpt lat="13.243659" lon="99.785678">
        <ele>39.9</ele>
        <time>2023-11-04T08:32:19Z</time>
      </trkpt>
      <trkpt lat="13.244394" lon="99.785344">
        <ele>39.0</ele>
        <time>2023-11-04T08:32:34Z</time>
      </trkpt>
      <trkpt lat="13.244446" lon="99.785332">
        <ele>38.9</ele>
        <time>2023-11-04T08:32:35Z</time>
      </trkpt>
      <trkpt lat="13.244620" lon="99.785209">
        <ele>38.6</ele>
        <time>2023-11-04T08:32:39Z</time>
      </trkpt>
      <trkpt lat="13.244671" lon="99.785189">
        <ele>38.3</ele>
        <time>2023-11-04T08:32:40Z</time>
      </trkpt>
      <trkpt lat="13.244756" lon="99.785118">
        <ele>37.6</ele>
        <time>2023-11-04T08:32:42Z</time>
      </trkpt>
      <trkpt lat="13.244945" lon="99.785103">
        <ele>37.6</ele>
        <time>2023-11-04T08:32:45Z</time>
      </trkpt>
      <trkpt lat="13.245120" lon="99.785110">
        <ele>37.8</ele>
        <time>2023-11-04T08:32:48Z</time>
      </trkpt>
      <trkpt lat="13.245175" lon="99.785097">
        <ele>37.9</ele>
        <time>2023-11-04T08:32:49Z</time>
      </trkpt>
      <trkpt lat="13.245225" lon="99.785106">
        <ele>38.1</ele>
        <time>2023-11-04T08:32:50Z</time>
      </trkpt>
      <trkpt lat="13.245272" lon="99.785128">
        <ele>38.6</ele>
        <time>2023-11-04T08:32:51Z</time>
      </trkpt>
      <trkpt lat="13.245350" lon="99.785120">
        <ele>38.8</ele>
        <time>2023-11-04T08:32:53Z</time>
      </trkpt>
      <trkpt lat="13.245397" lon="99.785104">
        <ele>39.1</ele>
        <time>2023-11-04T08:32:54Z</time>
      </trkpt>
      <trkpt lat="13.245433" lon="99.785111">
        <ele>39.0</ele>
        <time>2023-11-04T08:32:55Z</time>
      </trkpt>
      <trkpt lat="13.245848" lon="99.785370">
        <ele>38.3</ele>
        <time>2023-11-04T08:33:05Z</time>
      </trkpt>
      <trkpt lat="13.246204" lon="99.785404">
        <ele>37.9</ele>
        <time>2023-11-04T08:33:11Z</time>
      </trkpt>
      <trkpt lat="13.246416" lon="99.785465">
        <ele>37.6</ele>
        <time>2023-11-04T08:33:15Z</time>
      </trkpt>
      <trkpt lat="13.246571" lon="99.785529">
        <ele>37.4</ele>
        <time>2023-11-04T08:33:18Z</time>
      </trkpt>
      <trkpt lat="13.246776" lon="99.785691">
        <ele>35.7</ele>
        <time>2023-11-04T08:33:22Z</time>
      </trkpt>
      <trkpt lat="13.246859" lon="99.785800">
        <ele>38.4</ele>
        <time>2023-11-04T08:33:25Z</time>
      </trkpt>
      <trkpt lat="13.246860" lon="99.785928">
        <ele>38.0</ele>
        <time>2023-11-04T08:33:30Z</time>
      </trkpt>
      <trkpt lat="13.246766" lon="99.786175">
        <ele>39.4</ele>
        <time>2023-11-04T08:33:39Z</time>
      </trkpt>
      <trkpt lat="13.246741" lon="99.786356">
        <ele>38.9</ele>
        <time>2023-11-04T08:33:44Z</time>
      </trkpt>
      <trkpt lat="13.246753" lon="99.786392">
        <ele>38.0</ele>
        <time>2023-11-04T08:33:45Z</time>
      </trkpt>
      <trkpt lat="13.246782" lon="99.786426">
        <ele>38.0</ele>
        <time>2023-11-04T08:33:47Z</time>
      </trkpt>
      <trkpt lat="13.246890" lon="99.786473">
        <ele>40.0</ele>
        <time>2023-11-04T08:33:53Z</time>
      </trkpt>
      <trkpt lat="13.246961" lon="99.786518">
        <ele>40.0</ele>
        <time>2023-11-04T08:33:57Z</time>
      </trkpt>
      <trkpt lat="13.247173" lon="99.786597">
        <ele>42.0</ele>
        <time>2023-11-04T08:34:07Z</time>
      </trkpt>
      <trkpt lat="13.247252" lon="99.786614">
        <ele>42.0</ele>
        <time>2023-11-04T08:34:11Z</time>
      </trkpt>
      <trkpt lat="13.247501" lon="99.786719">
        <ele>44.0</ele>
        <time>2023-11-04T08:34:23Z</time>
      </trkpt>
      <trkpt lat="13.247539" lon="99.786748">
        <ele>44.0</ele>
        <time>2023-11-04T08:34:25Z</time>
      </trkpt>
      <trkpt lat="13.247625" lon="99.786788">
        <ele>44.0</ele>
        <time>2023-11-04T08:34:29Z</time>
      </trkpt>
      <trkpt lat="13.247758" lon="99.786843">
        <ele>44.0</ele>
        <time>2023-11-04T08:34:35Z</time>
      </trkpt>
      <trkpt lat="13.247814" lon="99.786853">
        <ele>44.0</ele>
        <time>2023-11-04T08:34:37Z</time>
      </trkpt>
      <trkpt lat="13.248342" lon="99.787087">
        <ele>48.0</ele>
        <time>2023-11-04T08:34:59Z</time>
      </trkpt>
      <trkpt lat="13.248569" lon="99.787166">
        <ele>48.0</ele>
        <time>2023-11-04T08:35:09Z</time>
      </trkpt>
      <trkpt lat="13.248640" lon="99.787226">
        <ele>48.9</ele>
        <time>2023-11-04T08:35:13Z</time>
      </trkpt>
      <trkpt lat="13.248719" lon="99.787319">
        <ele>48.5</ele>
        <time>2023-11-04T08:35:17Z</time>
      </trkpt>
      <trkpt lat="13.248812" lon="99.787368">
        <ele>48.6</ele>
        <time>2023-11-04T08:35:20Z</time>
      </trkpt>
      <trkpt lat="13.249138" lon="99.787509">
        <ele>48.6</ele>
        <time>2023-11-04T08:35:30Z</time>
      </trkpt>
      <trkpt lat="13.249190" lon="99.787550">
        <ele>48.2</ele>
        <time>2023-11-04T08:35:32Z</time>
      </trkpt>
      <trkpt lat="13.249210" lon="99.787579">
        <ele>46.0</ele>
        <time>2023-11-04T08:35:33Z</time>
      </trkpt>
      <trkpt lat="13.249214" lon="99.787627">
        <ele>46.0</ele>
        <time>2023-11-04T08:35:35Z</time>
      </trkpt>
      <trkpt lat="13.249180" lon="99.787674">
        <ele>28.0</ele>
        <time>2023-11-04T08:35:50Z</time>
      </trkpt>
      <trkpt lat="13.249172" lon="99.787703">
        <ele>46.0</ele>
        <time>2023-11-04T08:36:05Z</time>
      </trkpt>
      <trkpt lat="13.249135" lon="99.787737">
        <ele>45.0</ele>
        <time>2023-11-04T08:36:10Z</time>
      </trkpt>
      <trkpt lat="13.249090" lon="99.787834">
        <ele>45.0</ele>
        <time>2023-11-04T08:36:48Z</time>
      </trkpt>
      <trkpt lat="13.249099" lon="99.788015">
        <ele>46.0</ele>
        <time>2023-11-04T08:37:01Z</time>
      </trkpt>
      <trkpt lat="13.249089" lon="99.788062">
        <ele>42.0</ele>
        <time>2023-11-04T08:37:23Z</time>
      </trkpt>
      <trkpt lat="13.249117" lon="99.788084">
        <ele>46.0</ele>
        <time>2023-11-04T08:37:45Z</time>
      </trkpt>
      <trkpt lat="13.249151" lon="99.788093">
        <ele>46.0</ele>
        <time>2023-11-04T08:37:47Z</time>
      </trkpt>
      <trkpt lat="13.249426" lon="99.788004">
        <ele>47.7</ele>
        <time>2023-11-04T08:37:58Z</time>
      </trkpt>
      <trkpt lat="13.249534" lon="99.787937">
        <ele>47.8</ele>
        <time>2023-11-04T08:38:02Z</time>
      </trkpt>
      <trkpt lat="13.249582" lon="99.787891">
        <ele>48.2</ele>
        <time>2023-11-04T08:38:04Z</time>
      </trkpt>
      <trkpt lat="13.249640" lon="99.787811">
        <ele>48.6</ele>
        <time>2023-11-04T08:38:07Z</time>
      </trkpt>
      <trkpt lat="13.249693" lon="99.787769">
        <ele>48.5</ele>
        <time>2023-11-04T08:38:09Z</time>
      </trkpt>
      <trkpt lat="13.249831" lon="99.787565">
        <ele>48.6</ele>
        <time>2023-11-04T08:38:16Z</time>
      </trkpt>
      <trkpt lat="13.249933" lon="99.787353">
        <ele>48.2</ele>
        <time>2023-11-04T08:38:22Z</time>
      </trkpt>
      <trkpt lat="13.249964" lon="99.787151">
        <ele>48.5</ele>
        <time>2023-11-04T08:38:27Z</time>
      </trkpt>
      <trkpt lat="13.250016" lon="99.786958">
        <ele>49.6</ele>
        <time>2023-11-04T08:38:32Z</time>
      </trkpt>
      <trkpt lat="13.250124" lon="99.786399">
        <ele>50.0</ele>
        <time>2023-11-04T08:38:45Z</time>
      </trkpt>
      <trkpt lat="13.250184" lon="99.786137">
        <ele>48.6</ele>
        <time>2023-11-04T08:38:50Z</time>
      </trkpt>
      <trkpt lat="13.250221" lon="99.786089">
        <ele>48.3</ele>
        <time>2023-11-04T08:38:51Z</time>
      </trkpt>
      <trkpt lat="13.250353" lon="99.785738">
        <ele>46.5</ele>
        <time>2023-11-04T08:38:57Z</time>
      </trkpt>
      <trkpt lat="13.250587" lon="99.785451">
        <ele>44.4</ele>
        <time>2023-11-04T08:39:02Z</time>
      </trkpt>
      <trkpt lat="13.250643" lon="99.785400">
        <ele>44.0</ele>
        <time>2023-11-04T08:39:03Z</time>
      </trkpt>
      <trkpt lat="13.250713" lon="99.785370">
        <ele>44.0</ele>
        <time>2023-11-04T08:39:04Z</time>
      </trkpt>
      <trkpt lat="13.250834" lon="99.785274">
        <ele>43.7</ele>
        <time>2023-11-04T08:39:06Z</time>
      </trkpt>
      <trkpt lat="13.250966" lon="99.785216">
        <ele>43.7</ele>
        <time>2023-11-04T08:39:08Z</time>
      </trkpt>
      <trkpt lat="13.251170" lon="99.785156">
        <ele>43.6</ele>
        <time>2023-11-04T08:39:11Z</time>
      </trkpt>
      <trkpt lat="13.251423" lon="99.785121">
        <ele>43.8</ele>
        <time>2023-11-04T08:39:15Z</time>
      </trkpt>
      <trkpt lat="13.251547" lon="99.785145">
        <ele>43.9</ele>
        <time>2023-11-04T08:39:17Z</time>
      </trkpt>
      <trkpt lat="13.251726" lon="99.785129">
        <ele>45.0</ele>
        <time>2023-11-04T08:39:20Z</time>
      </trkpt>
      <trkpt lat="13.251853" lon="99.785149">
        <ele>45.1</ele>
        <time>2023-11-04T08:39:22Z</time>
      </trkpt>
      <trkpt lat="13.252084" lon="99.785152">
        <ele>44.6</ele>
        <time>2023-11-04T08:39:26Z</time>
      </trkpt>
      <trkpt lat="13.252501" lon="99.785223">
        <ele>44.2</ele>
        <time>2023-11-04T08:39:33Z</time>
      </trkpt>
      <trkpt lat="13.252561" lon="99.785217">
        <ele>44.1</ele>
        <time>2023-11-04T08:39:34Z</time>
      </trkpt>
      <trkpt lat="13.252679" lon="99.785234">
        <ele>43.9</ele>
        <time>2023-11-04T08:39:36Z</time>
      </trkpt>
      <trkpt lat="13.252736" lon="99.785263">
        <ele>43.9</ele>
        <time>2023-11-04T08:39:37Z</time>
      </trkpt>
      <trkpt lat="13.252850" lon="99.785274">
        <ele>44.0</ele>
        <time>2023-11-04T08:39:39Z</time>
      </trkpt>
      <trkpt lat="13.253009" lon="99.785313">
        <ele>44.6</ele>
        <time>2023-11-04T08:39:42Z</time>
      </trkpt>
      <trkpt lat="13.253520" lon="99.785387">
        <ele>45.8</ele>
        <time>2023-11-04T08:39:52Z</time>
      </trkpt>
      <trkpt lat="13.253684" lon="99.785386">
        <ele>46.1</ele>
        <time>2023-11-04T08:39:56Z</time>
      </trkpt>
      <trkpt lat="13.253763" lon="99.785396">
        <ele>46.0</ele>
        <time>2023-11-04T08:39:58Z</time>
      </trkpt>
      <trkpt lat="13.253779" lon="99.785495">
        <ele>46.2</ele>
        <time>2023-11-04T08:40:00Z</time>
      </trkpt>
      <trkpt lat="13.253804" lon="99.785532">
        <ele>46.2</ele>
        <time>2023-11-04T08:40:01Z</time>
      </trkpt>
      <trkpt lat="13.253827" lon="99.785623">
        <ele>46.8</ele>
        <time>2023-11-04T08:40:03Z</time>
      </trkpt>
      <trkpt lat="13.253888" lon="99.785778">
        <ele>48.4</ele>
        <time>2023-11-04T08:40:07Z</time>
      </trkpt>
      <trkpt lat="13.253921" lon="99.785779">
        <ele>47.7</ele>
        <time>2023-11-04T08:40:08Z</time>
      </trkpt>
      <trkpt lat="13.254017" lon="99.785852">
        <ele>48.1</ele>
        <time>2023-11-04T08:40:11Z</time>
      </trkpt>
      <trkpt lat="13.254285" lon="99.785984">
        <ele>47.8</ele>
        <time>2023-11-04T08:40:18Z</time>
      </trkpt>
      <trkpt lat="13.254428" lon="99.786074">
        <ele>48.0</ele>
        <time>2023-11-04T08:40:22Z</time>
      </trkpt>
      <trkpt lat="13.254550" lon="99.786132">
        <ele>47.9</ele>
        <time>2023-11-04T08:40:25Z</time>
      </trkpt>
      <trkpt lat="13.254694" lon="99.786185">
        <ele>48.0</ele>
        <time>2023-11-04T08:40:29Z</time>
      </trkpt>
      <trkpt lat="13.254754" lon="99.786235">
        <ele>48.7</ele>
        <time>2023-11-04T08:40:31Z</time>
      </trkpt>
      <trkpt lat="13.254795" lon="99.786245">
        <ele>49.1</ele>
        <time>2023-11-04T08:40:32Z</time>
      </trkpt>
      <trkpt lat="13.254830" lon="99.786270">
        <ele>49.5</ele>
        <time>2023-11-04T08:40:33Z</time>
      </trkpt>
      <trkpt lat="13.255052" lon="99.786371">
        <ele>50.5</ele>
        <time>2023-11-04T08:40:39Z</time>
      </trkpt>
      <trkpt lat="13.255200" lon="99.786451">
        <ele>50.5</ele>
        <time>2023-11-04T08:40:43Z</time>
      </trkpt>
      <trkpt lat="13.255356" lon="99.786502">
        <ele>49.2</ele>
        <time>2023-11-04T08:40:47Z</time>
      </trkpt>
      <trkpt lat="13.255469" lon="99.786553">
        <ele>47.9</ele>
        <time>2023-11-04T08:40:50Z</time>
      </trkpt>
      <trkpt lat="13.255785" lon="99.786731">
        <ele>47.8</ele>
        <time>2023-11-04T08:40:59Z</time>
      </trkpt>
      <trkpt lat="13.255925" lon="99.786768">
        <ele>47.9</ele>
        <time>2023-11-04T08:41:03Z</time>
      </trkpt>
      <trkpt lat="13.255983" lon="99.786814">
        <ele>47.2</ele>
        <time>2023-11-04T08:41:05Z</time>
      </trkpt>
      <trkpt lat="13.256184" lon="99.786915">
        <ele>47.7</ele>
        <time>2023-11-04T08:41:11Z</time>
      </trkpt>
      <trkpt lat="13.256250" lon="99.786962">
        <ele>47.2</ele>
        <time>2023-11-04T08:41:13Z</time>
      </trkpt>
      <trkpt lat="13.256303" lon="99.786963">
        <ele>47.0</ele>
        <time>2023-11-04T08:41:14Z</time>
      </trkpt>
      <trkpt lat="13.256399" lon="99.786911">
        <ele>48.0</ele>
        <time>2023-11-04T08:41:18Z</time>
      </trkpt>
      <trkpt lat="13.256546" lon="99.786908">
        <ele>48.0</ele>
        <time>2023-11-04T08:41:24Z</time>
      </trkpt>
      <trkpt lat="13.256584" lon="99.786936">
        <ele>48.0</ele>
        <time>2023-11-04T08:41:26Z</time>
      </trkpt>
      <trkpt lat="13.256716" lon="99.787099">
        <ele>48.0</ele>
        <time>2023-11-04T08:41:36Z</time>
      </trkpt>
      <trkpt lat="13.256822" lon="99.787151">
        <ele>42.0</ele>
        <time>2023-11-04T08:41:48Z</time>
      </trkpt>
      <trkpt lat="13.256785" lon="99.787137">
        <ele>51.1</ele>
        <time>2023-11-04T08:42:07Z</time>
      </trkpt>
    </trkseg>
  </trk>
</gpx>
